<?xml version='1.0' encoding='UTF-8'?><gpx version="1.1" creator="JPX - https://github.com/jenetics/jpx" xmlns="http://www.topografix.com/GPX/1/1"><trk><trkseg><trkpt lat="43.409107066731345" lon="10.412111934284132"><ele>66.0</ele><time>2026-04-04T08:00:27.173Z</time></trkpt><trkpt lat="43.40905773923118" lon="10.411860728646081"><ele>66.0</ele><time>2026-04-04T08:00:29.163Z</time></trkpt><trkpt lat="43.409042819443535" lon="10.41170868092255"><ele>66.0</ele><time>2026-04-04T08:00:31.169Z</time></trkpt><trkpt lat="43.40901951775272" lon="10.41161497124509"><ele>66.0</ele><time>2026-04-04T08:00:32.164Z</time></trkpt><trkpt lat="43.4089816734599" lon="10.411537606278817"><ele>66.0</ele><time>2026-04-04T08:00:33.173Z</time></trkpt><trkpt lat="43.40896428101082" lon="10.411449512476484"><ele>66.0</ele><time>2026-04-04T08:00:33.954Z</time></trkpt><trkpt lat="43.40892132375706" lon="10.411369968215386"><ele>66.0</ele><time>2026-04-04T08:00:34.957Z</time></trkpt><trkpt lat="43.408865961286615" lon="10.411318503329912"><ele>66.0</ele><time>2026-04-04T08:00:35.948Z</time></trkpt><trkpt lat="43.40880204927493" lon="10.411307355398694"><ele>66.0</ele><time>2026-04-04T08:00:36.949Z</time></trkpt><trkpt lat="43.408683110795714" lon="10.411368197932942"><ele>66.0</ele><time>2026-04-04T08:00:38.954Z</time></trkpt><trkpt lat="43.408651388271174" lon="10.411461084257716"><ele>66.0</ele><time>2026-04-04T08:00:39.948Z</time></trkpt><trkpt lat="43.4086435869017" lon="10.411569529460202"><ele>64.83333333333333</ele><time>2026-04-04T08:00:40.948Z</time></trkpt><trkpt lat="43.40863608257685" lon="10.41167784630635"><ele>63.66666666666667</ele><time>2026-04-04T08:00:41.953Z</time></trkpt><trkpt lat="43.408625828733136" lon="10.41178800769398"><ele>62.5</ele><time>2026-04-04T08:00:42.955Z</time></trkpt><trkpt lat="43.40860410553337" lon="10.411888654810337"><ele>61.333333333333336</ele><time>2026-04-04T08:00:43.957Z</time></trkpt><trkpt lat="43.40858960600155" lon="10.411976886012864"><ele>60.16666666666667</ele><time>2026-04-04T08:00:44.949Z</time></trkpt><trkpt lat="43.40845334638364" lon="10.412011085852276"><ele>59.0</ele><time>2026-04-04T08:00:46.959Z</time></trkpt><trkpt lat="43.408321336515684" lon="10.411987315620442"><ele>59.0</ele><time>2026-04-04T08:00:48.953Z</time></trkpt><trkpt lat="43.40822129898925" lon="10.41184523685628"><ele>59.00000000000001</ele><time>2026-04-04T08:00:50.955Z</time></trkpt><trkpt lat="43.40817142799427" lon="10.411769955615124"><ele>59.00000000000001</ele><time>2026-04-04T08:00:51.948Z</time></trkpt><trkpt lat="43.408119060073346" lon="10.411700077420086"><ele>59.0</ele><time>2026-04-04T08:00:52.957Z</time></trkpt><trkpt lat="43.408048994357095" lon="10.411618392556186"><ele>59.0</ele><time>2026-04-04T08:00:53.957Z</time></trkpt><trkpt lat="43.407976571053126" lon="10.411565785610623"><ele>58.0</ele><time>2026-04-04T08:00:54.958Z</time></trkpt><trkpt lat="43.407879932324086" lon="10.411538850095727"><ele>57.0</ele><time>2026-04-04T08:00:55.955Z</time></trkpt><trkpt lat="43.40777865301925" lon="10.411526182915916"><ele>56.0</ele><time>2026-04-04T08:00:56.956Z</time></trkpt><trkpt lat="43.40768094584166" lon="10.411472406018394"><ele>55.0</ele><time>2026-04-04T08:00:57.96Z</time></trkpt><trkpt lat="43.40751071576777" lon="10.411419036143476"><ele>55.0</ele><time>2026-04-04T08:00:59.956Z</time></trkpt><trkpt lat="43.407407034206514" lon="10.411392316886678"><ele>55.0</ele><time>2026-04-04T08:01:00.961Z</time></trkpt><trkpt lat="43.407302393892735" lon="10.41136834726618"><ele>55.0</ele><time>2026-04-04T08:01:01.957Z</time></trkpt><trkpt lat="43.40721067610162" lon="10.411372482521697"><ele>55.0</ele><time>2026-04-04T08:01:02.956Z</time></trkpt><trkpt lat="43.40712576853131" lon="10.411348898607493"><ele>55.0</ele><time>2026-04-04T08:01:03.953Z</time></trkpt><trkpt lat="43.40704923172341" lon="10.411363320194779"><ele>53.666666666666664</ele><time>2026-04-04T08:01:04.952Z</time></trkpt><trkpt lat="43.406974374875745" lon="10.411351333213034"><ele>52.33333333333333</ele><time>2026-04-04T08:01:05.956Z</time></trkpt><trkpt lat="43.40689094546379" lon="10.411352834150344"><ele>51.0</ele><time>2026-04-04T08:01:06.958Z</time></trkpt><trkpt lat="43.40682242258267" lon="10.411358987053774"><ele>49.666666666666664</ele><time>2026-04-04T08:01:07.954Z</time></trkpt><trkpt lat="43.40678245004414" lon="10.41128231188515"><ele>48.33333333333333</ele><time>2026-04-04T08:01:08.957Z</time></trkpt><trkpt lat="43.40675384571784" lon="10.41117533919277"><ele>47.0</ele><time>2026-04-04T08:01:09.963Z</time></trkpt><trkpt lat="43.406742463902475" lon="10.411053288116788"><ele>46.166666666666664</ele><time>2026-04-04T08:01:10.953Z</time></trkpt><trkpt lat="43.406742174800456" lon="10.410941331405379"><ele>45.33333333333333</ele><time>2026-04-04T08:01:11.953Z</time></trkpt><trkpt lat="43.40675080039984" lon="10.410835800009753"><ele>44.5</ele><time>2026-04-04T08:01:12.955Z</time></trkpt><trkpt lat="43.406796472467114" lon="10.410748028832005"><ele>43.666666666666664</ele><time>2026-04-04T08:01:13.957Z</time></trkpt><trkpt lat="43.40686266840917" lon="10.410670678605998"><ele>42.833333333333336</ele><time>2026-04-04T08:01:14.953Z</time></trkpt><trkpt lat="43.40691839389402" lon="10.410588631843941"><ele>42.0</ele><time>2026-04-04T08:01:15.957Z</time></trkpt><trkpt lat="43.40697217069289" lon="10.41051119546623"><ele>41.5</ele><time>2026-04-04T08:01:16.947Z</time></trkpt><trkpt lat="43.40702681030773" lon="10.410434513111028"><ele>41.0</ele><time>2026-04-04T08:01:17.954Z</time></trkpt><trkpt lat="43.40707887320515" lon="10.410361446976397"><ele>40.5</ele><time>2026-04-04T08:01:18.952Z</time></trkpt><trkpt lat="43.40714331661454" lon="10.41027159715951"><ele>40.0</ele><time>2026-04-04T08:01:19.949Z</time></trkpt><trkpt lat="43.40720482945546" lon="10.41017610320668"><ele>39.5</ele><time>2026-04-04T08:01:20.955Z</time></trkpt><trkpt lat="43.407277925038606" lon="10.410085781120783"><ele>39.0</ele><time>2026-04-04T08:01:21.953Z</time></trkpt><trkpt lat="43.4073435714669" lon="10.409976934048032"><ele>39.0</ele><time>2026-04-04T08:01:22.955Z</time></trkpt><trkpt lat="43.40741838828508" lon="10.4098962620709"><ele>39.0</ele><time>2026-04-04T08:01:23.956Z</time></trkpt><trkpt lat="43.40748661699381" lon="10.409791374939742"><ele>39.0</ele><time>2026-04-04T08:01:24.952Z</time></trkpt><trkpt lat="43.40755447341237" lon="10.409694120870359"><ele>39.0</ele><time>2026-04-04T08:01:25.96Z</time></trkpt><trkpt lat="43.40762609374113" lon="10.409598813590055"><ele>39.0</ele><time>2026-04-04T08:01:26.955Z</time></trkpt><trkpt lat="43.407695502063255" lon="10.409504317217278"><ele>38.4</ele><time>2026-04-04T08:01:27.955Z</time></trkpt><trkpt lat="43.40776620157202" lon="10.409416110479391"><ele>37.8</ele><time>2026-04-04T08:01:28.947Z</time></trkpt><trkpt lat="43.40783382103687" lon="10.40931473416333"><ele>37.2</ele><time>2026-04-04T08:01:29.96Z</time></trkpt><trkpt lat="43.407918284071165" lon="10.409221336541822"><ele>36.6</ele><time>2026-04-04T08:01:30.961Z</time></trkpt><trkpt lat="43.40798240023483" lon="10.409119596304812"><ele>36.0</ele><time>2026-04-04T08:01:31.961Z</time></trkpt><trkpt lat="43.4080571635584" lon="10.409053812084199"><ele>36.0</ele><time>2026-04-04T08:01:32.959Z</time></trkpt><trkpt lat="43.40810447957501" lon="10.408987166429085"><ele>36.0</ele><time>2026-04-04T08:01:33.96Z</time></trkpt><trkpt lat="43.4081477396879" lon="10.4088774889518"><ele>36.0</ele><time>2026-04-04T08:01:35.954Z</time></trkpt><trkpt lat="43.408108398008224" lon="10.408772879997898"><ele>36.0</ele><time>2026-04-04T08:01:36.954Z</time></trkpt><trkpt lat="43.408092299658485" lon="10.40867018224617"><ele>36.0</ele><time>2026-04-04T08:01:37.961Z</time></trkpt><trkpt lat="43.40807743970962" lon="10.408562396939617"><ele>36.0</ele><time>2026-04-04T08:01:38.955Z</time></trkpt><trkpt lat="43.40805764692027" lon="10.408452342739041"><ele>34.166666666666664</ele><time>2026-04-04T08:01:39.957Z</time></trkpt><trkpt lat="43.40803645850902" lon="10.40834278192629"><ele>32.333333333333336</ele><time>2026-04-04T08:01:40.959Z</time></trkpt><trkpt lat="43.40802198518616" lon="10.408257219385387"><ele>30.5</ele><time>2026-04-04T08:01:41.955Z</time></trkpt><trkpt lat="43.408016868011075" lon="10.408137844325442"><ele>28.666666666666668</ele><time>2026-04-04T08:01:43.954Z</time></trkpt><trkpt lat="43.40799259107696" lon="10.408033004337845"><ele>26.833333333333336</ele><time>2026-04-04T08:01:46.961Z</time></trkpt><trkpt lat="43.408109706367" lon="10.408002477471205"><ele>25.0</ele><time>2026-04-04T08:01:48.955Z</time></trkpt><trkpt lat="43.408199932599054" lon="10.4079870256981"><ele>22.8</ele><time>2026-04-04T08:01:50.961Z</time></trkpt><trkpt lat="43.40829180185998" lon="10.40795387532377"><ele>20.6</ele><time>2026-04-04T08:01:52.962Z</time></trkpt><trkpt lat="43.40838635819166" lon="10.407912026199412"><ele>18.4</ele><time>2026-04-04T08:01:54.96Z</time></trkpt><trkpt lat="43.408490893429594" lon="10.407870473283996"><ele>16.2</ele><time>2026-04-04T08:01:56.96Z</time></trkpt><trkpt lat="43.408596548976895" lon="10.407833119322104"><ele>14.0</ele><time>2026-04-04T08:01:58.96Z</time></trkpt><trkpt lat="43.40870577559463" lon="10.407797373218855"><ele>14.0</ele><time>2026-04-04T08:02:00.961Z</time></trkpt><trkpt lat="43.40881684109994" lon="10.407760358599184"><ele>13.999999999999998</ele><time>2026-04-04T08:02:02.956Z</time></trkpt><trkpt lat="43.40893228936598" lon="10.40772075308558"><ele>13.999999999999998</ele><time>2026-04-04T08:02:04.962Z</time></trkpt><trkpt lat="43.40899943885748" lon="10.407714265844689"><ele>14.0</ele><time>2026-04-04T08:02:06.961Z</time></trkpt><trkpt lat="43.4090720856816" lon="10.407690006740873"><ele>14.0</ele><time>2026-04-04T08:02:21.953Z</time></trkpt><trkpt lat="43.40916943202406" lon="10.407653680852086"><ele>14.399999999999999</ele><time>2026-04-04T08:02:24.959Z</time></trkpt><trkpt lat="43.409255368136236" lon="10.407625342594024"><ele>14.799999999999999</ele><time>2026-04-04T08:02:26.953Z</time></trkpt><trkpt lat="43.40935492349064" lon="10.407608001606505"><ele>15.200000000000001</ele><time>2026-04-04T08:02:28.953Z</time></trkpt><trkpt lat="43.40946472868485" lon="10.407611071785666"><ele>15.600000000000001</ele><time>2026-04-04T08:02:30.949Z</time></trkpt><trkpt lat="43.409576145071576" lon="10.407620719176672"><ele>16.0</ele><time>2026-04-04T08:02:32.959Z</time></trkpt><trkpt lat="43.4096879024445" lon="10.40763516266382"><ele>16.5</ele><time>2026-04-04T08:02:34.956Z</time></trkpt><trkpt lat="43.409802912357094" lon="10.407647480616601"><ele>17.0</ele><time>2026-04-04T08:02:36.955Z</time></trkpt><trkpt lat="43.40992537553001" lon="10.40766036478873"><ele>17.5</ele><time>2026-04-04T08:02:39Z</time></trkpt><trkpt lat="43.41004045493265" lon="10.407649060106072"><ele>18.0</ele><time>2026-04-04T08:02:41Z</time></trkpt><trkpt lat="43.41015324452803" lon="10.407607521958232"><ele>18.0</ele><time>2026-04-04T08:02:43Z</time></trkpt><trkpt lat="43.41024098096285" lon="10.407502198592836"><ele>18.0</ele><time>2026-04-04T08:02:45Z</time></trkpt><trkpt lat="43.41028406668676" lon="10.407356596741247"><ele>18.0</ele><time>2026-04-04T08:02:47Z</time></trkpt><trkpt lat="43.41027745889181" lon="10.407203911641107"><ele>18.0</ele><time>2026-04-04T08:02:49Z</time></trkpt><trkpt lat="43.41023731678423" lon="10.407051328889263"><ele>17.4</ele><time>2026-04-04T08:02:51Z</time></trkpt><trkpt lat="43.41021309027163" lon="10.40689920240974"><ele>16.8</ele><time>2026-04-04T08:02:53Z</time></trkpt><trkpt lat="43.41018364280915" lon="10.406756592770222"><ele>16.2</ele><time>2026-04-04T08:02:55Z</time></trkpt><trkpt lat="43.41016421522866" lon="10.406613890734429"><ele>15.6</ele><time>2026-04-04T08:02:57Z</time></trkpt><trkpt lat="43.410149826760204" lon="10.406490832741426"><ele>15.0</ele><time>2026-04-04T08:02:59Z</time></trkpt><trkpt lat="43.410134486709666" lon="10.40636977148652"><ele>15.5</ele><time>2026-04-04T08:03:01Z</time></trkpt><trkpt lat="43.41011850568699" lon="10.406248954634677"><ele>16.0</ele><time>2026-04-04T08:03:03Z</time></trkpt><trkpt lat="43.41010293081223" lon="10.406129662329251"><ele>16.5</ele><time>2026-04-04T08:03:05Z</time></trkpt><trkpt lat="43.41009177509057" lon="10.406013479539359"><ele>17.0</ele><time>2026-04-04T08:03:07Z</time></trkpt><trkpt lat="43.41008442842163" lon="10.405901458867147"><ele>17.5</ele><time>2026-04-04T08:03:09Z</time></trkpt><trkpt lat="43.41008940820847" lon="10.405787055392087"><ele>18.0</ele><time>2026-04-04T08:03:11Z</time></trkpt><trkpt lat="43.4100825245191" lon="10.40567292355258"><ele>18.0</ele><time>2026-04-04T08:03:13Z</time></trkpt><trkpt lat="43.410092868910034" lon="10.40555934762972"><ele>18.0</ele><time>2026-04-04T08:03:15Z</time></trkpt><trkpt lat="43.41009729685576" lon="10.40543461395228"><ele>18.0</ele><time>2026-04-04T08:03:17Z</time></trkpt><trkpt lat="43.41011212667045" lon="10.405313003848637"><ele>18.0</ele><time>2026-04-04T08:03:19Z</time></trkpt><trkpt lat="43.41014071921975" lon="10.405198034386405"><ele>18.0</ele><time>2026-04-04T08:03:21Z</time></trkpt><trkpt lat="43.410164340944036" lon="10.405083300199239"><ele>18.0</ele><time>2026-04-04T08:03:23Z</time></trkpt><trkpt lat="43.410187428701704" lon="10.404969786354515"><ele>17.5</ele><time>2026-04-04T08:03:25Z</time></trkpt><trkpt lat="43.41021002030391" lon="10.404852570959115"><ele>17.0</ele><time>2026-04-04T08:03:27Z</time></trkpt><trkpt lat="43.41023488853749" lon="10.40474092561887"><ele>16.5</ele><time>2026-04-04T08:03:29Z</time></trkpt><trkpt lat="43.41026464805943" lon="10.40463340896279"><ele>16.0</ele><time>2026-04-04T08:03:31Z</time></trkpt><trkpt lat="43.4103021219496" lon="10.404539095731161"><ele>15.5</ele><time>2026-04-04T08:03:33Z</time></trkpt><trkpt lat="43.410344670445284" lon="10.404435137429491"><ele>15.0</ele><time>2026-04-04T08:03:35Z</time></trkpt><trkpt lat="43.410391147494366" lon="10.404332495136483"><ele>13.5</ele><time>2026-04-04T08:03:37Z</time></trkpt><trkpt lat="43.410451929155435" lon="10.40424262896009"><ele>12.0</ele><time>2026-04-04T08:03:39Z</time></trkpt><trkpt lat="43.410521402154615" lon="10.404182212927536"><ele>10.5</ele><time>2026-04-04T08:03:41Z</time></trkpt><trkpt lat="43.41058694873822" lon="10.404105110559069"><ele>9.0</ele><time>2026-04-04T08:03:43Z</time></trkpt><trkpt lat="43.41065941661243" lon="10.404049250466997"><ele>7.5</ele><time>2026-04-04T08:03:45Z</time></trkpt><trkpt lat="43.41073517832385" lon="10.40399118505949"><ele>6.0</ele><time>2026-04-04T08:03:47Z</time></trkpt><trkpt lat="43.41081997930772" lon="10.40395262427422"><ele>9.333333333333332</ele><time>2026-04-04T08:03:49Z</time></trkpt><trkpt lat="43.410893029302834" lon="10.403914174901818"><ele>12.666666666666666</ele><time>2026-04-04T08:03:51Z</time></trkpt><trkpt lat="43.410979247245066" lon="10.403894587768535"><ele>16.0</ele><time>2026-04-04T08:03:53Z</time></trkpt><trkpt lat="43.41105654349771" lon="10.403883708840036"><ele>19.333333333333332</ele><time>2026-04-04T08:03:55Z</time></trkpt><trkpt lat="43.41114847388612" lon="10.40390065184775"><ele>22.666666666666664</ele><time>2026-04-04T08:03:57Z</time></trkpt><trkpt lat="43.41123292110292" lon="10.40390940477264"><ele>26.0</ele><time>2026-04-04T08:03:59Z</time></trkpt><trkpt lat="43.41131494030083" lon="10.403922766434404"><ele>26.166666666666664</ele><time>2026-04-04T08:04:01Z</time></trkpt><trkpt lat="43.41140146371119" lon="10.403951231204951"><ele>26.333333333333332</ele><time>2026-04-04T08:04:03Z</time></trkpt><trkpt lat="43.411487211278875" lon="10.403980383424178"><ele>26.5</ele><time>2026-04-04T08:04:05Z</time></trkpt><trkpt lat="43.411565574678825" lon="10.404011340386113"><ele>26.666666666666664</ele><time>2026-04-04T08:04:07Z</time></trkpt><trkpt lat="43.41165115258809" lon="10.404045738488637"><ele>26.833333333333332</ele><time>2026-04-04T08:04:09.001Z</time></trkpt><trkpt lat="43.411733129452045" lon="10.404070989723234"><ele>27.0</ele><time>2026-04-04T08:04:11.001Z</time></trkpt><trkpt lat="43.41180265465172" lon="10.404097435017805"><ele>27.0</ele><time>2026-04-04T08:04:13.001Z</time></trkpt><trkpt lat="43.411880197466964" lon="10.404130150627745"><ele>27.0</ele><time>2026-04-04T08:04:15.001Z</time></trkpt><trkpt lat="43.41195707483481" lon="10.404158725414687"><ele>27.0</ele><time>2026-04-04T08:04:17.001Z</time></trkpt><trkpt lat="43.41202118842923" lon="10.404159765797091"><ele>27.0</ele><time>2026-04-04T08:04:19.001Z</time></trkpt><trkpt lat="43.41209860535821" lon="10.404164720073837"><ele>27.0</ele><time>2026-04-04T08:04:21.001Z</time></trkpt><trkpt lat="43.41217336228489" lon="10.404162256094414"><ele>27.0</ele><time>2026-04-04T08:04:23.001Z</time></trkpt><trkpt lat="43.412263055663814" lon="10.40413701399405"><ele>28.0</ele><time>2026-04-04T08:04:26.001Z</time></trkpt><trkpt lat="43.412354322586125" lon="10.404113574742459"><ele>29.0</ele><time>2026-04-04T08:04:28.001Z</time></trkpt><trkpt lat="43.412423028298164" lon="10.404074470259536"><ele>30.0</ele><time>2026-04-04T08:04:30.001Z</time></trkpt><trkpt lat="43.41248912257227" lon="10.404033390466969"><ele>31.0</ele><time>2026-04-04T08:04:32.001Z</time></trkpt><trkpt lat="43.41255272883431" lon="10.403982062914508"><ele>32.0</ele><time>2026-04-04T08:04:34.001Z</time></trkpt><trkpt lat="43.41262076551245" lon="10.403923262922739"><ele>33.0</ele><time>2026-04-04T08:04:36.001Z</time></trkpt><trkpt lat="43.412687552732216" lon="10.403857836864498"><ele>33.5</ele><time>2026-04-04T08:04:38.001Z</time></trkpt><trkpt lat="43.41274942153215" lon="10.403792678903391"><ele>34.0</ele><time>2026-04-04T08:04:40.001Z</time></trkpt><trkpt lat="43.41281325505241" lon="10.403717374807636"><ele>34.5</ele><time>2026-04-04T08:04:42.001Z</time></trkpt><trkpt lat="43.41287214501391" lon="10.403618815316875"><ele>35.0</ele><time>2026-04-04T08:04:44.001Z</time></trkpt><trkpt lat="43.4129352484817" lon="10.403517007799366"><ele>35.5</ele><time>2026-04-04T08:04:46.001Z</time></trkpt><trkpt lat="43.41299604932032" lon="10.403420192538546"><ele>36.0</ele><time>2026-04-04T08:04:48.001Z</time></trkpt><trkpt lat="43.413060206793205" lon="10.403312681353649"><ele>36.0</ele><time>2026-04-04T08:04:50.001Z</time></trkpt><trkpt lat="43.41311746870998" lon="10.403189818191516"><ele>36.0</ele><time>2026-04-04T08:04:52.001Z</time></trkpt><trkpt lat="43.41318264661278" lon="10.40307541483894"><ele>36.0</ele><time>2026-04-04T08:04:54.001Z</time></trkpt><trkpt lat="43.41324555123288" lon="10.402976359174566"><ele>36.0</ele><time>2026-04-04T08:04:56.001Z</time></trkpt><trkpt lat="43.41331401524671" lon="10.402875567313057"><ele>36.0</ele><time>2026-04-04T08:04:58.001Z</time></trkpt><trkpt lat="43.41338263428637" lon="10.402790240097842"><ele>33.2</ele><time>2026-04-04T08:05:00.001Z</time></trkpt><trkpt lat="43.413462447386465" lon="10.402719342754237"><ele>30.400000000000002</ele><time>2026-04-04T08:05:02.001Z</time></trkpt><trkpt lat="43.41354852303242" lon="10.402686663628382"><ele>27.6</ele><time>2026-04-04T08:05:04Z</time></trkpt><trkpt lat="43.41364843430212" lon="10.402682746640266"><ele>24.8</ele><time>2026-04-04T08:05:06Z</time></trkpt><trkpt lat="43.413742261871135" lon="10.40264698123727"><ele>22.0</ele><time>2026-04-04T08:05:08Z</time></trkpt><trkpt lat="43.41383861495453" lon="10.402704066908516"><ele>22.0</ele><time>2026-04-04T08:05:10Z</time></trkpt><trkpt lat="43.41393485309032" lon="10.402740885763674"><ele>22.0</ele><time>2026-04-04T08:05:12Z</time></trkpt><trkpt lat="43.414029519054885" lon="10.402766258644881"><ele>22.0</ele><time>2026-04-04T08:05:14Z</time></trkpt><trkpt lat="43.41411906327194" lon="10.402765413908433"><ele>22.0</ele><time>2026-04-04T08:05:16Z</time></trkpt><trkpt lat="43.41420614395626" lon="10.402742684858085"><ele>22.0</ele><time>2026-04-04T08:05:18Z</time></trkpt><trkpt lat="43.4142987103868" lon="10.402699422694042"><ele>22.0</ele><time>2026-04-04T08:05:20Z</time></trkpt><trkpt lat="43.41439720615785" lon="10.402648243004268"><ele>22.0</ele><time>2026-04-04T08:05:22Z</time></trkpt><trkpt lat="43.41449187572293" lon="10.402563764350575"><ele>22.0</ele><time>2026-04-04T08:05:24Z</time></trkpt><trkpt lat="43.414595401170914" lon="10.402485884026744"><ele>22.0</ele><time>2026-04-04T08:05:26Z</time></trkpt><trkpt lat="43.41464875514886" lon="10.402437600788163"><ele>22.0</ele><time>2026-04-04T08:05:27Z</time></trkpt><trkpt lat="43.414755190491114" lon="10.402343599300455"><ele>23.285714285714285</ele><time>2026-04-04T08:05:29Z</time></trkpt><trkpt lat="43.414809330863086" lon="10.402292292361729"><ele>24.57142857142857</ele><time>2026-04-04T08:05:30Z</time></trkpt><trkpt lat="43.41486552783029" lon="10.402243683110065"><ele>25.857142857142858</ele><time>2026-04-04T08:05:31Z</time></trkpt><trkpt lat="43.41492617874727" lon="10.40218988910841"><ele>27.142857142857146</ele><time>2026-04-04T08:05:32Z</time></trkpt><trkpt lat="43.41499171161447" lon="10.40215618265971"><ele>28.42857142857143</ele><time>2026-04-04T08:05:33Z</time></trkpt><trkpt lat="43.41506550666845" lon="10.402134324686788"><ele>29.714285714285715</ele><time>2026-04-04T08:05:34Z</time></trkpt><trkpt lat="43.41513980063173" lon="10.402116743783273"><ele>31.0</ele><time>2026-04-04T08:05:35Z</time></trkpt><trkpt lat="43.415215821694495" lon="10.402102045499603"><ele>29.833333333333336</ele><time>2026-04-04T08:05:36Z</time></trkpt><trkpt lat="43.41528949887308" lon="10.40209331702165"><ele>28.666666666666668</ele><time>2026-04-04T08:05:37Z</time></trkpt><trkpt lat="43.4153644830561" lon="10.402059159559979"><ele>27.5</ele><time>2026-04-04T08:05:38Z</time></trkpt><trkpt lat="43.41543347050164" lon="10.402004654271513"><ele>26.333333333333336</ele><time>2026-04-04T08:05:39Z</time></trkpt><trkpt lat="43.41549506986002" lon="10.401929706153298"><ele>25.166666666666668</ele><time>2026-04-04T08:05:40Z</time></trkpt><trkpt lat="43.41556044332457" lon="10.401851756702579"><ele>24.0</ele><time>2026-04-04T08:05:41Z</time></trkpt><trkpt lat="43.41562062223861" lon="10.401767529233759"><ele>24.0</ele><time>2026-04-04T08:05:42Z</time></trkpt><trkpt lat="43.4156795934585" lon="10.401677651159266"><ele>24.0</ele><time>2026-04-04T08:05:43Z</time></trkpt><trkpt lat="43.415738297679546" lon="10.401581775661057"><ele>24.0</ele><time>2026-04-04T08:05:44Z</time></trkpt><trkpt lat="43.41580379218714" lon="10.401488547755877"><ele>24.0</ele><time>2026-04-04T08:05:45Z</time></trkpt><trkpt lat="43.41588507927841" lon="10.401412961863127"><ele>24.0</ele><time>2026-04-04T08:05:46Z</time></trkpt><trkpt lat="43.41598102048848" lon="10.401363612543301"><ele>24.0</ele><time>2026-04-04T08:05:47Z</time></trkpt><trkpt lat="43.41608455172462" lon="10.401343565023591"><ele>24.0</ele><time>2026-04-04T08:05:48Z</time></trkpt><trkpt lat="43.416190327743294" lon="10.401333971828619"><ele>24.0</ele><time>2026-04-04T08:05:49Z</time></trkpt><trkpt lat="43.41629701427222" lon="10.4013277239876"><ele>24.0</ele><time>2026-04-04T08:05:50Z</time></trkpt><trkpt lat="43.416403520615226" lon="10.401342546732348"><ele>24.0</ele><time>2026-04-04T08:05:51Z</time></trkpt><trkpt lat="43.41650963695816" lon="10.401367160517923"><ele>24.4</ele><time>2026-04-04T08:05:52Z</time></trkpt><trkpt lat="43.416617269983675" lon="10.40139892989396"><ele>24.799999999999997</ele><time>2026-04-04T08:05:53Z</time></trkpt><trkpt lat="43.41672389527726" lon="10.401412459513526"><ele>25.200000000000003</ele><time>2026-04-04T08:05:54Z</time></trkpt><trkpt lat="43.41682537628634" lon="10.401442175221424"><ele>25.6</ele><time>2026-04-04T08:05:55Z</time></trkpt><trkpt lat="43.41692919104828" lon="10.40146280110052"><ele>26.0</ele><time>2026-04-04T08:05:56Z</time></trkpt><trkpt lat="43.417035984592246" lon="10.401473856603562"><ele>26.0</ele><time>2026-04-04T08:05:57Z</time></trkpt><trkpt lat="43.4171286037623" lon="10.40149463034085"><ele>26.0</ele><time>2026-04-04T08:05:58Z</time></trkpt><trkpt lat="43.41723073416412" lon="10.401516204639861"><ele>26.0</ele><time>2026-04-04T08:05:59Z</time></trkpt><trkpt lat="43.41733242592735" lon="10.40153513831728"><ele>26.0</ele><time>2026-04-04T08:06:00Z</time></trkpt><trkpt lat="43.41743023114385" lon="10.401557675768586"><ele>26.0</ele><time>2026-04-04T08:06:01Z</time></trkpt><trkpt lat="43.41752155907065" lon="10.401577308663935"><ele>24.8</ele><time>2026-04-04T08:06:02Z</time></trkpt><trkpt lat="43.41761454051351" lon="10.401594761190053"><ele>23.6</ele><time>2026-04-04T08:06:03Z</time></trkpt><trkpt lat="43.41770619747851" lon="10.4016139872648"><ele>22.4</ele><time>2026-04-04T08:06:04Z</time></trkpt><trkpt lat="43.41779572718034" lon="10.401632320065268"><ele>21.2</ele><time>2026-04-04T08:06:05Z</time></trkpt><trkpt lat="43.41789220517388" lon="10.401654314507038"><ele>20.0</ele><time>2026-04-04T08:06:06Z</time></trkpt><trkpt lat="43.417979849965384" lon="10.401676059589386"><ele>19.333333333333336</ele><time>2026-04-04T08:06:07Z</time></trkpt><trkpt lat="43.418064875192144" lon="10.401694804342565"><ele>18.666666666666668</ele><time>2026-04-04T08:06:08Z</time></trkpt><trkpt lat="43.41814842679579" lon="10.401710063878228"><ele>18.0</ele><time>2026-04-04T08:06:09Z</time></trkpt><trkpt lat="43.41822988838943" lon="10.401727608957755"><ele>17.333333333333332</ele><time>2026-04-04T08:06:10Z</time></trkpt><trkpt lat="43.418313237466066" lon="10.40174641297577"><ele>16.666666666666664</ele><time>2026-04-04T08:06:11Z</time></trkpt><trkpt lat="43.41839417561138" lon="10.4017625872577"><ele>16.0</ele><time>2026-04-04T08:06:12Z</time></trkpt><trkpt lat="43.41846997256463" lon="10.401777830314915"><ele>15.999999999999998</ele><time>2026-04-04T08:06:13Z</time></trkpt><trkpt lat="43.418547418406526" lon="10.401795917377475"><ele>16.0</ele><time>2026-04-04T08:06:14Z</time></trkpt><trkpt lat="43.418624603698944" lon="10.40181126653699"><ele>16.0</ele><time>2026-04-04T08:06:15Z</time></trkpt><trkpt lat="43.418699616340966" lon="10.401829287893545"><ele>16.0</ele><time>2026-04-04T08:06:16Z</time></trkpt><trkpt lat="43.418774310979884" lon="10.401841051198247"><ele>15.999999999999998</ele><time>2026-04-04T08:06:17Z</time></trkpt><trkpt lat="43.41883883488077" lon="10.401844037324038"><ele>16.0</ele><time>2026-04-04T08:06:18Z</time></trkpt><trkpt lat="43.41891885568033" lon="10.401852113467038"><ele>15.714285714285714</ele><time>2026-04-04T08:06:19Z</time></trkpt><trkpt lat="43.41899075542266" lon="10.401861498307118"><ele>15.428571428571427</ele><time>2026-04-04T08:06:20Z</time></trkpt><trkpt lat="43.41905900214881" lon="10.401867312579665"><ele>15.142857142857142</ele><time>2026-04-04T08:06:21Z</time></trkpt><trkpt lat="43.419129450802814" lon="10.401868643736957"><ele>14.857142857142858</ele><time>2026-04-04T08:06:22Z</time></trkpt><trkpt lat="43.41920160026388" lon="10.401869776645158"><ele>14.571428571428571</ele><time>2026-04-04T08:06:23Z</time></trkpt><trkpt lat="43.41926840371791" lon="10.401872439137414"><ele>14.285714285714285</ele><time>2026-04-04T08:06:24Z</time></trkpt><trkpt lat="43.41933295090763" lon="10.401873008009705"><ele>14.0</ele><time>2026-04-04T08:06:25Z</time></trkpt><trkpt lat="43.41940191728264" lon="10.401882643729744"><ele>14.000000000000002</ele><time>2026-04-04T08:06:26Z</time></trkpt><trkpt lat="43.41947103865355" lon="10.401878726001659"><ele>14.0</ele><time>2026-04-04T08:06:27Z</time></trkpt><trkpt lat="43.41953693588911" lon="10.401879636356636"><ele>14.0</ele><time>2026-04-04T08:06:28Z</time></trkpt><trkpt lat="43.41965998415871" lon="10.401887448131067"><ele>14.0</ele><time>2026-04-04T08:06:30Z</time></trkpt><trkpt lat="43.41972826011242" lon="10.401888544896615"><ele>14.000000000000002</ele><time>2026-04-04T08:06:31Z</time></trkpt><trkpt lat="43.419795846108855" lon="10.401892008785993"><ele>14.0</ele><time>2026-04-04T08:06:32Z</time></trkpt><trkpt lat="43.419861753920515" lon="10.401900173017312"><ele>13.166666666666668</ele><time>2026-04-04T08:06:33Z</time></trkpt><trkpt lat="43.41997970735795" lon="10.401901257514888"><ele>12.333333333333334</ele><time>2026-04-04T08:06:35Z</time></trkpt><trkpt lat="43.42004870056721" lon="10.401903797082378"><ele>11.5</ele><time>2026-04-04T08:06:36Z</time></trkpt><trkpt lat="43.42011281134371" lon="10.401892013344696"><ele>10.666666666666668</ele><time>2026-04-04T08:06:37Z</time></trkpt><trkpt lat="43.42018003385733" lon="10.401876111179416"><ele>9.833333333333334</ele><time>2026-04-04T08:06:38Z</time></trkpt><trkpt lat="43.4202438248927" lon="10.401849531729418"><ele>9.0</ele><time>2026-04-04T08:06:39Z</time></trkpt><trkpt lat="43.420359606856586" lon="10.401787912841847"><ele>9.0</ele><time>2026-04-04T08:06:41Z</time></trkpt><trkpt lat="43.42042157079701" lon="10.401741550540343"><ele>9.0</ele><time>2026-04-04T08:06:42Z</time></trkpt><trkpt lat="43.420526640824136" lon="10.40164888249651"><ele>9.0</ele><time>2026-04-04T08:06:44Z</time></trkpt><trkpt lat="43.420580324411304" lon="10.401597384110934"><ele>9.0</ele><time>2026-04-04T08:06:45Z</time></trkpt><trkpt lat="43.42063793332433" lon="10.401554167845635"><ele>9.0</ele><time>2026-04-04T08:06:46Z</time></trkpt><trkpt lat="43.420693231046414" lon="10.401508118026303"><ele>9.0</ele><time>2026-04-04T08:06:47Z</time></trkpt><trkpt lat="43.4207969650496" lon="10.401415297561506"><ele>9.166666666666666</ele><time>2026-04-04T08:06:49Z</time></trkpt><trkpt lat="43.42085499720189" lon="10.401368425868556"><ele>9.333333333333334</ele><time>2026-04-04T08:06:50Z</time></trkpt><trkpt lat="43.42091011807971" lon="10.401323131881075"><ele>9.5</ele><time>2026-04-04T08:06:51Z</time></trkpt><trkpt lat="43.421022088543346" lon="10.401246155526856"><ele>9.666666666666668</ele><time>2026-04-04T08:06:53Z</time></trkpt><trkpt lat="43.421138266270454" lon="10.40119300540991"><ele>9.833333333333334</ele><time>2026-04-04T08:06:55Z</time></trkpt><trkpt lat="43.42120126353257" lon="10.401189392741161"><ele>10.0</ele><time>2026-04-04T08:06:56Z</time></trkpt><trkpt lat="43.4213233805993" lon="10.401199002977625"><ele>10.0</ele><time>2026-04-04T08:06:58Z</time></trkpt><trkpt lat="43.42144431487601" lon="10.40122461377637"><ele>10.0</ele><time>2026-04-04T08:07:00Z</time></trkpt><trkpt lat="43.42156304266624" lon="10.401249558389992"><ele>10.0</ele><time>2026-04-04T08:07:02Z</time></trkpt><trkpt lat="43.42168686047712" lon="10.401284286895269"><ele>10.0</ele><time>2026-04-04T08:07:04Z</time></trkpt><trkpt lat="43.421804813513795" lon="10.401321157681899"><ele>12.2</ele><time>2026-04-04T08:07:06Z</time></trkpt><trkpt lat="43.421916490532794" lon="10.401343469539803"><ele>14.4</ele><time>2026-04-04T08:07:08Z</time></trkpt><trkpt lat="43.422034307654265" lon="10.401374809740268"><ele>16.6</ele><time>2026-04-04T08:07:10Z</time></trkpt><trkpt lat="43.42209914044915" lon="10.401389711359023"><ele>18.8</ele><time>2026-04-04T08:07:11Z</time></trkpt><trkpt lat="43.42221236979296" lon="10.401421167055657"><ele>21.0</ele><time>2026-04-04T08:07:13Z</time></trkpt><trkpt lat="43.42229733935065" lon="10.401459593673433"><ele>21.0</ele><time>2026-04-04T08:07:15Z</time></trkpt><trkpt lat="43.422421156870655" lon="10.401499614817887"><ele>21.0</ele><time>2026-04-04T08:07:17Z</time></trkpt><trkpt lat="43.422543173462174" lon="10.401516454240845"><ele>21.0</ele><time>2026-04-04T08:07:19Z</time></trkpt><trkpt lat="43.42260512074455" lon="10.40154468120083"><ele>21.0</ele><time>2026-04-04T08:07:20Z</time></trkpt><trkpt lat="43.42270487825437" lon="10.401561317253664"><ele>21.0</ele><time>2026-04-04T08:07:22Z</time></trkpt><trkpt lat="43.422830410752226" lon="10.4015755356574"><ele>21.0</ele><time>2026-04-04T08:07:24Z</time></trkpt><trkpt lat="43.422946182642406" lon="10.40160023996289"><ele>21.0</ele><time>2026-04-04T08:07:26Z</time></trkpt><trkpt lat="43.423052409328555" lon="10.401630922155842"><ele>21.0</ele><time>2026-04-04T08:07:28Z</time></trkpt><trkpt lat="43.423173375418074" lon="10.401646439895734"><ele>21.0</ele><time>2026-04-04T08:07:30Z</time></trkpt><trkpt lat="43.42328741433126" lon="10.401613790740276"><ele>21.0</ele><time>2026-04-04T08:07:32Z</time></trkpt><trkpt lat="43.423396188288024" lon="10.40156944881345"><ele>21.0</ele><time>2026-04-04T08:07:34Z</time></trkpt><trkpt lat="43.42351072004703" lon="10.401512333292368"><ele>21.0</ele><time>2026-04-04T08:07:36Z</time></trkpt><trkpt lat="43.42362319079196" lon="10.40147153074174"><ele>21.0</ele><time>2026-04-04T08:07:38Z</time></trkpt><trkpt lat="43.423739121536414" lon="10.40143287601571"><ele>21.5</ele><time>2026-04-04T08:07:40Z</time></trkpt><trkpt lat="43.423839523195674" lon="10.401386746542128"><ele>22.0</ele><time>2026-04-04T08:07:42Z</time></trkpt><trkpt lat="43.423960088597454" lon="10.40136053997471"><ele>22.5</ele><time>2026-04-04T08:07:44Z</time></trkpt><trkpt lat="43.42407118024483" lon="10.401327954953523"><ele>23.0</ele><time>2026-04-04T08:07:46Z</time></trkpt><trkpt lat="43.42418119225049" lon="10.401312820043819"><ele>20.4</ele><time>2026-04-04T08:07:48Z</time></trkpt><trkpt lat="43.424288475209885" lon="10.401292594042284"><ele>17.799999999999997</ele><time>2026-04-04T08:07:50Z</time></trkpt><trkpt lat="43.42440152245222" lon="10.401271577640937"><ele>15.2</ele><time>2026-04-04T08:07:52Z</time></trkpt><trkpt lat="43.424512006549435" lon="10.401253947694894"><ele>12.6</ele><time>2026-04-04T08:07:54Z</time></trkpt><trkpt lat="43.424625820314766" lon="10.401240458911648"><ele>10.0</ele><time>2026-04-04T08:07:56Z</time></trkpt><trkpt lat="43.424738698101855" lon="10.401221688222341"><ele>10.0</ele><time>2026-04-04T08:07:58Z</time></trkpt><trkpt lat="43.42485381916825" lon="10.401178638851293"><ele>10.0</ele><time>2026-04-04T08:08:00Z</time></trkpt><trkpt lat="43.42497301998064" lon="10.401133846356117"><ele>10.0</ele><time>2026-04-04T08:08:02Z</time></trkpt><trkpt lat="43.42508537264557" lon="10.401068623694771"><ele>10.0</ele><time>2026-04-04T08:08:04Z</time></trkpt><trkpt lat="43.42515034207505" lon="10.401053415537804"><ele>10.0</ele><time>2026-04-04T08:08:05Z</time></trkpt><trkpt lat="43.425269023814664" lon="10.401002970090932"><ele>10.0</ele><time>2026-04-04T08:08:07Z</time></trkpt><trkpt lat="43.42533065634243" lon="10.400979835712025"><ele>10.0</ele><time>2026-04-04T08:08:08Z</time></trkpt><trkpt lat="43.42539246164501" lon="10.400955268852936"><ele>10.0</ele><time>2026-04-04T08:08:09Z</time></trkpt><trkpt lat="43.425514550544314" lon="10.40090859051722"><ele>10.0</ele><time>2026-04-04T08:08:11Z</time></trkpt><trkpt lat="43.42557526936751" lon="10.40088511532277"><ele>10.0</ele><time>2026-04-04T08:08:12Z</time></trkpt><trkpt lat="43.42568816470545" lon="10.400826045793508"><ele>10.0</ele><time>2026-04-04T08:08:14Z</time></trkpt><trkpt lat="43.42580372368873" lon="10.400761580563051"><ele>9.333333333333334</ele><time>2026-04-04T08:08:16Z</time></trkpt><trkpt lat="43.42587901285577" lon="10.400625083312168"><ele>8.666666666666668</ele><time>2026-04-04T08:08:18Z</time></trkpt><trkpt lat="43.42590766877532" lon="10.40054535454549"><ele>8.0</ele><time>2026-04-04T08:08:19Z</time></trkpt><trkpt lat="43.42594080754798" lon="10.400463275606668"><ele>7.333333333333334</ele><time>2026-04-04T08:08:20Z</time></trkpt><trkpt lat="43.42598176720139" lon="10.400385506019362"><ele>6.666666666666667</ele><time>2026-04-04T08:08:21Z</time></trkpt><trkpt lat="43.42602103385153" lon="10.400309158373972"><ele>6.0</ele><time>2026-04-04T08:08:22Z</time></trkpt><trkpt lat="43.42604845160544" lon="10.40022551571063"><ele>5.999999999999999</ele><time>2026-04-04T08:08:23Z</time></trkpt><trkpt lat="43.42609874663327" lon="10.40015739491271"><ele>6.0</ele><time>2026-04-04T08:08:24Z</time></trkpt><trkpt lat="43.42615113258677" lon="10.400087340933897"><ele>6.0</ele><time>2026-04-04T08:08:25Z</time></trkpt><trkpt lat="43.426207332832625" lon="10.400037735890123"><ele>6.0</ele><time>2026-04-04T08:08:26Z</time></trkpt><trkpt lat="43.42627351754735" lon="10.39999983448785"><ele>6.0</ele><time>2026-04-04T08:08:27Z</time></trkpt><trkpt lat="43.42634100615001" lon="10.399970398384433"><ele>5.999999999999999</ele><time>2026-04-04T08:08:28Z</time></trkpt><trkpt lat="43.42640918144845" lon="10.399947727729998"><ele>6.0</ele><time>2026-04-04T08:08:29Z</time></trkpt><trkpt lat="43.42647467944416" lon="10.399933764539474"><ele>6.4</ele><time>2026-04-04T08:08:30Z</time></trkpt><trkpt lat="43.42653734401669" lon="10.399915301384132"><ele>6.8</ele><time>2026-04-04T08:08:31Z</time></trkpt><trkpt lat="43.42665236805249" lon="10.399858621984382"><ele>7.200000000000001</ele><time>2026-04-04T08:08:33Z</time></trkpt><trkpt lat="43.42674574120306" lon="10.399767318503663"><ele>7.6000000000000005</ele><time>2026-04-04T08:08:35Z</time></trkpt><trkpt lat="43.4268209650964" lon="10.399639469847457"><ele>8.0</ele><time>2026-04-04T08:08:37Z</time></trkpt><trkpt lat="43.42686611083477" lon="10.399475931161582"><ele>7.999999999999999</ele><time>2026-04-04T08:08:39Z</time></trkpt><trkpt lat="43.42690668604887" lon="10.39931503225778"><ele>8.0</ele><time>2026-04-04T08:08:41Z</time></trkpt><trkpt lat="43.42695727715059" lon="10.399158739905118"><ele>8.0</ele><time>2026-04-04T08:08:43Z</time></trkpt><trkpt lat="43.42699456043658" lon="10.399087310898913"><ele>8.0</ele><time>2026-04-04T08:08:44Z</time></trkpt><trkpt lat="43.42703751947022" lon="10.399021801954797"><ele>7.999999999999999</ele><time>2026-04-04T08:08:45Z</time></trkpt><trkpt lat="43.427087635770775" lon="10.398964722835302"><ele>8.0</ele><time>2026-04-04T08:08:46Z</time></trkpt><trkpt lat="43.42720651529755" lon="10.398914482191552"><ele>8.200000000000001</ele><time>2026-04-04T08:08:48Z</time></trkpt><trkpt lat="43.42726857629596" lon="10.39889093767117"><ele>8.4</ele><time>2026-04-04T08:08:49Z</time></trkpt><trkpt lat="43.42739097672557" lon="10.39887347983716"><ele>8.600000000000001</ele><time>2026-04-04T08:08:51Z</time></trkpt><trkpt lat="43.42751597809022" lon="10.398865163957918"><ele>8.8</ele><time>2026-04-04T08:08:53Z</time></trkpt><trkpt lat="43.4276402992043" lon="10.398844918031955"><ele>9.0</ele><time>2026-04-04T08:08:54.999Z</time></trkpt><trkpt lat="43.42775870013105" lon="10.398815387616416"><ele>9.0</ele><time>2026-04-04T08:08:57Z</time></trkpt><trkpt lat="43.42786822750605" lon="10.39874453049406"><ele>9.0</ele><time>2026-04-04T08:08:59Z</time></trkpt><trkpt lat="43.42796409992748" lon="10.39862991627699"><ele>9.0</ele><time>2026-04-04T08:09:01Z</time></trkpt><trkpt lat="43.42801220646139" lon="10.398564021327681"><ele>9.0</ele><time>2026-04-04T08:09:02Z</time></trkpt><trkpt lat="43.42805811835578" lon="10.39850373812186"><ele>9.0</ele><time>2026-04-04T08:09:03Z</time></trkpt><trkpt lat="43.42810428413753" lon="10.39843663472087"><ele>9.0</ele><time>2026-04-04T08:09:04Z</time></trkpt><trkpt lat="43.42818984665476" lon="10.398309910099272"><ele>10.4</ele><time>2026-04-04T08:09:06Z</time></trkpt><trkpt lat="43.42822927225954" lon="10.398237323753817"><ele>11.8</ele><time>2026-04-04T08:09:07Z</time></trkpt><trkpt lat="43.4283116250533" lon="10.398125957876724"><ele>13.200000000000001</ele><time>2026-04-04T08:09:09Z</time></trkpt><trkpt lat="43.42837466082449" lon="10.39800109829568"><ele>14.600000000000001</ele><time>2026-04-04T08:09:11Z</time></trkpt><trkpt lat="43.42843485039256" lon="10.397884061448863"><ele>16.0</ele><time>2026-04-04T08:09:13Z</time></trkpt><trkpt lat="43.428465020091366" lon="10.397763932933568"><ele>16.166666666666664</ele><time>2026-04-04T08:09:15Z</time></trkpt><trkpt lat="43.42849530905566" lon="10.397642675461192"><ele>16.333333333333332</ele><time>2026-04-04T08:09:17Z</time></trkpt><trkpt lat="43.42852098330379" lon="10.397527794773533"><ele>16.5</ele><time>2026-04-04T08:09:19Z</time></trkpt><trkpt lat="43.42854359777754" lon="10.397418413345907"><ele>16.666666666666668</ele><time>2026-04-04T08:09:21Z</time></trkpt><trkpt lat="43.428563114182666" lon="10.397296980706686"><ele>16.833333333333336</ele><time>2026-04-04T08:09:23Z</time></trkpt><trkpt lat="43.428584326932175" lon="10.397186325947793"><ele>17.0</ele><time>2026-04-04T08:09:25Z</time></trkpt><trkpt lat="43.42860577383427" lon="10.397076532282291"><ele>16.666666666666668</ele><time>2026-04-04T08:09:27Z</time></trkpt><trkpt lat="43.4286292544129" lon="10.39696712794583"><ele>16.333333333333336</ele><time>2026-04-04T08:09:29Z</time></trkpt><trkpt lat="43.42866898783021" lon="10.396867398760744"><ele>16.0</ele><time>2026-04-04T08:09:31Z</time></trkpt><trkpt lat="43.42870771740281" lon="10.396749731662913"><ele>15.666666666666668</ele><time>2026-04-04T08:09:33Z</time></trkpt><trkpt lat="43.42875347368469" lon="10.396656403707103"><ele>15.333333333333334</ele><time>2026-04-04T08:09:35Z</time></trkpt><trkpt lat="43.428810361991744" lon="10.396559555131406"><ele>15.0</ele><time>2026-04-04T08:09:37Z</time></trkpt><trkpt lat="43.428874839561445" lon="10.39647107442799"><ele>16.2</ele><time>2026-04-04T08:09:39Z</time></trkpt><trkpt lat="43.42895774960179" lon="10.396390146833342"><ele>17.4</ele><time>2026-04-04T08:09:41Z</time></trkpt><trkpt lat="43.429050998919514" lon="10.396334324506832"><ele>18.6</ele><time>2026-04-04T08:09:43Z</time></trkpt><trkpt lat="43.42914282036075" lon="10.396267182560798"><ele>19.8</ele><time>2026-04-04T08:09:45Z</time></trkpt><trkpt lat="43.42922890372545" lon="10.39619598465444"><ele>21.0</ele><time>2026-04-04T08:09:47Z</time></trkpt><trkpt lat="43.42931351701522" lon="10.396122442310606"><ele>21.0</ele><time>2026-04-04T08:09:49Z</time></trkpt><trkpt lat="43.42939704655203" lon="10.396035133061742"><ele>21.0</ele><time>2026-04-04T08:09:51Z</time></trkpt><trkpt lat="43.42946219124265" lon="10.395947886041691"><ele>21.0</ele><time>2026-04-04T08:09:53Z</time></trkpt><trkpt lat="43.42951208794758" lon="10.395810936206793"><ele>21.0</ele><time>2026-04-04T08:09:55Z</time></trkpt><trkpt lat="43.42955995782388" lon="10.39569780429526"><ele>21.0</ele><time>2026-04-04T08:09:57Z</time></trkpt><trkpt lat="43.429600506706784" lon="10.39559509804562"><ele>21.8</ele><time>2026-04-04T08:09:59Z</time></trkpt><trkpt lat="43.429655196318066" lon="10.395492514639574"><ele>22.6</ele><time>2026-04-04T08:10:01Z</time></trkpt><trkpt lat="43.42970013838477" lon="10.395390799709608"><ele>23.4</ele><time>2026-04-04T08:10:03Z</time></trkpt><trkpt lat="43.429741839261425" lon="10.39527888485405"><ele>24.2</ele><time>2026-04-04T08:10:05Z</time></trkpt><trkpt lat="43.42979665993061" lon="10.395172062895762"><ele>25.0</ele><time>2026-04-04T08:10:07Z</time></trkpt><trkpt lat="43.42985962915977" lon="10.395086668569322"><ele>25.0</ele><time>2026-04-04T08:10:09Z</time></trkpt><trkpt lat="43.42993360499493" lon="10.394982862628197"><ele>25.0</ele><time>2026-04-04T08:10:11Z</time></trkpt><trkpt lat="43.43003206700573" lon="10.394910262520119"><ele>25.0</ele><time>2026-04-04T08:10:13Z</time></trkpt><trkpt lat="43.43012433097859" lon="10.394821106290287"><ele>25.0</ele><time>2026-04-04T08:10:15Z</time></trkpt><trkpt lat="43.43021144243633" lon="10.394699038607225"><ele>24.333333333333336</ele><time>2026-04-04T08:10:17Z</time></trkpt><trkpt lat="43.4302638963895" lon="10.394644732963421"><ele>23.666666666666668</ele><time>2026-04-04T08:10:18Z</time></trkpt><trkpt lat="43.43031472975944" lon="10.394577326601468"><ele>23.0</ele><time>2026-04-04T08:10:19Z</time></trkpt><trkpt lat="43.43036425019114" lon="10.394496783823614"><ele>22.333333333333336</ele><time>2026-04-04T08:10:20Z</time></trkpt><trkpt lat="43.43040295490808" lon="10.39441073844264"><ele>21.666666666666668</ele><time>2026-04-04T08:10:21Z</time></trkpt><trkpt lat="43.430444772358996" lon="10.394308346199603"><ele>21.0</ele><time>2026-04-04T08:10:22Z</time></trkpt><trkpt lat="43.430490709433926" lon="10.394219104795434"><ele>21.0</ele><time>2026-04-04T08:10:23Z</time></trkpt><trkpt lat="43.43054176531725" lon="10.394129953082695"><ele>21.0</ele><time>2026-04-04T08:10:24Z</time></trkpt><trkpt lat="43.430591243429895" lon="10.394034084233967"><ele>21.0</ele><time>2026-04-04T08:10:25Z</time></trkpt><trkpt lat="43.43063784285734" lon="10.393935607059603"><ele>21.0</ele><time>2026-04-04T08:10:26Z</time></trkpt><trkpt lat="43.43068868020387" lon="10.393835944295542"><ele>21.0</ele><time>2026-04-04T08:10:27Z</time></trkpt><trkpt lat="43.43073867466494" lon="10.393733461289402"><ele>21.0</ele><time>2026-04-04T08:10:28Z</time></trkpt><trkpt lat="43.430790629258695" lon="10.3936255328012"><ele>20.333333333333332</ele><time>2026-04-04T08:10:29Z</time></trkpt><trkpt lat="43.43084409838715" lon="10.39352352374413"><ele>19.666666666666668</ele><time>2026-04-04T08:10:30Z</time></trkpt><trkpt lat="43.430897427500476" lon="10.393426113311005"><ele>19.0</ele><time>2026-04-04T08:10:31Z</time></trkpt><trkpt lat="43.43093955023466" lon="10.393320642029964"><ele>18.333333333333336</ele><time>2026-04-04T08:10:32Z</time></trkpt><trkpt lat="43.4309835585066" lon="10.393217685499947"><ele>17.666666666666668</ele><time>2026-04-04T08:10:33Z</time></trkpt><trkpt lat="43.431017880299926" lon="10.393118863673177"><ele>17.0</ele><time>2026-04-04T08:10:34Z</time></trkpt><trkpt lat="43.431052861675326" lon="10.393018959113807"><ele>16.428571428571427</ele><time>2026-04-04T08:10:35Z</time></trkpt><trkpt lat="43.43106732038954" lon="10.392911272404335"><ele>15.857142857142858</ele><time>2026-04-04T08:10:36Z</time></trkpt><trkpt lat="43.43108050546323" lon="10.39281174646683"><ele>15.285714285714285</ele><time>2026-04-04T08:10:37Z</time></trkpt><trkpt lat="43.43108221433608" lon="10.392713190883388"><ele>14.714285714285714</ele><time>2026-04-04T08:10:38Z</time></trkpt><trkpt lat="43.43108202599764" lon="10.392620455037896"><ele>14.142857142857142</ele><time>2026-04-04T08:10:39Z</time></trkpt><trkpt lat="43.431082634958635" lon="10.39253089922879"><ele>13.571428571428571</ele><time>2026-04-04T08:10:40Z</time></trkpt><trkpt lat="43.431079803143405" lon="10.392443462372947"><ele>13.0</ele><time>2026-04-04T08:10:41Z</time></trkpt><trkpt lat="43.431089276349915" lon="10.392272786828965"><ele>12.0</ele><time>2026-04-04T08:10:43Z</time></trkpt><trkpt lat="43.43111135142" lon="10.392109785217835"><ele>11.0</ele><time>2026-04-04T08:10:45Z</time></trkpt><trkpt lat="43.431149175294436" lon="10.391963162677131"><ele>10.0</ele><time>2026-04-04T08:10:47Z</time></trkpt><trkpt lat="43.43119563287171" lon="10.391833037889587"><ele>9.0</ele><time>2026-04-04T08:10:49Z</time></trkpt><trkpt lat="43.431267132871135" lon="10.391707829154138"><ele>10.75</ele><time>2026-04-04T08:10:51Z</time></trkpt><trkpt lat="43.431340320661306" lon="10.391593792585283"><ele>12.5</ele><time>2026-04-04T08:10:53Z</time></trkpt><trkpt lat="43.431424520906766" lon="10.391487062274557"><ele>14.25</ele><time>2026-04-04T08:10:55Z</time></trkpt><trkpt lat="43.431513727483846" lon="10.391389426005308"><ele>16.0</ele><time>2026-04-04T08:10:57Z</time></trkpt><trkpt lat="43.431616368354206" lon="10.391311469224714"><ele>16.0</ele><time>2026-04-04T08:10:59Z</time></trkpt><trkpt lat="43.43171220746935" lon="10.391250573600791"><ele>16.0</ele><time>2026-04-04T08:11:01Z</time></trkpt><trkpt lat="43.43181004669096" lon="10.391179314716467"><ele>16.0</ele><time>2026-04-04T08:11:03Z</time></trkpt><trkpt lat="43.43189934464006" lon="10.391100678700308"><ele>16.0</ele><time>2026-04-04T08:11:05Z</time></trkpt><trkpt lat="43.431984495628775" lon="10.391026951170817"><ele>16.0</ele><time>2026-04-04T08:11:07Z</time></trkpt><trkpt lat="43.43207935764926" lon="10.390959876199755"><ele>17.0</ele><time>2026-04-04T08:11:09Z</time></trkpt><trkpt lat="43.43217306315206" lon="10.390885434961977"><ele>18.0</ele><time>2026-04-04T08:11:11Z</time></trkpt><trkpt lat="43.43226508861257" lon="10.390815269332629"><ele>19.0</ele><time>2026-04-04T08:11:13Z</time></trkpt><trkpt lat="43.43235657999685" lon="10.390742141906692"><ele>20.0</ele><time>2026-04-04T08:11:15Z</time></trkpt><trkpt lat="43.432466582237076" lon="10.390664855171797"><ele>21.0</ele><time>2026-04-04T08:11:17Z</time></trkpt><trkpt lat="43.43256344771993" lon="10.39059029477891"><ele>21.0</ele><time>2026-04-04T08:11:19Z</time></trkpt><trkpt lat="43.43265629381437" lon="10.390532822967229"><ele>21.0</ele><time>2026-04-04T08:11:21Z</time></trkpt><trkpt lat="43.43275106292106" lon="10.390465420881934"><ele>21.0</ele><time>2026-04-04T08:11:23Z</time></trkpt><trkpt lat="43.4328432253778" lon="10.390407836166537"><ele>21.0</ele><time>2026-04-04T08:11:25Z</time></trkpt><trkpt lat="43.43292124415226" lon="10.390335862092586"><ele>21.0</ele><time>2026-04-04T08:11:27Z</time></trkpt><trkpt lat="43.43300854559703" lon="10.390263442136305"><ele>20.8</ele><time>2026-04-04T08:11:29Z</time></trkpt><trkpt lat="43.43310012447156" lon="10.39020035119878"><ele>20.6</ele><time>2026-04-04T08:11:31Z</time></trkpt><trkpt lat="43.43319699286156" lon="10.390138024795446"><ele>20.4</ele><time>2026-04-04T08:11:33Z</time></trkpt><trkpt lat="43.43329575362394" lon="10.390079129853717"><ele>20.2</ele><time>2026-04-04T08:11:35Z</time></trkpt><trkpt lat="43.4333856572157" lon="10.390016188953147"><ele>20.0</ele><time>2026-04-04T08:11:37Z</time></trkpt><trkpt lat="43.43347528726078" lon="10.389947345060813"><ele>20.0</ele><time>2026-04-04T08:11:39Z</time></trkpt><trkpt lat="43.43356626517533" lon="10.389873655722417"><ele>20.0</ele><time>2026-04-04T08:11:41Z</time></trkpt><trkpt lat="43.43364296572567" lon="10.389803350379278"><ele>20.0</ele><time>2026-04-04T08:11:43Z</time></trkpt><trkpt lat="43.433750550718216" lon="10.389747015626135"><ele>20.0</ele><time>2026-04-04T08:11:45Z</time></trkpt><trkpt lat="43.43385165936986" lon="10.389686638967449"><ele>20.0</ele><time>2026-04-04T08:11:47Z</time></trkpt><trkpt lat="43.43393791309268" lon="10.389614728299717"><ele>19.4</ele><time>2026-04-04T08:11:49Z</time></trkpt><trkpt lat="43.434028854214134" lon="10.389559738521521"><ele>18.8</ele><time>2026-04-04T08:11:51Z</time></trkpt><trkpt lat="43.43411869357493" lon="10.389499539472725"><ele>18.2</ele><time>2026-04-04T08:11:53Z</time></trkpt><trkpt lat="43.4342061352275" lon="10.389430400403258"><ele>17.6</ele><time>2026-04-04T08:11:55Z</time></trkpt><trkpt lat="43.434293917481455" lon="10.389364041563198"><ele>17.0</ele><time>2026-04-04T08:11:57Z</time></trkpt><trkpt lat="43.434354745727525" lon="10.38930090772039"><ele>17.0</ele><time>2026-04-04T08:11:59Z</time></trkpt><trkpt lat="43.43441816906571" lon="10.389268251650252"><ele>17.0</ele><time>2026-04-04T08:12:00Z</time></trkpt><trkpt lat="43.43451204205373" lon="10.389207221417683"><ele>17.0</ele><time>2026-04-04T08:12:02Z</time></trkpt><trkpt lat="43.434597249684536" lon="10.38915778225794"><ele>17.0</ele><time>2026-04-04T08:12:04Z</time></trkpt><trkpt lat="43.43468727473713" lon="10.389078829460185"><ele>17.0</ele><time>2026-04-04T08:12:06Z</time></trkpt><trkpt lat="43.43477034425911" lon="10.388992722855493"><ele>17.2</ele><time>2026-04-04T08:12:08Z</time></trkpt><trkpt lat="43.434858266515874" lon="10.38893626297854"><ele>17.4</ele><time>2026-04-04T08:12:10Z</time></trkpt><trkpt lat="43.43494770873371" lon="10.388868378268285"><ele>17.6</ele><time>2026-04-04T08:12:12Z</time></trkpt><trkpt lat="43.43504216963895" lon="10.388806213879391"><ele>17.8</ele><time>2026-04-04T08:12:14Z</time></trkpt><trkpt lat="43.43513600863018" lon="10.388741366677673"><ele>18.0</ele><time>2026-04-04T08:12:16Z</time></trkpt><trkpt lat="43.43523752815294" lon="10.388671473913895"><ele>18.0</ele><time>2026-04-04T08:12:18Z</time></trkpt><trkpt lat="43.43533398466602" lon="10.388591019235074"><ele>18.0</ele><time>2026-04-04T08:12:20Z</time></trkpt><trkpt lat="43.43544573440333" lon="10.38852561991452"><ele>18.0</ele><time>2026-04-04T08:12:22Z</time></trkpt><trkpt lat="43.43555457688881" lon="10.38846757777178"><ele>18.0</ele><time>2026-04-04T08:12:24Z</time></trkpt><trkpt lat="43.43566338852694" lon="10.388410982223125"><ele>18.333333333333332</ele><time>2026-04-04T08:12:26Z</time></trkpt><trkpt lat="43.43572620554681" lon="10.388359563902277"><ele>18.666666666666668</ele><time>2026-04-04T08:12:27Z</time></trkpt><trkpt lat="43.43578521960763" lon="10.388317980845992"><ele>19.0</ele><time>2026-04-04T08:12:28Z</time></trkpt><trkpt lat="43.435890300821235" lon="10.388252932876407"><ele>19.333333333333336</ele><time>2026-04-04T08:12:30Z</time></trkpt><trkpt lat="43.43595661954575" lon="10.388222964885943"><ele>19.666666666666668</ele><time>2026-04-04T08:12:31Z</time></trkpt><trkpt lat="43.43607592855956" lon="10.388171266241889"><ele>20.0</ele><time>2026-04-04T08:12:33Z</time></trkpt><trkpt lat="43.43614126009464" lon="10.388144674722856"><ele>20.0</ele><time>2026-04-04T08:12:34Z</time></trkpt><trkpt lat="43.43620084508325" lon="10.388114767834114"><ele>20.0</ele><time>2026-04-04T08:12:35Z</time></trkpt><trkpt lat="43.43625963726008" lon="10.388082994305128"><ele>20.0</ele><time>2026-04-04T08:12:36Z</time></trkpt><trkpt lat="43.43637150490693" lon="10.38802876962775"><ele>20.0</ele><time>2026-04-04T08:12:38Z</time></trkpt><trkpt lat="43.43648557827412" lon="10.387961948944213"><ele>20.0</ele><time>2026-04-04T08:12:40Z</time></trkpt><trkpt lat="43.43660243063621" lon="10.38789895300953"><ele>18.5</ele><time>2026-04-04T08:12:42Z</time></trkpt><trkpt lat="43.43671661536173" lon="10.387843779017015"><ele>17.0</ele><time>2026-04-04T08:12:44Z</time></trkpt><trkpt lat="43.43682937961155" lon="10.387778964546103"><ele>15.5</ele><time>2026-04-04T08:12:46Z</time></trkpt><trkpt lat="43.43694438787637" lon="10.387729690756856"><ele>14.0</ele><time>2026-04-04T08:12:48Z</time></trkpt><trkpt lat="43.437053718919586" lon="10.387668029057842"><ele>14.75</ele><time>2026-04-04T08:12:50Z</time></trkpt><trkpt lat="43.43716512584253" lon="10.387614542013464"><ele>15.5</ele><time>2026-04-04T08:12:52Z</time></trkpt><trkpt lat="43.43727139783904" lon="10.387563848881316"><ele>16.25</ele><time>2026-04-04T08:12:54Z</time></trkpt><trkpt lat="43.4373752620501" lon="10.387500135827256"><ele>17.0</ele><time>2026-04-04T08:12:56Z</time></trkpt><trkpt lat="43.437480859189236" lon="10.387451951032837"><ele>17.0</ele><time>2026-04-04T08:12:58Z</time></trkpt><trkpt lat="43.43758654075812" lon="10.38738805644304"><ele>17.0</ele><time>2026-04-04T08:12:59.999Z</time></trkpt><trkpt lat="43.437688203966154" lon="10.387336088646132"><ele>17.0</ele><time>2026-04-04T08:13:01.999Z</time></trkpt><trkpt lat="43.43779571144804" lon="10.38728033302274"><ele>17.0</ele><time>2026-04-04T08:13:03.999Z</time></trkpt><trkpt lat="43.43790480219485" lon="10.387227695495218"><ele>15.75</ele><time>2026-04-04T08:13:05.999Z</time></trkpt><trkpt lat="43.43801560441538" lon="10.387172792866918"><ele>14.5</ele><time>2026-04-04T08:13:08Z</time></trkpt><trkpt lat="43.43811973804498" lon="10.387120172933782"><ele>13.25</ele><time>2026-04-04T08:13:10Z</time></trkpt><trkpt lat="43.43822561924487" lon="10.387058425390057"><ele>12.0</ele><time>2026-04-04T08:13:12Z</time></trkpt><trkpt lat="43.43832963262924" lon="10.387004299613388"><ele>12.0</ele><time>2026-04-04T08:13:14Z</time></trkpt><trkpt lat="43.438440816250754" lon="10.386948976409103"><ele>12.0</ele><time>2026-04-04T08:13:16Z</time></trkpt><trkpt lat="43.43855107210726" lon="10.386892401856967"><ele>12.0</ele><time>2026-04-04T08:13:18Z</time></trkpt><trkpt lat="43.43866721528021" lon="10.386837982052343"><ele>12.0</ele><time>2026-04-04T08:13:20Z</time></trkpt><trkpt lat="43.43876859139818" lon="10.386781522563545"><ele>13.0</ele><time>2026-04-04T08:13:22Z</time></trkpt><trkpt lat="43.43887270252531" lon="10.38672711228953"><ele>14.0</ele><time>2026-04-04T08:13:24Z</time></trkpt><trkpt lat="43.438977826618604" lon="10.386667945041575"><ele>15.0</ele><time>2026-04-04T08:13:26Z</time></trkpt><trkpt lat="43.439069256543036" lon="10.386607282812191"><ele>16.0</ele><time>2026-04-04T08:13:28Z</time></trkpt><trkpt lat="43.43918590244615" lon="10.38655437343593"><ele>17.0</ele><time>2026-04-04T08:13:30Z</time></trkpt><trkpt lat="43.43924712043317" lon="10.386524682473764"><ele>17.0</ele><time>2026-04-04T08:13:31Z</time></trkpt><trkpt lat="43.43935385722076" lon="10.386477563948839"><ele>17.0</ele><time>2026-04-04T08:13:33Z</time></trkpt><trkpt lat="43.43946192821027" lon="10.386417541130744"><ele>17.0</ele><time>2026-04-04T08:13:35Z</time></trkpt><trkpt lat="43.43955690017989" lon="10.386372827990904"><ele>17.0</ele><time>2026-04-04T08:13:37Z</time></trkpt><trkpt lat="43.439666099995" lon="10.386312501937507"><ele>17.0</ele><time>2026-04-04T08:13:39Z</time></trkpt><trkpt lat="43.439774900719726" lon="10.386256955291165"><ele>17.0</ele><time>2026-04-04T08:13:41Z</time></trkpt><trkpt lat="43.439886575710865" lon="10.386199736779677"><ele>17.0</ele><time>2026-04-04T08:13:43Z</time></trkpt><trkpt lat="43.439989839214434" lon="10.386146596781709"><ele>17.0</ele><time>2026-04-04T08:13:45Z</time></trkpt><trkpt lat="43.44009537103558" lon="10.386097861514228"><ele>17.0</ele><time>2026-04-04T08:13:47Z</time></trkpt><trkpt lat="43.440194367095536" lon="10.386037512866947"><ele>17.0</ele><time>2026-04-04T08:13:49Z</time></trkpt><trkpt lat="43.4403008674181" lon="10.385966911836702"><ele>17.0</ele><time>2026-04-04T08:13:51Z</time></trkpt><trkpt lat="43.44040590273769" lon="10.385895110290111"><ele>17.0</ele><time>2026-04-04T08:13:53Z</time></trkpt><trkpt lat="43.44050791915392" lon="10.385824102292668"><ele>17.0</ele><time>2026-04-04T08:13:55Z</time></trkpt><trkpt lat="43.440565358798985" lon="10.385779602365123"><ele>17.0</ele><time>2026-04-04T08:13:56Z</time></trkpt><trkpt lat="43.44066481354426" lon="10.385705710732108"><ele>17.0</ele><time>2026-04-04T08:13:58Z</time></trkpt><trkpt lat="43.44076581535845" lon="10.385627056099489"><ele>17.0</ele><time>2026-04-04T08:14:00Z</time></trkpt><trkpt lat="43.4408675319794" lon="10.385550564045284"><ele>17.0</ele><time>2026-04-04T08:14:02Z</time></trkpt><trkpt lat="43.440968965849315" lon="10.385475195713903"><ele>17.0</ele><time>2026-04-04T08:14:04Z</time></trkpt><trkpt lat="43.441074629067636" lon="10.385394410981409"><ele>17.0</ele><time>2026-04-04T08:14:06Z</time></trkpt><trkpt lat="43.44117765595356" lon="10.385327374696182"><ele>16.6</ele><time>2026-04-04T08:14:08Z</time></trkpt><trkpt lat="43.441281500247634" lon="10.38526079559413"><ele>16.2</ele><time>2026-04-04T08:14:10Z</time></trkpt><trkpt lat="43.4413782144191" lon="10.385190221209166"><ele>15.8</ele><time>2026-04-04T08:14:12Z</time></trkpt><trkpt lat="43.44147878998724" lon="10.38512689823133"><ele>15.4</ele><time>2026-04-04T08:14:14Z</time></trkpt><trkpt lat="43.44157784879544" lon="10.385060718113266"><ele>15.0</ele><time>2026-04-04T08:14:16Z</time></trkpt><trkpt lat="43.44167958130665" lon="10.384983743217822"><ele>14.8</ele><time>2026-04-04T08:14:18Z</time></trkpt><trkpt lat="43.44178501365498" lon="10.38491816485724"><ele>14.6</ele><time>2026-04-04T08:14:20Z</time></trkpt><trkpt lat="43.44189332429244" lon="10.3848474162917"><ele>14.399999999999999</ele><time>2026-04-04T08:14:22Z</time></trkpt><trkpt lat="43.441981207835994" lon="10.384784481530199"><ele>14.2</ele><time>2026-04-04T08:14:24Z</time></trkpt><trkpt lat="43.4420777090777" lon="10.3847133521312"><ele>14.0</ele><time>2026-04-04T08:14:26Z</time></trkpt><trkpt lat="43.44217771656677" lon="10.384633634502"><ele>14.0</ele><time>2026-04-04T08:14:28Z</time></trkpt><trkpt lat="43.44228009478542" lon="10.384561550149503"><ele>14.0</ele><time>2026-04-04T08:14:30Z</time></trkpt><trkpt lat="43.44238236065649" lon="10.384487534041593"><ele>14.0</ele><time>2026-04-04T08:14:32Z</time></trkpt><trkpt lat="43.44248333027804" lon="10.38441434399885"><ele>14.0</ele><time>2026-04-04T08:14:34Z</time></trkpt><trkpt lat="43.442586730955355" lon="10.384338286597925"><ele>14.0</ele><time>2026-04-04T08:14:36Z</time></trkpt><trkpt lat="43.4426917753827" lon="10.38426619687656"><ele>14.0</ele><time>2026-04-04T08:14:38Z</time></trkpt><trkpt lat="43.442795963664814" lon="10.384192625982756"><ele>14.0</ele><time>2026-04-04T08:14:40Z</time></trkpt><trkpt lat="43.44290610052268" lon="10.384112174832621"><ele>14.0</ele><time>2026-04-04T08:14:42Z</time></trkpt><trkpt lat="43.443015736354916" lon="10.38403620317359"><ele>13.75</ele><time>2026-04-04T08:14:44Z</time></trkpt><trkpt lat="43.443121329686946" lon="10.383958809325923"><ele>13.5</ele><time>2026-04-04T08:14:46Z</time></trkpt><trkpt lat="43.443221893727525" lon="10.38388117328841"><ele>13.25</ele><time>2026-04-04T08:14:48Z</time></trkpt><trkpt lat="43.44331997138429" lon="10.383804985357154"><ele>13.0</ele><time>2026-04-04T08:14:50Z</time></trkpt><trkpt lat="43.4434225232545" lon="10.383731677720517"><ele>13.0</ele><time>2026-04-04T08:14:52Z</time></trkpt><trkpt lat="43.44352243974867" lon="10.383655256963237"><ele>13.0</ele><time>2026-04-04T08:14:54Z</time></trkpt><trkpt lat="43.443623840479276" lon="10.383580046900612"><ele>13.0</ele><time>2026-04-04T08:14:56Z</time></trkpt><trkpt lat="43.443719874830954" lon="10.383501763343869"><ele>13.0</ele><time>2026-04-04T08:14:58Z</time></trkpt><trkpt lat="43.44381590060137" lon="10.383429114600306"><ele>14.2</ele><time>2026-04-04T08:15:00Z</time></trkpt><trkpt lat="43.44391021490285" lon="10.383366821517562"><ele>15.4</ele><time>2026-04-04T08:15:02Z</time></trkpt><trkpt lat="43.444003634574685" lon="10.383322678116869"><ele>16.599999999999998</ele><time>2026-04-04T08:15:04Z</time></trkpt><trkpt lat="43.44408973641591" lon="10.383277501186837"><ele>17.8</ele><time>2026-04-04T08:15:06Z</time></trkpt><trkpt lat="43.444176856974245" lon="10.38324189371088"><ele>19.0</ele><time>2026-04-04T08:15:08Z</time></trkpt><trkpt lat="43.444259730572604" lon="10.383201471642925"><ele>19.0</ele><time>2026-04-04T08:15:10Z</time></trkpt><trkpt lat="43.444336593801474" lon="10.383173174782934"><ele>19.0</ele><time>2026-04-04T08:15:12Z</time></trkpt><trkpt lat="43.44441239200588" lon="10.383144509377054"><ele>19.0</ele><time>2026-04-04T08:15:14Z</time></trkpt><trkpt lat="43.44448890374719" lon="10.383120013999807"><ele>19.0</ele><time>2026-04-04T08:15:16Z</time></trkpt><trkpt lat="43.44456310721874" lon="10.383098852365395"><ele>19.0</ele><time>2026-04-04T08:15:18Z</time></trkpt><trkpt lat="43.444637361229624" lon="10.383076481408505"><ele>19.0</ele><time>2026-04-04T08:15:20Z</time></trkpt><trkpt lat="43.444715252788555" lon="10.383051129414833"><ele>20.0</ele><time>2026-04-04T08:15:22Z</time></trkpt><trkpt lat="43.444794120031084" lon="10.38303149334129"><ele>21.0</ele><time>2026-04-04T08:15:24Z</time></trkpt><trkpt lat="43.444874138110144" lon="10.383006589441488"><ele>22.0</ele><time>2026-04-04T08:15:26Z</time></trkpt><trkpt lat="43.44495348370943" lon="10.382978198915975"><ele>23.0</ele><time>2026-04-04T08:15:28Z</time></trkpt><trkpt lat="43.445033869762206" lon="10.382951009027025"><ele>24.000000000000004</ele><time>2026-04-04T08:15:30Z</time></trkpt><trkpt lat="43.445119354518376" lon="10.382932115091034"><ele>25.0</ele><time>2026-04-04T08:15:32Z</time></trkpt><trkpt lat="43.44520470321178" lon="10.38291143889232"><ele>23.000000000000004</ele><time>2026-04-04T08:15:34Z</time></trkpt><trkpt lat="43.445288831984755" lon="10.382908199958898"><ele>21.0</ele><time>2026-04-04T08:15:36Z</time></trkpt><trkpt lat="43.44537543469977" lon="10.38292737353385"><ele>19.0</ele><time>2026-04-04T08:15:38Z</time></trkpt><trkpt lat="43.445464023256285" lon="10.382936540544605"><ele>17.0</ele><time>2026-04-04T08:15:40Z</time></trkpt><trkpt lat="43.4455561589676" lon="10.382944628817661"><ele>15.0</ele><time>2026-04-04T08:15:42Z</time></trkpt><trkpt lat="43.445650081557446" lon="10.382946207450148"><ele>13.0</ele><time>2026-04-04T08:15:44Z</time></trkpt><trkpt lat="43.44574028121857" lon="10.382929149559695"><ele>13.0</ele><time>2026-04-04T08:15:46Z</time></trkpt><trkpt lat="43.445830772555766" lon="10.38288285328288"><ele>13.0</ele><time>2026-04-04T08:15:48Z</time></trkpt><trkpt lat="43.44592560174531" lon="10.382816889974501"><ele>13.0</ele><time>2026-04-04T08:15:50Z</time></trkpt><trkpt lat="43.44602506387809" lon="10.382746055915868"><ele>13.0</ele><time>2026-04-04T08:15:52Z</time></trkpt><trkpt lat="43.446125949392716" lon="10.382674879011274"><ele>13.0</ele><time>2026-04-04T08:15:54Z</time></trkpt><trkpt lat="43.44623228353903" lon="10.382598828627449"><ele>14.857142857142858</ele><time>2026-04-04T08:15:56Z</time></trkpt><trkpt lat="43.44634045575398" lon="10.38251562884363"><ele>16.714285714285715</ele><time>2026-04-04T08:15:58Z</time></trkpt><trkpt lat="43.446392710613054" lon="10.382467000932506"><ele>18.57142857142857</ele><time>2026-04-04T08:15:59Z</time></trkpt><trkpt lat="43.44644657658448" lon="10.38242096970579"><ele>20.42857142857143</ele><time>2026-04-04T08:16:00Z</time></trkpt><trkpt lat="43.4465000502058" lon="10.382372469346837"><ele>22.28571428571429</ele><time>2026-04-04T08:16:01Z</time></trkpt><trkpt lat="43.446556023027995" lon="10.382324627994551"><ele>24.142857142857142</ele><time>2026-04-04T08:16:02Z</time></trkpt><trkpt lat="43.446611321379535" lon="10.38227423924131"><ele>26.0</ele><time>2026-04-04T08:16:03Z</time></trkpt><trkpt lat="43.446669496369" lon="10.382224457618669"><ele>23.57142857142857</ele><time>2026-04-04T08:16:04Z</time></trkpt><trkpt lat="43.446728353322186" lon="10.382173735310053"><ele>21.142857142857146</ele><time>2026-04-04T08:16:05Z</time></trkpt><trkpt lat="43.446785377740234" lon="10.382123535963888"><ele>18.714285714285715</ele><time>2026-04-04T08:16:06Z</time></trkpt><trkpt lat="43.446841480226965" lon="10.382067508069511"><ele>16.285714285714285</ele><time>2026-04-04T08:16:07Z</time></trkpt><trkpt lat="43.446898323726145" lon="10.382015549835865"><ele>13.857142857142858</ele><time>2026-04-04T08:16:08Z</time></trkpt><trkpt lat="43.446955596933044" lon="10.381962554201305"><ele>11.42857142857143</ele><time>2026-04-04T08:16:09Z</time></trkpt><trkpt lat="43.44701088264778" lon="10.381910168033466"><ele>9.0</ele><time>2026-04-04T08:16:10Z</time></trkpt><trkpt lat="43.447069049771976" lon="10.381855531886671"><ele>9.000000000000002</ele><time>2026-04-04T08:16:11Z</time></trkpt><trkpt lat="43.447124676474395" lon="10.381804834449534"><ele>9.0</ele><time>2026-04-04T08:16:12Z</time></trkpt><trkpt lat="43.44718442138103" lon="10.381751912391918"><ele>9.0</ele><time>2026-04-04T08:16:13Z</time></trkpt><trkpt lat="43.447244157386336" lon="10.381694807621953"><ele>9.0</ele><time>2026-04-04T08:16:14Z</time></trkpt><trkpt lat="43.44730129338764" lon="10.381634416639542"><ele>9.0</ele><time>2026-04-04T08:16:15Z</time></trkpt><trkpt lat="43.44736311620133" lon="10.381575946477755"><ele>9.000000000000002</ele><time>2026-04-04T08:16:16Z</time></trkpt><trkpt lat="43.447426470554205" lon="10.381520553166968"><ele>9.0</ele><time>2026-04-04T08:16:17Z</time></trkpt><trkpt lat="43.44749331563008" lon="10.381461657950428"><ele>9.333333333333334</ele><time>2026-04-04T08:16:18Z</time></trkpt><trkpt lat="43.44755973028396" lon="10.381395782284272"><ele>9.666666666666666</ele><time>2026-04-04T08:16:19Z</time></trkpt><trkpt lat="43.447623650748724" lon="10.381334623945481"><ele>10.0</ele><time>2026-04-04T08:16:20Z</time></trkpt><trkpt lat="43.4476921701458" lon="10.381267983737683"><ele>10.333333333333332</ele><time>2026-04-04T08:16:21Z</time></trkpt><trkpt lat="43.44775952414887" lon="10.381201436801044"><ele>10.666666666666666</ele><time>2026-04-04T08:16:22Z</time></trkpt><trkpt lat="43.447832833814424" lon="10.381135633880394"><ele>11.0</ele><time>2026-04-04T08:16:23Z</time></trkpt><trkpt lat="43.447902782010196" lon="10.38106177297206"><ele>11.600000000000001</ele><time>2026-04-04T08:16:24Z</time></trkpt><trkpt lat="43.447975332862754" lon="10.380984545308179"><ele>12.2</ele><time>2026-04-04T08:16:25Z</time></trkpt><trkpt lat="43.44805162644321" lon="10.38091762621376"><ele>12.799999999999999</ele><time>2026-04-04T08:16:26Z</time></trkpt><trkpt lat="43.448128170643045" lon="10.380853792862201"><ele>13.399999999999999</ele><time>2026-04-04T08:16:27Z</time></trkpt><trkpt lat="43.448203208261624" lon="10.380780153861012"><ele>14.0</ele><time>2026-04-04T08:16:28Z</time></trkpt><trkpt lat="43.44827971716832" lon="10.38070217154222"><ele>14.0</ele><time>2026-04-04T08:16:29Z</time></trkpt><trkpt lat="43.44835767700883" lon="10.380633798862485"><ele>13.999999999999998</ele><time>2026-04-04T08:16:30Z</time></trkpt><trkpt lat="43.44843824573801" lon="10.380566067240508"><ele>13.999999999999998</ele><time>2026-04-04T08:16:31Z</time></trkpt><trkpt lat="43.44851928351868" lon="10.38049112562623"><ele>14.0</ele><time>2026-04-04T08:16:32Z</time></trkpt><trkpt lat="43.44859455449736" lon="10.380405180525937"><ele>14.0</ele><time>2026-04-04T08:16:33Z</time></trkpt><trkpt lat="43.448674450005605" lon="10.38033047082285"><ele>13.399999999999999</ele><time>2026-04-04T08:16:34Z</time></trkpt><trkpt lat="43.44875191885036" lon="10.380238769392832"><ele>12.799999999999999</ele><time>2026-04-04T08:16:35Z</time></trkpt><trkpt lat="43.44883272142805" lon="10.380169179812127"><ele>12.2</ele><time>2026-04-04T08:16:36Z</time></trkpt><trkpt lat="43.44891485623733" lon="10.38011206710107"><ele>11.600000000000001</ele><time>2026-04-04T08:16:37Z</time></trkpt><trkpt lat="43.44899382358266" lon="10.380035654017481"><ele>11.0</ele><time>2026-04-04T08:16:38Z</time></trkpt><trkpt lat="43.449069446523346" lon="10.379957115082357"><ele>11.0</ele><time>2026-04-04T08:16:39Z</time></trkpt><trkpt lat="43.44914496605138" lon="10.379882443019218"><ele>11.0</ele><time>2026-04-04T08:16:40Z</time></trkpt><trkpt lat="43.44921758913741" lon="10.379808308583815"><ele>11.0</ele><time>2026-04-04T08:16:41Z</time></trkpt><trkpt lat="43.44928608092085" lon="10.37973636555972"><ele>11.0</ele><time>2026-04-04T08:16:42Z</time></trkpt><trkpt lat="43.44935215940447" lon="10.379669238737105"><ele>11.0</ele><time>2026-04-04T08:16:43Z</time></trkpt><trkpt lat="43.44941653859368" lon="10.37960630398643"><ele>11.0</ele><time>2026-04-04T08:16:44Z</time></trkpt><trkpt lat="43.44947498576382" lon="10.379541124019289"><ele>11.285714285714286</ele><time>2026-04-04T08:16:45Z</time></trkpt><trkpt lat="43.449532762864244" lon="10.37948014156771"><ele>11.571428571428571</ele><time>2026-04-04T08:16:46Z</time></trkpt><trkpt lat="43.44959412551396" lon="10.37942166724947"><ele>11.857142857142858</ele><time>2026-04-04T08:16:47Z</time></trkpt><trkpt lat="43.449649906637546" lon="10.379365584321924"><ele>12.142857142857142</ele><time>2026-04-04T08:16:48Z</time></trkpt><trkpt lat="43.449705681148494" lon="10.379311639546914"><ele>12.428571428571429</ele><time>2026-04-04T08:16:49Z</time></trkpt><trkpt lat="43.449759689889476" lon="10.379257394984338"><ele>12.714285714285714</ele><time>2026-04-04T08:16:50Z</time></trkpt><trkpt lat="43.44981414137354" lon="10.379209155041469"><ele>13.0</ele><time>2026-04-04T08:16:51Z</time></trkpt><trkpt lat="43.44987891970666" lon="10.379197630313222"><ele>13.0</ele><time>2026-04-04T08:16:52Z</time></trkpt><trkpt lat="43.44994005717679" lon="10.379227005080729"><ele>13.0</ele><time>2026-04-04T08:16:53Z</time></trkpt><trkpt lat="43.45001750529152" lon="10.379380736288887"><ele>13.0</ele><time>2026-04-04T08:16:55Z</time></trkpt><trkpt lat="43.45005905814105" lon="10.379502329453528"><ele>13.0</ele><time>2026-04-04T08:16:57Z</time></trkpt><trkpt lat="43.45018225879093" lon="10.37940781857994"><ele>13.0</ele><time>2026-04-04T08:17:00Z</time></trkpt><trkpt lat="43.45020611664204" lon="10.379289636604577"><ele>12.999999999999998</ele><time>2026-04-04T08:17:02Z</time></trkpt><trkpt lat="43.45025485871137" lon="10.3791848425439"><ele>13.0</ele><time>2026-04-04T08:17:04Z</time></trkpt><trkpt lat="43.45028682289764" lon="10.379076479384231"><ele>13.0</ele><time>2026-04-04T08:17:06Z</time></trkpt><trkpt lat="43.450322355187005" lon="10.378968939238378"><ele>13.0</ele><time>2026-04-04T08:17:08Z</time></trkpt><trkpt lat="43.45036393827503" lon="10.378865425464902"><ele>12.999999999999998</ele><time>2026-04-04T08:17:10Z</time></trkpt><trkpt lat="43.45040926328071" lon="10.378756233258626"><ele>13.0</ele><time>2026-04-04T08:17:12Z</time></trkpt><trkpt lat="43.450443196265084" lon="10.378645781229087"><ele>14.833333333333332</ele><time>2026-04-04T08:17:13.999Z</time></trkpt><trkpt lat="43.45049228072433" lon="10.378550815250703"><ele>16.666666666666664</ele><time>2026-04-04T08:17:15.999Z</time></trkpt><trkpt lat="43.450539920028575" lon="10.378458645218274"><ele>18.5</ele><time>2026-04-04T08:17:17.999Z</time></trkpt><trkpt lat="43.45060425899797" lon="10.378380534457637"><ele>20.333333333333332</ele><time>2026-04-04T08:17:20Z</time></trkpt><trkpt lat="43.450642378230945" lon="10.378276477317549"><ele>22.166666666666668</ele><time>2026-04-04T08:17:22Z</time></trkpt><trkpt lat="43.45069627540866" lon="10.378192907066703"><ele>24.0</ele><time>2026-04-04T08:17:24Z</time></trkpt><trkpt lat="43.4507388606229" lon="10.378095403427674"><ele>23.166666666666668</ele><time>2026-04-04T08:17:26Z</time></trkpt><trkpt lat="43.45078540193501" lon="10.378011550023624"><ele>22.333333333333332</ele><time>2026-04-04T08:17:28Z</time></trkpt><trkpt lat="43.450809486462035" lon="10.377922183340477"><ele>21.5</ele><time>2026-04-04T08:17:30Z</time></trkpt><trkpt lat="43.450873810217765" lon="10.377833422933863"><ele>20.666666666666664</ele><time>2026-04-04T08:17:32Z</time></trkpt><trkpt lat="43.45092714127461" lon="10.377748774873279"><ele>19.833333333333332</ele><time>2026-04-04T08:17:34Z</time></trkpt><trkpt lat="43.45098745238871" lon="10.377682638698918"><ele>19.0</ele><time>2026-04-04T08:17:36Z</time></trkpt><trkpt lat="43.451043191301075" lon="10.377598326355065"><ele>19.0</ele><time>2026-04-04T08:17:38Z</time></trkpt><trkpt lat="43.451115243583956" lon="10.377549649970204"><ele>19.0</ele><time>2026-04-04T08:17:40Z</time></trkpt><trkpt lat="43.45117059028218" lon="10.377466210294319"><ele>19.0</ele><time>2026-04-04T08:17:42Z</time></trkpt><trkpt lat="43.45123111440517" lon="10.377385322556048"><ele>19.0</ele><time>2026-04-04T08:17:44Z</time></trkpt><trkpt lat="43.4512899625392" lon="10.377318747199373"><ele>19.0</ele><time>2026-04-04T08:17:46Z</time></trkpt><trkpt lat="43.45135394121033" lon="10.377247388754748"><ele>19.0</ele><time>2026-04-04T08:17:48Z</time></trkpt><trkpt lat="43.45142270046322" lon="10.377192990336553"><ele>19.666666666666664</ele><time>2026-04-04T08:17:50Z</time></trkpt><trkpt lat="43.451495682521006" lon="10.37713939510261"><ele>20.333333333333332</ele><time>2026-04-04T08:17:52Z</time></trkpt><trkpt lat="43.451562285406155" lon="10.377098250280575"><ele>21.0</ele><time>2026-04-04T08:17:54Z</time></trkpt><trkpt lat="43.45164168374745" lon="10.377034280514973"><ele>21.666666666666668</ele><time>2026-04-04T08:17:56Z</time></trkpt><trkpt lat="43.451717733947625" lon="10.376995228145606"><ele>22.333333333333336</ele><time>2026-04-04T08:17:58Z</time></trkpt><trkpt lat="43.45178425212064" lon="10.376927722890048"><ele>23.0</ele><time>2026-04-04T08:18:00Z</time></trkpt><trkpt lat="43.45185372382316" lon="10.376867243144398"><ele>23.0</ele><time>2026-04-04T08:18:02Z</time></trkpt><trkpt lat="43.45192941366541" lon="10.376822915218488"><ele>23.0</ele><time>2026-04-04T08:18:04Z</time></trkpt><trkpt lat="43.45199271091571" lon="10.376741381798473"><ele>23.0</ele><time>2026-04-04T08:18:06Z</time></trkpt><trkpt lat="43.45206366143157" lon="10.376693200799687"><ele>23.0</ele><time>2026-04-04T08:18:08Z</time></trkpt><trkpt lat="43.452137013775484" lon="10.376640677177306"><ele>23.0</ele><time>2026-04-04T08:18:10Z</time></trkpt><trkpt lat="43.4522109131169" lon="10.376588251495694"><ele>23.0</ele><time>2026-04-04T08:18:12Z</time></trkpt><trkpt lat="43.452280355627614" lon="10.376528660126622"><ele>23.5</ele><time>2026-04-04T08:18:14Z</time></trkpt><trkpt lat="43.45235105657198" lon="10.376474833752575"><ele>24.0</ele><time>2026-04-04T08:18:16Z</time></trkpt><trkpt lat="43.452420821713794" lon="10.376419546202357"><ele>24.5</ele><time>2026-04-04T08:18:18Z</time></trkpt><trkpt lat="43.4524932405263" lon="10.376366905050725"><ele>25.0</ele><time>2026-04-04T08:18:20Z</time></trkpt><trkpt lat="43.45256133707066" lon="10.376309967083161"><ele>25.499999999999996</ele><time>2026-04-04T08:18:22Z</time></trkpt><trkpt lat="43.45263426090974" lon="10.376268231549108"><ele>26.0</ele><time>2026-04-04T08:18:24Z</time></trkpt><trkpt lat="43.452695620525155" lon="10.376199484740415"><ele>25.999999999999996</ele><time>2026-04-04T08:18:26Z</time></trkpt><trkpt lat="43.45276929507674" lon="10.376146052193231"><ele>26.0</ele><time>2026-04-04T08:18:28Z</time></trkpt><trkpt lat="43.452843038234214" lon="10.37609780667352"><ele>26.0</ele><time>2026-04-04T08:18:30Z</time></trkpt><trkpt lat="43.4529120436863" lon="10.376030617673885"><ele>26.0</ele><time>2026-04-04T08:18:32Z</time></trkpt><trkpt lat="43.45298779135669" lon="10.375978147180296"><ele>25.999999999999996</ele><time>2026-04-04T08:18:34Z</time></trkpt><trkpt lat="43.45306255118218" lon="10.375916878793625"><ele>26.0</ele><time>2026-04-04T08:18:36Z</time></trkpt><trkpt lat="43.453140609608994" lon="10.37585870400955"><ele>27.4</ele><time>2026-04-04T08:18:38Z</time></trkpt><trkpt lat="43.45321810479837" lon="10.375793106648413"><ele>28.8</ele><time>2026-04-04T08:18:40Z</time></trkpt><trkpt lat="43.45329883848306" lon="10.375731223095288"><ele>30.199999999999996</ele><time>2026-04-04T08:18:42Z</time></trkpt><trkpt lat="43.453382834161644" lon="10.375674533711093"><ele>31.599999999999998</ele><time>2026-04-04T08:18:44Z</time></trkpt><trkpt lat="43.453467928201945" lon="10.375612583897421"><ele>33.0</ele><time>2026-04-04T08:18:46Z</time></trkpt><trkpt lat="43.45354872598885" lon="10.375554082728828"><ele>32.666666666666664</ele><time>2026-04-04T08:18:48Z</time></trkpt><trkpt lat="43.45362989078902" lon="10.375480488480063"><ele>32.333333333333336</ele><time>2026-04-04T08:18:50Z</time></trkpt><trkpt lat="43.453697456848474" lon="10.375448761114473"><ele>32.0</ele><time>2026-04-04T08:18:52Z</time></trkpt><trkpt lat="43.45375917672689" lon="10.375408007311162"><ele>31.666666666666668</ele><time>2026-04-04T08:19:12Z</time></trkpt><trkpt lat="43.45380690133905" lon="10.375327058149288"><ele>31.333333333333336</ele><time>2026-04-04T08:19:42Z</time></trkpt><trkpt lat="43.45388335993225" lon="10.37528473974098"><ele>31.0</ele><time>2026-04-04T08:19:44Z</time></trkpt><trkpt lat="43.45396429617473" lon="10.375223693622061"><ele>31.0</ele><time>2026-04-04T08:19:46Z</time></trkpt><trkpt lat="43.454056923041556" lon="10.375151880954903"><ele>31.0</ele><time>2026-04-04T08:19:48Z</time></trkpt><trkpt lat="43.45415056318609" lon="10.375084837547057"><ele>31.0</ele><time>2026-04-04T08:19:50Z</time></trkpt><trkpt lat="43.45424617547367" lon="10.375010315823626"><ele>31.0</ele><time>2026-04-04T08:19:52Z</time></trkpt><trkpt lat="43.45434241845934" lon="10.374927960070456"><ele>31.0</ele><time>2026-04-04T08:19:54Z</time></trkpt><trkpt lat="43.454447866630716" lon="10.374863834976143"><ele>31.0</ele><time>2026-04-04T08:19:56Z</time></trkpt><trkpt lat="43.454545493183865" lon="10.374775774531571"><ele>31.0</ele><time>2026-04-04T08:19:58Z</time></trkpt><trkpt lat="43.45464330541776" lon="10.374684838701198"><ele>31.0</ele><time>2026-04-04T08:20:00Z</time></trkpt><trkpt lat="43.454739565594345" lon="10.374578783904001"><ele>31.0</ele><time>2026-04-04T08:20:02Z</time></trkpt><trkpt lat="43.454834676177704" lon="10.37447676240173"><ele>31.25</ele><time>2026-04-04T08:20:04Z</time></trkpt><trkpt lat="43.4549248378044" lon="10.374362174005986"><ele>31.5</ele><time>2026-04-04T08:20:06Z</time></trkpt><trkpt lat="43.45500988958781" lon="10.374248261271903"><ele>31.75</ele><time>2026-04-04T08:20:08Z</time></trkpt><trkpt lat="43.455109965001384" lon="10.374152660954316"><ele>32.0</ele><time>2026-04-04T08:20:10Z</time></trkpt><trkpt lat="43.45520631078372" lon="10.374047175807322"><ele>31.999999999999996</ele><time>2026-04-04T08:20:12Z</time></trkpt><trkpt lat="43.45525143695127" lon="10.373981789349363"><ele>32.0</ele><time>2026-04-04T08:20:13Z</time></trkpt><trkpt lat="43.45529683214364" lon="10.37391612287142"><ele>32.0</ele><time>2026-04-04T08:20:14Z</time></trkpt><trkpt lat="43.45539373915153" lon="10.373803074757966"><ele>32.0</ele><time>2026-04-04T08:20:16Z</time></trkpt><trkpt lat="43.45544071856297" lon="10.373741761778243"><ele>31.999999999999996</ele><time>2026-04-04T08:20:17Z</time></trkpt><trkpt lat="43.45553609788688" lon="10.373630758740358"><ele>32.0</ele><time>2026-04-04T08:20:19Z</time></trkpt><trkpt lat="43.45562869712049" lon="10.373516587684893"><ele>32.2</ele><time>2026-04-04T08:20:21Z</time></trkpt><trkpt lat="43.45568011113653" lon="10.373454253065278"><ele>32.400000000000006</ele><time>2026-04-04T08:20:22Z</time></trkpt><trkpt lat="43.45577807735296" lon="10.373341223927625"><ele>32.599999999999994</ele><time>2026-04-04T08:20:24Z</time></trkpt><trkpt lat="43.45587068716222" lon="10.373228218028974"><ele>32.8</ele><time>2026-04-04T08:20:26Z</time></trkpt><trkpt lat="43.45595963445969" lon="10.373118025773874"><ele>33.0</ele><time>2026-04-04T08:20:28Z</time></trkpt><trkpt lat="43.456011753826424" lon="10.37306806189889"><ele>32.4</ele><time>2026-04-04T08:20:29Z</time></trkpt><trkpt lat="43.45610432259979" lon="10.37294304608743"><ele>31.799999999999997</ele><time>2026-04-04T08:20:31Z</time></trkpt><trkpt lat="43.45619884681435" lon="10.37282463789137"><ele>31.2</ele><time>2026-04-04T08:20:33Z</time></trkpt><trkpt lat="43.45624975913956" lon="10.372767313410737"><ele>30.6</ele><time>2026-04-04T08:20:34Z</time></trkpt><trkpt lat="43.456302421476146" lon="10.372706023072551"><ele>30.0</ele><time>2026-04-04T08:20:35Z</time></trkpt><trkpt lat="43.45635685670325" lon="10.372647199411364"><ele>30.0</ele><time>2026-04-04T08:20:36Z</time></trkpt><trkpt lat="43.45640902075623" lon="10.372587292328891"><ele>30.0</ele><time>2026-04-04T08:20:37Z</time></trkpt><trkpt lat="43.45646279275556" lon="10.372524709369351"><ele>30.0</ele><time>2026-04-04T08:20:38Z</time></trkpt><trkpt lat="43.456515903233566" lon="10.372456268710865"><ele>30.0</ele><time>2026-04-04T08:20:39Z</time></trkpt><trkpt lat="43.45657904295994" lon="10.372395758103892"><ele>30.0</ele><time>2026-04-04T08:20:40Z</time></trkpt><trkpt lat="43.45663235817858" lon="10.372340770626444"><ele>30.0</ele><time>2026-04-04T08:20:41Z</time></trkpt><trkpt lat="43.456688097929266" lon="10.37227527385998"><ele>30.0</ele><time>2026-04-04T08:20:42Z</time></trkpt><trkpt lat="43.45675089999216" lon="10.372209862221995"><ele>30.571428571428573</ele><time>2026-04-04T08:20:43Z</time></trkpt><trkpt lat="43.45679729066828" lon="10.372134724906338"><ele>31.14285714285714</ele><time>2026-04-04T08:20:44Z</time></trkpt><trkpt lat="43.45684728057505" lon="10.372059106383652"><ele>31.71428571428571</ele><time>2026-04-04T08:20:45Z</time></trkpt><trkpt lat="43.45690623201989" lon="10.371992778574171"><ele>32.285714285714285</ele><time>2026-04-04T08:20:46Z</time></trkpt><trkpt lat="43.45695646224721" lon="10.371918749523992"><ele>32.857142857142854</ele><time>2026-04-04T08:20:47Z</time></trkpt><trkpt lat="43.45701236682306" lon="10.371855414187626"><ele>33.42857142857142</ele><time>2026-04-04T08:20:48Z</time></trkpt><trkpt lat="43.457064725184566" lon="10.371784864426669"><ele>34.0</ele><time>2026-04-04T08:20:49Z</time></trkpt><trkpt lat="43.45712080772279" lon="10.371719638476232"><ele>34.0</ele><time>2026-04-04T08:20:50Z</time></trkpt><trkpt lat="43.45717465049313" lon="10.371650970679125"><ele>34.0</ele><time>2026-04-04T08:20:51Z</time></trkpt><trkpt lat="43.45723262824335" lon="10.371584034334658"><ele>34.0</ele><time>2026-04-04T08:20:52Z</time></trkpt><trkpt lat="43.45729271523957" lon="10.371516440764442"><ele>34.0</ele><time>2026-04-04T08:20:53Z</time></trkpt><trkpt lat="43.457351854184026" lon="10.371444574541547"><ele>34.0</ele><time>2026-04-04T08:20:54Z</time></trkpt><trkpt lat="43.45744718668032" lon="10.371320581628844"><ele>34.0</ele><time>2026-04-04T08:20:56Z</time></trkpt><trkpt lat="43.45750279270061" lon="10.371247576505873"><ele>32.71428571428571</ele><time>2026-04-04T08:20:57Z</time></trkpt><trkpt lat="43.45755988760182" lon="10.371183342872875"><ele>31.428571428571427</ele><time>2026-04-04T08:20:58Z</time></trkpt><trkpt lat="43.45761758976636" lon="10.371117066346862"><ele>30.142857142857142</ele><time>2026-04-04T08:20:59Z</time></trkpt><trkpt lat="43.45767118431005" lon="10.371051535634463"><ele>28.857142857142854</ele><time>2026-04-04T08:21:00Z</time></trkpt><trkpt lat="43.45772613529353" lon="10.370986034573441"><ele>27.57142857142857</ele><time>2026-04-04T08:21:01Z</time></trkpt><trkpt lat="43.457778986393194" lon="10.37091528284635"><ele>26.28571428571429</ele><time>2026-04-04T08:21:02Z</time></trkpt><trkpt lat="43.45782451895833" lon="10.370838563721808"><ele>25.0</ele><time>2026-04-04T08:21:03Z</time></trkpt><trkpt lat="43.45787095630244" lon="10.370756967672255"><ele>25.000000000000004</ele><time>2026-04-04T08:21:04Z</time></trkpt><trkpt lat="43.45791342403678" lon="10.370672663502702"><ele>25.0</ele><time>2026-04-04T08:21:05Z</time></trkpt><trkpt lat="43.45795296470421" lon="10.370585294332226"><ele>25.0</ele><time>2026-04-04T08:21:06Z</time></trkpt><trkpt lat="43.45799094370041" lon="10.370485924261402"><ele>25.0</ele><time>2026-04-04T08:21:07Z</time></trkpt><trkpt lat="43.45802274714013" lon="10.370390616535262"><ele>25.000000000000004</ele><time>2026-04-04T08:21:08Z</time></trkpt><trkpt lat="43.45805280115539" lon="10.37028876781789"><ele>25.0</ele><time>2026-04-04T08:21:09Z</time></trkpt><trkpt lat="43.45808532034192" lon="10.370191312452732"><ele>24.833333333333336</ele><time>2026-04-04T08:21:10Z</time></trkpt><trkpt lat="43.458111282648964" lon="10.370086436194216"><ele>24.666666666666668</ele><time>2026-04-04T08:21:11Z</time></trkpt><trkpt lat="43.45814207118622" lon="10.369985803124164"><ele>24.5</ele><time>2026-04-04T08:21:12Z</time></trkpt><trkpt lat="43.45816891531003" lon="10.369884457688656"><ele>24.333333333333336</ele><time>2026-04-04T08:21:13Z</time></trkpt><trkpt lat="43.4581959499332" lon="10.36978299264424"><ele>24.166666666666668</ele><time>2026-04-04T08:21:14Z</time></trkpt><trkpt lat="43.45822342781722" lon="10.369678156716978"><ele>24.0</ele><time>2026-04-04T08:21:15Z</time></trkpt><trkpt lat="43.45825663269849" lon="10.369572587013453"><ele>23.5</ele><time>2026-04-04T08:21:16Z</time></trkpt><trkpt lat="43.458287056665625" lon="10.369473390996484"><ele>23.0</ele><time>2026-04-04T08:21:17Z</time></trkpt><trkpt lat="43.45831722356999" lon="10.36937681716105"><ele>22.5</ele><time>2026-04-04T08:21:18Z</time></trkpt><trkpt lat="43.45834524335947" lon="10.36927148692741"><ele>22.0</ele><time>2026-04-04T08:21:19Z</time></trkpt><trkpt lat="43.45837545180098" lon="10.369170123880048"><ele>21.5</ele><time>2026-04-04T08:21:20Z</time></trkpt><trkpt lat="43.45840594003983" lon="10.369066430137783"><ele>21.0</ele><time>2026-04-04T08:21:21Z</time></trkpt><trkpt lat="43.458436848772976" lon="10.368967205939574"><ele>21.0</ele><time>2026-04-04T08:21:21.999Z</time></trkpt><trkpt lat="43.45847238842658" lon="10.368874476218869"><ele>21.0</ele><time>2026-04-04T08:21:22.999Z</time></trkpt><trkpt lat="43.4585132734451" lon="10.36878205514804"><ele>21.0</ele><time>2026-04-04T08:21:23.999Z</time></trkpt><trkpt lat="43.458551949643855" lon="10.368691531797063"><ele>21.0</ele><time>2026-04-04T08:21:24.999Z</time></trkpt><trkpt lat="43.45858981562918" lon="10.368606526640926"><ele>21.0</ele><time>2026-04-04T08:21:25.999Z</time></trkpt><trkpt lat="43.45863227650357" lon="10.368530596904018"><ele>21.0</ele><time>2026-04-04T08:21:26.999Z</time></trkpt><trkpt lat="43.45867517036283" lon="10.368463315100694"><ele>21.0</ele><time>2026-04-04T08:21:27.999Z</time></trkpt><trkpt lat="43.45872822280429" lon="10.36840765641595"><ele>21.0</ele><time>2026-04-04T08:21:28.999Z</time></trkpt><trkpt lat="43.458777320592866" lon="10.368349954174699"><ele>21.0</ele><time>2026-04-04T08:21:29.999Z</time></trkpt><trkpt lat="43.458827299658644" lon="10.36829681656363"><ele>21.0</ele><time>2026-04-04T08:21:31Z</time></trkpt><trkpt lat="43.458876975305316" lon="10.368243224848717"><ele>21.0</ele><time>2026-04-04T08:21:32Z</time></trkpt><trkpt lat="43.45897991984212" lon="10.368141194484984"><ele>21.0</ele><time>2026-04-04T08:21:34Z</time></trkpt><trkpt lat="43.459081379735714" lon="10.368040750794233"><ele>21.0</ele><time>2026-04-04T08:21:36Z</time></trkpt><trkpt lat="43.4591774013611" lon="10.367946821058696"><ele>20.8</ele><time>2026-04-04T08:21:38Z</time></trkpt><trkpt lat="43.45923136154507" lon="10.367897168804179"><ele>20.6</ele><time>2026-04-04T08:21:39Z</time></trkpt><trkpt lat="43.459328816919864" lon="10.367806707667018"><ele>20.4</ele><time>2026-04-04T08:21:41Z</time></trkpt><trkpt lat="43.45943169670018" lon="10.367730698393189"><ele>20.2</ele><time>2026-04-04T08:21:43Z</time></trkpt><trkpt lat="43.459539578511716" lon="10.36765683653519"><ele>20.0</ele><time>2026-04-04T08:21:45Z</time></trkpt><trkpt lat="43.4596539649732" lon="10.36758408764048"><ele>20.0</ele><time>2026-04-04T08:21:47Z</time></trkpt><trkpt lat="43.45971466631594" lon="10.367550188634368"><ele>20.0</ele><time>2026-04-04T08:21:48Z</time></trkpt><trkpt lat="43.45977498511912" lon="10.36752258633403"><ele>20.0</ele><time>2026-04-04T08:21:49Z</time></trkpt><trkpt lat="43.45983929041816" lon="10.367502465020305"><ele>20.0</ele><time>2026-04-04T08:21:50Z</time></trkpt><trkpt lat="43.45990215602093" lon="10.367475607924563"><ele>20.0</ele><time>2026-04-04T08:21:51Z</time></trkpt><trkpt lat="43.459965157900925" lon="10.367448972962602"><ele>20.0</ele><time>2026-04-04T08:21:52Z</time></trkpt><trkpt lat="43.46002466163605" lon="10.367419092275671"><ele>20.0</ele><time>2026-04-04T08:21:53Z</time></trkpt><trkpt lat="43.46009002310724" lon="10.367397497492513"><ele>20.0</ele><time>2026-04-04T08:21:54Z</time></trkpt><trkpt lat="43.46015626062243" lon="10.367370327554898"><ele>20.0</ele><time>2026-04-04T08:21:55Z</time></trkpt><trkpt lat="43.460220367465055" lon="10.367341456496254"><ele>20.0</ele><time>2026-04-04T08:21:56Z</time></trkpt><trkpt lat="43.46033610045341" lon="10.367261514688384"><ele>20.0</ele><time>2026-04-04T08:21:58Z</time></trkpt><trkpt lat="43.460395046873145" lon="10.367219381445333"><ele>20.0</ele><time>2026-04-04T08:21:59Z</time></trkpt><trkpt lat="43.46045170664907" lon="10.367176204241309"><ele>20.0</ele><time>2026-04-04T08:22:00Z</time></trkpt><trkpt lat="43.460508213774936" lon="10.36713671441294"><ele>18.8</ele><time>2026-04-04T08:22:01Z</time></trkpt><trkpt lat="43.46055802743869" lon="10.367078835994809"><ele>17.6</ele><time>2026-04-04T08:22:02Z</time></trkpt><trkpt lat="43.46064743125088" lon="10.366955069338744"><ele>16.4</ele><time>2026-04-04T08:22:04Z</time></trkpt><trkpt lat="43.46069431324302" lon="10.366896276490348"><ele>15.2</ele><time>2026-04-04T08:22:05Z</time></trkpt><trkpt lat="43.46077186094661" lon="10.366760495986398"><ele>14.0</ele><time>2026-04-04T08:22:07Z</time></trkpt><trkpt lat="43.460842738429456" lon="10.366617292786414"><ele>14.0</ele><time>2026-04-04T08:22:09Z</time></trkpt><trkpt lat="43.4608891727614" lon="10.366460615488538"><ele>14.0</ele><time>2026-04-04T08:22:11Z</time></trkpt><trkpt lat="43.4609240101307" lon="10.366299740947374"><ele>14.0</ele><time>2026-04-04T08:22:13Z</time></trkpt><trkpt lat="43.46095772058095" lon="10.366142607655009"><ele>14.0</ele><time>2026-04-04T08:22:15Z</time></trkpt><trkpt lat="43.460989282062066" lon="10.365990592094185"><ele>15.000000000000002</ele><time>2026-04-04T08:22:17Z</time></trkpt><trkpt lat="43.46101024424602" lon="10.36590253681512"><ele>16.0</ele><time>2026-04-04T08:22:18Z</time></trkpt><trkpt lat="43.46104104346465" lon="10.365742430081763"><ele>17.0</ele><time>2026-04-04T08:22:20Z</time></trkpt><trkpt lat="43.461064966842656" lon="10.365661559053882"><ele>18.0</ele><time>2026-04-04T08:22:21Z</time></trkpt><trkpt lat="43.4611168518172" lon="10.365511605454262"><ele>19.0</ele><time>2026-04-04T08:22:23Z</time></trkpt><trkpt lat="43.46114939278952" lon="10.36543483957483"><ele>20.0</ele><time>2026-04-04T08:22:24Z</time></trkpt><trkpt lat="43.46122741818163" lon="10.36531960653344"><ele>21.4</ele><time>2026-04-04T08:22:26Z</time></trkpt><trkpt lat="43.46130629612068" lon="10.365211363771802"><ele>22.8</ele><time>2026-04-04T08:22:28Z</time></trkpt><trkpt lat="43.46139293531703" lon="10.365101799356623"><ele>24.200000000000003</ele><time>2026-04-04T08:22:30Z</time></trkpt><trkpt lat="43.46146692118576" lon="10.364992206974781"><ele>25.6</ele><time>2026-04-04T08:22:32Z</time></trkpt><trkpt lat="43.46154784058248" lon="10.364892603443282"><ele>27.0</ele><time>2026-04-04T08:22:34Z</time></trkpt><trkpt lat="43.461623227882356" lon="10.36480013009537"><ele>27.0</ele><time>2026-04-04T08:22:36Z</time></trkpt><trkpt lat="43.46169020969588" lon="10.36469645987966"><ele>27.000000000000004</ele><time>2026-04-04T08:22:38Z</time></trkpt><trkpt lat="43.461745023455435" lon="10.364580858800661"><ele>27.000000000000004</ele><time>2026-04-04T08:22:40Z</time></trkpt><trkpt lat="43.461798029296446" lon="10.36446763303353"><ele>27.0</ele><time>2026-04-04T08:22:42Z</time></trkpt><trkpt lat="43.461836184923165" lon="10.36434902009349"><ele>27.0</ele><time>2026-04-04T08:22:44Z</time></trkpt><trkpt lat="43.461870427311624" lon="10.364228109199658"><ele>27.200000000000003</ele><time>2026-04-04T08:22:46Z</time></trkpt><trkpt lat="43.46189806186187" lon="10.364105494078302"><ele>27.400000000000002</ele><time>2026-04-04T08:22:48Z</time></trkpt><trkpt lat="43.46193422583702" lon="10.363991922598686"><ele>27.599999999999998</ele><time>2026-04-04T08:22:50Z</time></trkpt><trkpt lat="43.461962622976216" lon="10.363866181763731"><ele>27.799999999999997</ele><time>2026-04-04T08:22:52Z</time></trkpt><trkpt lat="43.4619996630016" lon="10.363753228443679"><ele>28.0</ele><time>2026-04-04T08:22:54Z</time></trkpt><trkpt lat="43.462021879006784" lon="10.363636045415278"><ele>28.666666666666668</ele><time>2026-04-04T08:22:56Z</time></trkpt><trkpt lat="43.46205433374553" lon="10.363524172886436"><ele>29.333333333333336</ele><time>2026-04-04T08:22:58Z</time></trkpt><trkpt lat="43.462085424957706" lon="10.363420433017389"><ele>30.0</ele><time>2026-04-04T08:23:00Z</time></trkpt><trkpt lat="43.46211739165477" lon="10.363318521947951"><ele>30.666666666666664</ele><time>2026-04-04T08:23:02Z</time></trkpt><trkpt lat="43.462158876338385" lon="10.363222345666696"><ele>31.333333333333332</ele><time>2026-04-04T08:23:04Z</time></trkpt><trkpt lat="43.46220201448029" lon="10.363118016866478"><ele>32.0</ele><time>2026-04-04T08:23:06Z</time></trkpt><trkpt lat="43.46225029835577" lon="10.363031119556315"><ele>34.166666666666664</ele><time>2026-04-04T08:23:08Z</time></trkpt><trkpt lat="43.462303663740606" lon="10.362946331527096"><ele>36.33333333333333</ele><time>2026-04-04T08:23:10Z</time></trkpt><trkpt lat="43.462364938085464" lon="10.362870597041393"><ele>38.5</ele><time>2026-04-04T08:23:12Z</time></trkpt><trkpt lat="43.462428641651634" lon="10.362796875730357"><ele>40.666666666666664</ele><time>2026-04-04T08:23:14Z</time></trkpt><trkpt lat="43.462500336985585" lon="10.362747284398134"><ele>42.833333333333336</ele><time>2026-04-04T08:23:16Z</time></trkpt><trkpt lat="43.462570015970364" lon="10.362687973705096"><ele>45.0</ele><time>2026-04-04T08:23:18Z</time></trkpt><trkpt lat="43.46264348059565" lon="10.362644809683143"><ele>45.0</ele><time>2026-04-04T08:23:20Z</time></trkpt><trkpt lat="43.46272012076739" lon="10.362623434269263"><ele>45.0</ele><time>2026-04-04T08:23:22Z</time></trkpt><trkpt lat="43.46279599496101" lon="10.362595952887386"><ele>45.0</ele><time>2026-04-04T08:23:24Z</time></trkpt><trkpt lat="43.46287258159306" lon="10.36256950785873"><ele>45.0</ele><time>2026-04-04T08:23:25.999Z</time></trkpt><trkpt lat="43.46294757677718" lon="10.362545222166673"><ele>45.0</ele><time>2026-04-04T08:23:27.999Z</time></trkpt><trkpt lat="43.463017783156644" lon="10.362520846740509"><ele>45.0</ele><time>2026-04-04T08:23:29.999Z</time></trkpt><trkpt lat="43.463084859768124" lon="10.362493001378809"><ele>46.42857142857142</ele><time>2026-04-04T08:23:31.999Z</time></trkpt><trkpt lat="43.4631550953867" lon="10.362464178904975"><ele>47.85714285714286</ele><time>2026-04-04T08:23:33.999Z</time></trkpt><trkpt lat="43.463216224766406" lon="10.36240815127218"><ele>49.285714285714285</ele><time>2026-04-04T08:23:35.999Z</time></trkpt><trkpt lat="43.463266848691404" lon="10.362334130912037"><ele>50.71428571428571</ele><time>2026-04-04T08:23:38Z</time></trkpt><trkpt lat="43.46329529916377" lon="10.362244091765298"><ele>52.14285714285714</ele><time>2026-04-04T08:23:40Z</time></trkpt><trkpt lat="43.46330984416842" lon="10.362149107036123"><ele>53.57142857142857</ele><time>2026-04-04T08:23:42Z</time></trkpt><trkpt lat="43.463299722357625" lon="10.362038805697583"><ele>55.0</ele><time>2026-04-04T08:23:44Z</time></trkpt><trkpt lat="43.46326602682759" lon="10.36193933953144"><ele>54.33333333333333</ele><time>2026-04-04T08:23:46Z</time></trkpt><trkpt lat="43.46321237665123" lon="10.361868353843864"><ele>53.666666666666664</ele><time>2026-04-04T08:23:48Z</time></trkpt><trkpt lat="43.46313796717927" lon="10.361834534537108"><ele>53.0</ele><time>2026-04-04T08:23:50Z</time></trkpt><trkpt lat="43.46306082633919" lon="10.361830699001038"><ele>52.33333333333333</ele><time>2026-04-04T08:23:52Z</time></trkpt><trkpt lat="43.46298555702839" lon="10.361825612344175"><ele>51.666666666666664</ele><time>2026-04-04T08:23:54Z</time></trkpt><trkpt lat="43.46290782353221" lon="10.361822279327798"><ele>51.0</ele><time>2026-04-04T08:23:56Z</time></trkpt><trkpt lat="43.46283551853104" lon="10.361804271378288"><ele>51.0</ele><time>2026-04-04T08:23:58Z</time></trkpt><trkpt lat="43.46276135776931" lon="10.36180096598764"><ele>51.0</ele><time>2026-04-04T08:24:00Z</time></trkpt><trkpt lat="43.46268884021562" lon="10.361786209671424"><ele>51.0</ele><time>2026-04-04T08:24:02Z</time></trkpt><trkpt lat="43.46261923002189" lon="10.361763061518692"><ele>51.0</ele><time>2026-04-04T08:24:04Z</time></trkpt><trkpt lat="43.46254540107808" lon="10.361763804989383"><ele>51.0</ele><time>2026-04-04T08:24:06Z</time></trkpt><trkpt lat="43.46247946051464" lon="10.36172469017958"><ele>51.0</ele><time>2026-04-04T08:24:08Z</time></trkpt><trkpt lat="43.46242622712423" lon="10.361653547610683"><ele>51.0</ele><time>2026-04-04T08:24:10Z</time></trkpt><trkpt lat="43.46239126953284" lon="10.36156760400944"><ele>51.0</ele><time>2026-04-04T08:24:12Z</time></trkpt><trkpt lat="43.46237982206774" lon="10.361462935728476"><ele>51.0</ele><time>2026-04-04T08:24:14Z</time></trkpt><trkpt lat="43.46237441419324" lon="10.361363344829277"><ele>51.0</ele><time>2026-04-04T08:24:16Z</time></trkpt><trkpt lat="43.46236978487002" lon="10.3612666466905"><ele>51.0</ele><time>2026-04-04T08:24:18Z</time></trkpt><trkpt lat="43.462366740066074" lon="10.361169623473613"><ele>51.0</ele><time>2026-04-04T08:24:20Z</time></trkpt><trkpt lat="43.46236173823572" lon="10.361072555748168"><ele>51.0</ele><time>2026-04-04T08:24:22Z</time></trkpt><trkpt lat="43.46236620536929" lon="10.360970043106422"><ele>51.0</ele><time>2026-04-04T08:24:24Z</time></trkpt><trkpt lat="43.462366026186906" lon="10.360865608662827"><ele>52.0</ele><time>2026-04-04T08:24:26Z</time></trkpt><trkpt lat="43.462356595394695" lon="10.360771770826823"><ele>53.0</ele><time>2026-04-04T08:24:28Z</time></trkpt><trkpt lat="43.46234885023872" lon="10.360679693109944"><ele>54.0</ele><time>2026-04-04T08:24:30Z</time></trkpt><trkpt lat="43.46233391237902" lon="10.360589858184765"><ele>55.0</ele><time>2026-04-04T08:24:32Z</time></trkpt><trkpt lat="43.46234510082604" lon="10.36049050783186"><ele>56.0</ele><time>2026-04-04T08:24:34Z</time></trkpt><trkpt lat="43.46237069696684" lon="10.36039424815238"><ele>57.00000000000001</ele><time>2026-04-04T08:24:36Z</time></trkpt><trkpt lat="43.46240327791697" lon="10.36030645665586"><ele>58.00000000000001</ele><time>2026-04-04T08:24:38Z</time></trkpt><trkpt lat="43.46243697448302" lon="10.36021668530364"><ele>58.00000000000001</ele><time>2026-04-04T08:24:40Z</time></trkpt><trkpt lat="43.46246601252152" lon="10.3601264436221"><ele>58.0</ele><time>2026-04-04T08:24:42Z</time></trkpt><trkpt lat="43.46250043413388" lon="10.360043128113363"><ele>58.00000000000001</ele><time>2026-04-04T08:24:44Z</time></trkpt><trkpt lat="43.46253373373636" lon="10.35994808369527"><ele>58.00000000000001</ele><time>2026-04-04T08:24:46Z</time></trkpt><trkpt lat="43.46256763182012" lon="10.359865747881685"><ele>58.0</ele><time>2026-04-04T08:24:48Z</time></trkpt><trkpt lat="43.462603595157795" lon="10.359781333340637"><ele>58.00000000000001</ele><time>2026-04-04T08:24:50Z</time></trkpt><trkpt lat="43.462644242328295" lon="10.359707314584831"><ele>58.00000000000001</ele><time>2026-04-04T08:24:52Z</time></trkpt><trkpt lat="43.462698764287325" lon="10.359638276466136"><ele>56.14285714285715</ele><time>2026-04-04T08:24:54Z</time></trkpt><trkpt lat="43.46275611485448" lon="10.359581248136893"><ele>54.28571428571429</ele><time>2026-04-04T08:24:56Z</time></trkpt><trkpt lat="43.46281979159558" lon="10.35953681574632"><ele>52.42857142857143</ele><time>2026-04-04T08:24:58Z</time></trkpt><trkpt lat="43.46288232863151" lon="10.35948895169453"><ele>50.57142857142858</ele><time>2026-04-04T08:25:00Z</time></trkpt><trkpt lat="43.46294076388634" lon="10.359436839954181"><ele>48.71428571428572</ele><time>2026-04-04T08:25:02Z</time></trkpt><trkpt lat="43.46300167411481" lon="10.359386122671234"><ele>46.857142857142854</ele><time>2026-04-04T08:25:04Z</time></trkpt><trkpt lat="43.46306176435411" lon="10.35933616172183"><ele>45.0</ele><time>2026-04-04T08:25:06Z</time></trkpt><trkpt lat="43.46312319999935" lon="10.35928907740179"><ele>48.857142857142854</ele><time>2026-04-04T08:25:08Z</time></trkpt><trkpt lat="43.46318073180125" lon="10.359238025511583"><ele>52.71428571428572</ele><time>2026-04-04T08:25:10Z</time></trkpt><trkpt lat="43.463238677854434" lon="10.35919156626019"><ele>56.57142857142858</ele><time>2026-04-04T08:25:12Z</time></trkpt><trkpt lat="43.463294460365766" lon="10.359137235401251"><ele>60.42857142857143</ele><time>2026-04-04T08:25:14Z</time></trkpt><trkpt lat="43.463348013408975" lon="10.35908803524917"><ele>64.28571428571429</ele><time>2026-04-04T08:25:16Z</time></trkpt><trkpt lat="43.463430435537205" lon="10.359021915580735"><ele>68.14285714285715</ele><time>2026-04-04T08:25:19Z</time></trkpt><trkpt lat="43.46348491421897" lon="10.358975999628239"><ele>72.0</ele><time>2026-04-04T08:25:21Z</time></trkpt><trkpt lat="43.463562644691926" lon="10.358898534838337"><ele>70.71428571428572</ele><time>2026-04-04T08:25:24Z</time></trkpt><trkpt lat="43.463617814621216" lon="10.358851344429949"><ele>69.42857142857143</ele><time>2026-04-04T08:25:26Z</time></trkpt><trkpt lat="43.46367303580812" lon="10.35880189837419"><ele>68.14285714285714</ele><time>2026-04-04T08:25:28Z</time></trkpt><trkpt lat="43.4636995499392" lon="10.358706610717169"><ele>66.85714285714286</ele><time>2026-04-04T08:25:30Z</time></trkpt><trkpt lat="43.46372406638645" lon="10.358604856140245"><ele>65.57142857142857</ele><time>2026-04-04T08:25:32Z</time></trkpt><trkpt lat="43.463747832882454" lon="10.358505570623354"><ele>64.28571428571429</ele><time>2026-04-04T08:25:34Z</time></trkpt><trkpt lat="43.463762824066315" lon="10.358399140085861"><ele>63.0</ele><time>2026-04-04T08:25:36Z</time></trkpt><trkpt lat="43.463775937065336" lon="10.358292923506035"><ele>66.42857142857143</ele><time>2026-04-04T08:25:38Z</time></trkpt><trkpt lat="43.463783282301485" lon="10.35819033510706"><ele>69.85714285714286</ele><time>2026-04-04T08:25:40Z</time></trkpt><trkpt lat="43.46380319252151" lon="10.35809915757764"><ele>73.28571428571428</ele><time>2026-04-04T08:25:42Z</time></trkpt><trkpt lat="43.463827573287965" lon="10.358009349677832"><ele>76.71428571428572</ele><time>2026-04-04T08:25:44Z</time></trkpt><trkpt lat="43.46384695863071" lon="10.357916634507632"><ele>80.14285714285714</ele><time>2026-04-04T08:25:46Z</time></trkpt><trkpt lat="43.46386374964695" lon="10.357817709845442"><ele>83.57142857142857</ele><time>2026-04-04T08:25:48Z</time></trkpt><trkpt lat="43.46387635846454" lon="10.357714476652584"><ele>87.0</ele><time>2026-04-04T08:25:50Z</time></trkpt><trkpt lat="43.463888691758605" lon="10.357621638792901"><ele>87.0</ele><time>2026-04-04T08:25:52Z</time></trkpt><trkpt lat="43.46390358395082" lon="10.35753625051499"><ele>87.0</ele><time>2026-04-04T08:25:54Z</time></trkpt><trkpt lat="43.46392825428873" lon="10.35744305022878"><ele>87.0</ele><time>2026-04-04T08:25:56Z</time></trkpt><trkpt lat="43.46395162406668" lon="10.357358151944508"><ele>87.0</ele><time>2026-04-04T08:25:58Z</time></trkpt><trkpt lat="43.463990614575195" lon="10.35722131606835"><ele>87.0</ele><time>2026-04-04T08:26:00Z</time></trkpt><trkpt lat="43.46402249059303" lon="10.357116426722087"><ele>87.0</ele><time>2026-04-04T08:26:02Z</time></trkpt><trkpt lat="43.46406909520559" lon="10.357014876759132"><ele>85.6</ele><time>2026-04-04T08:26:04Z</time></trkpt><trkpt lat="43.464135532693334" lon="10.356915502909446"><ele>84.19999999999999</ele><time>2026-04-04T08:26:06Z</time></trkpt><trkpt lat="43.46419937651288" lon="10.356816181763685"><ele>82.8</ele><time>2026-04-04T08:26:08Z</time></trkpt><trkpt lat="43.46427256308261" lon="10.356734552584088"><ele>81.4</ele><time>2026-04-04T08:26:10Z</time></trkpt><trkpt lat="43.46434643747066" lon="10.356654521152096"><ele>80.0</ele><time>2026-04-04T08:26:12Z</time></trkpt><trkpt lat="43.4644262256114" lon="10.356577527341383"><ele>80.0</ele><time>2026-04-04T08:26:14Z</time></trkpt><trkpt lat="43.46451500954256" lon="10.35648606068806"><ele>80.0</ele><time>2026-04-04T08:26:16Z</time></trkpt><trkpt lat="43.46456478266916" lon="10.356430737634474"><ele>80.0</ele><time>2026-04-04T08:26:17Z</time></trkpt><trkpt lat="43.46461629278192" lon="10.356374886256761"><ele>80.0</ele><time>2026-04-04T08:26:18Z</time></trkpt><trkpt lat="43.46467027027288" lon="10.356317505657158"><ele>80.0</ele><time>2026-04-04T08:26:19Z</time></trkpt><trkpt lat="43.464728542218765" lon="10.356255840818465"><ele>80.0</ele><time>2026-04-04T08:26:20Z</time></trkpt><trkpt lat="43.464792719314545" lon="10.356198743635206"><ele>76.83333333333334</ele><time>2026-04-04T08:26:21Z</time></trkpt><trkpt lat="43.46486855672721" lon="10.356160184386889"><ele>73.66666666666667</ele><time>2026-04-04T08:26:22Z</time></trkpt><trkpt lat="43.46495113477741" lon="10.356139233981832"><ele>70.5</ele><time>2026-04-04T08:26:23Z</time></trkpt><trkpt lat="43.465038878912885" lon="10.356127197110023"><ele>67.33333333333333</ele><time>2026-04-04T08:26:24Z</time></trkpt><trkpt lat="43.46513098233972" lon="10.356146256828488"><ele>64.16666666666666</ele><time>2026-04-04T08:26:25Z</time></trkpt><trkpt lat="43.46521811963599" lon="10.356132937240387"><ele>61.0</ele><time>2026-04-04T08:26:26Z</time></trkpt><trkpt lat="43.465298318708015" lon="10.35609465668449"><ele>61.0</ele><time>2026-04-04T08:26:27Z</time></trkpt><trkpt lat="43.46537868962389" lon="10.356055092085944"><ele>60.99999999999999</ele><time>2026-04-04T08:26:28Z</time></trkpt><trkpt lat="43.465448213934174" lon="10.35595560319128"><ele>60.99999999999999</ele><time>2026-04-04T08:26:29Z</time></trkpt><trkpt lat="43.46551008780991" lon="10.355854448169266"><ele>61.0</ele><time>2026-04-04T08:26:30Z</time></trkpt><trkpt lat="43.46555926007301" lon="10.35573601334328"><ele>61.0</ele><time>2026-04-04T08:26:31Z</time></trkpt><trkpt lat="43.46559465268956" lon="10.355607419959018"><ele>63.4</ele><time>2026-04-04T08:26:32Z</time></trkpt><trkpt lat="43.46562100776101" lon="10.355473165781614"><ele>65.8</ele><time>2026-04-04T08:26:33Z</time></trkpt><trkpt lat="43.465634775749436" lon="10.355329240347105"><ele>68.19999999999999</ele><time>2026-04-04T08:26:34Z</time></trkpt><trkpt lat="43.465640999705165" lon="10.355188553811892"><ele>70.6</ele><time>2026-04-04T08:26:35Z</time></trkpt><trkpt lat="43.465620488076944" lon="10.35504107152042"><ele>73.0</ele><time>2026-04-04T08:26:36Z</time></trkpt><trkpt lat="43.465570139822155" lon="10.35490337765586"><ele>73.0</ele><time>2026-04-04T08:26:37Z</time></trkpt><trkpt lat="43.465515717641864" lon="10.354778391485922"><ele>73.0</ele><time>2026-04-04T08:26:38Z</time></trkpt><trkpt lat="43.46544955037955" lon="10.354655754912985"><ele>73.0</ele><time>2026-04-04T08:26:39Z</time></trkpt><trkpt lat="43.465378675229275" lon="10.354542388651023"><ele>73.0</ele><time>2026-04-04T08:26:40Z</time></trkpt><trkpt lat="43.46530434930988" lon="10.354422770838287"><ele>73.0</ele><time>2026-04-04T08:26:41Z</time></trkpt><trkpt lat="43.465248588367864" lon="10.354282129745515"><ele>69.5</ele><time>2026-04-04T08:26:42Z</time></trkpt><trkpt lat="43.465184465802565" lon="10.35414979809821"><ele>66.0</ele><time>2026-04-04T08:26:43Z</time></trkpt><trkpt lat="43.46511659741595" lon="10.354026138477327"><ele>62.5</ele><time>2026-04-04T08:26:44Z</time></trkpt><trkpt lat="43.46505321159471" lon="10.353898755808757"><ele>59.0</ele><time>2026-04-04T08:26:45Z</time></trkpt><trkpt lat="43.464985724926095" lon="10.353770967819097"><ele>59.0</ele><time>2026-04-04T08:26:46Z</time></trkpt><trkpt lat="43.46491506607928" lon="10.353637669585972"><ele>59.0</ele><time>2026-04-04T08:26:47Z</time></trkpt><trkpt lat="43.46484505194509" lon="10.353503584653911"><ele>59.0</ele><time>2026-04-04T08:26:48Z</time></trkpt><trkpt lat="43.464775889551646" lon="10.353367324290993"><ele>59.0</ele><time>2026-04-04T08:26:49Z</time></trkpt><trkpt lat="43.46470960282736" lon="10.35322916319895"><ele>59.0</ele><time>2026-04-04T08:26:50Z</time></trkpt><trkpt lat="43.46465390274471" lon="10.353066139383799"><ele>59.0</ele><time>2026-04-04T08:26:51Z</time></trkpt><trkpt lat="43.464606733870944" lon="10.352897415715072"><ele>59.0</ele><time>2026-04-04T08:26:52Z</time></trkpt><trkpt lat="43.46457174267494" lon="10.352727586243933"><ele>59.0</ele><time>2026-04-04T08:26:53Z</time></trkpt><trkpt lat="43.46453584578975" lon="10.352553648161155"><ele>57.5</ele><time>2026-04-04T08:26:54Z</time></trkpt><trkpt lat="43.46451506706037" lon="10.352368723246727"><ele>56.0</ele><time>2026-04-04T08:26:55Z</time></trkpt><trkpt lat="43.464519128629576" lon="10.352182987365893"><ele>54.5</ele><time>2026-04-04T08:26:56Z</time></trkpt><trkpt lat="43.46455429042605" lon="10.351992573510739"><ele>53.0</ele><time>2026-04-04T08:26:57Z</time></trkpt><trkpt lat="43.464613735414694" lon="10.35181582149943"><ele>53.0</ele><time>2026-04-04T08:26:58Z</time></trkpt><trkpt lat="43.46467334708947" lon="10.351639315560533"><ele>53.0</ele><time>2026-04-04T08:26:59Z</time></trkpt><trkpt lat="43.46473814280662" lon="10.351463402654378"><ele>53.0</ele><time>2026-04-04T08:27:00Z</time></trkpt><trkpt lat="43.46480849537421" lon="10.351307466441458"><ele>53.0</ele><time>2026-04-04T08:27:01Z</time></trkpt><trkpt lat="43.46490530237414" lon="10.351167804447611"><ele>49.5</ele><time>2026-04-04T08:27:02Z</time></trkpt><trkpt lat="43.46501281733707" lon="10.351049002010964"><ele>46.0</ele><time>2026-04-04T08:27:03Z</time></trkpt><trkpt lat="43.46510094712511" lon="10.350918925154692"><ele>42.5</ele><time>2026-04-04T08:27:04Z</time></trkpt><trkpt lat="43.46515836179009" lon="10.350756921435936"><ele>39.0</ele><time>2026-04-04T08:27:05Z</time></trkpt><trkpt lat="43.46518440297528" lon="10.350579506929991"><ele>35.5</ele><time>2026-04-04T08:27:06Z</time></trkpt><trkpt lat="43.46518499355486" lon="10.350403537297774"><ele>32.0</ele><time>2026-04-04T08:27:07Z</time></trkpt><trkpt lat="43.4651872827182" lon="10.350226744221882"><ele>28.5</ele><time>2026-04-04T08:27:08Z</time></trkpt><trkpt lat="43.465190512501664" lon="10.35005534775555"><ele>25.0</ele><time>2026-04-04T08:27:09Z</time></trkpt><trkpt lat="43.46519789637544" lon="10.349888942890264"><ele>25.0</ele><time>2026-04-04T08:27:10Z</time></trkpt><trkpt lat="43.465205908691864" lon="10.349727031030522"><ele>25.0</ele><time>2026-04-04T08:27:11Z</time></trkpt><trkpt lat="43.465213466862025" lon="10.349565757442488"><ele>25.0</ele><time>2026-04-04T08:27:12Z</time></trkpt><trkpt lat="43.46521726685035" lon="10.34941178414159"><ele>25.0</ele><time>2026-04-04T08:27:13Z</time></trkpt><trkpt lat="43.46521924947277" lon="10.34926344707189"><ele>22.0</ele><time>2026-04-04T08:27:14Z</time></trkpt><trkpt lat="43.46521573758873" lon="10.349114764388656"><ele>19.0</ele><time>2026-04-04T08:27:15Z</time></trkpt><trkpt lat="43.465213558891435" lon="10.348984588035027"><ele>16.0</ele><time>2026-04-04T08:27:16Z</time></trkpt><trkpt lat="43.46521158678678" lon="10.348851528292556"><ele>13.0</ele><time>2026-04-04T08:27:17Z</time></trkpt><trkpt lat="43.46520610185299" lon="10.348727208413736"><ele>10.0</ele><time>2026-04-04T08:27:18Z</time></trkpt><trkpt lat="43.465205192809364" lon="10.348606059613251"><ele>10.0</ele><time>2026-04-04T08:27:19Z</time></trkpt><trkpt lat="43.46520150094851" lon="10.348485339171152"><ele>10.0</ele><time>2026-04-04T08:27:20Z</time></trkpt><trkpt lat="43.46520118935816" lon="10.348372360317539"><ele>10.0</ele><time>2026-04-04T08:27:21Z</time></trkpt><trkpt lat="43.46519776973919" lon="10.348266224942085"><ele>10.0</ele><time>2026-04-04T08:27:22Z</time></trkpt><trkpt lat="43.465193387744776" lon="10.348163096903418"><ele>10.0</ele><time>2026-04-04T08:27:23Z</time></trkpt><trkpt lat="43.46519220043158" lon="10.348063935496818"><ele>10.0</ele><time>2026-04-04T08:27:24Z</time></trkpt><trkpt lat="43.46519210928447" lon="10.347970060965398"><ele>11.833333333333334</ele><time>2026-04-04T08:27:25Z</time></trkpt><trkpt lat="43.465188933823896" lon="10.347878372015696"><ele>13.666666666666668</ele><time>2026-04-04T08:27:26Z</time></trkpt><trkpt lat="43.46518660506274" lon="10.347786895220082"><ele>15.5</ele><time>2026-04-04T08:27:27Z</time></trkpt><trkpt lat="43.465182793572225" lon="10.347697411541388"><ele>17.333333333333332</ele><time>2026-04-04T08:27:28Z</time></trkpt><trkpt lat="43.46517849186994" lon="10.347529224933494"><ele>19.166666666666668</ele><time>2026-04-04T08:27:30Z</time></trkpt><trkpt lat="43.46516223164239" lon="10.347375599902874"><ele>21.0</ele><time>2026-04-04T08:27:32Z</time></trkpt><trkpt lat="43.46514237862192" lon="10.347233651516056"><ele>24.0</ele><time>2026-04-04T08:27:34Z</time></trkpt><trkpt lat="43.46512516698537" lon="10.347089701191896"><ele>27.0</ele><time>2026-04-04T08:27:36Z</time></trkpt><trkpt lat="43.465111603225765" lon="10.346964838841531"><ele>30.0</ele><time>2026-04-04T08:27:38Z</time></trkpt><trkpt lat="43.46508794649192" lon="10.346833334676516"><ele>33.0</ele><time>2026-04-04T08:27:40Z</time></trkpt><trkpt lat="43.46506023185587" lon="10.346691546783823"><ele>36.0</ele><time>2026-04-04T08:27:42Z</time></trkpt><trkpt lat="43.46503847950366" lon="10.34654718420595"><ele>36.0</ele><time>2026-04-04T08:27:44Z</time></trkpt><trkpt lat="43.46501353780986" lon="10.346401212398243"><ele>36.0</ele><time>2026-04-04T08:27:46Z</time></trkpt><trkpt lat="43.4649934290194" lon="10.346252837019328"><ele>36.0</ele><time>2026-04-04T08:27:48Z</time></trkpt><trkpt lat="43.46497247089656" lon="10.346108003757738"><ele>36.0</ele><time>2026-04-04T08:27:50Z</time></trkpt><trkpt lat="43.46496194897651" lon="10.34596285052341"><ele>36.0</ele><time>2026-04-04T08:27:52Z</time></trkpt><trkpt lat="43.46495311653546" lon="10.345818396523516"><ele>36.6</ele><time>2026-04-04T08:27:54Z</time></trkpt><trkpt lat="43.464950489038884" lon="10.345678900982682"><ele>37.2</ele><time>2026-04-04T08:27:56Z</time></trkpt><trkpt lat="43.4649530945305" lon="10.345542519024852"><ele>37.8</ele><time>2026-04-04T08:27:58Z</time></trkpt><trkpt lat="43.46496288901196" lon="10.345416011457273"><ele>38.4</ele><time>2026-04-04T08:28:00Z</time></trkpt><trkpt lat="43.46497215850063" lon="10.345290687266885"><ele>39.0</ele><time>2026-04-04T08:28:02Z</time></trkpt><trkpt lat="43.46498632979045" lon="10.34517389740838"><ele>39.333333333333336</ele><time>2026-04-04T08:28:04Z</time></trkpt><trkpt lat="43.46499381547178" lon="10.345057032115088"><ele>39.666666666666664</ele><time>2026-04-04T08:28:06Z</time></trkpt><trkpt lat="43.46500783946769" lon="10.344949857832052"><ele>40.0</ele><time>2026-04-04T08:28:08Z</time></trkpt><trkpt lat="43.46501842209944" lon="10.34483881962284"><ele>40.33333333333333</ele><time>2026-04-04T08:28:10Z</time></trkpt><trkpt lat="43.465033543520825" lon="10.344731913300286"><ele>40.666666666666664</ele><time>2026-04-04T08:28:12Z</time></trkpt><trkpt lat="43.46504876801885" lon="10.344624296185374"><ele>41.0</ele><time>2026-04-04T08:28:14Z</time></trkpt><trkpt lat="43.4650736428933" lon="10.344523716572347"><ele>40.285714285714285</ele><time>2026-04-04T08:28:16Z</time></trkpt><trkpt lat="43.465099048719125" lon="10.344423650103076"><ele>39.57142857142857</ele><time>2026-04-04T08:28:18Z</time></trkpt><trkpt lat="43.46512710723161" lon="10.344318760756105"><ele>38.85714285714286</ele><time>2026-04-04T08:28:20Z</time></trkpt><trkpt lat="43.46516015220538" lon="10.344223278078797"><ele>38.14285714285714</ele><time>2026-04-04T08:28:22Z</time></trkpt><trkpt lat="43.46517570319694" lon="10.344126094085691"><ele>37.42857142857143</ele><time>2026-04-04T08:28:24Z</time></trkpt><trkpt lat="43.46519794343333" lon="10.344037096346309"><ele>36.714285714285715</ele><time>2026-04-04T08:28:26Z</time></trkpt><trkpt lat="43.46521366548499" lon="10.343944176507092"><ele>36.0</ele><time>2026-04-04T08:28:28Z</time></trkpt><trkpt lat="43.465216407697845" lon="10.343845222741475"><ele>34.333333333333336</ele><time>2026-04-04T08:28:30Z</time></trkpt><trkpt lat="43.46521500766065" lon="10.343743000864396"><ele>32.666666666666664</ele><time>2026-04-04T08:28:32Z</time></trkpt><trkpt lat="43.465205799085865" lon="10.343641289745024"><ele>31.0</ele><time>2026-04-04T08:28:34Z</time></trkpt><trkpt lat="43.465195679189485" lon="10.343541228741705"><ele>29.333333333333332</ele><time>2026-04-04T08:28:36Z</time></trkpt><trkpt lat="43.46518301924633" lon="10.343419805367258"><ele>27.666666666666664</ele><time>2026-04-04T08:28:38Z</time></trkpt><trkpt lat="43.46517782077897" lon="10.34329194389071"><ele>26.0</ele><time>2026-04-04T08:28:40Z</time></trkpt><trkpt lat="43.4651820784958" lon="10.34315631170454"><ele>24.0</ele><time>2026-04-04T08:28:42Z</time></trkpt><trkpt lat="43.46520539188971" lon="10.343011929662152"><ele>22.0</ele><time>2026-04-04T08:28:44Z</time></trkpt><trkpt lat="43.46523944366001" lon="10.342862365160375"><ele>20.0</ele><time>2026-04-04T08:28:46Z</time></trkpt><trkpt lat="43.46530112269195" lon="10.342715267990839"><ele>18.0</ele><time>2026-04-04T08:28:48Z</time></trkpt><trkpt lat="43.465376174311785" lon="10.342576612517405"><ele>18.0</ele><time>2026-04-04T08:28:50Z</time></trkpt><trkpt lat="43.46542229709023" lon="10.342515337912536"><ele>18.0</ele><time>2026-04-04T08:28:51Z</time></trkpt><trkpt lat="43.46550400474953" lon="10.342397251556234"><ele>18.0</ele><time>2026-04-04T08:28:53Z</time></trkpt><trkpt lat="43.46558029878941" lon="10.342277839336857"><ele>18.0</ele><time>2026-04-04T08:28:55Z</time></trkpt><trkpt lat="43.46565860355409" lon="10.342168478974104"><ele>18.0</ele><time>2026-04-04T08:28:57Z</time></trkpt><trkpt lat="43.4657354311127" lon="10.342054610320845"><ele>21.75</ele><time>2026-04-04T08:28:59Z</time></trkpt><trkpt lat="43.46581884325407" lon="10.341943844398392"><ele>25.5</ele><time>2026-04-04T08:29:01Z</time></trkpt><trkpt lat="43.465899569760644" lon="10.341828671795257"><ele>29.25</ele><time>2026-04-04T08:29:03Z</time></trkpt><trkpt lat="43.46598745593021" lon="10.341709273477466"><ele>33.0</ele><time>2026-04-04T08:29:05Z</time></trkpt><trkpt lat="43.46607802843834" lon="10.341590084126917"><ele>33.0</ele><time>2026-04-04T08:29:07Z</time></trkpt><trkpt lat="43.46612624124229" lon="10.341528467760208"><ele>33.0</ele><time>2026-04-04T08:29:08Z</time></trkpt><trkpt lat="43.466175661382564" lon="10.341467983761135"><ele>33.0</ele><time>2026-04-04T08:29:09Z</time></trkpt><trkpt lat="43.46622653208434" lon="10.341402063755199"><ele>33.0</ele><time>2026-04-04T08:29:10Z</time></trkpt><trkpt lat="43.466279159305195" lon="10.341337228283063"><ele>33.0</ele><time>2026-04-04T08:29:11Z</time></trkpt><trkpt lat="43.46633204959742" lon="10.341267991311012"><ele>33.0</ele><time>2026-04-04T08:29:12Z</time></trkpt><trkpt lat="43.46638546580547" lon="10.341195678617655"><ele>33.0</ele><time>2026-04-04T08:29:13Z</time></trkpt><trkpt lat="43.46644081264623" lon="10.341124509950506"><ele>33.166666666666664</ele><time>2026-04-04T08:29:14Z</time></trkpt><trkpt lat="43.4664958994187" lon="10.341051516062924"><ele>33.333333333333336</ele><time>2026-04-04T08:29:15Z</time></trkpt><trkpt lat="43.46655408330561" lon="10.34097646942419"><ele>33.5</ele><time>2026-04-04T08:29:16Z</time></trkpt><trkpt lat="43.4666167291405" lon="10.340907777227036"><ele>33.66666666666667</ele><time>2026-04-04T08:29:17Z</time></trkpt><trkpt lat="43.46668543480411" lon="10.340846278539244"><ele>33.833333333333336</ele><time>2026-04-04T08:29:18Z</time></trkpt><trkpt lat="43.46675448903005" lon="10.340782081828323"><ele>34.0</ele><time>2026-04-04T08:29:19Z</time></trkpt><trkpt lat="43.46682178830931" lon="10.340714331902568"><ele>34.0</ele><time>2026-04-04T08:29:20Z</time></trkpt><trkpt lat="43.46688556321635" lon="10.340638366465209"><ele>34.0</ele><time>2026-04-04T08:29:21Z</time></trkpt><trkpt lat="43.46694175364115" lon="10.340555689378007"><ele>34.0</ele><time>2026-04-04T08:29:22Z</time></trkpt><trkpt lat="43.46698579938133" lon="10.340459571609813"><ele>34.0</ele><time>2026-04-04T08:29:23Z</time></trkpt><trkpt lat="43.46702918522622" lon="10.340365709191111"><ele>34.0</ele><time>2026-04-04T08:29:24Z</time></trkpt><trkpt lat="43.46707208300003" lon="10.34027172435143"><ele>34.0</ele><time>2026-04-04T08:29:25Z</time></trkpt><trkpt lat="43.467119340025235" lon="10.340178359574466"><ele>35.66666666666667</ele><time>2026-04-04T08:29:26Z</time></trkpt><trkpt lat="43.46717422471794" lon="10.340089722270207"><ele>37.333333333333336</ele><time>2026-04-04T08:29:27Z</time></trkpt><trkpt lat="43.4672357683637" lon="10.340000927627788"><ele>39.0</ele><time>2026-04-04T08:29:28Z</time></trkpt><trkpt lat="43.467294699064674" lon="10.33990958200305"><ele>40.666666666666664</ele><time>2026-04-04T08:29:29Z</time></trkpt><trkpt lat="43.46735515954412" lon="10.33982074983681"><ele>42.33333333333333</ele><time>2026-04-04T08:29:30Z</time></trkpt><trkpt lat="43.4674162898304" lon="10.339736930716441"><ele>44.0</ele><time>2026-04-04T08:29:31Z</time></trkpt><trkpt lat="43.46748119446164" lon="10.33965818442336"><ele>39.83333333333333</ele><time>2026-04-04T08:29:32Z</time></trkpt><trkpt lat="43.46754574509788" lon="10.339577215275725"><ele>35.666666666666664</ele><time>2026-04-04T08:29:33Z</time></trkpt><trkpt lat="43.46761049545503" lon="10.339499469694232"><ele>31.5</ele><time>2026-04-04T08:29:34Z</time></trkpt><trkpt lat="43.467672535095396" lon="10.339415760198612"><ele>27.333333333333332</ele><time>2026-04-04T08:29:35Z</time></trkpt><trkpt lat="43.46773250014225" lon="10.339335127514394"><ele>23.166666666666664</ele><time>2026-04-04T08:29:36Z</time></trkpt><trkpt lat="43.46779291903197" lon="10.339255265632444"><ele>19.0</ele><time>2026-04-04T08:29:37Z</time></trkpt><trkpt lat="43.46785326818153" lon="10.339170428359784"><ele>19.0</ele><time>2026-04-04T08:29:38Z</time></trkpt><trkpt lat="43.46791119774861" lon="10.339084939633533"><ele>19.0</ele><time>2026-04-04T08:29:39Z</time></trkpt><trkpt lat="43.467969112161825" lon="10.338997468849845"><ele>19.0</ele><time>2026-04-04T08:29:40Z</time></trkpt><trkpt lat="43.46802559769032" lon="10.338911738228989"><ele>19.0</ele><time>2026-04-04T08:29:41Z</time></trkpt><trkpt lat="43.468081745642586" lon="10.338825546425234"><ele>19.0</ele><time>2026-04-04T08:29:42Z</time></trkpt><trkpt lat="43.46813840430117" lon="10.338745503677357"><ele>19.0</ele><time>2026-04-04T08:29:42.999Z</time></trkpt><trkpt lat="43.4681981611669" lon="10.338663864603399"><ele>19.666666666666664</ele><time>2026-04-04T08:29:43.999Z</time></trkpt><trkpt lat="43.46825183875477" lon="10.338578470811626"><ele>20.333333333333332</ele><time>2026-04-04T08:29:44.999Z</time></trkpt><trkpt lat="43.468305674910624" lon="10.338501697681684"><ele>21.0</ele><time>2026-04-04T08:29:45.999Z</time></trkpt><trkpt lat="43.4683606571107" lon="10.338425014276524"><ele>21.666666666666668</ele><time>2026-04-04T08:29:46.999Z</time></trkpt><trkpt lat="43.46841422301801" lon="10.33835112389685"><ele>22.333333333333336</ele><time>2026-04-04T08:29:47.999Z</time></trkpt><trkpt lat="43.46846602927538" lon="10.33827129382171"><ele>23.0</ele><time>2026-04-04T08:29:48.999Z</time></trkpt><trkpt lat="43.46851715237496" lon="10.33819277996265"><ele>23.0</ele><time>2026-04-04T08:29:49.999Z</time></trkpt><trkpt lat="43.46856893817274" lon="10.338114722377984"><ele>23.0</ele><time>2026-04-04T08:29:50.999Z</time></trkpt><trkpt lat="43.46862165777488" lon="10.338035502713383"><ele>23.0</ele><time>2026-04-04T08:29:51.999Z</time></trkpt><trkpt lat="43.46867663123206" lon="10.337955198344094"><ele>23.0</ele><time>2026-04-04T08:29:52.999Z</time></trkpt><trkpt lat="43.46873490600098" lon="10.337870058783649"><ele>23.0</ele><time>2026-04-04T08:29:53.999Z</time></trkpt><trkpt lat="43.46879536000113" lon="10.337787441759135"><ele>23.0</ele><time>2026-04-04T08:29:55Z</time></trkpt><trkpt lat="43.468859403320614" lon="10.337706701938828"><ele>24.2</ele><time>2026-04-04T08:29:56Z</time></trkpt><trkpt lat="43.46893221859144" lon="10.337635030945957"><ele>25.4</ele><time>2026-04-04T08:29:57Z</time></trkpt><trkpt lat="43.469008472849644" lon="10.337559440368702"><ele>26.599999999999998</ele><time>2026-04-04T08:29:58Z</time></trkpt><trkpt lat="43.46908399321692" lon="10.337488626030375"><ele>27.799999999999997</ele><time>2026-04-04T08:29:59Z</time></trkpt><trkpt lat="43.46915511271911" lon="10.337394578498435"><ele>29.0</ele><time>2026-04-04T08:30:00Z</time></trkpt><trkpt lat="43.46920963472167" lon="10.33728880293665"><ele>25.4</ele><time>2026-04-04T08:30:01Z</time></trkpt><trkpt lat="43.46925470667436" lon="10.337172928977706"><ele>21.799999999999997</ele><time>2026-04-04T08:30:02Z</time></trkpt><trkpt lat="43.469301614950176" lon="10.33706018307664"><ele>18.2</ele><time>2026-04-04T08:30:03Z</time></trkpt><trkpt lat="43.469347161045654" lon="10.336944219417441"><ele>14.600000000000001</ele><time>2026-04-04T08:30:04Z</time></trkpt><trkpt lat="43.46940198454992" lon="10.336832027580897"><ele>11.0</ele><time>2026-04-04T08:30:05Z</time></trkpt><trkpt lat="43.46946650051805" lon="10.33672603441983"><ele>11.0</ele><time>2026-04-04T08:30:06Z</time></trkpt><trkpt lat="43.4695382577644" lon="10.33662675463794"><ele>11.0</ele><time>2026-04-04T08:30:07Z</time></trkpt><trkpt lat="43.46961831523542" lon="10.33653778117603"><ele>11.0</ele><time>2026-04-04T08:30:08Z</time></trkpt><trkpt lat="43.46970078254759" lon="10.336450509756629"><ele>11.0</ele><time>2026-04-04T08:30:09Z</time></trkpt><trkpt lat="43.46978227982159" lon="10.336363588313157"><ele>11.0</ele><time>2026-04-04T08:30:10Z</time></trkpt><trkpt lat="43.469862708488215" lon="10.336273106217549"><ele>11.200000000000001</ele><time>2026-04-04T08:30:11Z</time></trkpt><trkpt lat="43.46994901529086" lon="10.336190044255165"><ele>11.4</ele><time>2026-04-04T08:30:12Z</time></trkpt><trkpt lat="43.47003842999029" lon="10.336107375484497"><ele>11.6</ele><time>2026-04-04T08:30:13Z</time></trkpt><trkpt lat="43.47013920490726" lon="10.33604439930342"><ele>11.8</ele><time>2026-04-04T08:30:14Z</time></trkpt><trkpt lat="43.47024269249727" lon="10.335983487091344"><ele>12.0</ele><time>2026-04-04T08:30:15Z</time></trkpt><trkpt lat="43.470343333405516" lon="10.335927184013663"><ele>13.2</ele><time>2026-04-04T08:30:16Z</time></trkpt><trkpt lat="43.47044729961388" lon="10.33586736229684"><ele>14.399999999999999</ele><time>2026-04-04T08:30:17Z</time></trkpt><trkpt lat="43.47054850599239" lon="10.335807517975645"><ele>15.600000000000001</ele><time>2026-04-04T08:30:18Z</time></trkpt><trkpt lat="43.470644783009384" lon="10.335739868589854"><ele>16.8</ele><time>2026-04-04T08:30:19Z</time></trkpt><trkpt lat="43.47073597099279" lon="10.335668415847744"><ele>18.0</ele><time>2026-04-04T08:30:20Z</time></trkpt><trkpt lat="43.470817673358304" lon="10.335585752432955"><ele>16.0</ele><time>2026-04-04T08:30:21Z</time></trkpt><trkpt lat="43.47089579570124" lon="10.33549676496782"><ele>14.0</ele><time>2026-04-04T08:30:22Z</time></trkpt><trkpt lat="43.47097043595031" lon="10.335405772849192"><ele>12.0</ele><time>2026-04-04T08:30:23Z</time></trkpt><trkpt lat="43.47104000142976" lon="10.335310353316924"><ele>10.0</ele><time>2026-04-04T08:30:24Z</time></trkpt><trkpt lat="43.471108681210964" lon="10.335219507228182"><ele>8.0</ele><time>2026-04-04T08:30:25Z</time></trkpt><trkpt lat="43.47117534357537" lon="10.335128721618284"><ele>7.999999999999999</ele><time>2026-04-04T08:30:26Z</time></trkpt><trkpt lat="43.47123929170917" lon="10.335040883329079"><ele>8.0</ele><time>2026-04-04T08:30:27Z</time></trkpt><trkpt lat="43.471302936562914" lon="10.334952481067115"><ele>8.0</ele><time>2026-04-04T08:30:28Z</time></trkpt><trkpt lat="43.47136556968152" lon="10.334862828251328"><ele>8.0</ele><time>2026-04-04T08:30:29Z</time></trkpt><trkpt lat="43.471423812552295" lon="10.33478037591002"><ele>7.999999999999999</ele><time>2026-04-04T08:30:30Z</time></trkpt><trkpt lat="43.47148198610158" lon="10.33470095877644"><ele>8.0</ele><time>2026-04-04T08:30:31Z</time></trkpt><trkpt lat="43.47153746258964" lon="10.334621659974161"><ele>7.7142857142857135</ele><time>2026-04-04T08:30:32Z</time></trkpt><trkpt lat="43.47159338782308" lon="10.334545541364326"><ele>7.428571428571428</ele><time>2026-04-04T08:30:33Z</time></trkpt><trkpt lat="43.471650528070604" lon="10.334473535942935"><ele>7.142857142857142</ele><time>2026-04-04T08:30:34Z</time></trkpt><trkpt lat="43.471703154495714" lon="10.334402860210563"><ele>6.857142857142857</ele><time>2026-04-04T08:30:35Z</time></trkpt><trkpt lat="43.471751145019475" lon="10.334332499793414"><ele>6.571428571428571</ele><time>2026-04-04T08:30:36Z</time></trkpt><trkpt lat="43.47179950178278" lon="10.334264939291137"><ele>6.285714285714285</ele><time>2026-04-04T08:30:37Z</time></trkpt><trkpt lat="43.471847210355875" lon="10.334205093859168"><ele>6.0</ele><time>2026-04-04T08:30:38Z</time></trkpt><trkpt lat="43.47189227324383" lon="10.334140833419761"><ele>6.0</ele><time>2026-04-04T08:30:39Z</time></trkpt><trkpt lat="43.4719372863335" lon="10.334076768118464"><ele>6.0</ele><time>2026-04-04T08:30:40Z</time></trkpt><trkpt lat="43.472019762527374" lon="10.333955235567148"><ele>6.0</ele><time>2026-04-04T08:30:42Z</time></trkpt><trkpt lat="43.47210761239293" lon="10.333836782970842"><ele>6.0</ele><time>2026-04-04T08:30:44Z</time></trkpt><trkpt lat="43.47219816798243" lon="10.333721009199422"><ele>6.0</ele><time>2026-04-04T08:30:46Z</time></trkpt><trkpt lat="43.472283920744935" lon="10.333603838661437"><ele>7.4</ele><time>2026-04-04T08:30:48Z</time></trkpt><trkpt lat="43.472376943379736" lon="10.333490152143256"><ele>8.8</ele><time>2026-04-04T08:30:50Z</time></trkpt><trkpt lat="43.47248847221449" lon="10.333396659945734"><ele>10.200000000000001</ele><time>2026-04-04T08:30:52Z</time></trkpt><trkpt lat="43.47254777234776" lon="10.333346147376744"><ele>11.6</ele><time>2026-04-04T08:30:53Z</time></trkpt><trkpt lat="43.47260561539243" lon="10.333218603985667"><ele>13.0</ele><time>2026-04-04T08:30:55Z</time></trkpt><trkpt lat="43.47267882394749" lon="10.333084959759857"><ele>11.75</ele><time>2026-04-04T08:30:57Z</time></trkpt><trkpt lat="43.4727586357236" lon="10.332969912833217"><ele>10.5</ele><time>2026-04-04T08:30:59Z</time></trkpt><trkpt lat="43.47282713957227" lon="10.332846835505931"><ele>9.25</ele><time>2026-04-04T08:31:01Z</time></trkpt><trkpt lat="43.472888190197345" lon="10.332706894686954"><ele>8.0</ele><time>2026-04-04T08:31:03Z</time></trkpt><trkpt lat="43.47293378688731" lon="10.332559826047639"><ele>9.0</ele><time>2026-04-04T08:31:05Z</time></trkpt><trkpt lat="43.47297860953448" lon="10.332430738864987"><ele>10.0</ele><time>2026-04-04T08:31:07Z</time></trkpt><trkpt lat="43.473032873574" lon="10.332302900020096"><ele>11.0</ele><time>2026-04-04T08:31:09Z</time></trkpt><trkpt lat="43.473090671755095" lon="10.332181866576812"><ele>12.0</ele><time>2026-04-04T08:31:11Z</time></trkpt><trkpt lat="43.47315295759317" lon="10.332065191786224"><ele>13.0</ele><time>2026-04-04T08:31:13Z</time></trkpt><trkpt lat="43.47322085578254" lon="10.331953382957343"><ele>13.0</ele><time>2026-04-04T08:31:15Z</time></trkpt><trkpt lat="43.47329234182309" lon="10.33184665728692"><ele>13.0</ele><time>2026-04-04T08:31:17Z</time></trkpt><trkpt lat="43.47337689921595" lon="10.331756585110583"><ele>13.0</ele><time>2026-04-04T08:31:19Z</time></trkpt><trkpt lat="43.47347055074963" lon="10.331680920159535"><ele>13.0</ele><time>2026-04-04T08:31:21Z</time></trkpt><trkpt lat="43.47356972438051" lon="10.331612683322046"><ele>13.0</ele><time>2026-04-04T08:31:23Z</time></trkpt><trkpt lat="43.473662733883515" lon="10.33153431678768"><ele>13.0</ele><time>2026-04-04T08:31:25Z</time></trkpt><trkpt lat="43.47375814334506" lon="10.331457661188328"><ele>13.0</ele><time>2026-04-04T08:31:27Z</time></trkpt><trkpt lat="43.47385555190169" lon="10.33137808856038"><ele>13.0</ele><time>2026-04-04T08:31:29Z</time></trkpt><trkpt lat="43.47395592614249" lon="10.331301818277662"><ele>13.0</ele><time>2026-04-04T08:31:31Z</time></trkpt><trkpt lat="43.47405102441269" lon="10.331222535526127"><ele>13.0</ele><time>2026-04-04T08:31:33Z</time></trkpt><trkpt lat="43.47415386921566" lon="10.331155104204292"><ele>12.0</ele><time>2026-04-04T08:31:35Z</time></trkpt><trkpt lat="43.47426635956853" lon="10.331130403932397"><ele>11.0</ele><time>2026-04-04T08:31:37Z</time></trkpt><trkpt lat="43.474382392783575" lon="10.331141008953063"><ele>10.0</ele><time>2026-04-04T08:31:39Z</time></trkpt><trkpt lat="43.47449053612544" lon="10.331159379986474"><ele>9.0</ele><time>2026-04-04T08:31:41Z</time></trkpt><trkpt lat="43.474604605999986" lon="10.331180782196444"><ele>9.0</ele><time>2026-04-04T08:31:43Z</time></trkpt><trkpt lat="43.47471250009236" lon="10.331245988129425"><ele>9.0</ele><time>2026-04-04T08:31:45Z</time></trkpt><trkpt lat="43.47477371082884" lon="10.331271193472025"><ele>9.0</ele><time>2026-04-04T08:31:46Z</time></trkpt><trkpt lat="43.47490310333476" lon="10.331287811867098"><ele>9.0</ele><time>2026-04-04T08:31:47.999Z</time></trkpt><trkpt lat="43.47499605685956" lon="10.33123926738157"><ele>9.0</ele><time>2026-04-04T08:31:49.999Z</time></trkpt><trkpt lat="43.47510010844728" lon="10.3312546570773"><ele>9.0</ele><time>2026-04-04T08:31:51.999Z</time></trkpt><trkpt lat="43.475208755366666" lon="10.33126083437059"><ele>9.0</ele><time>2026-04-04T08:31:53.999Z</time></trkpt><trkpt lat="43.475316142761095" lon="10.331243239235945"><ele>9.0</ele><time>2026-04-04T08:31:55.999Z</time></trkpt><trkpt lat="43.47542364795334" lon="10.331201818689303"><ele>9.0</ele><time>2026-04-04T08:31:57.999Z</time></trkpt><trkpt lat="43.47551763381526" lon="10.331129810397355"><ele>9.0</ele><time>2026-04-04T08:31:59.999Z</time></trkpt><trkpt lat="43.475601326058424" lon="10.331035454924974"><ele>10.75</ele><time>2026-04-04T08:32:02Z</time></trkpt><trkpt lat="43.475678717424486" lon="10.330925231553591"><ele>12.5</ele><time>2026-04-04T08:32:04Z</time></trkpt><trkpt lat="43.47576262435782" lon="10.330803554864001"><ele>14.25</ele><time>2026-04-04T08:32:06Z</time></trkpt><trkpt lat="43.47585339514753" lon="10.330695221474343"><ele>16.0</ele><time>2026-04-04T08:32:08Z</time></trkpt><trkpt lat="43.47594488304979" lon="10.330603413059686"><ele>13.75</ele><time>2026-04-04T08:32:10Z</time></trkpt><trkpt lat="43.476049070283544" lon="10.330529056304457"><ele>11.5</ele><time>2026-04-04T08:32:12Z</time></trkpt><trkpt lat="43.47615232592655" lon="10.330463813882284"><ele>9.25</ele><time>2026-04-04T08:32:14Z</time></trkpt><trkpt lat="43.47626260515136" lon="10.330413585797947"><ele>7.0</ele><time>2026-04-04T08:32:16Z</time></trkpt><trkpt lat="43.476376899470175" lon="10.330398148570916"><ele>7.0</ele><time>2026-04-04T08:32:18Z</time></trkpt><trkpt lat="43.476489972852896" lon="10.330410658877748"><ele>7.0</ele><time>2026-04-04T08:32:20Z</time></trkpt><trkpt lat="43.47659854829022" lon="10.330445302714192"><ele>7.0</ele><time>2026-04-04T08:32:22Z</time></trkpt><trkpt lat="43.47670920188616" lon="10.330494680861387"><ele>7.0</ele><time>2026-04-04T08:32:24Z</time></trkpt><trkpt lat="43.47682236345064" lon="10.330547961041638"><ele>7.75</ele><time>2026-04-04T08:32:26Z</time></trkpt><trkpt lat="43.476938145742636" lon="10.330607537265827"><ele>8.5</ele><time>2026-04-04T08:32:28Z</time></trkpt><trkpt lat="43.477054907086625" lon="10.330667100469354"><ele>9.25</ele><time>2026-04-04T08:32:30Z</time></trkpt><trkpt lat="43.477169301167955" lon="10.330738185263636"><ele>10.0</ele><time>2026-04-04T08:32:32Z</time></trkpt><trkpt lat="43.477286194199856" lon="10.330810316344593"><ele>10.0</ele><time>2026-04-04T08:32:34Z</time></trkpt><trkpt lat="43.477396882212155" lon="10.330892457863497"><ele>10.0</ele><time>2026-04-04T08:32:36Z</time></trkpt><trkpt lat="43.47749687379674" lon="10.33099037173165"><ele>10.0</ele><time>2026-04-04T08:32:38Z</time></trkpt><trkpt lat="43.47759238842652" lon="10.331099739287382"><ele>10.0</ele><time>2026-04-04T08:32:40Z</time></trkpt><trkpt lat="43.47768424118256" lon="10.331212702825255"><ele>10.0</ele><time>2026-04-04T08:32:42Z</time></trkpt><trkpt lat="43.47777682860942" lon="10.331321297568678"><ele>10.0</ele><time>2026-04-04T08:32:44Z</time></trkpt><trkpt lat="43.477867446272676" lon="10.331433066527445"><ele>10.0</ele><time>2026-04-04T08:32:46Z</time></trkpt><trkpt lat="43.477913996980725" lon="10.33149310936421"><ele>10.0</ele><time>2026-04-04T08:32:47Z</time></trkpt><trkpt lat="43.47796064030581" lon="10.33155558280627"><ele>10.0</ele><time>2026-04-04T08:32:48Z</time></trkpt><trkpt lat="43.47805389722937" lon="10.33167177442257"><ele>9.6</ele><time>2026-04-04T08:32:50Z</time></trkpt><trkpt lat="43.47810302263574" lon="10.33173236381678"><ele>9.2</ele><time>2026-04-04T08:32:51Z</time></trkpt><trkpt lat="43.47819341058515" lon="10.331850709532715"><ele>8.8</ele><time>2026-04-04T08:32:53Z</time></trkpt><trkpt lat="43.47824130113927" lon="10.331910276072467"><ele>8.4</ele><time>2026-04-04T08:32:54Z</time></trkpt><trkpt lat="43.47833081882878" lon="10.33204235687116"><ele>8.0</ele><time>2026-04-04T08:32:56Z</time></trkpt><trkpt lat="43.47840055406218" lon="10.332183273077389"><ele>10.0</ele><time>2026-04-04T08:32:58Z</time></trkpt><trkpt lat="43.47843920165217" lon="10.332254382267845"><ele>12.0</ele><time>2026-04-04T08:32:59Z</time></trkpt><trkpt lat="43.478474195838174" lon="10.332328670975217"><ele>14.0</ele><time>2026-04-04T08:33:00Z</time></trkpt><trkpt lat="43.47852370268916" lon="10.3324681506468"><ele>16.0</ele><time>2026-04-04T08:33:02Z</time></trkpt><trkpt lat="43.478564871796635" lon="10.332540811666696"><ele>18.0</ele><time>2026-04-04T08:33:03Z</time></trkpt><trkpt lat="43.47863267334099" lon="10.3326714038525"><ele>20.0</ele><time>2026-04-04T08:33:05Z</time></trkpt><trkpt lat="43.4787215426627" lon="10.332779849501417"><ele>19.6</ele><time>2026-04-04T08:33:07Z</time></trkpt><trkpt lat="43.478814726602074" lon="10.3328740767589"><ele>19.2</ele><time>2026-04-04T08:33:09Z</time></trkpt><trkpt lat="43.47891141224687" lon="10.332958291053915"><ele>18.8</ele><time>2026-04-04T08:33:11Z</time></trkpt><trkpt lat="43.47896999036221" lon="10.332990973072201"><ele>18.4</ele><time>2026-04-04T08:33:12Z</time></trkpt><trkpt lat="43.47907810492802" lon="10.333065006502228"><ele>18.0</ele><time>2026-04-04T08:33:14Z</time></trkpt><trkpt lat="43.47918749502757" lon="10.333127464069957"><ele>18.0</ele><time>2026-04-04T08:33:16Z</time></trkpt><trkpt lat="43.47930199849268" lon="10.333190979570212"><ele>18.0</ele><time>2026-04-04T08:33:18Z</time></trkpt><trkpt lat="43.47940502731713" lon="10.333247894710986"><ele>18.0</ele><time>2026-04-04T08:33:20Z</time></trkpt><trkpt lat="43.47950063710528" lon="10.333306900483757"><ele>18.0</ele><time>2026-04-04T08:33:22Z</time></trkpt><trkpt lat="43.4796044372163" lon="10.333351380122657"><ele>18.0</ele><time>2026-04-04T08:33:24Z</time></trkpt><trkpt lat="43.479710764683695" lon="10.333389873197891"><ele>17.2</ele><time>2026-04-04T08:33:26Z</time></trkpt><trkpt lat="43.47981792956291" lon="10.33342668248734"><ele>16.4</ele><time>2026-04-04T08:33:28Z</time></trkpt><trkpt lat="43.4799359790766" lon="10.333457959592634"><ele>15.599999999999998</ele><time>2026-04-04T08:33:30Z</time></trkpt><trkpt lat="43.48004735792106" lon="10.333505119438072"><ele>14.799999999999999</ele><time>2026-04-04T08:33:32Z</time></trkpt><trkpt lat="43.480106335682336" lon="10.33353663633522"><ele>14.0</ele><time>2026-04-04T08:33:33Z</time></trkpt><trkpt lat="43.48015376892753" lon="10.333600258476423"><ele>14.0</ele><time>2026-04-04T08:33:34Z</time></trkpt><trkpt lat="43.480198450511686" lon="10.333689005615852"><ele>14.0</ele><time>2026-04-04T08:33:35Z</time></trkpt><trkpt lat="43.480219505158296" lon="10.333788976607151"><ele>14.0</ele><time>2026-04-04T08:33:36Z</time></trkpt><trkpt lat="43.48022683244293" lon="10.333884597204456"><ele>14.0</ele><time>2026-04-04T08:33:37Z</time></trkpt><trkpt lat="43.48024245481315" lon="10.333974745794322"><ele>14.0</ele><time>2026-04-04T08:33:38Z</time></trkpt><trkpt lat="43.48025911859929" lon="10.334072167245035"><ele>14.0</ele><time>2026-04-04T08:33:39Z</time></trkpt><trkpt lat="43.48027066721039" lon="10.33416366670096"><ele>14.0</ele><time>2026-04-04T08:33:40Z</time></trkpt><trkpt lat="43.480280258619146" lon="10.334254240809315"><ele>14.6</ele><time>2026-04-04T08:33:41Z</time></trkpt><trkpt lat="43.48031038656663" lon="10.334393415222443"><ele>15.2</ele><time>2026-04-04T08:33:43Z</time></trkpt><trkpt lat="43.48036618506176" lon="10.33451614164343"><ele>15.799999999999999</ele><time>2026-04-04T08:33:45Z</time></trkpt><trkpt lat="43.48042831718361" lon="10.334609484190745"><ele>16.4</ele><time>2026-04-04T08:33:47Z</time></trkpt><trkpt lat="43.48050254033938" lon="10.334677662694522"><ele>17.0</ele><time>2026-04-04T08:33:49Z</time></trkpt><trkpt lat="43.48058683539964" lon="10.334720573251559"><ele>17.166666666666668</ele><time>2026-04-04T08:33:51Z</time></trkpt><trkpt lat="43.48067879335996" lon="10.334706954280866"><ele>17.333333333333336</ele><time>2026-04-04T08:33:53Z</time></trkpt><trkpt lat="43.48076884708909" lon="10.334672276404781"><ele>17.5</ele><time>2026-04-04T08:33:55Z</time></trkpt><trkpt lat="43.480855595236534" lon="10.334649266646554"><ele>17.666666666666668</ele><time>2026-04-04T08:33:57Z</time></trkpt><trkpt lat="43.48093682040403" lon="10.334627433946242"><ele>17.833333333333332</ele><time>2026-04-04T08:33:59Z</time></trkpt><trkpt lat="43.48101873411266" lon="10.334604386081848"><ele>18.0</ele><time>2026-04-04T08:34:01Z</time></trkpt><trkpt lat="43.48109985775343" lon="10.334588660589734"><ele>18.0</ele><time>2026-04-04T08:34:03Z</time></trkpt><trkpt lat="43.48118049491549" lon="10.334564150096913"><ele>18.0</ele><time>2026-04-04T08:34:04.999Z</time></trkpt><trkpt lat="43.48126511655942" lon="10.3345428672985"><ele>18.0</ele><time>2026-04-04T08:34:07Z</time></trkpt><trkpt lat="43.4813521182722" lon="10.33452573655226"><ele>18.0</ele><time>2026-04-04T08:34:09Z</time></trkpt><trkpt lat="43.48144250401259" lon="10.334521451310742"><ele>18.0</ele><time>2026-04-04T08:34:11Z</time></trkpt><trkpt lat="43.48153866324382" lon="10.334514188232937"><ele>18.0</ele><time>2026-04-04T08:34:13Z</time></trkpt><trkpt lat="43.48164581832159" lon="10.334516363260771"><ele>18.2</ele><time>2026-04-04T08:34:15Z</time></trkpt><trkpt lat="43.48176032367364" lon="10.334515937446362"><ele>18.4</ele><time>2026-04-04T08:34:17Z</time></trkpt><trkpt lat="43.48188913319917" lon="10.334514022289401"><ele>18.599999999999998</ele><time>2026-04-04T08:34:19Z</time></trkpt><trkpt lat="43.481956970110055" lon="10.334509298902303"><ele>18.8</ele><time>2026-04-04T08:34:20Z</time></trkpt><trkpt lat="43.482028823830746" lon="10.334500016154298"><ele>19.0</ele><time>2026-04-04T08:34:21Z</time></trkpt><trkpt lat="43.48210698619033" lon="10.334485785865597"><ele>19.333333333333332</ele><time>2026-04-04T08:34:22Z</time></trkpt><trkpt lat="43.48219011880873" lon="10.33447522819747"><ele>19.666666666666664</ele><time>2026-04-04T08:34:23Z</time></trkpt><trkpt lat="43.48226800146404" lon="10.334458847311836"><ele>20.0</ele><time>2026-04-04T08:34:24Z</time></trkpt><trkpt lat="43.48234968644331" lon="10.334440283182229"><ele>20.333333333333332</ele><time>2026-04-04T08:34:25Z</time></trkpt><trkpt lat="43.48243041959596" lon="10.334424798179473"><ele>20.666666666666668</ele><time>2026-04-04T08:34:26Z</time></trkpt><trkpt lat="43.482506724334016" lon="10.334408147939804"><ele>21.0</ele><time>2026-04-04T08:34:27Z</time></trkpt><trkpt lat="43.4825817962224" lon="10.334402036278567"><ele>21.0</ele><time>2026-04-04T08:34:28Z</time></trkpt><trkpt lat="43.482645683103335" lon="10.334390368909608"><ele>21.0</ele><time>2026-04-04T08:34:29Z</time></trkpt><trkpt lat="43.4827124482872" lon="10.334379376171725"><ele>21.0</ele><time>2026-04-04T08:34:30Z</time></trkpt><trkpt lat="43.48282896446224" lon="10.334352628856998"><ele>21.0</ele><time>2026-04-04T08:34:32Z</time></trkpt><trkpt lat="43.482949983925266" lon="10.334312879918983"><ele>21.0</ele><time>2026-04-04T08:34:34Z</time></trkpt><trkpt lat="43.48306897719089" lon="10.334270401195015"><ele>21.285714285714285</ele><time>2026-04-04T08:34:36Z</time></trkpt><trkpt lat="43.483131082334445" lon="10.334251366574817"><ele>21.57142857142857</ele><time>2026-04-04T08:34:37Z</time></trkpt><trkpt lat="43.483192023379274" lon="10.334225405805322"><ele>21.857142857142858</ele><time>2026-04-04T08:34:38Z</time></trkpt><trkpt lat="43.48325292371197" lon="10.334194442275864"><ele>22.142857142857142</ele><time>2026-04-04T08:34:39Z</time></trkpt><trkpt lat="43.48331125476815" lon="10.334156324171536"><ele>22.428571428571427</ele><time>2026-04-04T08:34:40Z</time></trkpt><trkpt lat="43.483377907116434" lon="10.334121234900872"><ele>22.714285714285715</ele><time>2026-04-04T08:34:41Z</time></trkpt><trkpt lat="43.48343911383982" lon="10.334074716189459"><ele>23.0</ele><time>2026-04-04T08:34:42Z</time></trkpt><trkpt lat="43.48349324950321" lon="10.334005556708254"><ele>23.0</ele><time>2026-04-04T08:34:43Z</time></trkpt><trkpt lat="43.48353703879582" lon="10.333913143226274"><ele>23.0</ele><time>2026-04-04T08:34:44Z</time></trkpt><trkpt lat="43.48356729444394" lon="10.333815200132253"><ele>23.0</ele><time>2026-04-04T08:34:45Z</time></trkpt><trkpt lat="43.483578558088404" lon="10.333713795342852"><ele>23.0</ele><time>2026-04-04T08:34:46Z</time></trkpt><trkpt lat="43.48358090084688" lon="10.333610650747346"><ele>23.0</ele><time>2026-04-04T08:34:47Z</time></trkpt><trkpt lat="43.483579495895135" lon="10.33351341735234"><ele>23.0</ele><time>2026-04-04T08:34:48Z</time></trkpt><trkpt lat="43.48361703238596" lon="10.333417881499454"><ele>22.0</ele><time>2026-04-04T08:34:49Z</time></trkpt><trkpt lat="43.48364160803487" lon="10.33333324748082"><ele>21.0</ele><time>2026-04-04T08:34:50Z</time></trkpt><trkpt lat="43.483669182749004" lon="10.333180297628388"><ele>20.0</ele><time>2026-04-04T08:34:52Z</time></trkpt><trkpt lat="43.48369411571434" lon="10.333029400596034"><ele>19.0</ele><time>2026-04-04T08:34:54Z</time></trkpt><trkpt lat="43.48370549971666" lon="10.332887324728652"><ele>18.0</ele><time>2026-04-04T08:34:56Z</time></trkpt><trkpt lat="43.48373281687578" lon="10.332751298604908"><ele>17.4</ele><time>2026-04-04T08:34:58Z</time></trkpt><trkpt lat="43.48377613002446" lon="10.33262152312171"><ele>16.8</ele><time>2026-04-04T08:35:00Z</time></trkpt><trkpt lat="43.48385420076081" lon="10.33252248899276"><ele>16.2</ele><time>2026-04-04T08:35:02Z</time></trkpt><trkpt lat="43.48393948736043" lon="10.33243481189714"><ele>15.6</ele><time>2026-04-04T08:35:04Z</time></trkpt><trkpt lat="43.48401328045746" lon="10.332329947260726"><ele>15.0</ele><time>2026-04-04T08:35:06Z</time></trkpt><trkpt lat="43.48407795046155" lon="10.332326024296314"><ele>15.0</ele><time>2026-04-04T08:35:07Z</time></trkpt><trkpt lat="43.48417461815743" lon="10.33225891540806"><ele>15.0</ele><time>2026-04-04T08:35:09Z</time></trkpt><trkpt lat="43.48427372901698" lon="10.33220225849047"><ele>15.0</ele><time>2026-04-04T08:35:11Z</time></trkpt><trkpt lat="43.484376143255055" lon="10.33215371043669"><ele>15.0</ele><time>2026-04-04T08:35:13Z</time></trkpt><trkpt lat="43.48448078251092" lon="10.332105548453821"><ele>15.0</ele><time>2026-04-04T08:35:15Z</time></trkpt><trkpt lat="43.48457950174433" lon="10.332044066348121"><ele>15.6</ele><time>2026-04-04T08:35:17Z</time></trkpt><trkpt lat="43.48467977669161" lon="10.331978364306874"><ele>16.2</ele><time>2026-04-04T08:35:19Z</time></trkpt><trkpt lat="43.48478292121871" lon="10.33192186020024"><ele>16.8</ele><time>2026-04-04T08:35:21Z</time></trkpt><trkpt lat="43.4848832426891" lon="10.331863003171968"><ele>17.4</ele><time>2026-04-04T08:35:23Z</time></trkpt><trkpt lat="43.48497854166157" lon="10.331805040436292"><ele>18.0</ele><time>2026-04-04T08:35:25Z</time></trkpt><trkpt lat="43.48508297196159" lon="10.331753566771427"><ele>18.0</ele><time>2026-04-04T08:35:27Z</time></trkpt><trkpt lat="43.48518434715108" lon="10.331704280097174"><ele>18.0</ele><time>2026-04-04T08:35:29Z</time></trkpt><trkpt lat="43.485286819090554" lon="10.331653606783325"><ele>18.0</ele><time>2026-04-04T08:35:31Z</time></trkpt><trkpt lat="43.485387271849326" lon="10.331595419708911"><ele>18.0</ele><time>2026-04-04T08:35:33Z</time></trkpt><trkpt lat="43.48548928455129" lon="10.331544427936693"><ele>18.0</ele><time>2026-04-04T08:35:35Z</time></trkpt><trkpt lat="43.485586598570976" lon="10.331492599110515"><ele>17.8</ele><time>2026-04-04T08:35:37Z</time></trkpt><trkpt lat="43.48568151213844" lon="10.331434478220801"><ele>17.6</ele><time>2026-04-04T08:35:39Z</time></trkpt><trkpt lat="43.48578477708465" lon="10.331380582555848"><ele>17.4</ele><time>2026-04-04T08:35:41Z</time></trkpt><trkpt lat="43.485887451547235" lon="10.331326715916854"><ele>17.2</ele><time>2026-04-04T08:35:43Z</time></trkpt><trkpt lat="43.48598920302507" lon="10.33126607062363"><ele>17.0</ele><time>2026-04-04T08:35:45Z</time></trkpt><trkpt lat="43.486089121404476" lon="10.331215743174644"><ele>17.0</ele><time>2026-04-04T08:35:47Z</time></trkpt><trkpt lat="43.486186535957465" lon="10.331158432614938"><ele>17.0</ele><time>2026-04-04T08:35:49Z</time></trkpt><trkpt lat="43.48628713676522" lon="10.33110716204582"><ele>17.0</ele><time>2026-04-04T08:35:51Z</time></trkpt><trkpt lat="43.48638554997952" lon="10.33104697711841"><ele>17.0</ele><time>2026-04-04T08:35:53Z</time></trkpt><trkpt lat="43.48648488249858" lon="10.33099796656346"><ele>17.0</ele><time>2026-04-04T08:35:55Z</time></trkpt><trkpt lat="43.48658735771371" lon="10.33094594876675"><ele>17.4</ele><time>2026-04-04T08:35:57Z</time></trkpt><trkpt lat="43.486690198837074" lon="10.330903304583147"><ele>17.799999999999997</ele><time>2026-04-04T08:35:59Z</time></trkpt><trkpt lat="43.486796191823494" lon="10.330833581171559"><ele>18.2</ele><time>2026-04-04T08:36:01Z</time></trkpt><trkpt lat="43.486896850164655" lon="10.330772506943402"><ele>18.599999999999998</ele><time>2026-04-04T08:36:03Z</time></trkpt><trkpt lat="43.48700524143731" lon="10.33072960144532"><ele>19.0</ele><time>2026-04-04T08:36:05Z</time></trkpt><trkpt lat="43.487106222542266" lon="10.330669792613474"><ele>19.25</ele><time>2026-04-04T08:36:07Z</time></trkpt><trkpt lat="43.48721174478008" lon="10.330608843556348"><ele>19.5</ele><time>2026-04-04T08:36:08.999Z</time></trkpt><trkpt lat="43.48731788081245" lon="10.330556720585312"><ele>19.75</ele><time>2026-04-04T08:36:10.999Z</time></trkpt><trkpt lat="43.48742614277473" lon="10.330502617676562"><ele>20.0</ele><time>2026-04-04T08:36:13Z</time></trkpt><trkpt lat="43.48753019555983" lon="10.330441576133401"><ele>19.5</ele><time>2026-04-04T08:36:15Z</time></trkpt><trkpt lat="43.48763635837257" lon="10.330381377800377"><ele>19.0</ele><time>2026-04-04T08:36:17Z</time></trkpt><trkpt lat="43.48773934980796" lon="10.330326289202612"><ele>18.5</ele><time>2026-04-04T08:36:19Z</time></trkpt><trkpt lat="43.48784699174391" lon="10.3302700337998"><ele>18.0</ele><time>2026-04-04T08:36:21Z</time></trkpt><trkpt lat="43.4879566955575" lon="10.330216012953507"><ele>18.0</ele><time>2026-04-04T08:36:23Z</time></trkpt><trkpt lat="43.48805594907943" lon="10.3301672764028"><ele>18.0</ele><time>2026-04-04T08:36:25Z</time></trkpt><trkpt lat="43.488161907035774" lon="10.330103221580703"><ele>18.0</ele><time>2026-04-04T08:36:27Z</time></trkpt><trkpt lat="43.488269160270036" lon="10.330043599693829"><ele>18.0</ele><time>2026-04-04T08:36:29Z</time></trkpt><trkpt lat="43.48837613411015" lon="10.329981065105985"><ele>18.0</ele><time>2026-04-04T08:36:31Z</time></trkpt><trkpt lat="43.48848396076934" lon="10.32991876122171"><ele>18.0</ele><time>2026-04-04T08:36:33Z</time></trkpt><trkpt lat="43.48859374888934" lon="10.329855809965245"><ele>18.0</ele><time>2026-04-04T08:36:35Z</time></trkpt><trkpt lat="43.48870214728008" lon="10.329794156800197"><ele>18.0</ele><time>2026-04-04T08:36:37Z</time></trkpt><trkpt lat="43.48881429632926" lon="10.329734109574733"><ele>17.25</ele><time>2026-04-04T08:36:39Z</time></trkpt><trkpt lat="43.488921493533674" lon="10.329669664556077"><ele>16.5</ele><time>2026-04-04T08:36:41Z</time></trkpt><trkpt lat="43.48902864847819" lon="10.329602182685834"><ele>15.75</ele><time>2026-04-04T08:36:43Z</time></trkpt><trkpt lat="43.48913638733787" lon="10.329552502104784"><ele>15.0</ele><time>2026-04-04T08:36:45Z</time></trkpt><trkpt lat="43.48924012847869" lon="10.329489918385544"><ele>15.0</ele><time>2026-04-04T08:36:47Z</time></trkpt><trkpt lat="43.4893386372732" lon="10.329415981069408"><ele>15.0</ele><time>2026-04-04T08:36:49Z</time></trkpt><trkpt lat="43.48943417649485" lon="10.329349909093997"><ele>15.0</ele><time>2026-04-04T08:36:51Z</time></trkpt><trkpt lat="43.489535438387406" lon="10.329307657269265"><ele>15.0</ele><time>2026-04-04T08:36:53Z</time></trkpt><trkpt lat="43.48956597989699" lon="10.329128795479859"><ele>15.5</ele><time>2026-04-04T08:36:55Z</time></trkpt><trkpt lat="43.48963172909776" lon="10.329014276232838"><ele>16.0</ele><time>2026-04-04T08:36:57Z</time></trkpt><trkpt lat="43.48968545792236" lon="10.3288843056112"><ele>16.5</ele><time>2026-04-04T08:36:59Z</time></trkpt><trkpt lat="43.489738497156786" lon="10.328740036632237"><ele>17.0</ele><time>2026-04-04T08:37:01Z</time></trkpt><trkpt lat="43.489796051557484" lon="10.32859359359406"><ele>16.999999999999996</ele><time>2026-04-04T08:37:03Z</time></trkpt><trkpt lat="43.48982799485994" lon="10.328517876544145"><ele>17.0</ele><time>2026-04-04T08:37:04Z</time></trkpt><trkpt lat="43.4898904246814" lon="10.328365013090009"><ele>17.0</ele><time>2026-04-04T08:37:06Z</time></trkpt><trkpt lat="43.4899206417571" lon="10.32828819143444"><ele>17.0</ele><time>2026-04-04T08:37:07Z</time></trkpt><trkpt lat="43.48994766338184" lon="10.328205324089332"><ele>17.0</ele><time>2026-04-04T08:37:08Z</time></trkpt><trkpt lat="43.48997594959915" lon="10.3281251870282"><ele>16.999999999999996</ele><time>2026-04-04T08:37:09Z</time></trkpt><trkpt lat="43.49000352950427" lon="10.328044568771851"><ele>17.0</ele><time>2026-04-04T08:37:10Z</time></trkpt><trkpt lat="43.49003155114685" lon="10.327961572741186"><ele>16.57142857142857</ele><time>2026-04-04T08:37:11Z</time></trkpt><trkpt lat="43.49005949005563" lon="10.327880666238302"><ele>16.142857142857142</ele><time>2026-04-04T08:37:12Z</time></trkpt><trkpt lat="43.49009054340442" lon="10.327803919818201"><ele>15.714285714285714</ele><time>2026-04-04T08:37:13Z</time></trkpt><trkpt lat="43.49012142112502" lon="10.327722142273524"><ele>15.285714285714285</ele><time>2026-04-04T08:37:14Z</time></trkpt><trkpt lat="43.49014819602424" lon="10.327638484868503"><ele>14.857142857142858</ele><time>2026-04-04T08:37:15Z</time></trkpt><trkpt lat="43.49017891446369" lon="10.327557394636091"><ele>14.428571428571429</ele><time>2026-04-04T08:37:16Z</time></trkpt><trkpt lat="43.490206177530425" lon="10.327472303046063"><ele>14.0</ele><time>2026-04-04T08:37:17Z</time></trkpt><trkpt lat="43.49024250957454" lon="10.32739642811863"><ele>14.0</ele><time>2026-04-04T08:37:18Z</time></trkpt><trkpt lat="43.49028029855196" lon="10.3273215487853"><ele>14.0</ele><time>2026-04-04T08:37:19Z</time></trkpt><trkpt lat="43.4903148090384" lon="10.327236159668752"><ele>14.0</ele><time>2026-04-04T08:37:20Z</time></trkpt><trkpt lat="43.49034732560011" lon="10.327155771628664"><ele>14.0</ele><time>2026-04-04T08:37:21Z</time></trkpt><trkpt lat="43.490379653657016" lon="10.32707617042447"><ele>14.0</ele><time>2026-04-04T08:37:22Z</time></trkpt><trkpt lat="43.490409833146764" lon="10.32699241043318"><ele>14.0</ele><time>2026-04-04T08:37:23Z</time></trkpt><trkpt lat="43.490439570405755" lon="10.326908965447522"><ele>14.0</ele><time>2026-04-04T08:37:24Z</time></trkpt><trkpt lat="43.4904728161942" lon="10.326827804086761"><ele>14.0</ele><time>2026-04-04T08:37:25Z</time></trkpt><trkpt lat="43.49050646570766" lon="10.326747970944895"><ele>14.0</ele><time>2026-04-04T08:37:26Z</time></trkpt><trkpt lat="43.490538098386665" lon="10.326662237632064"><ele>14.0</ele><time>2026-04-04T08:37:27Z</time></trkpt><trkpt lat="43.490570495523414" lon="10.326580015421206"><ele>14.0</ele><time>2026-04-04T08:37:28Z</time></trkpt><trkpt lat="43.49060450311021" lon="10.32649517579192"><ele>14.0</ele><time>2026-04-04T08:37:29Z</time></trkpt><trkpt lat="43.49063901332944" lon="10.326407203717594"><ele>14.0</ele><time>2026-04-04T08:37:30Z</time></trkpt><trkpt lat="43.490676717705455" lon="10.326328777500803"><ele>14.0</ele><time>2026-04-04T08:37:31Z</time></trkpt><trkpt lat="43.49071783086306" lon="10.326253696568834"><ele>13.000000000000002</ele><time>2026-04-04T08:37:32Z</time></trkpt><trkpt lat="43.49075993279629" lon="10.326181842721072"><ele>12.0</ele><time>2026-04-04T08:37:33Z</time></trkpt><trkpt lat="43.49080637211166" lon="10.326114989722852"><ele>11.0</ele><time>2026-04-04T08:37:34Z</time></trkpt><trkpt lat="43.490854452960065" lon="10.32605311233387"><ele>10.0</ele><time>2026-04-04T08:37:35Z</time></trkpt><trkpt lat="43.49089945993412" lon="10.325991233038097"><ele>9.0</ele><time>2026-04-04T08:37:36Z</time></trkpt><trkpt lat="43.49100419741045" lon="10.32588753010599"><ele>8.0</ele><time>2026-04-04T08:37:38Z</time></trkpt><trkpt lat="43.49110301689008" lon="10.325783508869282"><ele>8.0</ele><time>2026-04-04T08:37:40Z</time></trkpt><trkpt lat="43.49120789646422" lon="10.32569689726364"><ele>8.0</ele><time>2026-04-04T08:37:42Z</time></trkpt><trkpt lat="43.49131822338863" lon="10.32563513578354"><ele>8.0</ele><time>2026-04-04T08:37:44Z</time></trkpt><trkpt lat="43.49142929072963" lon="10.325581601778126"><ele>8.0</ele><time>2026-04-04T08:37:46Z</time></trkpt><trkpt lat="43.49154223230343" lon="10.325534546960494"><ele>8.25</ele><time>2026-04-04T08:37:48Z</time></trkpt><trkpt lat="43.49165245902887" lon="10.325494253090074"><ele>8.5</ele><time>2026-04-04T08:37:50Z</time></trkpt><trkpt lat="43.49176534666437" lon="10.325454053331443"><ele>8.75</ele><time>2026-04-04T08:37:52Z</time></trkpt><trkpt lat="43.491880262722226" lon="10.325422126378063"><ele>9.0</ele><time>2026-04-04T08:37:54Z</time></trkpt><trkpt lat="43.491993695443746" lon="10.325375040109815"><ele>8.25</ele><time>2026-04-04T08:37:56Z</time></trkpt><trkpt lat="43.49211043832631" lon="10.325339836882467"><ele>7.5</ele><time>2026-04-04T08:37:58Z</time></trkpt><trkpt lat="43.49222595348039" lon="10.325304640732577"><ele>6.75</ele><time>2026-04-04T08:38:00Z</time></trkpt><trkpt lat="43.49234251227236" lon="10.325269027797775"><ele>6.0</ele><time>2026-04-04T08:38:02Z</time></trkpt><trkpt lat="43.49245701071275" lon="10.325225680174881"><ele>6.0</ele><time>2026-04-04T08:38:04Z</time></trkpt><trkpt lat="43.49257017774441" lon="10.325176258952855"><ele>6.0</ele><time>2026-04-04T08:38:06Z</time></trkpt><trkpt lat="43.4926815000944" lon="10.325139884973652"><ele>6.0</ele><time>2026-04-04T08:38:08Z</time></trkpt><trkpt lat="43.49279728694675" lon="10.325100606794857"><ele>6.0</ele><time>2026-04-04T08:38:10Z</time></trkpt><trkpt lat="43.49291035897168" lon="10.32505568230941"><ele>7.0</ele><time>2026-04-04T08:38:12Z</time></trkpt><trkpt lat="43.493030013880855" lon="10.325020048292869"><ele>8.0</ele><time>2026-04-04T08:38:14Z</time></trkpt><trkpt lat="43.49314321937736" lon="10.32496985512395"><ele>9.0</ele><time>2026-04-04T08:38:16Z</time></trkpt><trkpt lat="43.493248606508566" lon="10.324886606995047"><ele>10.0</ele><time>2026-04-04T08:38:18Z</time></trkpt><trkpt lat="43.49334824220071" lon="10.324791600363781"><ele>10.0</ele><time>2026-04-04T08:38:20Z</time></trkpt><trkpt lat="43.49340132869748" lon="10.324739072140524"><ele>10.0</ele><time>2026-04-04T08:38:21Z</time></trkpt><trkpt lat="43.49350290294595" lon="10.324641720638661"><ele>10.0</ele><time>2026-04-04T08:38:23Z</time></trkpt><trkpt lat="43.49355430404387" lon="10.324588262211519"><ele>10.0</ele><time>2026-04-04T08:38:24Z</time></trkpt><trkpt lat="43.49360767528417" lon="10.324540202064227"><ele>10.0</ele><time>2026-04-04T08:38:25Z</time></trkpt><trkpt lat="43.49366079391941" lon="10.324490891446503"><ele>10.0</ele><time>2026-04-04T08:38:26Z</time></trkpt><trkpt lat="43.49376566944679" lon="10.324395315496234"><ele>10.2</ele><time>2026-04-04T08:38:28Z</time></trkpt><trkpt lat="43.493818095839096" lon="10.324345992527993"><ele>10.4</ele><time>2026-04-04T08:38:29Z</time></trkpt><trkpt lat="43.49392477963756" lon="10.324251252449214"><ele>10.600000000000001</ele><time>2026-04-04T08:38:31Z</time></trkpt><trkpt lat="43.494031817064894" lon="10.324158320825552"><ele>10.8</ele><time>2026-04-04T08:38:33Z</time></trkpt><trkpt lat="43.4941404224711" lon="10.324066278320313"><ele>11.0</ele><time>2026-04-04T08:38:35Z</time></trkpt><trkpt lat="43.4941963105024" lon="10.324022604468228"><ele>11.0</ele><time>2026-04-04T08:38:36Z</time></trkpt><trkpt lat="43.494253520792824" lon="10.323974047525958"><ele>11.0</ele><time>2026-04-04T08:38:37Z</time></trkpt><trkpt lat="43.49436330530622" lon="10.323888553476154"><ele>11.0</ele><time>2026-04-04T08:38:39Z</time></trkpt><trkpt lat="43.49442162774863" lon="10.323853107652969"><ele>11.0</ele><time>2026-04-04T08:38:40Z</time></trkpt><trkpt lat="43.4944820275277" lon="10.323827921490704"><ele>11.0</ele><time>2026-04-04T08:38:41Z</time></trkpt><trkpt lat="43.49454368928925" lon="10.32380883844157"><ele>11.0</ele><time>2026-04-04T08:38:42Z</time></trkpt><trkpt lat="43.49466325875245" lon="10.323767433207907"><ele>9.4</ele><time>2026-04-04T08:38:44Z</time></trkpt><trkpt lat="43.49478544715321" lon="10.32372618584119"><ele>7.800000000000001</ele><time>2026-04-04T08:38:46Z</time></trkpt><trkpt lat="43.49484736172348" lon="10.323708408944112"><ele>6.2</ele><time>2026-04-04T08:38:47Z</time></trkpt><trkpt lat="43.494966861807065" lon="10.323670861050863"><ele>4.6</ele><time>2026-04-04T08:38:49Z</time></trkpt><trkpt lat="43.49508797883021" lon="10.32364526045888"><ele>3.0</ele><time>2026-04-04T08:38:51Z</time></trkpt><trkpt lat="43.49520618015205" lon="10.323618135208715"><ele>3.0</ele><time>2026-04-04T08:38:53Z</time></trkpt><trkpt lat="43.49532531828181" lon="10.323601222887879"><ele>3.0</ele><time>2026-04-04T08:38:55Z</time></trkpt><trkpt lat="43.49544557705677" lon="10.323573474381993"><ele>3.0</ele><time>2026-04-04T08:38:57Z</time></trkpt><trkpt lat="43.49551125930122" lon="10.323571059522353"><ele>3.0</ele><time>2026-04-04T08:38:58Z</time></trkpt><trkpt lat="43.49563385503913" lon="10.323561319627997"><ele>3.0</ele><time>2026-04-04T08:39:00Z</time></trkpt><trkpt lat="43.49575762202825" lon="10.32355014434317"><ele>3.8</ele><time>2026-04-04T08:39:02Z</time></trkpt><trkpt lat="43.49582159769178" lon="10.323545214623193"><ele>4.6</ele><time>2026-04-04T08:39:03Z</time></trkpt><trkpt lat="43.4959455305637" lon="10.323524735738472"><ele>5.3999999999999995</ele><time>2026-04-04T08:39:05Z</time></trkpt><trkpt lat="43.496062933500745" lon="10.323489160233157"><ele>6.199999999999999</ele><time>2026-04-04T08:39:07Z</time></trkpt><trkpt lat="43.49617782506631" lon="10.323431012043681"><ele>7.0</ele><time>2026-04-04T08:39:09Z</time></trkpt><trkpt lat="43.49628494751694" lon="10.323350081700188"><ele>7.500000000000001</ele><time>2026-04-04T08:39:11Z</time></trkpt><trkpt lat="43.496342306538764" lon="10.323307477306193"><ele>8.0</ele><time>2026-04-04T08:39:12Z</time></trkpt><trkpt lat="43.496446697154354" lon="10.323222451967652"><ele>8.5</ele><time>2026-04-04T08:39:14Z</time></trkpt><trkpt lat="43.49649745576172" lon="10.323168121066557"><ele>9.0</ele><time>2026-04-04T08:39:15Z</time></trkpt><trkpt lat="43.496553370630096" lon="10.323120546327571"><ele>9.5</ele><time>2026-04-04T08:39:16Z</time></trkpt><trkpt lat="43.496660703004274" lon="10.323030741550859"><ele>10.0</ele><time>2026-04-04T08:39:18Z</time></trkpt><trkpt lat="43.49671656532494" lon="10.32298817871225"><ele>9.75</ele><time>2026-04-04T08:39:19Z</time></trkpt><trkpt lat="43.496820324025286" lon="10.322902212614212"><ele>9.5</ele><time>2026-04-04T08:39:21Z</time></trkpt><trkpt lat="43.496922456093706" lon="10.322822279216865"><ele>9.25</ele><time>2026-04-04T08:39:23Z</time></trkpt><trkpt lat="43.497025060814316" lon="10.32274057591814"><ele>9.0</ele><time>2026-04-04T08:39:25Z</time></trkpt><trkpt lat="43.49712779732923" lon="10.32266485614074"><ele>9.0</ele><time>2026-04-04T08:39:27Z</time></trkpt><trkpt lat="43.497231124438144" lon="10.322599336281145"><ele>9.0</ele><time>2026-04-04T08:39:29Z</time></trkpt><trkpt lat="43.49733574866578" lon="10.322557581994486"><ele>9.0</ele><time>2026-04-04T08:39:31Z</time></trkpt><trkpt lat="43.49744017001975" lon="10.3225090426792"><ele>9.0</ele><time>2026-04-04T08:39:33Z</time></trkpt><trkpt lat="43.49754574984925" lon="10.32246302100663"><ele>9.0</ele><time>2026-04-04T08:39:35Z</time></trkpt><trkpt lat="43.4976644406333" lon="10.322413979034886"><ele>9.000000000000002</ele><time>2026-04-04T08:39:37Z</time></trkpt><trkpt lat="43.497729277014535" lon="10.322393487367087"><ele>9.0</ele><time>2026-04-04T08:39:38Z</time></trkpt><trkpt lat="43.497791314903964" lon="10.322371974406757"><ele>9.0</ele><time>2026-04-04T08:39:39Z</time></trkpt><trkpt lat="43.49785505652429" lon="10.322351267374028"><ele>9.0</ele><time>2026-04-04T08:39:40Z</time></trkpt><trkpt lat="43.497918017671076" lon="10.322330750179935"><ele>9.0</ele><time>2026-04-04T08:39:41Z</time></trkpt><trkpt lat="43.49798059033718" lon="10.322314776406895"><ele>9.000000000000002</ele><time>2026-04-04T08:39:42Z</time></trkpt><trkpt lat="43.4980450214318" lon="10.322302549103831"><ele>9.0</ele><time>2026-04-04T08:39:43Z</time></trkpt><trkpt lat="43.498107357389095" lon="10.322288441627283"><ele>8.833333333333334</ele><time>2026-04-04T08:39:44Z</time></trkpt><trkpt lat="43.498169844732004" lon="10.322268534644065"><ele>8.666666666666666</ele><time>2026-04-04T08:39:45Z</time></trkpt><trkpt lat="43.498292296008614" lon="10.322232866273964"><ele>8.5</ele><time>2026-04-04T08:39:47Z</time></trkpt><trkpt lat="43.498354098409145" lon="10.32221491005244"><ele>8.333333333333332</ele><time>2026-04-04T08:39:48Z</time></trkpt><trkpt lat="43.49841532280449" lon="10.322194300428114"><ele>8.166666666666666</ele><time>2026-04-04T08:39:49Z</time></trkpt><trkpt lat="43.498537081180196" lon="10.322157269836048"><ele>8.0</ele><time>2026-04-04T08:39:51Z</time></trkpt><trkpt lat="43.498653522780266" lon="10.322116626471463"><ele>8.25</ele><time>2026-04-04T08:39:53Z</time></trkpt><trkpt lat="43.49877025101995" lon="10.322079554976298"><ele>8.5</ele><time>2026-04-04T08:39:55Z</time></trkpt><trkpt lat="43.49888449621314" lon="10.322041756214945"><ele>8.75</ele><time>2026-04-04T08:39:57Z</time></trkpt><trkpt lat="43.49900135014337" lon="10.322008378992031"><ele>9.0</ele><time>2026-04-04T08:39:59Z</time></trkpt><trkpt lat="43.499112028376885" lon="10.32196066729882"><ele>9.0</ele><time>2026-04-04T08:40:01Z</time></trkpt><trkpt lat="43.49922548263778" lon="10.321921129015367"><ele>9.0</ele><time>2026-04-04T08:40:03Z</time></trkpt><trkpt lat="43.4993387392987" lon="10.321887687986907"><ele>9.0</ele><time>2026-04-04T08:40:05Z</time></trkpt><trkpt lat="43.49945132942092" lon="10.321848238025515"><ele>9.0</ele><time>2026-04-04T08:40:07Z</time></trkpt><trkpt lat="43.49956537645419" lon="10.321806690489423"><ele>9.25</ele><time>2026-04-04T08:40:09Z</time></trkpt><trkpt lat="43.4996797677469" lon="10.321770339398054"><ele>9.5</ele><time>2026-04-04T08:40:10.999Z</time></trkpt><trkpt lat="43.49978943854581" lon="10.321727985836835"><ele>9.75</ele><time>2026-04-04T08:40:12.999Z</time></trkpt><trkpt lat="43.499898826572235" lon="10.321688901401533"><ele>10.0</ele><time>2026-04-04T08:40:14.999Z</time></trkpt><trkpt lat="43.50001019743484" lon="10.321656420906201"><ele>10.0</ele><time>2026-04-04T08:40:16.999Z</time></trkpt><trkpt lat="43.500120142697" lon="10.32162255372894"><ele>10.0</ele><time>2026-04-04T08:40:18.999Z</time></trkpt><trkpt lat="43.50022855837615" lon="10.321587740576643"><ele>10.0</ele><time>2026-04-04T08:40:20.999Z</time></trkpt><trkpt lat="43.500333257025616" lon="10.321550565300036"><ele>10.0</ele><time>2026-04-04T08:40:22.999Z</time></trkpt><trkpt lat="43.50044032423483" lon="10.32152127403279"><ele>10.0</ele><time>2026-04-04T08:40:25Z</time></trkpt><trkpt lat="43.50055019187483" lon="10.321489079466602"><ele>10.25</ele><time>2026-04-04T08:40:27Z</time></trkpt><trkpt lat="43.500660366874605" lon="10.321462857197544"><ele>10.5</ele><time>2026-04-04T08:40:29Z</time></trkpt><trkpt lat="43.50076860801992" lon="10.321426230957606"><ele>10.75</ele><time>2026-04-04T08:40:31Z</time></trkpt><trkpt lat="43.50087662703709" lon="10.321387109977321"><ele>11.0</ele><time>2026-04-04T08:40:33Z</time></trkpt><trkpt lat="43.50098860810336" lon="10.321353150864725"><ele>10.5</ele><time>2026-04-04T08:40:35Z</time></trkpt><trkpt lat="43.50110404788431" lon="10.321315809766705"><ele>10.0</ele><time>2026-04-04T08:40:37Z</time></trkpt><trkpt lat="43.50121610943192" lon="10.321286824140342"><ele>9.5</ele><time>2026-04-04T08:40:39Z</time></trkpt><trkpt lat="43.50132808842679" lon="10.321256445104394"><ele>9.0</ele><time>2026-04-04T08:40:41Z</time></trkpt><trkpt lat="43.50143761595518" lon="10.321230635168675"><ele>8.6</ele><time>2026-04-04T08:40:43Z</time></trkpt><trkpt lat="43.501545426279364" lon="10.321196010408629"><ele>8.2</ele><time>2026-04-04T08:40:45Z</time></trkpt><trkpt lat="43.50165301422083" lon="10.321169225964061"><ele>7.799999999999999</ele><time>2026-04-04T08:40:47Z</time></trkpt><trkpt lat="43.501759601795534" lon="10.321144617433768"><ele>7.3999999999999995</ele><time>2026-04-04T08:40:49Z</time></trkpt><trkpt lat="43.50185918080012" lon="10.321122459302703"><ele>7.0</ele><time>2026-04-04T08:40:51Z</time></trkpt><trkpt lat="43.50196627815307" lon="10.321099203515923"><ele>7.0</ele><time>2026-04-04T08:40:53Z</time></trkpt><trkpt lat="43.502083271804466" lon="10.321068082535808"><ele>7.0</ele><time>2026-04-04T08:40:55Z</time></trkpt><trkpt lat="43.50219602652249" lon="10.321047148713125"><ele>7.0</ele><time>2026-04-04T08:40:57Z</time></trkpt><trkpt lat="43.50231539016682" lon="10.321026353246177"><ele>7.0</ele><time>2026-04-04T08:40:59Z</time></trkpt><trkpt lat="43.50243134196838" lon="10.320990846422937"><ele>7.0</ele><time>2026-04-04T08:41:01Z</time></trkpt><trkpt lat="43.50254838220881" lon="10.320962598949757"><ele>7.0</ele><time>2026-04-04T08:41:03Z</time></trkpt><trkpt lat="43.50266914047069" lon="10.320940678300039"><ele>7.0</ele><time>2026-04-04T08:41:05Z</time></trkpt><trkpt lat="43.50278678238764" lon="10.320903712718737"><ele>7.0</ele><time>2026-04-04T08:41:07Z</time></trkpt><trkpt lat="43.50290694049277" lon="10.320877581294438"><ele>7.3999999999999995</ele><time>2026-04-04T08:41:09Z</time></trkpt><trkpt lat="43.50302859212141" lon="10.320854756319903"><ele>7.799999999999999</ele><time>2026-04-04T08:41:11Z</time></trkpt><trkpt lat="43.503151033690585" lon="10.320819248273299"><ele>8.2</ele><time>2026-04-04T08:41:13Z</time></trkpt><trkpt lat="43.50327418851283" lon="10.320796203949186"><ele>8.6</ele><time>2026-04-04T08:41:15Z</time></trkpt><trkpt lat="43.50333714209693" lon="10.320781530214905"><ele>9.0</ele><time>2026-04-04T08:41:16Z</time></trkpt><trkpt lat="43.503402496786826" lon="10.320762990261363"><ele>9.0</ele><time>2026-04-04T08:41:17Z</time></trkpt><trkpt lat="43.503528457642524" lon="10.320739368022064"><ele>9.0</ele><time>2026-04-04T08:41:19Z</time></trkpt><trkpt lat="43.503592148284795" lon="10.320720498755577"><ele>9.0</ele><time>2026-04-04T08:41:20Z</time></trkpt><trkpt lat="43.5036556578303" lon="10.32069882270359"><ele>9.0</ele><time>2026-04-04T08:41:21Z</time></trkpt><trkpt lat="43.50371857740829" lon="10.320686110590707"><ele>9.0</ele><time>2026-04-04T08:41:22Z</time></trkpt><trkpt lat="43.503783099876664" lon="10.320678518235084"><ele>9.0</ele><time>2026-04-04T08:41:23Z</time></trkpt><trkpt lat="43.503847390212925" lon="10.320665047524272"><ele>8.857142857142858</ele><time>2026-04-04T08:41:24Z</time></trkpt><trkpt lat="43.503910363694736" lon="10.320647337049996"><ele>8.714285714285715</ele><time>2026-04-04T08:41:25Z</time></trkpt><trkpt lat="43.503974026525896" lon="10.320632060840968"><ele>8.571428571428571</ele><time>2026-04-04T08:41:26Z</time></trkpt><trkpt lat="43.50403922486322" lon="10.320611248184525"><ele>8.428571428571429</ele><time>2026-04-04T08:41:27Z</time></trkpt><trkpt lat="43.50410177467985" lon="10.320593097066666"><ele>8.285714285714285</ele><time>2026-04-04T08:41:28Z</time></trkpt><trkpt lat="43.50416603644538" lon="10.320580467033698"><ele>8.142857142857142</ele><time>2026-04-04T08:41:29Z</time></trkpt><trkpt lat="43.504229161300024" lon="10.320566282521087"><ele>8.0</ele><time>2026-04-04T08:41:30Z</time></trkpt><trkpt lat="43.50429443227753" lon="10.320555038801615"><ele>7.285714285714286</ele><time>2026-04-04T08:41:31Z</time></trkpt><trkpt lat="43.504358684804366" lon="10.32053924502843"><ele>6.57142857142857</ele><time>2026-04-04T08:41:32Z</time></trkpt><trkpt lat="43.50442209725493" lon="10.32052762276755"><ele>5.857142857142857</ele><time>2026-04-04T08:41:33Z</time></trkpt><trkpt lat="43.50448721079166" lon="10.320511190744343"><ele>5.142857142857142</ele><time>2026-04-04T08:41:34Z</time></trkpt><trkpt lat="43.50454991097578" lon="10.320495456718199"><ele>4.428571428571429</ele><time>2026-04-04T08:41:35Z</time></trkpt><trkpt lat="43.50461275026094" lon="10.320481357201828"><ele>3.714285714285714</ele><time>2026-04-04T08:41:36Z</time></trkpt><trkpt lat="43.50467569733293" lon="10.320468076063339"><ele>3.0</ele><time>2026-04-04T08:41:37Z</time></trkpt><trkpt lat="43.504739868483284" lon="10.320454864628294"><ele>2.8571428571428568</ele><time>2026-04-04T08:41:38Z</time></trkpt><trkpt lat="43.50480494545636" lon="10.320438752436491"><ele>2.7142857142857144</ele><time>2026-04-04T08:41:39Z</time></trkpt><trkpt lat="43.50486778673503" lon="10.320421995739157"><ele>2.571428571428571</ele><time>2026-04-04T08:41:40Z</time></trkpt><trkpt lat="43.50493323001228" lon="10.320406127036266"><ele>2.4285714285714284</ele><time>2026-04-04T08:41:41Z</time></trkpt><trkpt lat="43.504997007559105" lon="10.320393086591212"><ele>2.2857142857142856</ele><time>2026-04-04T08:41:42Z</time></trkpt><trkpt lat="43.505062932855665" lon="10.320374571919578"><ele>2.142857142857143</ele><time>2026-04-04T08:41:43Z</time></trkpt><trkpt lat="43.505126666247826" lon="10.320359590580304"><ele>2.0</ele><time>2026-04-04T08:41:44Z</time></trkpt><trkpt lat="43.505192005303726" lon="10.32034110078241"><ele>2.0</ele><time>2026-04-04T08:41:45Z</time></trkpt><trkpt lat="43.50525745559725" lon="10.32032979959491"><ele>1.9999999999999998</ele><time>2026-04-04T08:41:46Z</time></trkpt><trkpt lat="43.50532144595338" lon="10.320319941018104"><ele>2.0</ele><time>2026-04-04T08:41:47Z</time></trkpt><trkpt lat="43.50538721328776" lon="10.320305410224766"><ele>2.0</ele><time>2026-04-04T08:41:48Z</time></trkpt><trkpt lat="43.50545147954767" lon="10.320288938539838"><ele>1.9999999999999998</ele><time>2026-04-04T08:41:49Z</time></trkpt><trkpt lat="43.50551520587724" lon="10.320273547692109"><ele>2.0</ele><time>2026-04-04T08:41:50Z</time></trkpt><trkpt lat="43.50557705187142" lon="10.320256702310921"><ele>2.0</ele><time>2026-04-04T08:41:51Z</time></trkpt><trkpt lat="43.50564031184121" lon="10.320238889819409"><ele>2.142857142857143</ele><time>2026-04-04T08:41:52Z</time></trkpt><trkpt lat="43.50570215823933" lon="10.320216295865881"><ele>2.2857142857142856</ele><time>2026-04-04T08:41:53Z</time></trkpt><trkpt lat="43.505767083297364" lon="10.320202994472286"><ele>2.4285714285714284</ele><time>2026-04-04T08:41:54Z</time></trkpt><trkpt lat="43.50583113741827" lon="10.320190034151429"><ele>2.571428571428571</ele><time>2026-04-04T08:41:55Z</time></trkpt><trkpt lat="43.50589524432871" lon="10.320172634565486"><ele>2.7142857142857144</ele><time>2026-04-04T08:41:56Z</time></trkpt><trkpt lat="43.50595867299115" lon="10.320154474010923"><ele>2.8571428571428568</ele><time>2026-04-04T08:41:57Z</time></trkpt><trkpt lat="43.50602292838921" lon="10.320143666570798"><ele>3.0</ele><time>2026-04-04T08:41:58Z</time></trkpt><trkpt lat="43.50608705719558" lon="10.320134796612534"><ele>2.9999999999999996</ele><time>2026-04-04T08:41:59Z</time></trkpt><trkpt lat="43.50615080688278" lon="10.320118783648782"><ele>3.0</ele><time>2026-04-04T08:42:00Z</time></trkpt><trkpt lat="43.50621529111957" lon="10.320102778971577"><ele>3.0</ele><time>2026-04-04T08:42:01Z</time></trkpt><trkpt lat="43.50627950272198" lon="10.32008182521283"><ele>3.0</ele><time>2026-04-04T08:42:02Z</time></trkpt><trkpt lat="43.50634457188898" lon="10.320063996925997"><ele>3.0</ele><time>2026-04-04T08:42:03Z</time></trkpt><trkpt lat="43.5064093874783" lon="10.320049142414092"><ele>2.9999999999999996</ele><time>2026-04-04T08:42:04Z</time></trkpt><trkpt lat="43.50647400330345" lon="10.320038384816751"><ele>3.0</ele><time>2026-04-04T08:42:05Z</time></trkpt><trkpt lat="43.506538718937946" lon="10.320026125074154"><ele>3.4285714285714284</ele><time>2026-04-04T08:42:06Z</time></trkpt><trkpt lat="43.50660423467119" lon="10.320009014562117"><ele>3.8571428571428568</ele><time>2026-04-04T08:42:07Z</time></trkpt><trkpt lat="43.50666932555028" lon="10.319988099433639"><ele>4.285714285714286</ele><time>2026-04-04T08:42:08Z</time></trkpt><trkpt lat="43.50673417380156" lon="10.31996857257809"><ele>4.7142857142857135</ele><time>2026-04-04T08:42:09Z</time></trkpt><trkpt lat="43.50679621927779" lon="10.31995364653246"><ele>5.142857142857142</ele><time>2026-04-04T08:42:10Z</time></trkpt><trkpt lat="43.506860912555005" lon="10.319940423236101"><ele>5.571428571428571</ele><time>2026-04-04T08:42:11Z</time></trkpt><trkpt lat="43.5069268315501" lon="10.319925376415293"><ele>6.0</ele><time>2026-04-04T08:42:12Z</time></trkpt><trkpt lat="43.50699115176159" lon="10.319914317449125"><ele>5.999999999999999</ele><time>2026-04-04T08:42:13Z</time></trkpt><trkpt lat="43.50705720285526" lon="10.319897781916923"><ele>6.0</ele><time>2026-04-04T08:42:14Z</time></trkpt><trkpt lat="43.50712178253146" lon="10.319881322555153"><ele>6.0</ele><time>2026-04-04T08:42:15Z</time></trkpt><trkpt lat="43.50718442277287" lon="10.319863722016887"><ele>6.0</ele><time>2026-04-04T08:42:16Z</time></trkpt><trkpt lat="43.50724967757795" lon="10.319851764116592"><ele>6.0</ele><time>2026-04-04T08:42:17Z</time></trkpt><trkpt lat="43.50731346835299" lon="10.31984425421178"><ele>5.999999999999999</ele><time>2026-04-04T08:42:18Z</time></trkpt><trkpt lat="43.507377021599005" lon="10.31983173713817"><ele>6.0</ele><time>2026-04-04T08:42:19Z</time></trkpt><trkpt lat="43.50743906931247" lon="10.319815071766213"><ele>5.833333333333333</ele><time>2026-04-04T08:42:20Z</time></trkpt><trkpt lat="43.50756282198322" lon="10.319784448868262"><ele>5.666666666666667</ele><time>2026-04-04T08:42:22Z</time></trkpt><trkpt lat="43.50762672245144" lon="10.319766165361518"><ele>5.5</ele><time>2026-04-04T08:42:22.999Z</time></trkpt><trkpt lat="43.507685724553255" lon="10.31972575749828"><ele>5.333333333333334</ele><time>2026-04-04T08:42:23.999Z</time></trkpt><trkpt lat="43.50775190546049" lon="10.31972520371379"><ele>5.166666666666667</ele><time>2026-04-04T08:42:24.999Z</time></trkpt><trkpt lat="43.50781532199958" lon="10.319715795989186"><ele>5.0</ele><time>2026-04-04T08:42:25.999Z</time></trkpt><trkpt lat="43.50788253895649" lon="10.319702028017904"><ele>4.833333333333334</ele><time>2026-04-04T08:42:26.999Z</time></trkpt><trkpt lat="43.5079475296831" lon="10.319679064625726"><ele>4.666666666666667</ele><time>2026-04-04T08:42:27.999Z</time></trkpt><trkpt lat="43.50807305684809" lon="10.319651703811749"><ele>4.5</ele><time>2026-04-04T08:42:29.999Z</time></trkpt><trkpt lat="43.50813789517118" lon="10.319639944279288"><ele>4.333333333333333</ele><time>2026-04-04T08:42:31Z</time></trkpt><trkpt lat="43.50820439422318" lon="10.319623628176391"><ele>4.166666666666666</ele><time>2026-04-04T08:42:32Z</time></trkpt><trkpt lat="43.50826911498393" lon="10.319607047291175"><ele>4.0</ele><time>2026-04-04T08:42:33Z</time></trkpt><trkpt lat="43.50833212690667" lon="10.319588616698187"><ele>3.9999999999999996</ele><time>2026-04-04T08:42:34Z</time></trkpt><trkpt lat="43.508395346087404" lon="10.319580435603699"><ele>4.0</ele><time>2026-04-04T08:42:35Z</time></trkpt><trkpt lat="43.50845816718148" lon="10.31956608330411"><ele>4.0</ele><time>2026-04-04T08:42:36Z</time></trkpt><trkpt lat="43.50852167263795" lon="10.319549420786196"><ele>4.0</ele><time>2026-04-04T08:42:37Z</time></trkpt><trkpt lat="43.50858407500496" lon="10.319532876402523"><ele>3.9999999999999996</ele><time>2026-04-04T08:42:38Z</time></trkpt><trkpt lat="43.50870773877715" lon="10.31949814187158"><ele>4.0</ele><time>2026-04-04T08:42:40Z</time></trkpt><trkpt lat="43.508834355552686" lon="10.319477246202776"><ele>4.166666666666666</ele><time>2026-04-04T08:42:42Z</time></trkpt><trkpt lat="43.508953520946726" lon="10.319442543953626"><ele>4.333333333333333</ele><time>2026-04-04T08:42:44Z</time></trkpt><trkpt lat="43.50901716398218" lon="10.319424906142403"><ele>4.5</ele><time>2026-04-04T08:42:45Z</time></trkpt><trkpt lat="43.509079494453196" lon="10.319404827690919"><ele>4.666666666666667</ele><time>2026-04-04T08:42:46Z</time></trkpt><trkpt lat="43.50914314858556" lon="10.319392239705808"><ele>4.833333333333334</ele><time>2026-04-04T08:42:47Z</time></trkpt><trkpt lat="43.50920660912743" lon="10.319381148929615"><ele>5.0</ele><time>2026-04-04T08:42:48Z</time></trkpt><trkpt lat="43.50932607827311" lon="10.319356355400215"><ele>5.0</ele><time>2026-04-04T08:42:50Z</time></trkpt><trkpt lat="43.50944887038159" lon="10.319324820830962"><ele>5.0</ele><time>2026-04-04T08:42:52Z</time></trkpt><trkpt lat="43.50957079790432" lon="10.319293792731356"><ele>5.0</ele><time>2026-04-04T08:42:54Z</time></trkpt><trkpt lat="43.50963365505685" lon="10.319279939245712"><ele>5.0</ele><time>2026-04-04T08:42:55Z</time></trkpt><trkpt lat="43.50975546490898" lon="10.319269857731399"><ele>5.0</ele><time>2026-04-04T08:42:57Z</time></trkpt><trkpt lat="43.509819038048896" lon="10.319260058568265"><ele>4.714285714285714</ele><time>2026-04-04T08:42:58Z</time></trkpt><trkpt lat="43.509884534631944" lon="10.319244623921682"><ele>4.428571428571429</ele><time>2026-04-04T08:42:59Z</time></trkpt><trkpt lat="43.509947633073494" lon="10.319240334096623"><ele>4.142857142857142</ele><time>2026-04-04T08:43:00Z</time></trkpt><trkpt lat="43.51001265643857" lon="10.319235573597053"><ele>3.8571428571428568</ele><time>2026-04-04T08:43:01Z</time></trkpt><trkpt lat="43.51007803534113" lon="10.319233636187743"><ele>3.571428571428571</ele><time>2026-04-04T08:43:02Z</time></trkpt><trkpt lat="43.51014231738287" lon="10.319231021358274"><ele>3.2857142857142856</ele><time>2026-04-04T08:43:03Z</time></trkpt><trkpt lat="43.510209806686525" lon="10.319230336994016"><ele>3.0</ele><time>2026-04-04T08:43:04Z</time></trkpt><trkpt lat="43.51027548368305" lon="10.319226626714014"><ele>3.0</ele><time>2026-04-04T08:43:05Z</time></trkpt><trkpt lat="43.51034173398026" lon="10.31922516418593"><ele>3.0</ele><time>2026-04-04T08:43:06Z</time></trkpt><trkpt lat="43.51040653340704" lon="10.319223732720445"><ele>3.0</ele><time>2026-04-04T08:43:07Z</time></trkpt><trkpt lat="43.51053400846243" lon="10.319231656920818"><ele>3.0</ele><time>2026-04-04T08:43:09Z</time></trkpt><trkpt lat="43.510640436179116" lon="10.319289161189658"><ele>3.0</ele><time>2026-04-04T08:43:11Z</time></trkpt><trkpt lat="43.5107485681794" lon="10.319345875792866"><ele>2.5</ele><time>2026-04-04T08:43:13Z</time></trkpt><trkpt lat="43.51086846657814" lon="10.319394580558166"><ele>2.0</ele><time>2026-04-04T08:43:15Z</time></trkpt><trkpt lat="43.51098191187251" lon="10.319447360620295"><ele>1.5</ele><time>2026-04-04T08:43:17Z</time></trkpt><trkpt lat="43.511097021650485" lon="10.319498245763336"><ele>1.0</ele><time>2026-04-04T08:43:19Z</time></trkpt><trkpt lat="43.51121586031871" lon="10.31954631547951"><ele>1.0</ele><time>2026-04-04T08:43:21Z</time></trkpt><trkpt lat="43.511277262061824" lon="10.319566458388506"><ele>1.0</ele><time>2026-04-04T08:43:22Z</time></trkpt><trkpt lat="43.511399925595384" lon="10.319580967317886"><ele>1.0</ele><time>2026-04-04T08:43:24Z</time></trkpt><trkpt lat="43.51152143007628" lon="10.319555402484173"><ele>1.0</ele><time>2026-04-04T08:43:26Z</time></trkpt><trkpt lat="43.51163369677544" lon="10.319490209661568"><ele>1.0</ele><time>2026-04-04T08:43:28Z</time></trkpt><trkpt lat="43.511734677027455" lon="10.319391422703196"><ele>1.0</ele><time>2026-04-04T08:43:30Z</time></trkpt><trkpt lat="43.51181589260505" lon="10.319273773336175"><ele>1.0</ele><time>2026-04-04T08:43:32Z</time></trkpt><trkpt lat="43.511896418530846" lon="10.319175362632649"><ele>1.0</ele><time>2026-04-04T08:43:34Z</time></trkpt><trkpt lat="43.511975747297235" lon="10.319062457731162"><ele>1.0</ele><time>2026-04-04T08:43:36Z</time></trkpt><trkpt lat="43.5120521899262" lon="10.318957394839698"><ele>1.0</ele><time>2026-04-04T08:43:38Z</time></trkpt><trkpt lat="43.51212709907371" lon="10.318852748178914"><ele>2.0</ele><time>2026-04-04T08:43:40Z</time></trkpt><trkpt lat="43.51220050603707" lon="10.31875941521068"><ele>3.0</ele><time>2026-04-04T08:43:42Z</time></trkpt><trkpt lat="43.512278580589076" lon="10.318656488341269"><ele>3.9999999999999996</ele><time>2026-04-04T08:43:44Z</time></trkpt><trkpt lat="43.51235067318071" lon="10.318544747617043"><ele>5.0</ele><time>2026-04-04T08:43:46Z</time></trkpt><trkpt lat="43.51240860920914" lon="10.318420182496702"><ele>6.0</ele><time>2026-04-04T08:43:48Z</time></trkpt><trkpt lat="43.51246822253401" lon="10.318299949839844"><ele>6.0</ele><time>2026-04-04T08:43:50Z</time></trkpt><trkpt lat="43.51256858850809" lon="10.31825740091861"><ele>6.0</ele><time>2026-04-04T08:43:52Z</time></trkpt><trkpt lat="43.512672578391076" lon="10.318293628253073"><ele>6.0</ele><time>2026-04-04T08:43:54Z</time></trkpt><trkpt lat="43.512771614451616" lon="10.318354292348069"><ele>6.0</ele><time>2026-04-04T08:43:56Z</time></trkpt><trkpt lat="43.51287188245633" lon="10.318400347157532"><ele>6.0</ele><time>2026-04-04T08:43:58Z</time></trkpt><trkpt lat="43.51297480172863" lon="10.318448791681572"><ele>6.0</ele><time>2026-04-04T08:44:00Z</time></trkpt><trkpt lat="43.51307934967406" lon="10.318495799876747"><ele>6.0</ele><time>2026-04-04T08:44:02Z</time></trkpt><trkpt lat="43.51318513306279" lon="10.318532118904969"><ele>6.0</ele><time>2026-04-04T08:44:04Z</time></trkpt><trkpt lat="43.513294602362556" lon="10.318547750856956"><ele>6.0</ele><time>2026-04-04T08:44:06Z</time></trkpt><trkpt lat="43.51340874230346" lon="10.31855505419127"><ele>6.0</ele><time>2026-04-04T08:44:08Z</time></trkpt><trkpt lat="43.51351864846646" lon="10.318563027803078"><ele>6.0</ele><time>2026-04-04T08:44:10Z</time></trkpt><trkpt lat="43.51363201112918" lon="10.318549976294102"><ele>6.0</ele><time>2026-04-04T08:44:12Z</time></trkpt><trkpt lat="43.51374439499592" lon="10.318530606301174"><ele>6.0</ele><time>2026-04-04T08:44:14Z</time></trkpt><trkpt lat="43.5138541782455" lon="10.318483697404046"><ele>6.0</ele><time>2026-04-04T08:44:16Z</time></trkpt><trkpt lat="43.51396334810634" lon="10.318419572976902"><ele>6.0</ele><time>2026-04-04T08:44:18Z</time></trkpt><trkpt lat="43.5140605547815" lon="10.318325805710984"><ele>6.0</ele><time>2026-04-04T08:44:19.999Z</time></trkpt><trkpt lat="43.514149025645885" lon="10.318225791218605"><ele>6.0</ele><time>2026-04-04T08:44:21.999Z</time></trkpt><trkpt lat="43.5142400406574" lon="10.318114393800325"><ele>6.0</ele><time>2026-04-04T08:44:23.999Z</time></trkpt><trkpt lat="43.514330984674594" lon="10.318002777642496"><ele>6.0</ele><time>2026-04-04T08:44:25.999Z</time></trkpt><trkpt lat="43.51442393755928" lon="10.317894537660948"><ele>6.0</ele><time>2026-04-04T08:44:27.999Z</time></trkpt><trkpt lat="43.514510814278474" lon="10.317780318189614"><ele>6.0</ele><time>2026-04-04T08:44:29.999Z</time></trkpt><trkpt lat="43.514603322024385" lon="10.317685087078775"><ele>6.0</ele><time>2026-04-04T08:44:31.999Z</time></trkpt><trkpt lat="43.514689218683216" lon="10.317581155261756"><ele>6.0</ele><time>2026-04-04T08:44:33.999Z</time></trkpt><trkpt lat="43.514770462194676" lon="10.31748403001637"><ele>6.0</ele><time>2026-04-04T08:44:35.999Z</time></trkpt><trkpt lat="43.5148491051481" lon="10.317390114328203"><ele>6.0</ele><time>2026-04-04T08:44:38Z</time></trkpt><trkpt lat="43.51493579850708" lon="10.317316648203423"><ele>6.0</ele><time>2026-04-04T08:44:40Z</time></trkpt><trkpt lat="43.51502093584718" lon="10.317245947715229"><ele>6.0</ele><time>2026-04-04T08:44:42Z</time></trkpt><trkpt lat="43.51510707817625" lon="10.317190600075667"><ele>5.2</ele><time>2026-04-04T08:44:44Z</time></trkpt><trkpt lat="43.51519547277287" lon="10.317146436590878"><ele>4.3999999999999995</ele><time>2026-04-04T08:44:46Z</time></trkpt><trkpt lat="43.51528602445199" lon="10.317116791485734"><ele>3.6</ele><time>2026-04-04T08:44:48Z</time></trkpt><trkpt lat="43.515384089008684" lon="10.317090255237826"><ele>2.8</ele><time>2026-04-04T08:44:50Z</time></trkpt><trkpt lat="43.51547858555276" lon="10.317074776914987"><ele>2.0</ele><time>2026-04-04T08:44:52Z</time></trkpt><trkpt lat="43.51557744174409" lon="10.317063536654018"><ele>2.0</ele><time>2026-04-04T08:44:54Z</time></trkpt><trkpt lat="43.51567477074698" lon="10.31704670814867"><ele>2.0</ele><time>2026-04-04T08:44:56Z</time></trkpt><trkpt lat="43.51577693491023" lon="10.317029990738488"><ele>2.0</ele><time>2026-04-04T08:44:58Z</time></trkpt><trkpt lat="43.51588101273525" lon="10.317012533700307"><ele>2.0</ele><time>2026-04-04T08:45:00Z</time></trkpt><trkpt lat="43.51598520989761" lon="10.3169856190885"><ele>2.0</ele><time>2026-04-04T08:45:02Z</time></trkpt><trkpt lat="43.51609147371548" lon="10.316970631956"><ele>2.0</ele><time>2026-04-04T08:45:04Z</time></trkpt><trkpt lat="43.51619531801666" lon="10.316948119501516"><ele>2.0</ele><time>2026-04-04T08:45:06Z</time></trkpt><trkpt lat="43.516302877691224" lon="10.316930618672798"><ele>2.0</ele><time>2026-04-04T08:45:08Z</time></trkpt><trkpt lat="43.516410259268945" lon="10.316909478705018"><ele>2.0</ele><time>2026-04-04T08:45:10Z</time></trkpt><trkpt lat="43.51651558901806" lon="10.31689011279081"><ele>2.0</ele><time>2026-04-04T08:45:12Z</time></trkpt><trkpt lat="43.51662237095957" lon="10.31686848569485"><ele>2.0</ele><time>2026-04-04T08:45:14Z</time></trkpt><trkpt lat="43.51672571552032" lon="10.31684635756391"><ele>2.0</ele><time>2026-04-04T08:45:16Z</time></trkpt><trkpt lat="43.51682988714288" lon="10.31682675319225"><ele>2.0</ele><time>2026-04-04T08:45:18Z</time></trkpt><trkpt lat="43.51692421320854" lon="10.316816830523203"><ele>2.0</ele><time>2026-04-04T08:45:20Z</time></trkpt><trkpt lat="43.51701379660643" lon="10.316795612977057"><ele>2.0</ele><time>2026-04-04T08:45:22Z</time></trkpt><trkpt lat="43.517091773978585" lon="10.316779857191896"><ele>2.0</ele><time>2026-04-04T08:45:24Z</time></trkpt><trkpt lat="43.517177861532936" lon="10.31676599234403"><ele>2.0</ele><time>2026-04-04T08:45:26Z</time></trkpt><trkpt lat="43.517266477105885" lon="10.316744702259081"><ele>2.0</ele><time>2026-04-04T08:45:28Z</time></trkpt><trkpt lat="43.51736446923905" lon="10.316720662300337"><ele>2.0</ele><time>2026-04-04T08:45:30Z</time></trkpt><trkpt lat="43.51745966053901" lon="10.316692217230857"><ele>2.0</ele><time>2026-04-04T08:45:32Z</time></trkpt><trkpt lat="43.51755942627924" lon="10.316691058473582"><ele>2.0</ele><time>2026-04-04T08:45:34Z</time></trkpt><trkpt lat="43.517663541589606" lon="10.316667555258405"><ele>2.0</ele><time>2026-04-04T08:45:36Z</time></trkpt><trkpt lat="43.51776826751943" lon="10.316644399931246"><ele>2.0</ele><time>2026-04-04T08:45:38Z</time></trkpt><trkpt lat="43.517869974871246" lon="10.316620780582667"><ele>2.0</ele><time>2026-04-04T08:45:40Z</time></trkpt><trkpt lat="43.517974107770456" lon="10.316597968825029"><ele>2.0</ele><time>2026-04-04T08:45:42Z</time></trkpt><trkpt lat="43.518082041135884" lon="10.316575275948873"><ele>1.8</ele><time>2026-04-04T08:45:44Z</time></trkpt><trkpt lat="43.518191990526994" lon="10.316553180082334"><ele>1.6</ele><time>2026-04-04T08:45:46Z</time></trkpt><trkpt lat="43.518302743332825" lon="10.316520680696705"><ele>1.4000000000000001</ele><time>2026-04-04T08:45:48Z</time></trkpt><trkpt lat="43.51841000075658" lon="10.3164795465367"><ele>1.2000000000000002</ele><time>2026-04-04T08:45:50Z</time></trkpt><trkpt lat="43.51851503830239" lon="10.316426954770563"><ele>1.0</ele><time>2026-04-04T08:45:52Z</time></trkpt><trkpt lat="43.51861780341899" lon="10.316361473141708"><ele>1.0</ele><time>2026-04-04T08:45:54Z</time></trkpt><trkpt lat="43.518710060205834" lon="10.316292916265061"><ele>1.0</ele><time>2026-04-04T08:45:56Z</time></trkpt><trkpt lat="43.51880689939887" lon="10.316252089793469"><ele>1.0</ele><time>2026-04-04T08:45:58Z</time></trkpt><trkpt lat="43.5189082613967" lon="10.316219755628072"><ele>1.0</ele><time>2026-04-04T08:46:00Z</time></trkpt><trkpt lat="43.51897661157392" lon="10.316115293804252"><ele>1.0</ele><time>2026-04-04T08:46:02Z</time></trkpt><trkpt lat="43.518962547022944" lon="10.31597060838822"><ele>1.4</ele><time>2026-04-04T08:46:04Z</time></trkpt><trkpt lat="43.5189671761605" lon="10.315827591727519"><ele>1.8</ele><time>2026-04-04T08:46:06Z</time></trkpt><trkpt lat="43.51901922538159" lon="10.315701489008616"><ele>2.1999999999999997</ele><time>2026-04-04T08:46:08Z</time></trkpt><trkpt lat="43.519091413235124" lon="10.315588559350202"><ele>2.6</ele><time>2026-04-04T08:46:10Z</time></trkpt><trkpt lat="43.51916288521364" lon="10.315474580716904"><ele>3.0</ele><time>2026-04-04T08:46:12Z</time></trkpt><trkpt lat="43.51923167533888" lon="10.315357260544346"><ele>3.0</ele><time>2026-04-04T08:46:14Z</time></trkpt><trkpt lat="43.519302134566516" lon="10.315241109602999"><ele>3.0</ele><time>2026-04-04T08:46:16Z</time></trkpt><trkpt lat="43.51936700823386" lon="10.315112215354604"><ele>3.0</ele><time>2026-04-04T08:46:18Z</time></trkpt><trkpt lat="43.51943594074896" lon="10.314985929233053"><ele>3.0</ele><time>2026-04-04T08:46:20Z</time></trkpt><trkpt lat="43.51950644732185" lon="10.31487427464442"><ele>3.0</ele><time>2026-04-04T08:46:22Z</time></trkpt><trkpt lat="43.519577545742564" lon="10.314756711998857"><ele>3.75</ele><time>2026-04-04T08:46:24Z</time></trkpt><trkpt lat="43.51965149912093" lon="10.314638142774848"><ele>4.5</ele><time>2026-04-04T08:46:26Z</time></trkpt><trkpt lat="43.51971627846147" lon="10.314507542196711"><ele>5.25</ele><time>2026-04-04T08:46:28Z</time></trkpt><trkpt lat="43.51978330475127" lon="10.314388349751118"><ele>6.0</ele><time>2026-04-04T08:46:30Z</time></trkpt><trkpt lat="43.51985679105181" lon="10.31426949454356"><ele>6.0</ele><time>2026-04-04T08:46:32Z</time></trkpt><trkpt lat="43.519922191666964" lon="10.314141501840647"><ele>6.0</ele><time>2026-04-04T08:46:34Z</time></trkpt><trkpt lat="43.5199880316788" lon="10.314018981795071"><ele>6.0</ele><time>2026-04-04T08:46:36Z</time></trkpt><trkpt lat="43.520056209238774" lon="10.313897689669194"><ele>6.0</ele><time>2026-04-04T08:46:38Z</time></trkpt><trkpt lat="43.52012171342604" lon="10.313770910457672"><ele>6.0</ele><time>2026-04-04T08:46:40Z</time></trkpt><trkpt lat="43.520190016165735" lon="10.3136539175391"><ele>5.3999999999999995</ele><time>2026-04-04T08:46:42Z</time></trkpt><trkpt lat="43.520258264893734" lon="10.31352858331743"><ele>4.8</ele><time>2026-04-04T08:46:44Z</time></trkpt><trkpt lat="43.520326926355914" lon="10.313407856030677"><ele>4.199999999999999</ele><time>2026-04-04T08:46:46Z</time></trkpt><trkpt lat="43.5203961808595" lon="10.313285678743352"><ele>3.5999999999999996</ele><time>2026-04-04T08:46:48Z</time></trkpt><trkpt lat="43.52046296260909" lon="10.313162775021961"><ele>3.0</ele><time>2026-04-04T08:46:50Z</time></trkpt><trkpt lat="43.520532969544746" lon="10.313040938398208"><ele>2.8</ele><time>2026-04-04T08:46:52Z</time></trkpt><trkpt lat="43.5206033528511" lon="10.312924684697677"><ele>2.5999999999999996</ele><time>2026-04-04T08:46:54Z</time></trkpt><trkpt lat="43.520667232209206" lon="10.312797332093746"><ele>2.4000000000000004</ele><time>2026-04-04T08:46:56Z</time></trkpt><trkpt lat="43.52073571454549" lon="10.312677066988481"><ele>2.2</ele><time>2026-04-04T08:46:58Z</time></trkpt><trkpt lat="43.52080531357293" lon="10.312563679539144"><ele>2.0</ele><time>2026-04-04T08:47:00Z</time></trkpt><trkpt lat="43.520875262517215" lon="10.312447194266506"><ele>2.0</ele><time>2026-04-04T08:47:02Z</time></trkpt><trkpt lat="43.520945924745114" lon="10.312336536804148"><ele>2.0</ele><time>2026-04-04T08:47:04Z</time></trkpt><trkpt lat="43.52102439899613" lon="10.312236898889719"><ele>2.0</ele><time>2026-04-04T08:47:06Z</time></trkpt><trkpt lat="43.521107199002955" lon="10.31214232422488"><ele>2.0</ele><time>2026-04-04T08:47:08Z</time></trkpt><trkpt lat="43.52119217609688" lon="10.312050601911377"><ele>2.0</ele><time>2026-04-04T08:47:10Z</time></trkpt><trkpt lat="43.5212778475901" lon="10.311958305898903"><ele>2.2</ele><time>2026-04-04T08:47:12Z</time></trkpt><trkpt lat="43.52137034983663" lon="10.311880048366975"><ele>2.4000000000000004</ele><time>2026-04-04T08:47:14Z</time></trkpt><trkpt lat="43.5214710247768" lon="10.311816540127902"><ele>2.5999999999999996</ele><time>2026-04-04T08:47:16Z</time></trkpt><trkpt lat="43.52156780040953" lon="10.311749063138366"><ele>2.8</ele><time>2026-04-04T08:47:18Z</time></trkpt><trkpt lat="43.52167120079518" lon="10.311698829021417"><ele>3.0</ele><time>2026-04-04T08:47:20Z</time></trkpt><trkpt lat="43.52177601247446" lon="10.31165475023348"><ele>3.0</ele><time>2026-04-04T08:47:22Z</time></trkpt><trkpt lat="43.52187930834357" lon="10.311600903274904"><ele>3.0</ele><time>2026-04-04T08:47:24Z</time></trkpt><trkpt lat="43.52198705981028" lon="10.311558802181036"><ele>3.0</ele><time>2026-04-04T08:47:26Z</time></trkpt><trkpt lat="43.52209924490161" lon="10.3115120458433"><ele>3.0</ele><time>2026-04-04T08:47:28Z</time></trkpt><trkpt lat="43.522205836502444" lon="10.311473607713829"><ele>3.2</ele><time>2026-04-04T08:47:30Z</time></trkpt><trkpt lat="43.52231467674247" lon="10.311440262566983"><ele>3.4</ele><time>2026-04-04T08:47:32Z</time></trkpt><trkpt lat="43.522422574818435" lon="10.31140667425765"><ele>3.6000000000000005</ele><time>2026-04-04T08:47:34Z</time></trkpt><trkpt lat="43.52252938398718" lon="10.311380878603247"><ele>3.8000000000000003</ele><time>2026-04-04T08:47:36Z</time></trkpt><trkpt lat="43.52263669065143" lon="10.311352813752803"><ele>4.0</ele><time>2026-04-04T08:47:38Z</time></trkpt><trkpt lat="43.52274393386967" lon="10.311335865093847"><ele>4.0</ele><time>2026-04-04T08:47:40Z</time></trkpt><trkpt lat="43.522854681662125" lon="10.311306752320018"><ele>4.0</ele><time>2026-04-04T08:47:42Z</time></trkpt><trkpt lat="43.5229607148713" lon="10.31128057563292"><ele>4.0</ele><time>2026-04-04T08:47:44Z</time></trkpt><trkpt lat="43.523067905928684" lon="10.311246989154329"><ele>4.0</ele><time>2026-04-04T08:47:46Z</time></trkpt><trkpt lat="43.523175895779595" lon="10.311225940645382"><ele>4.0</ele><time>2026-04-04T08:47:48Z</time></trkpt><trkpt lat="43.52328193266741" lon="10.311205543850683"><ele>4.0</ele><time>2026-04-04T08:47:50Z</time></trkpt><trkpt lat="43.52339205035416" lon="10.311174176386745"><ele>4.0</ele><time>2026-04-04T08:47:52Z</time></trkpt><trkpt lat="43.52349741899366" lon="10.311145654148609"><ele>4.0</ele><time>2026-04-04T08:47:54Z</time></trkpt><trkpt lat="43.52360346026463" lon="10.311117187566593"><ele>4.0</ele><time>2026-04-04T08:47:56Z</time></trkpt><trkpt lat="43.523708836293146" lon="10.31109108132363"><ele>4.0</ele><time>2026-04-04T08:47:58Z</time></trkpt><trkpt lat="43.5238134844358" lon="10.311070985595048"><ele>4.4</ele><time>2026-04-04T08:48:00Z</time></trkpt><trkpt lat="43.52392397138934" lon="10.31104464964011"><ele>4.800000000000001</ele><time>2026-04-04T08:48:02Z</time></trkpt><trkpt lat="43.52403249519208" lon="10.31103027253152"><ele>5.199999999999999</ele><time>2026-04-04T08:48:04Z</time></trkpt><trkpt lat="43.524135693313404" lon="10.31100404985815"><ele>5.6</ele><time>2026-04-04T08:48:06Z</time></trkpt><trkpt lat="43.52424109673232" lon="10.310974879679623"><ele>6.0</ele><time>2026-04-04T08:48:08Z</time></trkpt><trkpt lat="43.52434963401925" lon="10.310950898391438"><ele>6.0</ele><time>2026-04-04T08:48:10Z</time></trkpt><trkpt lat="43.52445902173193" lon="10.310921808518184"><ele>6.0</ele><time>2026-04-04T08:48:12Z</time></trkpt><trkpt lat="43.52457417072891" lon="10.310890516818032"><ele>6.0</ele><time>2026-04-04T08:48:14Z</time></trkpt><trkpt lat="43.52468549086266" lon="10.310861371698875"><ele>6.0</ele><time>2026-04-04T08:48:16Z</time></trkpt><trkpt lat="43.524798570836666" lon="10.310839821999574"><ele>6.5</ele><time>2026-04-04T08:48:18Z</time></trkpt><trkpt lat="43.52490424139302" lon="10.310809845362314"><ele>7.0</ele><time>2026-04-04T08:48:20Z</time></trkpt><trkpt lat="43.525019870239824" lon="10.31078249191517"><ele>7.5</ele><time>2026-04-04T08:48:22Z</time></trkpt><trkpt lat="43.525136312382486" lon="10.310754043268382"><ele>8.0</ele><time>2026-04-04T08:48:24Z</time></trkpt><trkpt lat="43.525248132941584" lon="10.310721554620818"><ele>8.0</ele><time>2026-04-04T08:48:26Z</time></trkpt><trkpt lat="43.52535951837279" lon="10.310696612715146"><ele>8.0</ele><time>2026-04-04T08:48:28Z</time></trkpt><trkpt lat="43.525469930258254" lon="10.310673461255943"><ele>8.0</ele><time>2026-04-04T08:48:30Z</time></trkpt><trkpt lat="43.525583916058665" lon="10.310651411961553"><ele>8.0</ele><time>2026-04-04T08:48:32Z</time></trkpt><trkpt lat="43.52569791032281" lon="10.310619425406053"><ele>7.75</ele><time>2026-04-04T08:48:34Z</time></trkpt><trkpt lat="43.52581155566512" lon="10.310590003486976"><ele>7.5</ele><time>2026-04-04T08:48:36Z</time></trkpt><trkpt lat="43.5259228499331" lon="10.310563020773367"><ele>7.25</ele><time>2026-04-04T08:48:38Z</time></trkpt><trkpt lat="43.52603546619264" lon="10.310533038025428"><ele>7.0</ele><time>2026-04-04T08:48:40Z</time></trkpt><trkpt lat="43.52614805703265" lon="10.31050878550094"><ele>7.199999999999999</ele><time>2026-04-04T08:48:42Z</time></trkpt><trkpt lat="43.526249868656" lon="10.310486050351685"><ele>7.3999999999999995</ele><time>2026-04-04T08:48:44Z</time></trkpt><trkpt lat="43.526362750016936" lon="10.31045483176279"><ele>7.6000000000000005</ele><time>2026-04-04T08:48:46Z</time></trkpt><trkpt lat="43.52647033918595" lon="10.310426847843804"><ele>7.800000000000001</ele><time>2026-04-04T08:48:48Z</time></trkpt><trkpt lat="43.52658318148867" lon="10.310395925411571"><ele>8.0</ele><time>2026-04-04T08:48:50Z</time></trkpt><trkpt lat="43.526700240045514" lon="10.310371491269258"><ele>8.0</ele><time>2026-04-04T08:48:52Z</time></trkpt><trkpt lat="43.52681444326108" lon="10.31034644876486"><ele>8.0</ele><time>2026-04-04T08:48:54Z</time></trkpt><trkpt lat="43.52693000164587" lon="10.310316218703862"><ele>8.0</ele><time>2026-04-04T08:48:56Z</time></trkpt><trkpt lat="43.52704469730579" lon="10.310296919322159"><ele>8.0</ele><time>2026-04-04T08:48:58Z</time></trkpt><trkpt lat="43.527160776450735" lon="10.310273759180514"><ele>7.25</ele><time>2026-04-04T08:49:00Z</time></trkpt><trkpt lat="43.527274457375775" lon="10.310248327473392"><ele>6.5</ele><time>2026-04-04T08:49:02Z</time></trkpt><trkpt lat="43.527392494925586" lon="10.310222811906062"><ele>5.75</ele><time>2026-04-04T08:49:04Z</time></trkpt><trkpt lat="43.52750731397327" lon="10.310200167967457"><ele>5.0</ele><time>2026-04-04T08:49:06Z</time></trkpt><trkpt lat="43.52762623255165" lon="10.310187748143298"><ele>5.0</ele><time>2026-04-04T08:49:08Z</time></trkpt><trkpt lat="43.52773468373922" lon="10.310200093300578"><ele>5.0</ele><time>2026-04-04T08:49:10Z</time></trkpt><trkpt lat="43.52779437358645" lon="10.310230963609193"><ele>5.0</ele><time>2026-04-04T08:49:11Z</time></trkpt><trkpt lat="43.52791156420989" lon="10.310192208762691"><ele>5.0</ele><time>2026-04-04T08:49:13Z</time></trkpt><trkpt lat="43.5280041929317" lon="10.310111229434735"><ele>5.0</ele><time>2026-04-04T08:49:15Z</time></trkpt><trkpt lat="43.528117738284735" lon="10.31008301131466"><ele>5.75</ele><time>2026-04-04T08:49:17Z</time></trkpt><trkpt lat="43.52823853667834" lon="10.310081808195358"><ele>6.5</ele><time>2026-04-04T08:49:19Z</time></trkpt><trkpt lat="43.52835790044037" lon="10.310076254188306"><ele>7.25</ele><time>2026-04-04T08:49:21Z</time></trkpt><trkpt lat="43.528437074409936" lon="10.309948817548651"><ele>8.0</ele><time>2026-04-04T08:49:23Z</time></trkpt><trkpt lat="43.5285289758639" lon="10.30983622765302"><ele>8.0</ele><time>2026-04-04T08:49:25Z</time></trkpt><trkpt lat="43.52862408334328" lon="10.309737928793107"><ele>8.0</ele><time>2026-04-04T08:49:27Z</time></trkpt><trkpt lat="43.52871917205041" lon="10.309640017410386"><ele>8.0</ele><time>2026-04-04T08:49:29Z</time></trkpt><trkpt lat="43.52880770397312" lon="10.309532269091214"><ele>8.0</ele><time>2026-04-04T08:49:31Z</time></trkpt><trkpt lat="43.52889482250475" lon="10.309420562319431"><ele>8.0</ele><time>2026-04-04T08:49:33Z</time></trkpt><trkpt lat="43.52897807106895" lon="10.309300640616305"><ele>8.0</ele><time>2026-04-04T08:49:35Z</time></trkpt><trkpt lat="43.5290559350307" lon="10.309178854003425"><ele>8.0</ele><time>2026-04-04T08:49:37Z</time></trkpt><trkpt lat="43.52913423389106" lon="10.309061562106487"><ele>8.0</ele><time>2026-04-04T08:49:39Z</time></trkpt><trkpt lat="43.52920608074246" lon="10.308932242915937"><ele>8.0</ele><time>2026-04-04T08:49:41Z</time></trkpt><trkpt lat="43.52928085645396" lon="10.3088123395247"><ele>8.0</ele><time>2026-04-04T08:49:43Z</time></trkpt><trkpt lat="43.5293492786466" lon="10.308684471621927"><ele>8.0</ele><time>2026-04-04T08:49:45Z</time></trkpt><trkpt lat="43.52940860793704" lon="10.308551675227678"><ele>8.0</ele><time>2026-04-04T08:49:47Z</time></trkpt><trkpt lat="43.52947376437525" lon="10.308417205934894"><ele>8.0</ele><time>2026-04-04T08:49:49Z</time></trkpt><trkpt lat="43.5295315916277" lon="10.308273399445056"><ele>8.0</ele><time>2026-04-04T08:49:51Z</time></trkpt><trkpt lat="43.52957551725021" lon="10.308126453092934"><ele>8.0</ele><time>2026-04-04T08:49:53Z</time></trkpt><trkpt lat="43.52960957189984" lon="10.307968463921744"><ele>8.0</ele><time>2026-04-04T08:49:55Z</time></trkpt><trkpt lat="43.52965302655466" lon="10.30782367136766"><ele>7.6000000000000005</ele><time>2026-04-04T08:49:57Z</time></trkpt><trkpt lat="43.52970429200756" lon="10.307767398544366"><ele>7.200000000000001</ele><time>2026-04-04T08:49:58Z</time></trkpt><trkpt lat="43.529753885030246" lon="10.307627553784195"><ele>6.8</ele><time>2026-04-04T08:50:00Z</time></trkpt><trkpt lat="43.52979714156604" lon="10.307480714134432"><ele>6.4</ele><time>2026-04-04T08:50:02Z</time></trkpt><trkpt lat="43.5298439578996" lon="10.307339349536836"><ele>6.0</ele><time>2026-04-04T08:50:04Z</time></trkpt><trkpt lat="43.52988080943422" lon="10.30719676720816"><ele>5.25</ele><time>2026-04-04T08:50:06Z</time></trkpt><trkpt lat="43.52990593420679" lon="10.30704255113974"><ele>4.5</ele><time>2026-04-04T08:50:08Z</time></trkpt><trkpt lat="43.52994421973075" lon="10.306900015489388"><ele>3.75</ele><time>2026-04-04T08:50:10Z</time></trkpt><trkpt lat="43.52998500998159" lon="10.306746239903099"><ele>3.0</ele><time>2026-04-04T08:50:12Z</time></trkpt><trkpt lat="43.53002836664007" lon="10.306598310891651"><ele>3.0</ele><time>2026-04-04T08:50:14Z</time></trkpt><trkpt lat="43.53006817194746" lon="10.306448396865164"><ele>3.0</ele><time>2026-04-04T08:50:16Z</time></trkpt><trkpt lat="43.530117326379695" lon="10.30630015870106"><ele>3.0</ele><time>2026-04-04T08:50:18Z</time></trkpt><trkpt lat="43.53017049414943" lon="10.306163799622869"><ele>3.0</ele><time>2026-04-04T08:50:20Z</time></trkpt><trkpt lat="43.53020581588596" lon="10.306016836397081"><ele>2.5</ele><time>2026-04-04T08:50:22Z</time></trkpt><trkpt lat="43.530240050945466" lon="10.305866054296539"><ele>2.0</ele><time>2026-04-04T08:50:24Z</time></trkpt><trkpt lat="43.53028093480033" lon="10.305719956864795"><ele>1.5</ele><time>2026-04-04T08:50:26Z</time></trkpt><trkpt lat="43.53031702687713" lon="10.305564821103594"><ele>1.0</ele><time>2026-04-04T08:50:28Z</time></trkpt><trkpt lat="43.5303574306532" lon="10.305409705978922"><ele>2.25</ele><time>2026-04-04T08:50:30Z</time></trkpt><trkpt lat="43.530402451172996" lon="10.305258765086577"><ele>3.5</ele><time>2026-04-04T08:50:32Z</time></trkpt><trkpt lat="43.53044716634263" lon="10.305108416618825"><ele>4.75</ele><time>2026-04-04T08:50:34Z</time></trkpt><trkpt lat="43.5304874825544" lon="10.304950640560019"><ele>6.0</ele><time>2026-04-04T08:50:36Z</time></trkpt><trkpt lat="43.530529064125574" lon="10.30480066282896"><ele>6.25</ele><time>2026-04-04T08:50:38Z</time></trkpt><trkpt lat="43.53057672574609" lon="10.304648073478505"><ele>6.5</ele><time>2026-04-04T08:50:40Z</time></trkpt><trkpt lat="43.530618956481554" lon="10.304492708438932"><ele>6.75</ele><time>2026-04-04T08:50:42Z</time></trkpt><trkpt lat="43.53066101681293" lon="10.304343951940691"><ele>7.0</ele><time>2026-04-04T08:50:44Z</time></trkpt><trkpt lat="43.53070039340983" lon="10.30418940184104"><ele>7.0</ele><time>2026-04-04T08:50:46Z</time></trkpt><trkpt lat="43.53074413817137" lon="10.304041467397019"><ele>7.0</ele><time>2026-04-04T08:50:47.999Z</time></trkpt><trkpt lat="43.530790451797984" lon="10.303889360126115"><ele>7.0</ele><time>2026-04-04T08:50:49.999Z</time></trkpt><trkpt lat="43.530849302377874" lon="10.303762257624607"><ele>7.0</ele><time>2026-04-04T08:50:51.999Z</time></trkpt><trkpt lat="43.53093066674236" lon="10.303651746811287"><ele>6.25</ele><time>2026-04-04T08:50:53.999Z</time></trkpt><trkpt lat="43.5310270690832" lon="10.303570550020954"><ele>5.5</ele><time>2026-04-04T08:50:56Z</time></trkpt><trkpt lat="43.53112729135899" lon="10.303492638665368"><ele>4.75</ele><time>2026-04-04T08:50:58Z</time></trkpt><trkpt lat="43.53122738202775" lon="10.303409371684966"><ele>4.0</ele><time>2026-04-04T08:51:00Z</time></trkpt><trkpt lat="43.53133792916299" lon="10.303352145797543"><ele>4.0</ele><time>2026-04-04T08:51:02Z</time></trkpt><trkpt lat="43.53144784750462" lon="10.303281222615574"><ele>4.0</ele><time>2026-04-04T08:51:04Z</time></trkpt><trkpt lat="43.531554797861055" lon="10.303212846088357"><ele>4.0</ele><time>2026-04-04T08:51:06Z</time></trkpt><trkpt lat="43.53166208254307" lon="10.303136991638018"><ele>4.0</ele><time>2026-04-04T08:51:08Z</time></trkpt><trkpt lat="43.5317702805568" lon="10.3030695718807"><ele>3.5</ele><time>2026-04-04T08:51:10Z</time></trkpt><trkpt lat="43.531878050937564" lon="10.303003056971967"><ele>3.0</ele><time>2026-04-04T08:51:12Z</time></trkpt><trkpt lat="43.53198249772026" lon="10.302937376224223"><ele>2.5</ele><time>2026-04-04T08:51:14Z</time></trkpt><trkpt lat="43.532096782116845" lon="10.30288852146402"><ele>2.0</ele><time>2026-04-04T08:51:16Z</time></trkpt><trkpt lat="43.53220244948676" lon="10.302826798410633"><ele>2.0</ele><time>2026-04-04T08:51:18Z</time></trkpt><trkpt lat="43.53230492239208" lon="10.302749218482619"><ele>2.0</ele><time>2026-04-04T08:51:20Z</time></trkpt><trkpt lat="43.532408661323366" lon="10.302677818095443"><ele>2.0</ele><time>2026-04-04T08:51:22Z</time></trkpt><trkpt lat="43.5325115793328" lon="10.302606623675011"><ele>2.0</ele><time>2026-04-04T08:51:24Z</time></trkpt><trkpt lat="43.532620915272815" lon="10.302542361314698"><ele>2.0</ele><time>2026-04-04T08:51:26Z</time></trkpt><trkpt lat="43.532728409138564" lon="10.302487470079958"><ele>2.0</ele><time>2026-04-04T08:51:28Z</time></trkpt><trkpt lat="43.53282901350699" lon="10.302422799361025"><ele>2.0</ele><time>2026-04-04T08:51:30Z</time></trkpt><trkpt lat="43.532923749079664" lon="10.302365720196375"><ele>2.0</ele><time>2026-04-04T08:51:32Z</time></trkpt><trkpt lat="43.53302402219162" lon="10.302304137873403"><ele>2.0</ele><time>2026-04-04T08:51:34Z</time></trkpt><trkpt lat="43.533128717497256" lon="10.302244982731496"><ele>1.75</ele><time>2026-04-04T08:51:36Z</time></trkpt><trkpt lat="43.533231355850155" lon="10.302181080210318"><ele>1.5</ele><time>2026-04-04T08:51:38Z</time></trkpt><trkpt lat="43.53333347766201" lon="10.302106493055092"><ele>1.25</ele><time>2026-04-04T08:51:40Z</time></trkpt><trkpt lat="43.533439137205164" lon="10.30203904627324"><ele>1.0</ele><time>2026-04-04T08:51:42Z</time></trkpt><trkpt lat="43.533545299385764" lon="10.3019789683845"><ele>1.0</ele><time>2026-04-04T08:51:44Z</time></trkpt><trkpt lat="43.53365416089916" lon="10.301916751244462"><ele>1.0</ele><time>2026-04-04T08:51:46Z</time></trkpt><trkpt lat="43.533761691251385" lon="10.301853802673206"><ele>1.0</ele><time>2026-04-04T08:51:48Z</time></trkpt><trkpt lat="43.53386319692048" lon="10.30178864278576"><ele>1.0</ele><time>2026-04-04T08:51:50Z</time></trkpt><trkpt lat="43.53396309260694" lon="10.301718100627642"><ele>2.75</ele><time>2026-04-04T08:51:52Z</time></trkpt><trkpt lat="43.5340702567006" lon="10.301672568204319"><ele>4.5</ele><time>2026-04-04T08:51:54Z</time></trkpt><trkpt lat="43.53417662894225" lon="10.301608238332834"><ele>6.25</ele><time>2026-04-04T08:51:56Z</time></trkpt><trkpt lat="43.53428240010025" lon="10.3015717497867"><ele>8.0</ele><time>2026-04-04T08:51:58Z</time></trkpt><trkpt lat="43.53439349489901" lon="10.301549458749749"><ele>8.0</ele><time>2026-04-04T08:52:00Z</time></trkpt><trkpt lat="43.53450185720277" lon="10.301502383361388"><ele>8.0</ele><time>2026-04-04T08:52:02Z</time></trkpt><trkpt lat="43.53461479089084" lon="10.301474896277396"><ele>8.0</ele><time>2026-04-04T08:52:04Z</time></trkpt><trkpt lat="43.53467900075749" lon="10.301474839352299"><ele>8.0</ele><time>2026-04-04T08:52:06Z</time></trkpt><trkpt lat="43.53476631178855" lon="10.301470893479653"><ele>8.0</ele><time>2026-04-04T08:52:09Z</time></trkpt><trkpt lat="43.53485008059721" lon="10.301447436742754"><ele>7.800000000000001</ele><time>2026-04-04T08:52:11Z</time></trkpt><trkpt lat="43.53494558921166" lon="10.301448684468614"><ele>7.6000000000000005</ele><time>2026-04-04T08:52:13Z</time></trkpt><trkpt lat="43.53504914453136" lon="10.301452120554753"><ele>7.3999999999999995</ele><time>2026-04-04T08:52:15Z</time></trkpt><trkpt lat="43.535158352112006" lon="10.30145847865549"><ele>7.199999999999999</ele><time>2026-04-04T08:52:17Z</time></trkpt><trkpt lat="43.535271583797474" lon="10.301467947444666"><ele>7.0</ele><time>2026-04-04T08:52:19Z</time></trkpt><trkpt lat="43.53538041678285" lon="10.301479497103497"><ele>7.0</ele><time>2026-04-04T08:52:21Z</time></trkpt><trkpt lat="43.53549500245527" lon="10.301496482739463"><ele>7.0</ele><time>2026-04-04T08:52:23Z</time></trkpt><trkpt lat="43.53560591031634" lon="10.301504070352902"><ele>7.0</ele><time>2026-04-04T08:52:25Z</time></trkpt><trkpt lat="43.5357186854818" lon="10.301513991116051"><ele>7.0</ele><time>2026-04-04T08:52:27Z</time></trkpt><trkpt lat="43.535830968861376" lon="10.301525645139943"><ele>7.0</ele><time>2026-04-04T08:52:29Z</time></trkpt><trkpt lat="43.53594326567005" lon="10.301555940245466"><ele>7.0</ele><time>2026-04-04T08:52:31Z</time></trkpt><trkpt lat="43.53605320572607" lon="10.301600886334136"><ele>7.0</ele><time>2026-04-04T08:52:33Z</time></trkpt><trkpt lat="43.53617323733307" lon="10.301622913819259"><ele>7.0</ele><time>2026-04-04T08:52:35Z</time></trkpt><trkpt lat="43.53626981139706" lon="10.30167348129895"><ele>6.500000000000001</ele><time>2026-04-04T08:52:37Z</time></trkpt><trkpt lat="43.53634395066871" lon="10.301718462451651"><ele>6.0</ele><time>2026-04-04T08:52:39Z</time></trkpt><trkpt lat="43.53640439256173" lon="10.301746862756644"><ele>5.5</ele><time>2026-04-04T08:52:44Z</time></trkpt><trkpt lat="43.536469819886534" lon="10.301779698605467"><ele>5.0</ele><time>2026-04-04T08:52:46Z</time></trkpt><trkpt lat="43.536552741833546" lon="10.301815006860435"><ele>4.5</ele><time>2026-04-04T08:52:48Z</time></trkpt><trkpt lat="43.53663968034209" lon="10.301861695912452"><ele>4.0</ele><time>2026-04-04T08:52:50Z</time></trkpt><trkpt lat="43.536734803293754" lon="10.301899038239947"><ele>4.0</ele><time>2026-04-04T08:52:52Z</time></trkpt><trkpt lat="43.53682806977592" lon="10.30194107779898"><ele>4.0</ele><time>2026-04-04T08:52:53.999Z</time></trkpt><trkpt lat="43.53692575591773" lon="10.30198641008112"><ele>4.0</ele><time>2026-04-04T08:52:55.999Z</time></trkpt><trkpt lat="43.537019069360696" lon="10.302033455511905"><ele>4.0</ele><time>2026-04-04T08:52:57.999Z</time></trkpt><trkpt lat="43.53712118867882" lon="10.302074916239846"><ele>4.0</ele><time>2026-04-04T08:52:59.999Z</time></trkpt><trkpt lat="43.53721852917297" lon="10.30211332078696"><ele>4.0</ele><time>2026-04-04T08:53:02Z</time></trkpt><trkpt lat="43.537325702518494" lon="10.302125476980567"><ele>4.0</ele><time>2026-04-04T08:53:04Z</time></trkpt><trkpt lat="43.537434596803436" lon="10.302154712739492"><ele>4.0</ele><time>2026-04-04T08:53:06Z</time></trkpt><trkpt lat="43.53753542567404" lon="10.302181351201776"><ele>4.0</ele><time>2026-04-04T08:53:08Z</time></trkpt><trkpt lat="43.53765270406316" lon="10.302196558653081"><ele>4.0</ele><time>2026-04-04T08:53:10Z</time></trkpt><trkpt lat="43.537760070074306" lon="10.302216971722437"><ele>4.0</ele><time>2026-04-04T08:53:12Z</time></trkpt><trkpt lat="43.537874085553206" lon="10.302229299667706"><ele>4.0</ele><time>2026-04-04T08:53:14Z</time></trkpt><trkpt lat="43.53798932882225" lon="10.302246966652442"><ele>4.0</ele><time>2026-04-04T08:53:16Z</time></trkpt><trkpt lat="43.53810327750117" lon="10.302245779380222"><ele>4.0</ele><time>2026-04-04T08:53:18Z</time></trkpt><trkpt lat="43.5382144138657" lon="10.30223033267886"><ele>4.0</ele><time>2026-04-04T08:53:20Z</time></trkpt><trkpt lat="43.53832994538138" lon="10.302195864601897"><ele>4.0</ele><time>2026-04-04T08:53:22Z</time></trkpt><trkpt lat="43.5384333570505" lon="10.302175669154488"><ele>4.0</ele><time>2026-04-04T08:53:24Z</time></trkpt><trkpt lat="43.53853886477276" lon="10.302153669440257"><ele>4.0</ele><time>2026-04-04T08:53:26Z</time></trkpt><trkpt lat="43.53864514835157" lon="10.30213924728635"><ele>4.0</ele><time>2026-04-04T08:53:28Z</time></trkpt><trkpt lat="43.538747038499295" lon="10.302121104830603"><ele>4.25</ele><time>2026-04-04T08:53:30Z</time></trkpt><trkpt lat="43.53885664473249" lon="10.302096168051815"><ele>4.5</ele><time>2026-04-04T08:53:32Z</time></trkpt><trkpt lat="43.53896652503329" lon="10.302065799242854"><ele>4.75</ele><time>2026-04-04T08:53:34Z</time></trkpt><trkpt lat="43.53908308198783" lon="10.302056768654605"><ele>5.0</ele><time>2026-04-04T08:53:36Z</time></trkpt><trkpt lat="43.53920053338967" lon="10.302048508393806"><ele>5.0</ele><time>2026-04-04T08:53:38Z</time></trkpt><trkpt lat="43.53932115834538" lon="10.30204732425314"><ele>5.0</ele><time>2026-04-04T08:53:40Z</time></trkpt><trkpt lat="43.53943651565297" lon="10.302023447792873"><ele>5.0</ele><time>2026-04-04T08:53:42Z</time></trkpt><trkpt lat="43.53955337958675" lon="10.302014647600524"><ele>5.0</ele><time>2026-04-04T08:53:44Z</time></trkpt><trkpt lat="43.53966209473204" lon="10.301992525168432"><ele>5.4</ele><time>2026-04-04T08:53:46Z</time></trkpt><trkpt lat="43.539766574606816" lon="10.301985970390469"><ele>5.8</ele><time>2026-04-04T08:53:48Z</time></trkpt><trkpt lat="43.53986515704517" lon="10.301970922235054"><ele>6.199999999999999</ele><time>2026-04-04T08:53:50Z</time></trkpt><trkpt lat="43.53996480767048" lon="10.301960086330613"><ele>6.6</ele><time>2026-04-04T08:53:52Z</time></trkpt><trkpt lat="43.54005884986893" lon="10.301955618069245"><ele>7.0</ele><time>2026-04-04T08:53:54Z</time></trkpt><trkpt lat="43.54014945147498" lon="10.301949816661356"><ele>7.0</ele><time>2026-04-04T08:53:56Z</time></trkpt><trkpt lat="43.54023921811757" lon="10.301927828681764"><ele>6.999999999999999</ele><time>2026-04-04T08:53:58Z</time></trkpt><trkpt lat="43.54032996433483" lon="10.301912895027405"><ele>6.999999999999999</ele><time>2026-04-04T08:54:00Z</time></trkpt><trkpt lat="43.54042053999271" lon="10.301894663860933"><ele>7.0</ele><time>2026-04-04T08:54:02Z</time></trkpt><trkpt lat="43.5405139738877" lon="10.30188803386918"><ele>7.0</ele><time>2026-04-04T08:54:04Z</time></trkpt><trkpt lat="43.54060456811543" lon="10.30186787350369"><ele>6.8</ele><time>2026-04-04T08:54:06Z</time></trkpt><trkpt lat="43.540693150306254" lon="10.301854663786727"><ele>6.6</ele><time>2026-04-04T08:54:08Z</time></trkpt><trkpt lat="43.54078636885806" lon="10.30184175726526"><ele>6.3999999999999995</ele><time>2026-04-04T08:54:10Z</time></trkpt><trkpt lat="43.54087646665802" lon="10.301823051022167"><ele>6.199999999999999</ele><time>2026-04-04T08:54:12Z</time></trkpt><trkpt lat="43.540970838687784" lon="10.301816218194016"><ele>6.0</ele><time>2026-04-04T08:54:14Z</time></trkpt><trkpt lat="43.54106593378099" lon="10.301808188953855"><ele>6.0</ele><time>2026-04-04T08:54:16Z</time></trkpt><trkpt lat="43.54116052884253" lon="10.301796484757354"><ele>6.0</ele><time>2026-04-04T08:54:18Z</time></trkpt><trkpt lat="43.54124732462137" lon="10.301804010583359"><ele>6.0</ele><time>2026-04-04T08:54:20Z</time></trkpt><trkpt lat="43.54132622909753" lon="10.301825721064453"><ele>6.0</ele><time>2026-04-04T08:54:22Z</time></trkpt><trkpt lat="43.54139928269556" lon="10.301830811194584"><ele>6.0</ele><time>2026-04-04T08:54:24Z</time></trkpt><trkpt lat="43.541470817066894" lon="10.30175456165506"><ele>6.0</ele><time>2026-04-04T08:54:27Z</time></trkpt><trkpt lat="43.54150613406258" lon="10.301680063875754"><ele>5.6</ele><time>2026-04-04T08:54:29Z</time></trkpt><trkpt lat="43.541513666212374" lon="10.301573952228031"><ele>5.199999999999999</ele><time>2026-04-04T08:54:31Z</time></trkpt><trkpt lat="43.54147946964016" lon="10.30146225491836"><ele>4.800000000000001</ele><time>2026-04-04T08:54:33Z</time></trkpt><trkpt lat="43.54139098092041" lon="10.301415419852217"><ele>4.4</ele><time>2026-04-04T08:54:35Z</time></trkpt><trkpt lat="43.54129661789132" lon="10.301388490721157"><ele>4.0</ele><time>2026-04-04T08:54:37Z</time></trkpt><trkpt lat="43.54120342618944" lon="10.30138644252131"><ele>4.333333333333333</ele><time>2026-04-04T08:54:39Z</time></trkpt><trkpt lat="43.541115354408014" lon="10.301424929302005"><ele>4.666666666666666</ele><time>2026-04-04T08:54:41Z</time></trkpt><trkpt lat="43.541030360970325" lon="10.301469821141815"><ele>5.0</ele><time>2026-04-04T08:54:43Z</time></trkpt><trkpt lat="43.54095492420468" lon="10.30153595829243"><ele>5.333333333333333</ele><time>2026-04-04T08:54:45Z</time></trkpt><trkpt lat="43.54087678620903" lon="10.301590769315116"><ele>5.666666666666667</ele><time>2026-04-04T08:54:47Z</time></trkpt><trkpt lat="43.540795467043814" lon="10.301636288282221"><ele>6.0</ele><time>2026-04-04T08:54:49Z</time></trkpt><trkpt lat="43.5407105993446" lon="10.30167176286649"><ele>6.0</ele><time>2026-04-04T08:54:51Z</time></trkpt><trkpt lat="43.54063056087119" lon="10.30171453695531"><ele>6.0</ele><time>2026-04-04T08:54:53Z</time></trkpt><trkpt lat="43.54056308592233" lon="10.30172243706223"><ele>6.0</ele><time>2026-04-04T08:54:56Z</time></trkpt><trkpt lat="43.5404921190764" lon="10.301777474025801"><ele>6.0</ele><time>2026-04-04T08:56:11Z</time></trkpt><trkpt lat="43.54039981695312" lon="10.301806685645042"><ele>6.0</ele><time>2026-04-04T08:56:14Z</time></trkpt><trkpt lat="43.5403159589195" lon="10.301832087249723"><ele>6.0</ele><time>2026-04-04T08:56:16Z</time></trkpt><trkpt lat="43.540217427234694" lon="10.301809111226033"><ele>6.199999999999999</ele><time>2026-04-04T08:56:18Z</time></trkpt><trkpt lat="43.54011639247558" lon="10.301826256316582"><ele>6.3999999999999995</ele><time>2026-04-04T08:56:20Z</time></trkpt><trkpt lat="43.54001366363532" lon="10.301843301153287"><ele>6.6</ele><time>2026-04-04T08:56:22Z</time></trkpt><trkpt lat="43.53991013363893" lon="10.301857821884168"><ele>6.8</ele><time>2026-04-04T08:56:24Z</time></trkpt><trkpt lat="43.53981074063766" lon="10.301921160372435"><ele>7.0</ele><time>2026-04-04T08:56:26Z</time></trkpt><trkpt lat="43.539712256275834" lon="10.30193091314382"><ele>7.0</ele><time>2026-04-04T08:56:28Z</time></trkpt><trkpt lat="43.53960927363788" lon="10.301943270204807"><ele>6.999999999999999</ele><time>2026-04-04T08:56:30Z</time></trkpt><trkpt lat="43.53952031059765" lon="10.301949601258912"><ele>6.999999999999999</ele><time>2026-04-04T08:56:32Z</time></trkpt><trkpt lat="43.53943239756032" lon="10.301957105626117"><ele>7.0</ele><time>2026-04-04T08:56:34Z</time></trkpt><trkpt lat="43.53934641242289" lon="10.301973094231979"><ele>7.0</ele><time>2026-04-04T08:56:36Z</time></trkpt><trkpt lat="43.539260290125426" lon="10.301988122450751"><ele>6.666666666666667</ele><time>2026-04-04T08:56:38Z</time></trkpt><trkpt lat="43.53916670129335" lon="10.30200408509602"><ele>6.333333333333334</ele><time>2026-04-04T08:56:40Z</time></trkpt><trkpt lat="43.5390748661666" lon="10.30201386085208"><ele>6.0</ele><time>2026-04-04T08:56:42Z</time></trkpt><trkpt lat="43.5389862442267" lon="10.30199145947233"><ele>5.666666666666667</ele><time>2026-04-04T08:56:44Z</time></trkpt><trkpt lat="43.53889989896284" lon="10.302004384515287"><ele>5.333333333333334</ele><time>2026-04-04T08:56:46Z</time></trkpt><trkpt lat="43.53881455233315" lon="10.302017160049964"><ele>5.0</ele><time>2026-04-04T08:56:48Z</time></trkpt><trkpt lat="43.538727038893725" lon="10.302030259977526"><ele>4.8</ele><time>2026-04-04T08:56:50Z</time></trkpt><trkpt lat="43.53863167885865" lon="10.30205221310738"><ele>4.6</ele><time>2026-04-04T08:56:52Z</time></trkpt><trkpt lat="43.538532709422924" lon="10.302066050649687"><ele>4.4</ele><time>2026-04-04T08:56:54Z</time></trkpt><trkpt lat="43.5384333556155" lon="10.302081696666365"><ele>4.2</ele><time>2026-04-04T08:56:56Z</time></trkpt><trkpt lat="43.53832906420271" lon="10.302092670691792"><ele>4.0</ele><time>2026-04-04T08:56:58Z</time></trkpt><trkpt lat="43.53822736441235" lon="10.302114485855611"><ele>4.0</ele><time>2026-04-04T08:57:00Z</time></trkpt><trkpt lat="43.53812182896418" lon="10.30212282927468"><ele>4.0</ele><time>2026-04-04T08:57:02Z</time></trkpt><trkpt lat="43.53801442535816" lon="10.302132656501694"><ele>4.0</ele><time>2026-04-04T08:57:04Z</time></trkpt><trkpt lat="43.53790852949322" lon="10.30213651983915"><ele>4.0</ele><time>2026-04-04T08:57:06Z</time></trkpt><trkpt lat="43.53780366352107" lon="10.302125781809167"><ele>4.0</ele><time>2026-04-04T08:57:08Z</time></trkpt><trkpt lat="43.53770260834779" lon="10.302118315639154"><ele>4.0</ele><time>2026-04-04T08:57:10Z</time></trkpt><trkpt lat="43.53759602841819" lon="10.302110362601773"><ele>4.0</ele><time>2026-04-04T08:57:11.999Z</time></trkpt><trkpt lat="43.53749257188694" lon="10.302096995780445"><ele>4.0</ele><time>2026-04-04T08:57:14Z</time></trkpt><trkpt lat="43.5373879023131" lon="10.30207942597415"><ele>4.0</ele><time>2026-04-04T08:57:16Z</time></trkpt><trkpt lat="43.53728544740043" lon="10.302048191695022"><ele>4.0</ele><time>2026-04-04T08:57:18Z</time></trkpt><trkpt lat="43.537178425518526" lon="10.30201849919879"><ele>4.0</ele><time>2026-04-04T08:57:20Z</time></trkpt><trkpt lat="43.537075347022125" lon="10.30197381340891"><ele>4.0</ele><time>2026-04-04T08:57:22Z</time></trkpt><trkpt lat="43.5369688940752" lon="10.301932119950076"><ele>4.0</ele><time>2026-04-04T08:57:24Z</time></trkpt><trkpt lat="43.53686466824027" lon="10.30188149319734"><ele>4.0</ele><time>2026-04-04T08:57:26Z</time></trkpt><trkpt lat="43.53676253517404" lon="10.301827887140671"><ele>4.0</ele><time>2026-04-04T08:57:28Z</time></trkpt><trkpt lat="43.53665788903398" lon="10.301786787293366"><ele>4.0</ele><time>2026-04-04T08:57:30Z</time></trkpt><trkpt lat="43.536554175670744" lon="10.301747638562174"><ele>4.0</ele><time>2026-04-04T08:57:32Z</time></trkpt><trkpt lat="43.53648815666453" lon="10.301712786604032"><ele>4.0</ele><time>2026-04-04T08:57:34Z</time></trkpt><trkpt lat="43.536396734278476" lon="10.301672280347198"><ele>4.0</ele><time>2026-04-04T08:57:37Z</time></trkpt><trkpt lat="43.53631324828601" lon="10.301635255466048"><ele>4.0</ele><time>2026-04-04T08:57:39Z</time></trkpt><trkpt lat="43.53622378809794" lon="10.301592724695007"><ele>4.6</ele><time>2026-04-04T08:57:41Z</time></trkpt><trkpt lat="43.53612579519891" lon="10.301552910685682"><ele>5.2</ele><time>2026-04-04T08:57:43Z</time></trkpt><trkpt lat="43.536024693062636" lon="10.301517280827918"><ele>5.799999999999999</ele><time>2026-04-04T08:57:45Z</time></trkpt><trkpt lat="43.53592311870917" lon="10.301486739440096"><ele>6.3999999999999995</ele><time>2026-04-04T08:57:47Z</time></trkpt><trkpt lat="43.53581550908324" lon="10.301455963947319"><ele>7.0</ele><time>2026-04-04T08:57:49Z</time></trkpt><trkpt lat="43.53570609872291" lon="10.301443401133566"><ele>7.0</ele><time>2026-04-04T08:57:51Z</time></trkpt><trkpt lat="43.53559591915733" lon="10.301426167305227"><ele>7.0</ele><time>2026-04-04T08:57:53Z</time></trkpt><trkpt lat="43.5354838945897" lon="10.301413535535952"><ele>7.0</ele><time>2026-04-04T08:57:55Z</time></trkpt><trkpt lat="43.535368551677166" lon="10.30139768720368"><ele>7.0</ele><time>2026-04-04T08:57:57Z</time></trkpt><trkpt lat="43.5352518904851" lon="10.301391550433555"><ele>5.75</ele><time>2026-04-04T08:57:59Z</time></trkpt><trkpt lat="43.535135923047875" lon="10.301385313874471"><ele>4.5</ele><time>2026-04-04T08:58:01Z</time></trkpt><trkpt lat="43.53501666826463" lon="10.30138619995689"><ele>3.25</ele><time>2026-04-04T08:58:03Z</time></trkpt><trkpt lat="43.53490252449367" lon="10.301388734193385"><ele>2.0</ele><time>2026-04-04T08:58:05Z</time></trkpt><trkpt lat="43.534788343913476" lon="10.301392649343937"><ele>2.0</ele><time>2026-04-04T08:58:07Z</time></trkpt><trkpt lat="43.534670940976675" lon="10.301397205600907"><ele>2.0</ele><time>2026-04-04T08:58:09Z</time></trkpt><trkpt lat="43.53455620463718" lon="10.301409846657696"><ele>2.0</ele><time>2026-04-04T08:58:11Z</time></trkpt><trkpt lat="43.5344409308263" lon="10.301421878404323"><ele>2.0</ele><time>2026-04-04T08:58:13Z</time></trkpt><trkpt lat="43.534327211378375" lon="10.301442794641698"><ele>3.2</ele><time>2026-04-04T08:58:15Z</time></trkpt><trkpt lat="43.534219323888294" lon="10.301480036198148"><ele>4.4</ele><time>2026-04-04T08:58:17Z</time></trkpt><trkpt lat="43.53411573677289" lon="10.301537387934228"><ele>5.6000000000000005</ele><time>2026-04-04T08:58:19Z</time></trkpt><trkpt lat="43.53401414486368" lon="10.301605395997946"><ele>6.800000000000001</ele><time>2026-04-04T08:58:21Z</time></trkpt><trkpt lat="43.53391490155383" lon="10.30167444271666"><ele>8.0</ele><time>2026-04-04T08:58:23Z</time></trkpt><trkpt lat="43.5338100737659" lon="10.301746371336455"><ele>6.25</ele><time>2026-04-04T08:58:25Z</time></trkpt><trkpt lat="43.53370280898343" lon="10.301809868058262"><ele>4.5</ele><time>2026-04-04T08:58:27Z</time></trkpt><trkpt lat="43.53359539695388" lon="10.301879164095773"><ele>2.75</ele><time>2026-04-04T08:58:29Z</time></trkpt><trkpt lat="43.533496754422934" lon="10.301938250748814"><ele>1.0</ele><time>2026-04-04T08:58:31Z</time></trkpt><trkpt lat="43.533397780476015" lon="10.301999142926585"><ele>1.0</ele><time>2026-04-04T08:58:33Z</time></trkpt><trkpt lat="43.53329494390169" lon="10.302060478226572"><ele>1.0</ele><time>2026-04-04T08:58:35Z</time></trkpt><trkpt lat="43.53319128543325" lon="10.302124648849526"><ele>1.0</ele><time>2026-04-04T08:58:37Z</time></trkpt><trkpt lat="43.53308924361822" lon="10.30219050495068"><ele>1.0</ele><time>2026-04-04T08:58:39Z</time></trkpt><trkpt lat="43.53297835032886" lon="10.302234536753218"><ele>1.25</ele><time>2026-04-04T08:58:41Z</time></trkpt><trkpt lat="43.532874506861425" lon="10.302298791920471"><ele>1.5</ele><time>2026-04-04T08:58:43Z</time></trkpt><trkpt lat="43.53276703186303" lon="10.302365891077505"><ele>1.75</ele><time>2026-04-04T08:58:45Z</time></trkpt><trkpt lat="43.53266144829131" lon="10.302431809372363"><ele>2.0</ele><time>2026-04-04T08:58:47Z</time></trkpt><trkpt lat="43.53255796214779" lon="10.302495639820302"><ele>2.0</ele><time>2026-04-04T08:58:49Z</time></trkpt><trkpt lat="43.53245513566907" lon="10.302560283679792"><ele>2.0</ele><time>2026-04-04T08:58:51Z</time></trkpt><trkpt lat="43.532353951261456" lon="10.302623812982155"><ele>2.0</ele><time>2026-04-04T08:58:53Z</time></trkpt><trkpt lat="43.53224813535808" lon="10.302689578093245"><ele>2.0</ele><time>2026-04-04T08:58:55Z</time></trkpt><trkpt lat="43.53215081052721" lon="10.302763430383703"><ele>1.6</ele><time>2026-04-04T08:58:57Z</time></trkpt><trkpt lat="43.53204153314304" lon="10.302826715458009"><ele>1.2000000000000002</ele><time>2026-04-04T08:58:59Z</time></trkpt><trkpt lat="43.53194403956231" lon="10.302903598645296"><ele>0.8</ele><time>2026-04-04T08:59:01Z</time></trkpt><trkpt lat="43.53183966956127" lon="10.302943823239769"><ele>0.4</ele><time>2026-04-04T08:59:03Z</time></trkpt><trkpt lat="43.531742926674696" lon="10.303004811489393"><ele>0.0</ele><time>2026-04-04T08:59:05Z</time></trkpt><trkpt lat="43.531643059632316" lon="10.303088834199796"><ele>0.0</ele><time>2026-04-04T08:59:07Z</time></trkpt><trkpt lat="43.53153645155404" lon="10.303149607696897"><ele>0.0</ele><time>2026-04-04T08:59:09Z</time></trkpt><trkpt lat="43.531436553528366" lon="10.303213445531863"><ele>0.0</ele><time>2026-04-04T08:59:10.999Z</time></trkpt><trkpt lat="43.53137419934245" lon="10.30324769270513"><ele>0.0</ele><time>2026-04-04T08:59:12.999Z</time></trkpt><trkpt lat="43.531286520972934" lon="10.303300570201388"><ele>0.0</ele><time>2026-04-04T08:59:15.999Z</time></trkpt><trkpt lat="43.53119863000773" lon="10.30334853100079"><ele>0.0</ele><time>2026-04-04T08:59:17.999Z</time></trkpt><trkpt lat="43.53110880573068" lon="10.303406556103493"><ele>0.0</ele><time>2026-04-04T08:59:20Z</time></trkpt><trkpt lat="43.53101764795416" lon="10.303463364568838"><ele>0.0</ele><time>2026-04-04T08:59:22Z</time></trkpt><trkpt lat="43.53092953103432" lon="10.303542973695706"><ele>0.0</ele><time>2026-04-04T08:59:24Z</time></trkpt><trkpt lat="43.530849929183496" lon="10.303633455838767"><ele>0.0</ele><time>2026-04-04T08:59:26Z</time></trkpt><trkpt lat="43.53076853865652" lon="10.303717497746527"><ele>0.0</ele><time>2026-04-04T08:59:28Z</time></trkpt><trkpt lat="43.53072711079613" lon="10.303860459867582"><ele>0.0</ele><time>2026-04-04T08:59:30Z</time></trkpt><trkpt lat="43.53068640738591" lon="10.303999115289335"><ele>0.0</ele><time>2026-04-04T08:59:32Z</time></trkpt><trkpt lat="43.53064657016109" lon="10.304141286994874"><ele>0.0</ele><time>2026-04-04T08:59:34Z</time></trkpt><trkpt lat="43.5306081811442" lon="10.304282675721767"><ele>0.0</ele><time>2026-04-04T08:59:36Z</time></trkpt><trkpt lat="43.530570324777614" lon="10.304424838165666"><ele>0.2</ele><time>2026-04-04T08:59:38Z</time></trkpt><trkpt lat="43.53053741441506" lon="10.30457000227805"><ele>0.4</ele><time>2026-04-04T08:59:40Z</time></trkpt><trkpt lat="43.53049907092893" lon="10.304712539975194"><ele>0.6000000000000001</ele><time>2026-04-04T08:59:42Z</time></trkpt><trkpt lat="43.53045778470707" lon="10.304851859762286"><ele>0.8</ele><time>2026-04-04T08:59:44Z</time></trkpt><trkpt lat="43.53041643131845" lon="10.304993354454005"><ele>1.0</ele><time>2026-04-04T08:59:46Z</time></trkpt><trkpt lat="43.53037718395334" lon="10.305129349634356"><ele>1.0</ele><time>2026-04-04T08:59:48Z</time></trkpt><trkpt lat="43.53034113968953" lon="10.305267399218627"><ele>1.0</ele><time>2026-04-04T08:59:50Z</time></trkpt><trkpt lat="43.530306411704125" lon="10.305400279829723"><ele>1.0</ele><time>2026-04-04T08:59:52Z</time></trkpt><trkpt lat="43.53027079124977" lon="10.305525084361623"><ele>1.0</ele><time>2026-04-04T08:59:54Z</time></trkpt><trkpt lat="43.530236700226155" lon="10.305642475652427"><ele>1.0</ele><time>2026-04-04T08:59:56Z</time></trkpt><trkpt lat="43.53020535267265" lon="10.305752463675313"><ele>0.9999999999999999</ele><time>2026-04-04T08:59:58Z</time></trkpt><trkpt lat="43.530175849781095" lon="10.305856937919312"><ele>1.0</ele><time>2026-04-04T09:00:00Z</time></trkpt><trkpt lat="43.530144427637154" lon="10.305951919778876"><ele>1.0</ele><time>2026-04-04T09:00:02Z</time></trkpt><trkpt lat="43.530104896446936" lon="10.306053713918223"><ele>1.0</ele><time>2026-04-04T09:00:04Z</time></trkpt><trkpt lat="43.53006982125364" lon="10.306166766610145"><ele>0.9999999999999999</ele><time>2026-04-04T09:00:06Z</time></trkpt><trkpt lat="43.53004667125664" lon="10.306296090685393"><ele>1.0</ele><time>2026-04-04T09:00:08Z</time></trkpt><trkpt lat="43.5300206413403" lon="10.306423506579726"><ele>1.4</ele><time>2026-04-04T09:00:10Z</time></trkpt><trkpt lat="43.52998450644022" lon="10.306544080398456"><ele>1.8</ele><time>2026-04-04T09:00:12Z</time></trkpt><trkpt lat="43.52994825503019" lon="10.30667335783534"><ele>2.1999999999999997</ele><time>2026-04-04T09:00:14Z</time></trkpt><trkpt lat="43.52991408349437" lon="10.306802425402807"><ele>2.6</ele><time>2026-04-04T09:00:16Z</time></trkpt><trkpt lat="43.5298809791975" lon="10.306932286630849"><ele>3.0</ele><time>2026-04-04T09:00:18Z</time></trkpt><trkpt lat="43.529842817466715" lon="10.307062017439296"><ele>3.0</ele><time>2026-04-04T09:00:20Z</time></trkpt><trkpt lat="43.529800258461734" lon="10.307191459792813"><ele>3.0</ele><time>2026-04-04T09:00:22Z</time></trkpt><trkpt lat="43.52976313522194" lon="10.30732554683605"><ele>3.0</ele><time>2026-04-04T09:00:24Z</time></trkpt><trkpt lat="43.52972685287006" lon="10.307458466736398"><ele>3.0</ele><time>2026-04-04T09:00:26Z</time></trkpt><trkpt lat="43.5296938522005" lon="10.30759617423586"><ele>3.0</ele><time>2026-04-04T09:00:28Z</time></trkpt><trkpt lat="43.529656572251156" lon="10.307732065118229"><ele>3.5999999999999996</ele><time>2026-04-04T09:00:30Z</time></trkpt><trkpt lat="43.529619402843394" lon="10.307872303852527"><ele>4.199999999999999</ele><time>2026-04-04T09:00:32Z</time></trkpt><trkpt lat="43.52957380189864" lon="10.308004650302498"><ele>4.8</ele><time>2026-04-04T09:00:34Z</time></trkpt><trkpt lat="43.529524173220906" lon="10.308135586622006"><ele>5.3999999999999995</ele><time>2026-04-04T09:00:36Z</time></trkpt><trkpt lat="43.52947028806616" lon="10.308261938533274"><ele>6.0</ele><time>2026-04-04T09:00:38Z</time></trkpt><trkpt lat="43.52941756163573" lon="10.308390414738977"><ele>6.4</ele><time>2026-04-04T09:00:40Z</time></trkpt><trkpt lat="43.52936295956878" lon="10.30851620025906"><ele>6.8</ele><time>2026-04-04T09:00:42Z</time></trkpt><trkpt lat="43.52930079004746" lon="10.30863429259268"><ele>7.200000000000001</ele><time>2026-04-04T09:00:44Z</time></trkpt><trkpt lat="43.52923508503527" lon="10.308750964800009"><ele>7.6000000000000005</ele><time>2026-04-04T09:00:46Z</time></trkpt><trkpt lat="43.529168925314714" lon="10.308865850242139"><ele>8.0</ele><time>2026-04-04T09:00:48Z</time></trkpt><trkpt lat="43.52909924329964" lon="10.308976230434935"><ele>8.0</ele><time>2026-04-04T09:00:50Z</time></trkpt><trkpt lat="43.52902764987602" lon="10.309085892482344"><ele>8.0</ele><time>2026-04-04T09:00:52Z</time></trkpt><trkpt lat="43.52895372010106" lon="10.309199176038044"><ele>8.0</ele><time>2026-04-04T09:00:54Z</time></trkpt><trkpt lat="43.52886928860989" lon="10.30930452380389"><ele>8.0</ele><time>2026-04-04T09:00:56Z</time></trkpt><trkpt lat="43.52879481949766" lon="10.309415078304419"><ele>8.0</ele><time>2026-04-04T09:00:58Z</time></trkpt><trkpt lat="43.52871558107849" lon="10.309520181449702"><ele>8.0</ele><time>2026-04-04T09:01:00Z</time></trkpt><trkpt lat="43.528629767942995" lon="10.30961841788885"><ele>8.0</ele><time>2026-04-04T09:01:02Z</time></trkpt><trkpt lat="43.5285373447892" lon="10.309700542048253"><ele>8.0</ele><time>2026-04-04T09:01:04Z</time></trkpt><trkpt lat="43.528442774563686" lon="10.309777102316355"><ele>8.0</ele><time>2026-04-04T09:01:06Z</time></trkpt><trkpt lat="43.52833154084711" lon="10.309806900022163"><ele>8.0</ele><time>2026-04-04T09:01:08Z</time></trkpt><trkpt lat="43.5282313473802" lon="10.309831299530066"><ele>8.0</ele><time>2026-04-04T09:01:10Z</time></trkpt><trkpt lat="43.5281312758281" lon="10.309883655427988"><ele>8.0</ele><time>2026-04-04T09:01:12Z</time></trkpt><trkpt lat="43.52803047857736" lon="10.309933804681132"><ele>8.0</ele><time>2026-04-04T09:01:14Z</time></trkpt><trkpt lat="43.52791969122143" lon="10.309946928090827"><ele>8.0</ele><time>2026-04-04T09:01:16Z</time></trkpt><trkpt lat="43.527810596910484" lon="10.309968351181633"><ele>8.0</ele><time>2026-04-04T09:01:18Z</time></trkpt><trkpt lat="43.52770133499602" lon="10.310010996741957"><ele>7.4</ele><time>2026-04-04T09:01:20Z</time></trkpt><trkpt lat="43.52759783458518" lon="10.310070017265593"><ele>6.800000000000001</ele><time>2026-04-04T09:01:22Z</time></trkpt><trkpt lat="43.527490288773414" lon="10.310087595925546"><ele>6.2</ele><time>2026-04-04T09:01:24Z</time></trkpt><trkpt lat="43.52738328330088" lon="10.310122298657852"><ele>5.6</ele><time>2026-04-04T09:01:26Z</time></trkpt><trkpt lat="43.527277181175045" lon="10.310153601826686"><ele>5.0</ele><time>2026-04-04T09:01:28Z</time></trkpt><trkpt lat="43.5271727312892" lon="10.310184872652593"><ele>5.0</ele><time>2026-04-04T09:01:30Z</time></trkpt><trkpt lat="43.527065277292294" lon="10.310209367494533"><ele>5.0</ele><time>2026-04-04T09:01:32Z</time></trkpt><trkpt lat="43.526961134431986" lon="10.310244230343024"><ele>5.0</ele><time>2026-04-04T09:01:34Z</time></trkpt><trkpt lat="43.52685513713808" lon="10.310269928682757"><ele>5.0</ele><time>2026-04-04T09:01:36Z</time></trkpt><trkpt lat="43.526746788559386" lon="10.310282051130244"><ele>5.0</ele><time>2026-04-04T09:01:38Z</time></trkpt><trkpt lat="43.52663949480937" lon="10.31030779743685"><ele>5.4</ele><time>2026-04-04T09:01:40Z</time></trkpt><trkpt lat="43.52653116895914" lon="10.310334125820544"><ele>5.8</ele><time>2026-04-04T09:01:42Z</time></trkpt><trkpt lat="43.52642373213712" lon="10.31036007370733"><ele>6.199999999999999</ele><time>2026-04-04T09:01:44Z</time></trkpt><trkpt lat="43.526317703991374" lon="10.310401197673476"><ele>6.6</ele><time>2026-04-04T09:01:46Z</time></trkpt><trkpt lat="43.52620684553758" lon="10.310427014096636"><ele>7.0</ele><time>2026-04-04T09:01:48Z</time></trkpt><trkpt lat="43.52609652717706" lon="10.310459883243363"><ele>7.0</ele><time>2026-04-04T09:01:50Z</time></trkpt><trkpt lat="43.52599213726859" lon="10.310480841421278"><ele>6.999999999999999</ele><time>2026-04-04T09:01:52Z</time></trkpt><trkpt lat="43.52588790285015" lon="10.310506899402032"><ele>6.999999999999999</ele><time>2026-04-04T09:01:54Z</time></trkpt><trkpt lat="43.5257763440489" lon="10.310524319983099"><ele>7.0</ele><time>2026-04-04T09:01:56Z</time></trkpt><trkpt lat="43.52566638329617" lon="10.310559826471074"><ele>7.0</ele><time>2026-04-04T09:01:58Z</time></trkpt><trkpt lat="43.52555373847588" lon="10.310569671738246"><ele>7.0</ele><time>2026-04-04T09:02:00Z</time></trkpt><trkpt lat="43.52544657710913" lon="10.310614408582483"><ele>6.999999999999999</ele><time>2026-04-04T09:02:02Z</time></trkpt><trkpt lat="43.525340638425405" lon="10.310635378668309"><ele>6.999999999999999</ele><time>2026-04-04T09:02:04Z</time></trkpt><trkpt lat="43.525239557423404" lon="10.31066721294806"><ele>7.0</ele><time>2026-04-04T09:02:06Z</time></trkpt><trkpt lat="43.525131318817714" lon="10.31069288761391"><ele>7.0</ele><time>2026-04-04T09:02:08Z</time></trkpt><trkpt lat="43.525028761158325" lon="10.310718663191233"><ele>7.199999999999999</ele><time>2026-04-04T09:02:10Z</time></trkpt><trkpt lat="43.524924083772135" lon="10.310745896779519"><ele>7.3999999999999995</ele><time>2026-04-04T09:02:12Z</time></trkpt><trkpt lat="43.524817315918554" lon="10.310769119873173"><ele>7.6000000000000005</ele><time>2026-04-04T09:02:14Z</time></trkpt><trkpt lat="43.52471098353062" lon="10.310789330778096"><ele>7.800000000000001</ele><time>2026-04-04T09:02:16Z</time></trkpt><trkpt lat="43.5246073507294" lon="10.310815981068105"><ele>8.0</ele><time>2026-04-04T09:02:18Z</time></trkpt><trkpt lat="43.52449339085138" lon="10.310835469067323"><ele>7.6000000000000005</ele><time>2026-04-04T09:02:20Z</time></trkpt><trkpt lat="43.5243836937018" lon="10.310859748796231"><ele>7.200000000000001</ele><time>2026-04-04T09:02:22Z</time></trkpt><trkpt lat="43.524277075814766" lon="10.310889635696418"><ele>6.8</ele><time>2026-04-04T09:02:24Z</time></trkpt><trkpt lat="43.52416883155733" lon="10.310922892691979"><ele>6.4</ele><time>2026-04-04T09:02:26Z</time></trkpt><trkpt lat="43.52406237437483" lon="10.310944993166627"><ele>6.0</ele><time>2026-04-04T09:02:28Z</time></trkpt><trkpt lat="43.523954515433815" lon="10.310966167661286"><ele>6.0</ele><time>2026-04-04T09:02:30Z</time></trkpt><trkpt lat="43.52385019354166" lon="10.310986513425208"><ele>6.0</ele><time>2026-04-04T09:02:32Z</time></trkpt><trkpt lat="43.523744832222434" lon="10.311026529701453"><ele>6.0</ele><time>2026-04-04T09:02:34Z</time></trkpt><trkpt lat="43.52363109881879" lon="10.311043060356223"><ele>6.0</ele><time>2026-04-04T09:02:36Z</time></trkpt><trkpt lat="43.52351698268012" lon="10.311070297134538"><ele>6.0</ele><time>2026-04-04T09:02:38Z</time></trkpt><trkpt lat="43.523400080394815" lon="10.311100271434094"><ele>5.5</ele><time>2026-04-04T09:02:40Z</time></trkpt><trkpt lat="43.52328792120732" lon="10.311128981395113"><ele>5.0</ele><time>2026-04-04T09:02:42Z</time></trkpt><trkpt lat="43.52317273509547" lon="10.311149301905466"><ele>4.5</ele><time>2026-04-04T09:02:44Z</time></trkpt><trkpt lat="43.523058281236004" lon="10.31117343028187"><ele>4.0</ele><time>2026-04-04T09:02:46Z</time></trkpt><trkpt lat="43.52294381396739" lon="10.311204491145535"><ele>3.5</ele><time>2026-04-04T09:02:48Z</time></trkpt><trkpt lat="43.52283055872397" lon="10.311237520939649"><ele>3.0</ele><time>2026-04-04T09:02:50Z</time></trkpt><trkpt lat="43.522715632427385" lon="10.31126277022468"><ele>2.5</ele><time>2026-04-04T09:02:52Z</time></trkpt><trkpt lat="43.5226022064988" lon="10.311282340249678"><ele>2.0</ele><time>2026-04-04T09:02:54Z</time></trkpt><trkpt lat="43.522486861137985" lon="10.31131790282526"><ele>2.0</ele><time>2026-04-04T09:02:56Z</time></trkpt><trkpt lat="43.5223709084538" lon="10.311345709768105"><ele>2.0</ele><time>2026-04-04T09:02:58Z</time></trkpt><trkpt lat="43.52225477596779" lon="10.31137525024504"><ele>2.0</ele><time>2026-04-04T09:03:00Z</time></trkpt><trkpt lat="43.52213910301231" lon="10.311412725196417"><ele>2.0</ele><time>2026-04-04T09:03:02Z</time></trkpt><trkpt lat="43.52202576016471" lon="10.311452905444957"><ele>2.25</ele><time>2026-04-04T09:03:04Z</time></trkpt><trkpt lat="43.521912370279054" lon="10.311495056453458"><ele>2.5</ele><time>2026-04-04T09:03:06Z</time></trkpt><trkpt lat="43.52180071300452" lon="10.311544237065217"><ele>2.75</ele><time>2026-04-04T09:03:08Z</time></trkpt><trkpt lat="43.52169127027933" lon="10.311595148658133"><ele>3.0</ele><time>2026-04-04T09:03:10Z</time></trkpt><trkpt lat="43.52158292813449" lon="10.311650612378216"><ele>3.0</ele><time>2026-04-04T09:03:12Z</time></trkpt><trkpt lat="43.52147871217715" lon="10.311716053720817"><ele>3.0</ele><time>2026-04-04T09:03:14Z</time></trkpt><trkpt lat="43.52137636764922" lon="10.311789887375303"><ele>3.0</ele><time>2026-04-04T09:03:15.999Z</time></trkpt><trkpt lat="43.521277697435565" lon="10.311871905356208"><ele>3.0</ele><time>2026-04-04T09:03:17.999Z</time></trkpt><trkpt lat="43.521181808546515" lon="10.31195968844537"><ele>2.75</ele><time>2026-04-04T09:03:19.999Z</time></trkpt><trkpt lat="43.52108776665514" lon="10.312063654851753"><ele>2.5</ele><time>2026-04-04T09:03:21.999Z</time></trkpt><trkpt lat="43.52099733333589" lon="10.312162173951107"><ele>2.25</ele><time>2026-04-04T09:03:23.999Z</time></trkpt><trkpt lat="43.52091152771324" lon="10.312276335223787"><ele>2.0</ele><time>2026-04-04T09:03:25.999Z</time></trkpt><trkpt lat="43.52082907708164" lon="10.312393385844887"><ele>2.0</ele><time>2026-04-04T09:03:27.999Z</time></trkpt><trkpt lat="43.52075199055336" lon="10.312515443612444"><ele>2.0</ele><time>2026-04-04T09:03:29.999Z</time></trkpt><trkpt lat="43.52067976664748" lon="10.312641588025294"><ele>2.0</ele><time>2026-04-04T09:03:32Z</time></trkpt><trkpt lat="43.520609257559215" lon="10.312771201457279"><ele>2.0</ele><time>2026-04-04T09:03:34Z</time></trkpt><trkpt lat="43.52053650316651" lon="10.312894534629695"><ele>2.0</ele><time>2026-04-04T09:03:36Z</time></trkpt><trkpt lat="43.520461507496364" lon="10.313023184905607"><ele>2.0</ele><time>2026-04-04T09:03:38Z</time></trkpt><trkpt lat="43.520389072918164" lon="10.313153113335279"><ele>2.0</ele><time>2026-04-04T09:03:40Z</time></trkpt><trkpt lat="43.52031742915041" lon="10.313281026956254"><ele>2.0</ele><time>2026-04-04T09:03:42Z</time></trkpt><trkpt lat="43.52024507149982" lon="10.313408163236808"><ele>2.0</ele><time>2026-04-04T09:03:44Z</time></trkpt><trkpt lat="43.520177174656915" lon="10.313534773375073"><ele>2.0</ele><time>2026-04-04T09:03:46Z</time></trkpt><trkpt lat="43.52010519323325" lon="10.313661748145817"><ele>2.0</ele><time>2026-04-04T09:03:48Z</time></trkpt><trkpt lat="43.5200351679438" lon="10.313785078281754"><ele>2.0</ele><time>2026-04-04T09:03:50Z</time></trkpt><trkpt lat="43.519965933397565" lon="10.313913235991645"><ele>3.0</ele><time>2026-04-04T09:03:52Z</time></trkpt><trkpt lat="43.519892901771726" lon="10.314032089046346"><ele>4.0</ele><time>2026-04-04T09:03:54Z</time></trkpt><trkpt lat="43.5198232566467" lon="10.314157927946253"><ele>5.0</ele><time>2026-04-04T09:03:56Z</time></trkpt><trkpt lat="43.519748198073444" lon="10.314281983607923"><ele>6.0</ele><time>2026-04-04T09:03:58Z</time></trkpt><trkpt lat="43.51968151475474" lon="10.314412876067932"><ele>6.0</ele><time>2026-04-04T09:04:00Z</time></trkpt><trkpt lat="43.519612039954204" lon="10.314542331911214"><ele>6.0</ele><time>2026-04-04T09:04:02Z</time></trkpt><trkpt lat="43.519541503972484" lon="10.314661800527235"><ele>6.0</ele><time>2026-04-04T09:04:04Z</time></trkpt><trkpt lat="43.519467010363506" lon="10.314781694960333"><ele>6.0</ele><time>2026-04-04T09:04:06Z</time></trkpt><trkpt lat="43.51939849147068" lon="10.314910031780734"><ele>5.25</ele><time>2026-04-04T09:04:08Z</time></trkpt><trkpt lat="43.51933079495638" lon="10.315032436148515"><ele>4.5</ele><time>2026-04-04T09:04:10Z</time></trkpt><trkpt lat="43.519264808090036" lon="10.315163543676372"><ele>3.75</ele><time>2026-04-04T09:04:12Z</time></trkpt><trkpt lat="43.519184255911384" lon="10.315279942423976"><ele>3.0</ele><time>2026-04-04T09:04:14Z</time></trkpt><trkpt lat="43.51912188541482" lon="10.315418171086296"><ele>3.0</ele><time>2026-04-04T09:04:16Z</time></trkpt><trkpt lat="43.51904911919" lon="10.315542246050857"><ele>3.0</ele><time>2026-04-04T09:04:18Z</time></trkpt><trkpt lat="43.5189734624126" lon="10.315669159092934"><ele>3.0</ele><time>2026-04-04T09:04:20Z</time></trkpt><trkpt lat="43.51890781905979" lon="10.3158027634241"><ele>3.0</ele><time>2026-04-04T09:04:22Z</time></trkpt><trkpt lat="43.51885216570434" lon="10.315934781612127"><ele>2.5</ele><time>2026-04-04T09:04:24Z</time></trkpt><trkpt lat="43.51877925377845" lon="10.316037691870312"><ele>2.0</ele><time>2026-04-04T09:04:26Z</time></trkpt><trkpt lat="43.51870498746822" lon="10.316154083327136"><ele>1.5</ele><time>2026-04-04T09:04:28Z</time></trkpt><trkpt lat="43.518626253217136" lon="10.31627480141851"><ele>1.0</ele><time>2026-04-04T09:04:30Z</time></trkpt><trkpt lat="43.5185217272821" lon="10.316352787703236"><ele>2.0</ele><time>2026-04-04T09:04:32Z</time></trkpt><trkpt lat="43.51841377358582" lon="10.316421294004039"><ele>3.0</ele><time>2026-04-04T09:04:34Z</time></trkpt><trkpt lat="43.51830435594559" lon="10.316474244286011"><ele>3.9999999999999996</ele><time>2026-04-04T09:04:36Z</time></trkpt><trkpt lat="43.51823589887487" lon="10.316455412651726"><ele>5.0</ele><time>2026-04-04T09:04:37Z</time></trkpt><trkpt lat="43.518123603002984" lon="10.316484231245633"><ele>6.0</ele><time>2026-04-04T09:04:39Z</time></trkpt><trkpt lat="43.51800781840141" lon="10.316533357404163"><ele>5.0</ele><time>2026-04-04T09:04:41Z</time></trkpt><trkpt lat="43.517891151508934" lon="10.316539460708055"><ele>4.0</ele><time>2026-04-04T09:04:43Z</time></trkpt><trkpt lat="43.51778263483823" lon="10.316561906256817"><ele>3.0</ele><time>2026-04-04T09:04:45Z</time></trkpt><trkpt lat="43.51766898127237" lon="10.316603617116048"><ele>2.0</ele><time>2026-04-04T09:04:47Z</time></trkpt><trkpt lat="43.51755287340922" lon="10.316629098441664"><ele>2.0</ele><time>2026-04-04T09:04:49Z</time></trkpt><trkpt lat="43.517435897682226" lon="10.316643319186715"><ele>2.0</ele><time>2026-04-04T09:04:51Z</time></trkpt><trkpt lat="43.51732180390728" lon="10.316667497336827"><ele>2.0</ele><time>2026-04-04T09:04:53Z</time></trkpt><trkpt lat="43.51720882170917" lon="10.316693602550057"><ele>2.0</ele><time>2026-04-04T09:04:55Z</time></trkpt><trkpt lat="43.517095830771844" lon="10.316708845927499"><ele>2.25</ele><time>2026-04-04T09:04:57Z</time></trkpt><trkpt lat="43.51698210218866" lon="10.316731099762473"><ele>2.5</ele><time>2026-04-04T09:04:59Z</time></trkpt><trkpt lat="43.51686347939785" lon="10.316759655030975"><ele>2.75</ele><time>2026-04-04T09:05:01Z</time></trkpt><trkpt lat="43.516740449084054" lon="10.316783026692995"><ele>3.0</ele><time>2026-04-04T09:05:03Z</time></trkpt><trkpt lat="43.51661932005683" lon="10.316806708290986"><ele>3.0</ele><time>2026-04-04T09:05:05Z</time></trkpt><trkpt lat="43.5164972121773" lon="10.316831875314548"><ele>3.0</ele><time>2026-04-04T09:05:07Z</time></trkpt><trkpt lat="43.5163762236565" lon="10.316859515661289"><ele>3.0</ele><time>2026-04-04T09:05:09Z</time></trkpt><trkpt lat="43.516252603598275" lon="10.31687623235582"><ele>3.0</ele><time>2026-04-04T09:05:11Z</time></trkpt><trkpt lat="43.516132167528575" lon="10.316895741220778"><ele>2.75</ele><time>2026-04-04T09:05:13Z</time></trkpt><trkpt lat="43.51601195580231" lon="10.316924598069086"><ele>2.5</ele><time>2026-04-04T09:05:14.999Z</time></trkpt><trkpt lat="43.515892400310676" lon="10.316944732824837"><ele>2.25</ele><time>2026-04-04T09:05:16.999Z</time></trkpt><trkpt lat="43.51577392209544" lon="10.316967585919043"><ele>2.0</ele><time>2026-04-04T09:05:18.999Z</time></trkpt><trkpt lat="43.51565591948906" lon="10.316993119358404"><ele>2.0</ele><time>2026-04-04T09:05:20.999Z</time></trkpt><trkpt lat="43.51553727660114" lon="10.317010403476907"><ele>2.0</ele><time>2026-04-04T09:05:22.999Z</time></trkpt><trkpt lat="43.515424781397094" lon="10.317035579886205"><ele>2.0</ele><time>2026-04-04T09:05:24.999Z</time></trkpt><trkpt lat="43.515315164360025" lon="10.317055494437883"><ele>2.0</ele><time>2026-04-04T09:05:26.999Z</time></trkpt><trkpt lat="43.51520861724685" lon="10.317070766740601"><ele>2.0</ele><time>2026-04-04T09:05:28.999Z</time></trkpt><trkpt lat="43.51511048400732" lon="10.317095938858124"><ele>2.0</ele><time>2026-04-04T09:05:30.999Z</time></trkpt><trkpt lat="43.515011891076284" lon="10.317128472618695"><ele>2.0</ele><time>2026-04-04T09:05:32.999Z</time></trkpt><trkpt lat="43.51491305351992" lon="10.317199854286306"><ele>2.0</ele><time>2026-04-04T09:05:34.999Z</time></trkpt><trkpt lat="43.514820189508995" lon="10.317284426676927"><ele>2.0</ele><time>2026-04-04T09:05:37Z</time></trkpt><trkpt lat="43.514730532286386" lon="10.317390181007864"><ele>3.0</ele><time>2026-04-04T09:05:39Z</time></trkpt><trkpt lat="43.514647279438314" lon="10.317499546565942"><ele>4.0</ele><time>2026-04-04T09:05:41Z</time></trkpt><trkpt lat="43.51456460337407" lon="10.317610285631394"><ele>5.0</ele><time>2026-04-04T09:05:43Z</time></trkpt><trkpt lat="43.51447862597848" lon="10.317725308908338"><ele>6.0</ele><time>2026-04-04T09:05:45Z</time></trkpt><trkpt lat="43.51438960439781" lon="10.317835975513148"><ele>6.0</ele><time>2026-04-04T09:05:47Z</time></trkpt><trkpt lat="43.51429199918377" lon="10.317944443325706"><ele>6.0</ele><time>2026-04-04T09:05:49Z</time></trkpt><trkpt lat="43.51420978774683" lon="10.318062729674905"><ele>6.0</ele><time>2026-04-04T09:05:51Z</time></trkpt><trkpt lat="43.514116515544444" lon="10.318156712483567"><ele>6.0</ele><time>2026-04-04T09:05:53Z</time></trkpt><trkpt lat="43.51402837695825" lon="10.318252708489652"><ele>6.0</ele><time>2026-04-04T09:05:55Z</time></trkpt><trkpt lat="43.513934102789136" lon="10.31834027212028"><ele>6.0</ele><time>2026-04-04T09:05:57Z</time></trkpt><trkpt lat="43.51384083076117" lon="10.318418119240262"><ele>6.0</ele><time>2026-04-04T09:05:59Z</time></trkpt><trkpt lat="43.513727944501376" lon="10.318455932987357"><ele>6.0</ele><time>2026-04-04T09:06:01Z</time></trkpt><trkpt lat="43.51360975166008" lon="10.31848001540275"><ele>6.0</ele><time>2026-04-04T09:06:03Z</time></trkpt><trkpt lat="43.513493673570174" lon="10.318484056580514"><ele>6.0</ele><time>2026-04-04T09:06:05Z</time></trkpt><trkpt lat="43.5133786293156" lon="10.318473704974352"><ele>6.0</ele><time>2026-04-04T09:06:07Z</time></trkpt><trkpt lat="43.513267262193295" lon="10.318425809156178"><ele>6.0</ele><time>2026-04-04T09:06:09Z</time></trkpt><trkpt lat="43.51315489763991" lon="10.318389968537652"><ele>6.0</ele><time>2026-04-04T09:06:11Z</time></trkpt><trkpt lat="43.513039899195164" lon="10.318359760576548"><ele>6.0</ele><time>2026-04-04T09:06:13Z</time></trkpt><trkpt lat="43.51292893624645" lon="10.318298923964614"><ele>6.0</ele><time>2026-04-04T09:06:15Z</time></trkpt><trkpt lat="43.512814493231" lon="10.31823276700924"><ele>6.0</ele><time>2026-04-04T09:06:17Z</time></trkpt><trkpt lat="43.51269917948866" lon="10.31818251626271"><ele>6.0</ele><time>2026-04-04T09:06:19Z</time></trkpt><trkpt lat="43.51258347321654" lon="10.318165046619407"><ele>6.0</ele><time>2026-04-04T09:06:21Z</time></trkpt><trkpt lat="43.51247761832711" lon="10.318221195641915"><ele>6.0</ele><time>2026-04-04T09:06:23Z</time></trkpt><trkpt lat="43.51237900131911" lon="10.318330085523899"><ele>6.0</ele><time>2026-04-04T09:06:25Z</time></trkpt><trkpt lat="43.512306957729656" lon="10.318465882553502"><ele>6.0</ele><time>2026-04-04T09:06:27Z</time></trkpt><trkpt lat="43.512230084269454" lon="10.318603303729079"><ele>6.0</ele><time>2026-04-04T09:06:29Z</time></trkpt><trkpt lat="43.512156241362945" lon="10.318745086363721"><ele>6.0</ele><time>2026-04-04T09:06:31Z</time></trkpt><trkpt lat="43.512110716059425" lon="10.318806888006161"><ele>6.0</ele><time>2026-04-04T09:06:32Z</time></trkpt><trkpt lat="43.512063567703976" lon="10.318869898548842"><ele>6.0</ele><time>2026-04-04T09:06:33Z</time></trkpt><trkpt lat="43.512018250227456" lon="10.318935605767743"><ele>6.0</ele><time>2026-04-04T09:06:34Z</time></trkpt><trkpt lat="43.51192305111052" lon="10.319032038428242"><ele>4.75</ele><time>2026-04-04T09:06:36Z</time></trkpt><trkpt lat="43.51184631392335" lon="10.31916122647749"><ele>3.5</ele><time>2026-04-04T09:06:38Z</time></trkpt><trkpt lat="43.511758450107976" lon="10.319269574107548"><ele>2.25</ele><time>2026-04-04T09:06:40Z</time></trkpt><trkpt lat="43.511676068199876" lon="10.319377826031381"><ele>1.0</ele><time>2026-04-04T09:06:42Z</time></trkpt><trkpt lat="43.51158100742058" lon="10.319445510611843"><ele>1.0</ele><time>2026-04-04T09:06:44Z</time></trkpt><trkpt lat="43.5114771273013" lon="10.319499980181376"><ele>1.0</ele><time>2026-04-04T09:06:46Z</time></trkpt><trkpt lat="43.51136521545026" lon="10.319516337314136"><ele>1.0</ele><time>2026-04-04T09:06:48Z</time></trkpt><trkpt lat="43.51124973108157" lon="10.319498772594757"><ele>1.0</ele><time>2026-04-04T09:06:50Z</time></trkpt><trkpt lat="43.511130939923596" lon="10.319473951200393"><ele>1.0</ele><time>2026-04-04T09:06:52Z</time></trkpt><trkpt lat="43.51102603628457" lon="10.319398574441035"><ele>1.0</ele><time>2026-04-04T09:06:54Z</time></trkpt><trkpt lat="43.51091206974567" lon="10.319342622557595"><ele>1.0</ele><time>2026-04-04T09:06:56Z</time></trkpt><trkpt lat="43.51079104824073" lon="10.319283498447238"><ele>1.0</ele><time>2026-04-04T09:06:58Z</time></trkpt><trkpt lat="43.51073098247206" lon="10.319254153760248"><ele>1.0</ele><time>2026-04-04T09:06:59Z</time></trkpt><trkpt lat="43.51067012671485" lon="10.319224422832326"><ele>1.0</ele><time>2026-04-04T09:07:00Z</time></trkpt><trkpt lat="43.51055009713542" lon="10.319174785323158"><ele>1.0</ele><time>2026-04-04T09:07:02Z</time></trkpt><trkpt lat="43.51042651371893" lon="10.31914273821636"><ele>1.0</ele><time>2026-04-04T09:07:04Z</time></trkpt><trkpt lat="43.51036290420189" lon="10.319143246730277"><ele>1.0</ele><time>2026-04-04T09:07:05Z</time></trkpt><trkpt lat="43.510243311265924" lon="10.319144715063015"><ele>1.0</ele><time>2026-04-04T09:07:07Z</time></trkpt><trkpt lat="43.51012188142616" lon="10.31914764631613"><ele>1.4</ele><time>2026-04-04T09:07:09Z</time></trkpt><trkpt lat="43.51000300066078" lon="10.319153747703142"><ele>1.8</ele><time>2026-04-04T09:07:11Z</time></trkpt><trkpt lat="43.50993830112223" lon="10.319157989258644"><ele>2.1999999999999997</ele><time>2026-04-04T09:07:12Z</time></trkpt><trkpt lat="43.50982100768515" lon="10.319170909947294"><ele>2.6</ele><time>2026-04-04T09:07:14Z</time></trkpt><trkpt lat="43.509705041806086" lon="10.319193653539577"><ele>3.0</ele><time>2026-04-04T09:07:16Z</time></trkpt><trkpt lat="43.50958249901864" lon="10.319220269442797"><ele>3.5</ele><time>2026-04-04T09:07:18Z</time></trkpt><trkpt lat="43.50946590069495" lon="10.319246844531955"><ele>4.0</ele><time>2026-04-04T09:07:20Z</time></trkpt><trkpt lat="43.509349702738746" lon="10.319274213472475"><ele>4.5</ele><time>2026-04-04T09:07:22Z</time></trkpt><trkpt lat="43.50924010564947" lon="10.319311055489674"><ele>5.0</ele><time>2026-04-04T09:07:24Z</time></trkpt><trkpt lat="43.509123711349105" lon="10.319347416479998"><ele>5.0</ele><time>2026-04-04T09:07:26Z</time></trkpt><trkpt lat="43.509011171471016" lon="10.31937534220446"><ele>5.0</ele><time>2026-04-04T09:07:28Z</time></trkpt><trkpt lat="43.50889890823698" lon="10.31939747033922"><ele>5.0</ele><time>2026-04-04T09:07:30Z</time></trkpt><trkpt lat="43.5087829992821" lon="10.319422684089211"><ele>5.0</ele><time>2026-04-04T09:07:31.999Z</time></trkpt><trkpt lat="43.508672672156926" lon="10.319450777792484"><ele>4.8</ele><time>2026-04-04T09:07:33.999Z</time></trkpt><trkpt lat="43.508559477905266" lon="10.31947884347422"><ele>4.6</ele><time>2026-04-04T09:07:35.999Z</time></trkpt><trkpt lat="43.508450676335045" lon="10.319498836943607"><ele>4.4</ele><time>2026-04-04T09:07:37.999Z</time></trkpt><trkpt lat="43.50834476588058" lon="10.319524858941609"><ele>4.2</ele><time>2026-04-04T09:07:39.999Z</time></trkpt><trkpt lat="43.508234925151264" lon="10.319557056577144"><ele>4.0</ele><time>2026-04-04T09:07:41.999Z</time></trkpt><trkpt lat="43.50812795878281" lon="10.319581682780656"><ele>4.0</ele><time>2026-04-04T09:07:44Z</time></trkpt><trkpt lat="43.50802304579257" lon="10.319610032818673"><ele>4.0</ele><time>2026-04-04T09:07:46Z</time></trkpt><trkpt lat="43.507911955940884" lon="10.319637303640521"><ele>4.0</ele><time>2026-04-04T09:07:48Z</time></trkpt><trkpt lat="43.50780335792536" lon="10.319640990547027"><ele>4.0</ele><time>2026-04-04T09:07:50Z</time></trkpt><trkpt lat="43.507697055387204" lon="10.319666401240703"><ele>4.0</ele><time>2026-04-04T09:07:52Z</time></trkpt><trkpt lat="43.507592642311664" lon="10.319690196416433"><ele>4.2</ele><time>2026-04-04T09:07:54Z</time></trkpt><trkpt lat="43.50748881574073" lon="10.319744847404078"><ele>4.4</ele><time>2026-04-04T09:07:56Z</time></trkpt><trkpt lat="43.50738045108783" lon="10.319773605004386"><ele>4.6</ele><time>2026-04-04T09:07:58Z</time></trkpt><trkpt lat="43.50726978223343" lon="10.319765609433485"><ele>4.8</ele><time>2026-04-04T09:08:00Z</time></trkpt><trkpt lat="43.507165208106024" lon="10.319790890637597"><ele>5.0</ele><time>2026-04-04T09:08:02Z</time></trkpt><trkpt lat="43.50705939063957" lon="10.31981621004908"><ele>5.2</ele><time>2026-04-04T09:08:04Z</time></trkpt><trkpt lat="43.506953690903" lon="10.319841586228977"><ele>5.4</ele><time>2026-04-04T09:08:06Z</time></trkpt><trkpt lat="43.5068467107436" lon="10.31986798028465"><ele>5.6</ele><time>2026-04-04T09:08:08Z</time></trkpt><trkpt lat="43.5067419240273" lon="10.319893833175373"><ele>5.8</ele><time>2026-04-04T09:08:10Z</time></trkpt><trkpt lat="43.50663389455074" lon="10.319919229015895"><ele>6.0</ele><time>2026-04-04T09:08:12Z</time></trkpt><trkpt lat="43.50652520210625" lon="10.319944714208708"><ele>6.0</ele><time>2026-04-04T09:08:14Z</time></trkpt><trkpt lat="43.50642224407746" lon="10.319969229549216"><ele>6.0</ele><time>2026-04-04T09:08:16Z</time></trkpt><trkpt lat="43.50631649914408" lon="10.320015815634003"><ele>6.0</ele><time>2026-04-04T09:08:18Z</time></trkpt><trkpt lat="43.50620808920493" lon="10.320020378600178"><ele>6.0</ele><time>2026-04-04T09:08:20Z</time></trkpt><trkpt lat="43.506102665616744" lon="10.320045558118307"><ele>6.0</ele><time>2026-04-04T09:08:22Z</time></trkpt><trkpt lat="43.50599853709918" lon="10.320070547356115"><ele>5.3999999999999995</ele><time>2026-04-04T09:08:24Z</time></trkpt><trkpt lat="43.50589225685943" lon="10.320096076647427"><ele>4.8</ele><time>2026-04-04T09:08:26Z</time></trkpt><trkpt lat="43.50578868792461" lon="10.320120952933733"><ele>4.199999999999999</ele><time>2026-04-04T09:08:28Z</time></trkpt><trkpt lat="43.50568448536322" lon="10.320145981472267"><ele>3.5999999999999996</ele><time>2026-04-04T09:08:30Z</time></trkpt><trkpt lat="43.50557976549579" lon="10.320171134236261"><ele>3.0</ele><time>2026-04-04T09:08:32Z</time></trkpt><trkpt lat="43.505471148038154" lon="10.320197223169997"><ele>2.8</ele><time>2026-04-04T09:08:34Z</time></trkpt><trkpt lat="43.50536504650833" lon="10.32022248766946"><ele>2.5999999999999996</ele><time>2026-04-04T09:08:36Z</time></trkpt><trkpt lat="43.50526126873521" lon="10.320246969802161"><ele>2.4000000000000004</ele><time>2026-04-04T09:08:38Z</time></trkpt><trkpt lat="43.505163246527346" lon="10.320270094144302"><ele>2.2</ele><time>2026-04-04T09:08:40Z</time></trkpt><trkpt lat="43.5050613819759" lon="10.320294124932225"><ele>2.0</ele><time>2026-04-04T09:08:42Z</time></trkpt><trkpt lat="43.50496348337493" lon="10.320317071560025"><ele>2.0</ele><time>2026-04-04T09:08:44Z</time></trkpt><trkpt lat="43.50486936674185" lon="10.320353050180469"><ele>2.0</ele><time>2026-04-04T09:08:46Z</time></trkpt><trkpt lat="43.504772774625074" lon="10.320380556751374"><ele>2.0</ele><time>2026-04-04T09:08:48Z</time></trkpt><trkpt lat="43.5046779177567" lon="10.320403130999361"><ele>2.0</ele><time>2026-04-04T09:08:50Z</time></trkpt><trkpt lat="43.50457899681093" lon="10.320425016072766"><ele>2.0</ele><time>2026-04-04T09:08:52Z</time></trkpt><trkpt lat="43.50447783996381" lon="10.320447958132997"><ele>2.2</ele><time>2026-04-04T09:08:54Z</time></trkpt><trkpt lat="43.504378825473374" lon="10.320474705951735"><ele>2.4000000000000004</ele><time>2026-04-04T09:08:56Z</time></trkpt><trkpt lat="43.504278955071236" lon="10.320501165453695"><ele>2.5999999999999996</ele><time>2026-04-04T09:08:58Z</time></trkpt><trkpt lat="43.50418036226282" lon="10.32052068987423"><ele>2.8</ele><time>2026-04-04T09:09:00Z</time></trkpt><trkpt lat="43.50408263125523" lon="10.320543898867538"><ele>3.0</ele><time>2026-04-04T09:09:02Z</time></trkpt><trkpt lat="43.50398187817219" lon="10.320560287137557"><ele>4.0</ele><time>2026-04-04T09:09:04Z</time></trkpt><trkpt lat="43.50388342035112" lon="10.320581486687901"><ele>5.0</ele><time>2026-04-04T09:09:06Z</time></trkpt><trkpt lat="43.50378797278799" lon="10.320613821022402"><ele>6.000000000000001</ele><time>2026-04-04T09:09:08Z</time></trkpt><trkpt lat="43.50369279346039" lon="10.320636145420929"><ele>7.0</ele><time>2026-04-04T09:09:10Z</time></trkpt><trkpt lat="43.503596696750634" lon="10.320668357447248"><ele>8.0</ele><time>2026-04-04T09:09:12Z</time></trkpt><trkpt lat="43.50349554572473" lon="10.320666501091306"><ele>8.200000000000001</ele><time>2026-04-04T09:09:14Z</time></trkpt><trkpt lat="43.50339673014658" lon="10.320688881823001"><ele>8.4</ele><time>2026-04-04T09:09:16Z</time></trkpt><trkpt lat="43.50329835570671" lon="10.320712524107087"><ele>8.600000000000001</ele><time>2026-04-04T09:09:18Z</time></trkpt><trkpt lat="43.50320037172338" lon="10.320736072550778"><ele>8.8</ele><time>2026-04-04T09:09:20Z</time></trkpt><trkpt lat="43.50310164827741" lon="10.320759798708021"><ele>9.0</ele><time>2026-04-04T09:09:22Z</time></trkpt><trkpt lat="43.503003353815195" lon="10.32078342177131"><ele>8.6</ele><time>2026-04-04T09:09:24Z</time></trkpt><trkpt lat="43.50290668538439" lon="10.320806654047795"><ele>8.2</ele><time>2026-04-04T09:09:26Z</time></trkpt><trkpt lat="43.50280835233786" lon="10.320829857061455"><ele>7.799999999999999</ele><time>2026-04-04T09:09:27.999Z</time></trkpt><trkpt lat="43.50271516012383" lon="10.320897780652803"><ele>7.3999999999999995</ele><time>2026-04-04T09:09:29.999Z</time></trkpt><trkpt lat="43.502615524529226" lon="10.320913931396174"><ele>7.0</ele><time>2026-04-04T09:09:31.999Z</time></trkpt><trkpt lat="43.50251073156908" lon="10.320900045301235"><ele>7.0</ele><time>2026-04-04T09:09:33.999Z</time></trkpt><trkpt lat="43.502408167643885" lon="10.320924378934263"><ele>6.999999999999999</ele><time>2026-04-04T09:09:35.999Z</time></trkpt><trkpt lat="43.502306766390156" lon="10.320947667942189"><ele>6.999999999999999</ele><time>2026-04-04T09:09:37.999Z</time></trkpt><trkpt lat="43.50220678428352" lon="10.3209711211221"><ele>7.0</ele><time>2026-04-04T09:09:39.999Z</time></trkpt><trkpt lat="43.50210493131548" lon="10.320995290107765"><ele>7.0</ele><time>2026-04-04T09:09:41.999Z</time></trkpt><trkpt lat="43.50200687629201" lon="10.321018557867278"><ele>7.0</ele><time>2026-04-04T09:09:43.999Z</time></trkpt><trkpt lat="43.50190757919872" lon="10.321042120364723"><ele>6.999999999999999</ele><time>2026-04-04T09:09:45.999Z</time></trkpt><trkpt lat="43.50180933296273" lon="10.32106543350269"><ele>6.999999999999999</ele><time>2026-04-04T09:09:47.999Z</time></trkpt><trkpt lat="43.50171115663402" lon="10.321088730045325"><ele>7.0</ele><time>2026-04-04T09:09:50Z</time></trkpt><trkpt lat="43.50161215940171" lon="10.32111222138337"><ele>7.0</ele><time>2026-04-04T09:09:52Z</time></trkpt><trkpt lat="43.50151140637125" lon="10.321135532372503"><ele>7.0</ele><time>2026-04-04T09:09:54Z</time></trkpt><trkpt lat="43.501411692303975" lon="10.321159725601488"><ele>6.999999999999999</ele><time>2026-04-04T09:09:56Z</time></trkpt><trkpt lat="43.50130824967764" lon="10.32118489894095"><ele>6.999999999999999</ele><time>2026-04-04T09:09:58Z</time></trkpt><trkpt lat="43.50120341372605" lon="10.321211276350857"><ele>7.0</ele><time>2026-04-04T09:10:00Z</time></trkpt><trkpt lat="43.501097138186246" lon="10.321238583001788"><ele>7.0</ele><time>2026-04-04T09:10:02Z</time></trkpt><trkpt lat="43.5010016129326" lon="10.321286386491616"><ele>7.3999999999999995</ele><time>2026-04-04T09:10:04Z</time></trkpt><trkpt lat="43.50090671020939" lon="10.321311964188213"><ele>7.799999999999999</ele><time>2026-04-04T09:10:06Z</time></trkpt><trkpt lat="43.50080765998414" lon="10.32134258746448"><ele>8.2</ele><time>2026-04-04T09:10:08Z</time></trkpt><trkpt lat="43.50071557582663" lon="10.321376612601034"><ele>8.6</ele><time>2026-04-04T09:10:10Z</time></trkpt><trkpt lat="43.50061919551568" lon="10.321403635809562"><ele>9.0</ele><time>2026-04-04T09:10:12Z</time></trkpt><trkpt lat="43.50051187085441" lon="10.321422289266932"><ele>9.25</ele><time>2026-04-04T09:10:14Z</time></trkpt><trkpt lat="43.50040392394236" lon="10.32145692149497"><ele>9.5</ele><time>2026-04-04T09:10:16Z</time></trkpt><trkpt lat="43.50029381040116" lon="10.32149210797081"><ele>9.75</ele><time>2026-04-04T09:10:18Z</time></trkpt><trkpt lat="43.50018221744816" lon="10.321527727364913"><ele>10.0</ele><time>2026-04-04T09:10:20Z</time></trkpt><trkpt lat="43.50006964032543" lon="10.321563660907877"><ele>10.0</ele><time>2026-04-04T09:10:22Z</time></trkpt><trkpt lat="43.49995587942836" lon="10.321599972309674"><ele>10.0</ele><time>2026-04-04T09:10:24Z</time></trkpt><trkpt lat="43.499847787690534" lon="10.321634474165808"><ele>10.0</ele><time>2026-04-04T09:10:26Z</time></trkpt><trkpt lat="43.499733457048066" lon="10.321671433720828"><ele>10.0</ele><time>2026-04-04T09:10:28Z</time></trkpt><trkpt lat="43.49962144868653" lon="10.32170781391852"><ele>9.8</ele><time>2026-04-04T09:10:30Z</time></trkpt><trkpt lat="43.49950754872766" lon="10.321744808510118"><ele>9.6</ele><time>2026-04-04T09:10:32Z</time></trkpt><trkpt lat="43.49938940865253" lon="10.321783180282623"><ele>9.4</ele><time>2026-04-04T09:10:34Z</time></trkpt><trkpt lat="43.499273804603135" lon="10.321820728353899"><ele>9.2</ele><time>2026-04-04T09:10:36Z</time></trkpt><trkpt lat="43.49921164809933" lon="10.321840916722797"><ele>9.0</ele><time>2026-04-04T09:10:37Z</time></trkpt><trkpt lat="43.49915014330469" lon="10.321860893419922"><ele>9.0</ele><time>2026-04-04T09:10:38Z</time></trkpt><trkpt lat="43.499036092074064" lon="10.321897937140152"><ele>9.0</ele><time>2026-04-04T09:10:40Z</time></trkpt><trkpt lat="43.49891409108806" lon="10.32193756294142"><ele>9.0</ele><time>2026-04-04T09:10:42Z</time></trkpt><trkpt lat="43.49879196502853" lon="10.32197722935402"><ele>9.0</ele><time>2026-04-04T09:10:44Z</time></trkpt><trkpt lat="43.49867281239589" lon="10.322016001434989"><ele>7.75</ele><time>2026-04-04T09:10:46Z</time></trkpt><trkpt lat="43.498556019438865" lon="10.322054070555847"><ele>6.5</ele><time>2026-04-04T09:10:48Z</time></trkpt><trkpt lat="43.49843669069962" lon="10.322092966238031"><ele>5.25</ele><time>2026-04-04T09:10:50Z</time></trkpt><trkpt lat="43.498316335127285" lon="10.32213219660089"><ele>4.0</ele><time>2026-04-04T09:10:52Z</time></trkpt><trkpt lat="43.498200549714845" lon="10.322169937309836"><ele>4.0</ele><time>2026-04-04T09:10:54Z</time></trkpt><trkpt lat="43.49808349461451" lon="10.322208301999288"><ele>4.0</ele><time>2026-04-04T09:10:56Z</time></trkpt><trkpt lat="43.49796710893815" lon="10.322246494485531"><ele>4.0</ele><time>2026-04-04T09:10:58Z</time></trkpt><trkpt lat="43.497854773587434" lon="10.322282786921262"><ele>4.0</ele><time>2026-04-04T09:11:00Z</time></trkpt><trkpt lat="43.497738682389965" lon="10.322320460686955"><ele>5.0</ele><time>2026-04-04T09:11:02Z</time></trkpt><trkpt lat="43.49762474993089" lon="10.322357434360168"><ele>6.0</ele><time>2026-04-04T09:11:04Z</time></trkpt><trkpt lat="43.497573946158255" lon="10.322418022254356"><ele>7.0</ele><time>2026-04-04T09:11:05Z</time></trkpt><trkpt lat="43.49746311555132" lon="10.322454090189062"><ele>8.0</ele><time>2026-04-04T09:11:07Z</time></trkpt><trkpt lat="43.49735340010769" lon="10.322494248727507"><ele>9.0</ele><time>2026-04-04T09:11:09Z</time></trkpt><trkpt lat="43.4972427753602" lon="10.322538851885556"><ele>9.0</ele><time>2026-04-04T09:11:11Z</time></trkpt><trkpt lat="43.49712967749348" lon="10.322603807091168"><ele>9.0</ele><time>2026-04-04T09:11:13Z</time></trkpt><trkpt lat="43.49701002354002" lon="10.322654894431025"><ele>9.0</ele><time>2026-04-04T09:11:15Z</time></trkpt><trkpt lat="43.49690234159371" lon="10.322742562490806"><ele>9.0</ele><time>2026-04-04T09:11:17Z</time></trkpt><trkpt lat="43.49679495182914" lon="10.322834371315635"><ele>9.166666666666666</ele><time>2026-04-04T09:11:19Z</time></trkpt><trkpt lat="43.49668560519138" lon="10.322929232525771"><ele>9.333333333333334</ele><time>2026-04-04T09:11:21Z</time></trkpt><trkpt lat="43.49662894687276" lon="10.322978451627714"><ele>9.5</ele><time>2026-04-04T09:11:22Z</time></trkpt><trkpt lat="43.49657210207097" lon="10.323027832718493"><ele>9.666666666666668</ele><time>2026-04-04T09:11:23Z</time></trkpt><trkpt lat="43.4965185802978" lon="10.323074327098652"><ele>9.833333333333334</ele><time>2026-04-04T09:11:24Z</time></trkpt><trkpt lat="43.49645957221244" lon="10.323125587447766"><ele>10.0</ele><time>2026-04-04T09:11:25Z</time></trkpt><trkpt lat="43.49635621496969" lon="10.323215373898547"><ele>10.0</ele><time>2026-04-04T09:11:27Z</time></trkpt><trkpt lat="43.49625425665828" lon="10.323295593432242"><ele>10.0</ele><time>2026-04-04T09:11:29Z</time></trkpt><trkpt lat="43.49614692673793" lon="10.323369576550958"><ele>10.0</ele><time>2026-04-04T09:11:31Z</time></trkpt><trkpt lat="43.496040086117965" lon="10.323419991120508"><ele>10.0</ele><time>2026-04-04T09:11:33Z</time></trkpt><trkpt lat="43.49592956329565" lon="10.323450640651654"><ele>9.25</ele><time>2026-04-04T09:11:35Z</time></trkpt><trkpt lat="43.49581605732252" lon="10.323471241655454"><ele>8.5</ele><time>2026-04-04T09:11:37Z</time></trkpt><trkpt lat="43.49569627610573" lon="10.32348156137452"><ele>7.75</ele><time>2026-04-04T09:11:39Z</time></trkpt><trkpt lat="43.49557547888282" lon="10.323487679721119"><ele>7.0</ele><time>2026-04-04T09:11:41Z</time></trkpt><trkpt lat="43.49546119178084" lon="10.323497579186029"><ele>6.0</ele><time>2026-04-04T09:11:43Z</time></trkpt><trkpt lat="43.4953469809149" lon="10.323509034156695"><ele>5.0</ele><time>2026-04-04T09:11:45Z</time></trkpt><trkpt lat="43.49523446859726" lon="10.323524810413241"><ele>4.0</ele><time>2026-04-04T09:11:47Z</time></trkpt><trkpt lat="43.49512287138428" lon="10.323547134475858"><ele>3.0</ele><time>2026-04-04T09:11:48.999Z</time></trkpt><trkpt lat="43.49501301331264" lon="10.32357493851948"><ele>3.0</ele><time>2026-04-04T09:11:50.999Z</time></trkpt><trkpt lat="43.494902468603506" lon="10.323606844438226"><ele>3.0</ele><time>2026-04-04T09:11:52.999Z</time></trkpt><trkpt lat="43.494787428329914" lon="10.323641351377264"><ele>3.0</ele><time>2026-04-04T09:11:55Z</time></trkpt><trkpt lat="43.49467078512164" lon="10.323678712665265"><ele>3.0</ele><time>2026-04-04T09:11:57Z</time></trkpt><trkpt lat="43.4945563143034" lon="10.323716634241187"><ele>2.6</ele><time>2026-04-04T09:11:59Z</time></trkpt><trkpt lat="43.494448919043556" lon="10.323764311667174"><ele>2.1999999999999997</ele><time>2026-04-04T09:12:01Z</time></trkpt><trkpt lat="43.494341788569606" lon="10.32382066414443"><ele>1.8</ele><time>2026-04-04T09:12:03Z</time></trkpt><trkpt lat="43.49424236091366" lon="10.323885675911948"><ele>1.4</ele><time>2026-04-04T09:12:05Z</time></trkpt><trkpt lat="43.494146145807306" lon="10.323962000429063"><ele>1.0</ele><time>2026-04-04T09:12:07Z</time></trkpt><trkpt lat="43.49405376979577" lon="10.324044891254106"><ele>1.6</ele><time>2026-04-04T09:12:09Z</time></trkpt><trkpt lat="43.49396410840537" lon="10.324130557929555"><ele>2.2</ele><time>2026-04-04T09:12:11Z</time></trkpt><trkpt lat="43.493876362853314" lon="10.324214083394924"><ele>2.8000000000000003</ele><time>2026-04-04T09:12:13Z</time></trkpt><trkpt lat="43.493784203361635" lon="10.324300539620538"><ele>3.4000000000000004</ele><time>2026-04-04T09:12:15Z</time></trkpt><trkpt lat="43.4936964075688" lon="10.32438250392525"><ele>4.0</ele><time>2026-04-04T09:12:17Z</time></trkpt><trkpt lat="43.49360872195743" lon="10.32446448424894"><ele>4.0</ele><time>2026-04-04T09:12:19Z</time></trkpt><trkpt lat="43.493519279671766" lon="10.324548197470591"><ele>4.0</ele><time>2026-04-04T09:12:21Z</time></trkpt><trkpt lat="43.49342842010552" lon="10.324633405841748"><ele>4.0</ele><time>2026-04-04T09:12:23Z</time></trkpt><trkpt lat="43.49334079345567" lon="10.324716114364188"><ele>4.0</ele><time>2026-04-04T09:12:25Z</time></trkpt><trkpt lat="43.49325377903654" lon="10.324796283308048"><ele>4.0</ele><time>2026-04-04T09:12:27Z</time></trkpt><trkpt lat="43.493161552569745" lon="10.324876037405554"><ele>4.4</ele><time>2026-04-04T09:12:29Z</time></trkpt><trkpt lat="43.493067262999126" lon="10.324935675986174"><ele>4.800000000000001</ele><time>2026-04-04T09:12:31Z</time></trkpt><trkpt lat="43.49296619436462" lon="10.324974582626412"><ele>5.199999999999999</ele><time>2026-04-04T09:12:33Z</time></trkpt><trkpt lat="43.492854708167016" lon="10.325012964916587"><ele>5.6</ele><time>2026-04-04T09:12:35Z</time></trkpt><trkpt lat="43.49274801332189" lon="10.325049159415752"><ele>6.0</ele><time>2026-04-04T09:12:37Z</time></trkpt><trkpt lat="43.49264320228168" lon="10.325085076343795"><ele>6.0</ele><time>2026-04-04T09:12:39Z</time></trkpt><trkpt lat="43.49254111687103" lon="10.325120059235742"><ele>6.0</ele><time>2026-04-04T09:12:41Z</time></trkpt><trkpt lat="43.49243167869445" lon="10.325157561789512"><ele>6.0</ele><time>2026-04-04T09:12:43Z</time></trkpt><trkpt lat="43.49232629188393" lon="10.325192976089673"><ele>6.0</ele><time>2026-04-04T09:12:45Z</time></trkpt><trkpt lat="43.492217850490405" lon="10.325229260832794"><ele>6.0</ele><time>2026-04-04T09:12:47Z</time></trkpt><trkpt lat="43.49210575100612" lon="10.325266698985748"><ele>6.75</ele><time>2026-04-04T09:12:49Z</time></trkpt><trkpt lat="43.49199529662226" lon="10.325303547143504"><ele>7.5</ele><time>2026-04-04T09:12:51Z</time></trkpt><trkpt lat="43.491886704435935" lon="10.325339965807947"><ele>8.25</ele><time>2026-04-04T09:12:53Z</time></trkpt><trkpt lat="43.49177595008103" lon="10.325377389767015"><ele>9.0</ele><time>2026-04-04T09:12:55Z</time></trkpt><trkpt lat="43.491657956521266" lon="10.325417261609303"><ele>9.0</ele><time>2026-04-04T09:12:57Z</time></trkpt><trkpt lat="43.491543564343964" lon="10.32545591477035"><ele>9.0</ele><time>2026-04-04T09:12:59Z</time></trkpt><trkpt lat="43.49142650095309" lon="10.325497662580059"><ele>9.0</ele><time>2026-04-04T09:13:01Z</time></trkpt><trkpt lat="43.49131658636074" lon="10.325565188541137"><ele>9.0</ele><time>2026-04-04T09:13:03Z</time></trkpt><trkpt lat="43.4912024185883" lon="10.32560361461789"><ele>8.75</ele><time>2026-04-04T09:13:05Z</time></trkpt><trkpt lat="43.49109577191082" lon="10.3256775768102"><ele>8.5</ele><time>2026-04-04T09:13:07Z</time></trkpt><trkpt lat="43.49100676538067" lon="10.325782525562046"><ele>8.25</ele><time>2026-04-04T09:13:09Z</time></trkpt><trkpt lat="43.49091062478698" lon="10.325873424617606"><ele>8.0</ele><time>2026-04-04T09:13:11Z</time></trkpt><trkpt lat="43.49082531866233" lon="10.32597023336493"><ele>8.0</ele><time>2026-04-04T09:13:13Z</time></trkpt><trkpt lat="43.49073857302778" lon="10.326078857909383"><ele>8.0</ele><time>2026-04-04T09:13:15Z</time></trkpt><trkpt lat="43.49066270852222" lon="10.326190865090352"><ele>8.0</ele><time>2026-04-04T09:13:17Z</time></trkpt><trkpt lat="43.49059563786124" lon="10.326313898081109"><ele>8.0</ele><time>2026-04-04T09:13:19Z</time></trkpt><trkpt lat="43.49054487877633" lon="10.32644357057863"><ele>8.0</ele><time>2026-04-04T09:13:21Z</time></trkpt><trkpt lat="43.49049199631666" lon="10.326570219934144"><ele>8.4</ele><time>2026-04-04T09:13:23Z</time></trkpt><trkpt lat="43.49044584518899" lon="10.326706707283755"><ele>8.8</ele><time>2026-04-04T09:13:25Z</time></trkpt><trkpt lat="43.49039618182113" lon="10.326839254894416"><ele>9.2</ele><time>2026-04-04T09:13:27Z</time></trkpt><trkpt lat="43.490347383999286" lon="10.326972408696728"><ele>9.6</ele><time>2026-04-04T09:13:29Z</time></trkpt><trkpt lat="43.49029762068502" lon="10.327098836416324"><ele>10.0</ele><time>2026-04-04T09:13:31Z</time></trkpt><trkpt lat="43.490250864066354" lon="10.327227216467875"><ele>10.8</ele><time>2026-04-04T09:13:33Z</time></trkpt><trkpt lat="43.490207107032084" lon="10.327353764471786"><ele>11.6</ele><time>2026-04-04T09:13:35Z</time></trkpt><trkpt lat="43.49015612309419" lon="10.327474535243299"><ele>12.399999999999999</ele><time>2026-04-04T09:13:37Z</time></trkpt><trkpt lat="43.49011082284783" lon="10.32759531513307"><ele>13.2</ele><time>2026-04-04T09:13:39Z</time></trkpt><trkpt lat="43.49006957472531" lon="10.327716883048717"><ele>14.0</ele><time>2026-04-04T09:13:41Z</time></trkpt><trkpt lat="43.49001894924442" lon="10.32783694597588"><ele>14.0</ele><time>2026-04-04T09:13:43Z</time></trkpt><trkpt lat="43.48997462820254" lon="10.327950781480961"><ele>13.999999999999998</ele><time>2026-04-04T09:13:45Z</time></trkpt><trkpt lat="43.48992267609598" lon="10.328064763465505"><ele>13.999999999999998</ele><time>2026-04-04T09:13:47Z</time></trkpt><trkpt lat="43.48988342915308" lon="10.32818401067231"><ele>14.0</ele><time>2026-04-04T09:13:49Z</time></trkpt><trkpt lat="43.48984460036125" lon="10.328300892266345"><ele>14.0</ele><time>2026-04-04T09:13:51Z</time></trkpt><trkpt lat="43.48979674023453" lon="10.328418061172886"><ele>14.2</ele><time>2026-04-04T09:13:53Z</time></trkpt><trkpt lat="43.48975215575459" lon="10.328531854192992"><ele>14.399999999999999</ele><time>2026-04-04T09:13:55Z</time></trkpt><trkpt lat="43.48971087546666" lon="10.328646059703255"><ele>14.6</ele><time>2026-04-04T09:13:57Z</time></trkpt><trkpt lat="43.48966288552238" lon="10.32875810037997"><ele>14.8</ele><time>2026-04-04T09:13:59Z</time></trkpt><trkpt lat="43.48961728107337" lon="10.3288771139292"><ele>15.0</ele><time>2026-04-04T09:14:01Z</time></trkpt><trkpt lat="43.48957254212945" lon="10.328994692982542"><ele>15.0</ele><time>2026-04-04T09:14:03Z</time></trkpt><trkpt lat="43.48952666524334" lon="10.329102866680655"><ele>15.0</ele><time>2026-04-04T09:14:05Z</time></trkpt><trkpt lat="43.489472961135924" lon="10.329207157418885"><ele>15.0</ele><time>2026-04-04T09:14:07Z</time></trkpt><trkpt lat="43.48940081619426" lon="10.329294233109673"><ele>15.0</ele><time>2026-04-04T09:14:09Z</time></trkpt><trkpt lat="43.48933159064651" lon="10.329387363282272"><ele>15.0</ele><time>2026-04-04T09:14:11Z</time></trkpt><trkpt lat="43.48923253271738" lon="10.329425503350995"><ele>15.0</ele><time>2026-04-04T09:14:13Z</time></trkpt><trkpt lat="43.4891436979245" lon="10.329474521050829"><ele>15.0</ele><time>2026-04-04T09:14:15Z</time></trkpt><trkpt lat="43.489051290179084" lon="10.329525510242831"><ele>15.0</ele><time>2026-04-04T09:14:17Z</time></trkpt><trkpt lat="43.488955409614206" lon="10.329578415675586"><ele>15.0</ele><time>2026-04-04T09:14:19Z</time></trkpt><trkpt lat="43.48886207587928" lon="10.32962991582923"><ele>15.0</ele><time>2026-04-04T09:14:21Z</time></trkpt><trkpt lat="43.488769117069765" lon="10.329680997224658"><ele>15.6</ele><time>2026-04-04T09:14:23Z</time></trkpt><trkpt lat="43.48867910048745" lon="10.329730342633557"><ele>16.2</ele><time>2026-04-04T09:14:25Z</time></trkpt><trkpt lat="43.48859179541807" lon="10.329778067732661"><ele>16.8</ele><time>2026-04-04T09:14:27Z</time></trkpt><trkpt lat="43.48850781128374" lon="10.32986048504281"><ele>17.4</ele><time>2026-04-04T09:14:29Z</time></trkpt><trkpt lat="43.488417368865235" lon="10.329915321425933"><ele>18.0</ele><time>2026-04-04T09:14:31Z</time></trkpt><trkpt lat="43.488323419244374" lon="10.329963861574713"><ele>18.0</ele><time>2026-04-04T09:14:33Z</time></trkpt><trkpt lat="43.488231975754395" lon="10.33001610608584"><ele>18.0</ele><time>2026-04-04T09:14:35Z</time></trkpt><trkpt lat="43.48812900631976" lon="10.330033660638506"><ele>18.0</ele><time>2026-04-04T09:14:37Z</time></trkpt><trkpt lat="43.488046268587745" lon="10.330117162611323"><ele>18.0</ele><time>2026-04-04T09:14:39Z</time></trkpt><trkpt lat="43.4879510447899" lon="10.330168922848175"><ele>18.0</ele><time>2026-04-04T09:14:41Z</time></trkpt><trkpt lat="43.487859485579484" lon="10.330217934950806"><ele>17.4</ele><time>2026-04-04T09:14:43Z</time></trkpt><trkpt lat="43.487760603555465" lon="10.330267374170722"><ele>16.8</ele><time>2026-04-04T09:14:45Z</time></trkpt><trkpt lat="43.48765382679143" lon="10.330288299829943"><ele>16.2</ele><time>2026-04-04T09:14:47Z</time></trkpt><trkpt lat="43.48756307090139" lon="10.330372505355662"><ele>15.6</ele><time>2026-04-04T09:14:49Z</time></trkpt><trkpt lat="43.48746873860297" lon="10.330426108144067"><ele>15.0</ele><time>2026-04-04T09:14:51Z</time></trkpt><trkpt lat="43.48737388636876" lon="10.330479100638774"><ele>15.0</ele><time>2026-04-04T09:14:53Z</time></trkpt><trkpt lat="43.48727891861544" lon="10.330526541589885"><ele>15.0</ele><time>2026-04-04T09:14:55Z</time></trkpt><trkpt lat="43.48718211739052" lon="10.330580977188507"><ele>15.0</ele><time>2026-04-04T09:14:57Z</time></trkpt><trkpt lat="43.4870771115815" lon="10.33059749632528"><ele>15.0</ele><time>2026-04-04T09:14:59Z</time></trkpt><trkpt lat="43.486979038616944" lon="10.330649599725952"><ele>15.0</ele><time>2026-04-04T09:15:01Z</time></trkpt><trkpt lat="43.48688467751232" lon="10.330699791758851"><ele>15.8</ele><time>2026-04-04T09:15:03Z</time></trkpt><trkpt lat="43.48678925516664" lon="10.330750548332137"><ele>16.6</ele><time>2026-04-04T09:15:05Z</time></trkpt><trkpt lat="43.48669494359709" lon="10.330800714036798"><ele>17.4</ele><time>2026-04-04T09:15:07Z</time></trkpt><trkpt lat="43.48659780637722" lon="10.330852382784526"><ele>18.2</ele><time>2026-04-04T09:15:09Z</time></trkpt><trkpt lat="43.486501907193" lon="10.33090339298949"><ele>19.0</ele><time>2026-04-04T09:15:11Z</time></trkpt><trkpt lat="43.48640602534099" lon="10.330954617761547"><ele>19.0</ele><time>2026-04-04T09:15:13Z</time></trkpt><trkpt lat="43.48631289552849" lon="10.331004601785924"><ele>19.0</ele><time>2026-04-04T09:15:15Z</time></trkpt><trkpt lat="43.48621484248435" lon="10.331057228150893"><ele>19.0</ele><time>2026-04-04T09:15:17Z</time></trkpt><trkpt lat="43.486117262993226" lon="10.331109600361321"><ele>19.0</ele><time>2026-04-04T09:15:19Z</time></trkpt><trkpt lat="43.486022068651906" lon="10.331160692425213"><ele>19.0</ele><time>2026-04-04T09:15:21Z</time></trkpt><trkpt lat="43.485940517613365" lon="10.331267844156569"><ele>18.599999999999998</ele><time>2026-04-04T09:15:23Z</time></trkpt><trkpt lat="43.48583834107761" lon="10.331319565126611"><ele>18.2</ele><time>2026-04-04T09:15:25Z</time></trkpt><trkpt lat="43.485738227969414" lon="10.33137470795486"><ele>17.799999999999997</ele><time>2026-04-04T09:15:27Z</time></trkpt><trkpt lat="43.485620277637786" lon="10.331378358572163"><ele>17.4</ele><time>2026-04-04T09:15:29Z</time></trkpt><trkpt lat="43.48558457777005" lon="10.331452237122425"><ele>17.0</ele><time>2026-04-04T09:15:30Z</time></trkpt><trkpt lat="43.48548035508097" lon="10.331507299831681"><ele>17.25</ele><time>2026-04-04T09:15:32Z</time></trkpt><trkpt lat="43.485364329694875" lon="10.331518280277171"><ele>17.5</ele><time>2026-04-04T09:15:34Z</time></trkpt><trkpt lat="43.48525874080421" lon="10.331576156036949"><ele>17.75</ele><time>2026-04-04T09:15:36Z</time></trkpt><trkpt lat="43.48515607676928" lon="10.331632428605971"><ele>18.0</ele><time>2026-04-04T09:15:38Z</time></trkpt><trkpt lat="43.485052151891935" lon="10.331689392263385"><ele>18.0</ele><time>2026-04-04T09:15:40Z</time></trkpt><trkpt lat="43.48494605161016" lon="10.331747548843211"><ele>18.0</ele><time>2026-04-04T09:15:42Z</time></trkpt><trkpt lat="43.48484012503949" lon="10.33180755392719"><ele>18.0</ele><time>2026-04-04T09:15:44Z</time></trkpt><trkpt lat="43.48473843273234" lon="10.331863509026114"><ele>18.0</ele><time>2026-04-04T09:15:46Z</time></trkpt><trkpt lat="43.48463094569869" lon="10.331923785654634"><ele>15.0</ele><time>2026-04-04T09:15:48Z</time></trkpt><trkpt lat="43.48451991378986" lon="10.33198605013026"><ele>12.0</ele><time>2026-04-04T09:15:50Z</time></trkpt><trkpt lat="43.484414541927926" lon="10.332045349832901"><ele>9.0</ele><time>2026-04-04T09:15:52Z</time></trkpt><trkpt lat="43.484303056249985" lon="10.332108092757077"><ele>6.0</ele><time>2026-04-04T09:15:54Z</time></trkpt><trkpt lat="43.484186046792416" lon="10.332173944922912"><ele>6.5</ele><time>2026-04-04T09:15:56Z</time></trkpt><trkpt lat="43.48407733719877" lon="10.332239406169066"><ele>7.0</ele><time>2026-04-04T09:15:58Z</time></trkpt><trkpt lat="43.4840332530319" lon="10.332316425164745"><ele>7.5</ele><time>2026-04-04T09:15:59Z</time></trkpt><trkpt lat="43.483922160273636" lon="10.332394565425727"><ele>8.0</ele><time>2026-04-04T09:16:00.999Z</time></trkpt><trkpt lat="43.48386466424742" lon="10.332433724980053"><ele>8.5</ele><time>2026-04-04T09:16:01.999Z</time></trkpt><trkpt lat="43.48380507904282" lon="10.332477753345499"><ele>9.0</ele><time>2026-04-04T09:16:02.999Z</time></trkpt><trkpt lat="43.483739833336095" lon="10.332503902843344"><ele>9.000000000000002</ele><time>2026-04-04T09:16:03.999Z</time></trkpt><trkpt lat="43.483631109443074" lon="10.332587831891292"><ele>9.0</ele><time>2026-04-04T09:16:05.999Z</time></trkpt><trkpt lat="43.483575832937014" lon="10.332629564058587"><ele>9.0</ele><time>2026-04-04T09:16:07Z</time></trkpt><trkpt lat="43.48352574557661" lon="10.332686737672844"><ele>9.0</ele><time>2026-04-04T09:16:08Z</time></trkpt><trkpt lat="43.483469673298515" lon="10.332726802675086"><ele>9.0</ele><time>2026-04-04T09:16:09Z</time></trkpt><trkpt lat="43.483407928416" lon="10.332746182202653"><ele>9.000000000000002</ele><time>2026-04-04T09:16:10Z</time></trkpt><trkpt lat="43.48335738049352" lon="10.332804420194508"><ele>9.0</ele><time>2026-04-04T09:16:11Z</time></trkpt><trkpt lat="43.48324148379902" lon="10.332874483955848"><ele>9.0</ele><time>2026-04-04T09:16:13Z</time></trkpt><trkpt lat="43.483182825734005" lon="10.332910831719754"><ele>9.0</ele><time>2026-04-04T09:16:14Z</time></trkpt><trkpt lat="43.48311995259634" lon="10.332946654403456"><ele>9.0</ele><time>2026-04-04T09:16:15Z</time></trkpt><trkpt lat="43.48306028520449" lon="10.332980943338393"><ele>9.0</ele><time>2026-04-04T09:16:16Z</time></trkpt><trkpt lat="43.483001283598526" lon="10.333013088997186"><ele>9.0</ele><time>2026-04-04T09:16:17Z</time></trkpt><trkpt lat="43.48288627443657" lon="10.33306807600233"><ele>9.0</ele><time>2026-04-04T09:16:19Z</time></trkpt><trkpt lat="43.48277030624957" lon="10.333122692845846"><ele>10.666666666666666</ele><time>2026-04-04T09:16:21Z</time></trkpt><trkpt lat="43.482707136429894" lon="10.333141872755048"><ele>12.333333333333332</ele><time>2026-04-04T09:16:22Z</time></trkpt><trkpt lat="43.48264687005043" lon="10.333167862147118"><ele>14.0</ele><time>2026-04-04T09:16:23Z</time></trkpt><trkpt lat="43.48258524726621" lon="10.333192384569958"><ele>15.666666666666666</ele><time>2026-04-04T09:16:24Z</time></trkpt><trkpt lat="43.48252478899679" lon="10.333217083513146"><ele>17.333333333333332</ele><time>2026-04-04T09:16:25Z</time></trkpt><trkpt lat="43.48240604470941" lon="10.333258807519728"><ele>19.0</ele><time>2026-04-04T09:16:27Z</time></trkpt><trkpt lat="43.48228691624814" lon="10.333288369683181"><ele>19.0</ele><time>2026-04-04T09:16:29Z</time></trkpt><trkpt lat="43.48216379201088" lon="10.33331660368079"><ele>19.0</ele><time>2026-04-04T09:16:31Z</time></trkpt><trkpt lat="43.48210038483515" lon="10.333318633134887"><ele>19.0</ele><time>2026-04-04T09:16:32Z</time></trkpt><trkpt lat="43.48203810604305" lon="10.333332664201503"><ele>19.0</ele><time>2026-04-04T09:16:33Z</time></trkpt><trkpt lat="43.48191465943623" lon="10.333343204967091"><ele>19.0</ele><time>2026-04-04T09:16:35Z</time></trkpt><trkpt lat="43.481849663702164" lon="10.333344191204427"><ele>19.0</ele><time>2026-04-04T09:16:36Z</time></trkpt><trkpt lat="43.48172920455874" lon="10.333362139495806"><ele>18.666666666666664</ele><time>2026-04-04T09:16:38Z</time></trkpt><trkpt lat="43.481608580502694" lon="10.333366368305377"><ele>18.333333333333332</ele><time>2026-04-04T09:16:40Z</time></trkpt><trkpt lat="43.481541680794706" lon="10.333349915118824"><ele>18.0</ele><time>2026-04-04T09:16:41Z</time></trkpt><trkpt lat="43.48147823989316" lon="10.333347449323533"><ele>17.666666666666668</ele><time>2026-04-04T09:16:42Z</time></trkpt><trkpt lat="43.48135871374554" lon="10.333358870370958"><ele>17.333333333333336</ele><time>2026-04-04T09:16:44Z</time></trkpt><trkpt lat="43.481294594336376" lon="10.33336258834218"><ele>17.0</ele><time>2026-04-04T09:16:45Z</time></trkpt><trkpt lat="43.48122932786124" lon="10.333361089861432"><ele>17.0</ele><time>2026-04-04T09:16:46Z</time></trkpt><trkpt lat="43.481104909504175" lon="10.333362216922447"><ele>17.0</ele><time>2026-04-04T09:16:48Z</time></trkpt><trkpt lat="43.480981361546256" lon="10.333374691399593"><ele>17.0</ele><time>2026-04-04T09:16:50Z</time></trkpt><trkpt lat="43.48085977687914" lon="10.333384141451587"><ele>17.0</ele><time>2026-04-04T09:16:52Z</time></trkpt><trkpt lat="43.480794908371" lon="10.333379711084055"><ele>17.0</ele><time>2026-04-04T09:16:53Z</time></trkpt><trkpt lat="43.48072721579634" lon="10.333369367511292"><ele>16.999999999999996</ele><time>2026-04-04T09:16:54Z</time></trkpt><trkpt lat="43.48066168200749" lon="10.333372187007946"><ele>17.0</ele><time>2026-04-04T09:16:55Z</time></trkpt><trkpt lat="43.48059570800585" lon="10.33338280632961"><ele>17.0</ele><time>2026-04-04T09:16:56Z</time></trkpt><trkpt lat="43.4805281548009" lon="10.333379688994908"><ele>17.0</ele><time>2026-04-04T09:16:57Z</time></trkpt><trkpt lat="43.4804554539394" lon="10.333381550771373"><ele>17.0</ele><time>2026-04-04T09:16:58Z</time></trkpt><trkpt lat="43.48038232481522" lon="10.333385765322706"><ele>16.999999999999996</ele><time>2026-04-04T09:16:59Z</time></trkpt><trkpt lat="43.48030705740739" lon="10.333389863826888"><ele>17.0</ele><time>2026-04-04T09:17:00Z</time></trkpt><trkpt lat="43.4802319285608" lon="10.333389665876982"><ele>16.57142857142857</ele><time>2026-04-04T09:17:01Z</time></trkpt><trkpt lat="43.480156492377546" lon="10.333387855048118"><ele>16.142857142857142</ele><time>2026-04-04T09:17:02Z</time></trkpt><trkpt lat="43.48008103250896" lon="10.33338035770388"><ele>15.714285714285714</ele><time>2026-04-04T09:17:03Z</time></trkpt><trkpt lat="43.480011971885226" lon="10.333367512307175"><ele>15.285714285714285</ele><time>2026-04-04T09:17:04Z</time></trkpt><trkpt lat="43.479933495114146" lon="10.333348131434136"><ele>14.857142857142858</ele><time>2026-04-04T09:17:05Z</time></trkpt><trkpt lat="43.47986798595713" lon="10.33332958402548"><ele>14.428571428571429</ele><time>2026-04-04T09:17:06Z</time></trkpt><trkpt lat="43.4798022028719" lon="10.333308560124125"><ele>14.0</ele><time>2026-04-04T09:17:07Z</time></trkpt><trkpt lat="43.47973663365926" lon="10.33328502607964"><ele>14.0</ele><time>2026-04-04T09:17:08Z</time></trkpt><trkpt lat="43.47966994522865" lon="10.333263676015214"><ele>14.0</ele><time>2026-04-04T09:17:09Z</time></trkpt><trkpt lat="43.479606540273096" lon="10.333236776421302"><ele>14.0</ele><time>2026-04-04T09:17:10Z</time></trkpt><trkpt lat="43.479543521497156" lon="10.33321119270719"><ele>14.0</ele><time>2026-04-04T09:17:11Z</time></trkpt><trkpt lat="43.47948066827858" lon="10.333182541826954"><ele>14.0</ele><time>2026-04-04T09:17:12Z</time></trkpt><trkpt lat="43.47941689660166" lon="10.333155571112167"><ele>14.0</ele><time>2026-04-04T09:17:13Z</time></trkpt><trkpt lat="43.47935455962486" lon="10.333122770508265"><ele>14.0</ele><time>2026-04-04T09:17:14Z</time></trkpt><trkpt lat="43.47929199919484" lon="10.333091383611187"><ele>14.666666666666668</ele><time>2026-04-04T09:17:15Z</time></trkpt><trkpt lat="43.47922926831507" lon="10.333058572597329"><ele>15.333333333333334</ele><time>2026-04-04T09:17:16Z</time></trkpt><trkpt lat="43.47916711638674" lon="10.33302337399257"><ele>16.0</ele><time>2026-04-04T09:17:17Z</time></trkpt><trkpt lat="43.47910258705313" lon="10.332985003892981"><ele>16.666666666666668</ele><time>2026-04-04T09:17:18Z</time></trkpt><trkpt lat="43.4789911270492" lon="10.332907693696486"><ele>17.333333333333332</ele><time>2026-04-04T09:17:20Z</time></trkpt><trkpt lat="43.478932954323305" lon="10.332863227772188"><ele>18.0</ele><time>2026-04-04T09:17:21Z</time></trkpt><trkpt lat="43.478879524845695" lon="10.332815896219117"><ele>18.333333333333332</ele><time>2026-04-04T09:17:22Z</time></trkpt><trkpt lat="43.478770871601036" lon="10.332720286435958"><ele>18.666666666666668</ele><time>2026-04-04T09:17:24Z</time></trkpt><trkpt lat="43.478721387020755" lon="10.332659239552433"><ele>19.0</ele><time>2026-04-04T09:17:25Z</time></trkpt><trkpt lat="43.47867760808407" lon="10.33259230865444"><ele>19.333333333333336</ele><time>2026-04-04T09:17:26Z</time></trkpt><trkpt lat="43.47863717271756" lon="10.332523705197938"><ele>19.666666666666668</ele><time>2026-04-04T09:17:27Z</time></trkpt><trkpt lat="43.47859932365064" lon="10.332454036625787"><ele>20.0</ele><time>2026-04-04T09:17:28Z</time></trkpt><trkpt lat="43.47853173077268" lon="10.332316250039574"><ele>17.0</ele><time>2026-04-04T09:17:30Z</time></trkpt><trkpt lat="43.47846333769155" lon="10.332186838051776"><ele>14.0</ele><time>2026-04-04T09:17:32Z</time></trkpt><trkpt lat="43.47839413208735" lon="10.332058946806349"><ele>11.0</ele><time>2026-04-04T09:17:34Z</time></trkpt><trkpt lat="43.478309513171766" lon="10.331945614810707"><ele>8.0</ele><time>2026-04-04T09:17:36Z</time></trkpt><trkpt lat="43.47822202867739" lon="10.331825748576055"><ele>7.999999999999999</ele><time>2026-04-04T09:17:38Z</time></trkpt><trkpt lat="43.47818431484877" lon="10.331750270258198"><ele>8.0</ele><time>2026-04-04T09:17:39Z</time></trkpt><trkpt lat="43.478095170995964" lon="10.331634310140283"><ele>8.0</ele><time>2026-04-04T09:17:41Z</time></trkpt><trkpt lat="43.478046505030655" lon="10.331573268980732"><ele>8.0</ele><time>2026-04-04T09:17:42Z</time></trkpt><trkpt lat="43.477995176103995" lon="10.331510009208012"><ele>7.999999999999999</ele><time>2026-04-04T09:17:43Z</time></trkpt><trkpt lat="43.47792227363256" lon="10.331444016283006"><ele>8.0</ele><time>2026-04-04T09:17:45Z</time></trkpt><trkpt lat="43.47783192687578" lon="10.331337791999868"><ele>8.5</ele><time>2026-04-04T09:17:47Z</time></trkpt><trkpt lat="43.47774464245966" lon="10.33123495041858"><ele>9.0</ele><time>2026-04-04T09:17:49Z</time></trkpt><trkpt lat="43.47766417367733" lon="10.331126342919186"><ele>9.5</ele><time>2026-04-04T09:17:51Z</time></trkpt><trkpt lat="43.47757794315833" lon="10.331023549367735"><ele>10.0</ele><time>2026-04-04T09:17:53Z</time></trkpt><trkpt lat="43.4774918229145" lon="10.3309110172298"><ele>10.0</ele><time>2026-04-04T09:17:55Z</time></trkpt><trkpt lat="43.477392370689785" lon="10.330819308700875"><ele>10.0</ele><time>2026-04-04T09:17:57Z</time></trkpt><trkpt lat="43.477282534533096" lon="10.330759248735124"><ele>10.0</ele><time>2026-04-04T09:17:59Z</time></trkpt><trkpt lat="43.47717446651348" lon="10.33069576997043"><ele>10.0</ele><time>2026-04-04T09:18:01Z</time></trkpt><trkpt lat="43.47706352365355" lon="10.330635366933752"><ele>9.25</ele><time>2026-04-04T09:18:03Z</time></trkpt><trkpt lat="43.47695276234713" lon="10.330577415440056"><ele>8.5</ele><time>2026-04-04T09:18:05Z</time></trkpt><trkpt lat="43.47685077703599" lon="10.330524954286933"><ele>7.75</ele><time>2026-04-04T09:18:07Z</time></trkpt><trkpt lat="43.47673825236592" lon="10.330466350715914"><ele>7.0</ele><time>2026-04-04T09:18:08.999Z</time></trkpt><trkpt lat="43.47663901662483" lon="10.33038350873023"><ele>7.0</ele><time>2026-04-04T09:18:10.999Z</time></trkpt><trkpt lat="43.47652303098892" lon="10.330341696294143"><ele>6.999999999999999</ele><time>2026-04-04T09:18:13Z</time></trkpt><trkpt lat="43.47640442274195" lon="10.330316860620382"><ele>6.999999999999999</ele><time>2026-04-04T09:18:15Z</time></trkpt><trkpt lat="43.4762867480085" lon="10.330314608091163"><ele>7.0</ele><time>2026-04-04T09:18:17Z</time></trkpt><trkpt lat="43.47621928113944" lon="10.330332972764486"><ele>7.0</ele><time>2026-04-04T09:18:18Z</time></trkpt><trkpt lat="43.47610227974457" lon="10.330383742986632"><ele>6.5</ele><time>2026-04-04T09:18:20Z</time></trkpt><trkpt lat="43.475997995848665" lon="10.330476403884385"><ele>6.0</ele><time>2026-04-04T09:18:22Z</time></trkpt><trkpt lat="43.475884335860734" lon="10.330540755465126"><ele>5.5</ele><time>2026-04-04T09:18:24Z</time></trkpt><trkpt lat="43.47579874271017" lon="10.33065642601199"><ele>5.0</ele><time>2026-04-04T09:18:26Z</time></trkpt><trkpt lat="43.47569576052103" lon="10.330748246350444"><ele>5.8</ele><time>2026-04-04T09:18:28Z</time></trkpt><trkpt lat="43.47560163706144" lon="10.33085643590453"><ele>6.6</ele><time>2026-04-04T09:18:30Z</time></trkpt><trkpt lat="43.475550918988425" lon="10.330914668687761"><ele>7.4</ele><time>2026-04-04T09:18:31Z</time></trkpt><trkpt lat="43.47545570281087" lon="10.331016318212"><ele>8.2</ele><time>2026-04-04T09:18:33Z</time></trkpt><trkpt lat="43.475351659504206" lon="10.331087921497343"><ele>9.0</ele><time>2026-04-04T09:18:35Z</time></trkpt><trkpt lat="43.47523840178695" lon="10.331130528780038"><ele>9.0</ele><time>2026-04-04T09:18:37Z</time></trkpt><trkpt lat="43.475115578142166" lon="10.331145334309738"><ele>9.0</ele><time>2026-04-04T09:18:39Z</time></trkpt><trkpt lat="43.474990896448425" lon="10.331139966881516"><ele>9.0</ele><time>2026-04-04T09:18:41Z</time></trkpt><trkpt lat="43.47486823248615" lon="10.331122533573689"><ele>9.0</ele><time>2026-04-04T09:18:43Z</time></trkpt><trkpt lat="43.474798637099205" lon="10.33111351303698"><ele>9.0</ele><time>2026-04-04T09:18:44Z</time></trkpt><trkpt lat="43.474677772146954" lon="10.33109628456508"><ele>8.8</ele><time>2026-04-04T09:18:46Z</time></trkpt><trkpt lat="43.47455206116546" lon="10.331077985841533"><ele>8.600000000000001</ele><time>2026-04-04T09:18:48Z</time></trkpt><trkpt lat="43.47442832391192" lon="10.331060459438362"><ele>8.4</ele><time>2026-04-04T09:18:50Z</time></trkpt><trkpt lat="43.47436517459433" lon="10.331052562571209"><ele>8.200000000000001</ele><time>2026-04-04T09:18:51Z</time></trkpt><trkpt lat="43.47429588668915" lon="10.331047434315106"><ele>8.0</ele><time>2026-04-04T09:18:52Z</time></trkpt><trkpt lat="43.4741734650069" lon="10.33105459447416"><ele>7.999999999999999</ele><time>2026-04-04T09:18:54Z</time></trkpt><trkpt lat="43.47410418390397" lon="10.331080577114065"><ele>8.0</ele><time>2026-04-04T09:18:55Z</time></trkpt><trkpt lat="43.47404461126042" lon="10.331112482450331"><ele>8.0</ele><time>2026-04-04T09:18:56Z</time></trkpt><trkpt lat="43.473933663627925" lon="10.33119530620167"><ele>8.0</ele><time>2026-04-04T09:18:58Z</time></trkpt><trkpt lat="43.47387800686245" lon="10.331239114169277"><ele>7.999999999999999</ele><time>2026-04-04T09:18:59Z</time></trkpt><trkpt lat="43.4737754767233" lon="10.331321410855647"><ele>8.0</ele><time>2026-04-04T09:19:01Z</time></trkpt><trkpt lat="43.47367415813068" lon="10.331403615472393"><ele>9.25</ele><time>2026-04-04T09:19:03Z</time></trkpt><trkpt lat="43.473566133453645" lon="10.331492745091738"><ele>10.5</ele><time>2026-04-04T09:19:05Z</time></trkpt><trkpt lat="43.473467602515605" lon="10.331574041517698"><ele>11.75</ele><time>2026-04-04T09:19:07Z</time></trkpt><trkpt lat="43.473360017569725" lon="10.331664823129449"><ele>13.0</ele><time>2026-04-04T09:19:09Z</time></trkpt><trkpt lat="43.47326433275243" lon="10.331753164419524"><ele>13.0</ele><time>2026-04-04T09:19:11Z</time></trkpt><trkpt lat="43.47317191027143" lon="10.331869439566484"><ele>13.0</ele><time>2026-04-04T09:19:13Z</time></trkpt><trkpt lat="43.47309107542122" lon="10.332002242387844"><ele>13.0</ele><time>2026-04-04T09:19:15Z</time></trkpt><trkpt lat="43.47302623168838" lon="10.3321394358791"><ele>13.0</ele><time>2026-04-04T09:19:17Z</time></trkpt><trkpt lat="43.47299145812781" lon="10.332219727473724"><ele>13.0</ele><time>2026-04-04T09:19:18Z</time></trkpt><trkpt lat="43.47295710599047" lon="10.332299045280674"><ele>12.166666666666666</ele><time>2026-04-04T09:19:19Z</time></trkpt><trkpt lat="43.472924155140575" lon="10.332375127742312"><ele>11.333333333333332</ele><time>2026-04-04T09:19:20Z</time></trkpt><trkpt lat="43.47288986850011" lon="10.332454294959957"><ele>10.5</ele><time>2026-04-04T09:19:21Z</time></trkpt><trkpt lat="43.47282190928332" lon="10.33261121088478"><ele>9.666666666666666</ele><time>2026-04-04T09:19:23Z</time></trkpt><trkpt lat="43.47278480228539" lon="10.332696076169167"><ele>8.833333333333332</ele><time>2026-04-04T09:19:24Z</time></trkpt><trkpt lat="43.47274851862278" lon="10.332776103679265"><ele>8.0</ele><time>2026-04-04T09:19:25Z</time></trkpt><trkpt lat="43.472710621494564" lon="10.3328532744262"><ele>8.0</ele><time>2026-04-04T09:19:26Z</time></trkpt><trkpt lat="43.472670604643966" lon="10.332930401310856"><ele>7.999999999999999</ele><time>2026-04-04T09:19:27Z</time></trkpt><trkpt lat="43.47262647077594" lon="10.332996681793832"><ele>8.0</ele><time>2026-04-04T09:19:28Z</time></trkpt><trkpt lat="43.472577699620345" lon="10.333065057503182"><ele>8.0</ele><time>2026-04-04T09:19:29Z</time></trkpt><trkpt lat="43.472531204318756" lon="10.333128639539703"><ele>7.999999999999999</ele><time>2026-04-04T09:19:30Z</time></trkpt><trkpt lat="43.47247797903003" lon="10.33320117877604"><ele>8.0</ele><time>2026-04-04T09:19:31Z</time></trkpt><trkpt lat="43.4724289150633" lon="10.333268046045713"><ele>8.0</ele><time>2026-04-04T09:19:32Z</time></trkpt><trkpt lat="43.4723780645595" lon="10.333337348802605"><ele>8.714285714285714</ele><time>2026-04-04T09:19:33Z</time></trkpt><trkpt lat="43.4723285892985" lon="10.333404777265994"><ele>9.428571428571427</ele><time>2026-04-04T09:19:34Z</time></trkpt><trkpt lat="43.47227874889504" lon="10.33347243374154"><ele>10.142857142857142</ele><time>2026-04-04T09:19:35Z</time></trkpt><trkpt lat="43.47223096781088" lon="10.333537147350253"><ele>10.857142857142858</ele><time>2026-04-04T09:19:36Z</time></trkpt><trkpt lat="43.47218321059416" lon="10.333601863712591"><ele>11.571428571428573</ele><time>2026-04-04T09:19:37Z</time></trkpt><trkpt lat="43.47213538651143" lon="10.333666833155945"><ele>12.285714285714285</ele><time>2026-04-04T09:19:38Z</time></trkpt><trkpt lat="43.472089711661525" lon="10.333728882849222"><ele>13.0</ele><time>2026-04-04T09:19:39Z</time></trkpt><trkpt lat="43.47204313800424" lon="10.33379215359069"><ele>12.0</ele><time>2026-04-04T09:19:40Z</time></trkpt><trkpt lat="43.471996029600945" lon="10.333856150788822"><ele>11.0</ele><time>2026-04-04T09:19:41Z</time></trkpt><trkpt lat="43.47194836892724" lon="10.333920898246388"><ele>10.0</ele><time>2026-04-04T09:19:42Z</time></trkpt><trkpt lat="43.4719004055799" lon="10.333986056898231"><ele>9.0</ele><time>2026-04-04T09:19:43Z</time></trkpt><trkpt lat="43.47185366533424" lon="10.334049553940682"><ele>8.0</ele><time>2026-04-04T09:19:44Z</time></trkpt><trkpt lat="43.47180800624254" lon="10.334111582227102"><ele>7.0</ele><time>2026-04-04T09:19:45Z</time></trkpt><trkpt lat="43.471758094874595" lon="10.33417849137866"><ele>6.0</ele><time>2026-04-04T09:19:46Z</time></trkpt><trkpt lat="43.47171117869346" lon="10.33424315187033"><ele>5.999999999999999</ele><time>2026-04-04T09:19:47Z</time></trkpt><trkpt lat="43.471662454559656" lon="10.334309676144892"><ele>6.0</ele><time>2026-04-04T09:19:48Z</time></trkpt><trkpt lat="43.47161339259832" lon="10.334376782696992"><ele>6.0</ele><time>2026-04-04T09:19:49Z</time></trkpt><trkpt lat="43.471564790350364" lon="10.334444126401996"><ele>6.0</ele><time>2026-04-04T09:19:50Z</time></trkpt><trkpt lat="43.471517938273" lon="10.334509045053121"><ele>6.0</ele><time>2026-04-04T09:19:51Z</time></trkpt><trkpt lat="43.47146704322788" lon="10.33457971405677"><ele>5.999999999999999</ele><time>2026-04-04T09:19:52Z</time></trkpt><trkpt lat="43.47141865120351" lon="10.334648494597317"><ele>6.0</ele><time>2026-04-04T09:19:53Z</time></trkpt><trkpt lat="43.47137062979662" lon="10.33471674837795"><ele>6.285714285714285</ele><time>2026-04-04T09:19:54Z</time></trkpt><trkpt lat="43.47132288604408" lon="10.334784607517197"><ele>6.571428571428571</ele><time>2026-04-04T09:19:55Z</time></trkpt><trkpt lat="43.47127659500542" lon="10.334850953572158"><ele>6.857142857142857</ele><time>2026-04-04T09:19:56Z</time></trkpt><trkpt lat="43.47122818763489" lon="10.334920479670465"><ele>7.142857142857142</ele><time>2026-04-04T09:19:57Z</time></trkpt><trkpt lat="43.47118132317856" lon="10.33498778972556"><ele>7.428571428571428</ele><time>2026-04-04T09:19:58Z</time></trkpt><trkpt lat="43.4711347566525" lon="10.33505455655333"><ele>7.7142857142857135</ele><time>2026-04-04T09:19:59Z</time></trkpt><trkpt lat="43.47108786238804" lon="10.335121778840454"><ele>8.0</ele><time>2026-04-04T09:20:00Z</time></trkpt><trkpt lat="43.4710435685511" lon="10.335185273439755"><ele>7.999999999999999</ele><time>2026-04-04T09:20:01Z</time></trkpt><trkpt lat="43.470999427171606" lon="10.335248549504225"><ele>8.0</ele><time>2026-04-04T09:20:02Z</time></trkpt><trkpt lat="43.47095477892898" lon="10.33531221447014"><ele>8.0</ele><time>2026-04-04T09:20:03Z</time></trkpt><trkpt lat="43.470908705013066" lon="10.335373929287218"><ele>8.0</ele><time>2026-04-04T09:20:04Z</time></trkpt><trkpt lat="43.47081563164413" lon="10.335482878702479"><ele>7.999999999999999</ele><time>2026-04-04T09:20:06Z</time></trkpt><trkpt lat="43.470715410850275" lon="10.33558257166855"><ele>8.0</ele><time>2026-04-04T09:20:08Z</time></trkpt><trkpt lat="43.470616466970625" lon="10.335663493139705"><ele>9.0</ele><time>2026-04-04T09:20:10Z</time></trkpt><trkpt lat="43.47050757712763" lon="10.335736990113698"><ele>10.0</ele><time>2026-04-04T09:20:12Z</time></trkpt><trkpt lat="43.47039898360459" lon="10.335801553043412"><ele>11.0</ele><time>2026-04-04T09:20:14Z</time></trkpt><trkpt lat="43.47031060974261" lon="10.335915446696777"><ele>12.0</ele><time>2026-04-04T09:20:16Z</time></trkpt><trkpt lat="43.47020948380193" lon="10.335971528033273"><ele>12.0</ele><time>2026-04-04T09:20:18Z</time></trkpt><trkpt lat="43.470118283109855" lon="10.33602314960652"><ele>12.0</ele><time>2026-04-04T09:20:20Z</time></trkpt><trkpt lat="43.470011119733265" lon="10.336028002074288"><ele>12.0</ele><time>2026-04-04T09:20:22Z</time></trkpt><trkpt lat="43.46993156822314" lon="10.33609674781813"><ele>12.0</ele><time>2026-04-04T09:20:24Z</time></trkpt><trkpt lat="43.4698603626994" lon="10.33616980132547"><ele>12.0</ele><time>2026-04-04T09:20:26Z</time></trkpt><trkpt lat="43.46979487934089" lon="10.33623974660772"><ele>12.0</ele><time>2026-04-04T09:20:28Z</time></trkpt><trkpt lat="43.46973189045191" lon="10.336307281923261"><ele>12.0</ele><time>2026-04-04T09:20:30Z</time></trkpt><trkpt lat="43.469664560632744" lon="10.33637953431715"><ele>12.0</ele><time>2026-04-04T09:20:32Z</time></trkpt><trkpt lat="43.46959280894676" lon="10.336456531871036"><ele>12.0</ele><time>2026-04-04T09:20:34Z</time></trkpt><trkpt lat="43.46952948555544" lon="10.336524484960904"><ele>12.0</ele><time>2026-04-04T09:20:36Z</time></trkpt><trkpt lat="43.46946539127117" lon="10.336599318229602"><ele>12.0</ele><time>2026-04-04T09:20:38Z</time></trkpt><trkpt lat="43.46941018948356" lon="10.33667897305754"><ele>11.833333333333334</ele><time>2026-04-04T09:20:40Z</time></trkpt><trkpt lat="43.4693581822168" lon="10.336768522888034"><ele>11.666666666666666</ele><time>2026-04-04T09:20:42Z</time></trkpt><trkpt lat="43.469313540543176" lon="10.33686325901861"><ele>11.5</ele><time>2026-04-04T09:20:44Z</time></trkpt><trkpt lat="43.46927014016839" lon="10.336954449402894"><ele>11.333333333333332</ele><time>2026-04-04T09:20:46Z</time></trkpt><trkpt lat="43.46922688620707" lon="10.337050933853194"><ele>11.166666666666666</ele><time>2026-04-04T09:20:48Z</time></trkpt><trkpt lat="43.46919140810717" lon="10.337156488021261"><ele>11.0</ele><time>2026-04-04T09:20:50Z</time></trkpt><trkpt lat="43.46914624400578" lon="10.337247459572891"><ele>14.0</ele><time>2026-04-04T09:20:52Z</time></trkpt><trkpt lat="43.469092019187975" lon="10.337327878314413"><ele>17.0</ele><time>2026-04-04T09:20:54Z</time></trkpt><trkpt lat="43.46903555348364" lon="10.337408010493066"><ele>20.0</ele><time>2026-04-04T09:20:56Z</time></trkpt><trkpt lat="43.46897630112823" lon="10.337476949469854"><ele>23.0</ele><time>2026-04-04T09:20:58Z</time></trkpt><trkpt lat="43.4689162932118" lon="10.337532219298916"><ele>25.999999999999996</ele><time>2026-04-04T09:21:00Z</time></trkpt><trkpt lat="43.46885658138378" lon="10.33759029185697"><ele>29.0</ele><time>2026-04-04T09:21:02Z</time></trkpt><trkpt lat="43.46879626680581" lon="10.337648650338007"><ele>28.142857142857146</ele><time>2026-04-04T09:21:04Z</time></trkpt><trkpt lat="43.46873716327758" lon="10.337712566492232"><ele>27.285714285714285</ele><time>2026-04-04T09:21:06Z</time></trkpt><trkpt lat="43.46868373825029" lon="10.3377816974983"><ele>26.42857142857143</ele><time>2026-04-04T09:21:08Z</time></trkpt><trkpt lat="43.46864236662613" lon="10.337865010475499"><ele>25.571428571428573</ele><time>2026-04-04T09:21:10Z</time></trkpt><trkpt lat="43.46859360744486" lon="10.33793527316218"><ele>24.714285714285715</ele><time>2026-04-04T09:21:12Z</time></trkpt><trkpt lat="43.4685445368006" lon="10.338009402719143"><ele>23.857142857142858</ele><time>2026-04-04T09:21:14Z</time></trkpt><trkpt lat="43.468498800452046" lon="10.338086400437623"><ele>23.0</ele><time>2026-04-04T09:21:16Z</time></trkpt><trkpt lat="43.468449457352776" lon="10.338158236100542"><ele>23.0</ele><time>2026-04-04T09:21:18Z</time></trkpt><trkpt lat="43.468398538258676" lon="10.33822211952561"><ele>23.0</ele><time>2026-04-04T09:21:20Z</time></trkpt><trkpt lat="43.46835327164255" lon="10.338298915991365"><ele>23.0</ele><time>2026-04-04T09:21:22Z</time></trkpt><trkpt lat="43.4683010370041" lon="10.338382063253325"><ele>23.0</ele><time>2026-04-04T09:21:24Z</time></trkpt><trkpt lat="43.46825244671776" lon="10.338472168969748"><ele>23.0</ele><time>2026-04-04T09:21:26Z</time></trkpt><trkpt lat="43.46818697092049" lon="10.338553832957764"><ele>23.0</ele><time>2026-04-04T09:21:28Z</time></trkpt><trkpt lat="43.46812890844204" lon="10.3386338562203"><ele>23.0</ele><time>2026-04-04T09:21:30Z</time></trkpt><trkpt lat="43.4680717396131" lon="10.338722017178943"><ele>23.0</ele><time>2026-04-04T09:21:32Z</time></trkpt><trkpt lat="43.468011599742404" lon="10.338811925905981"><ele>23.0</ele><time>2026-04-04T09:21:34Z</time></trkpt><trkpt lat="43.46795111879347" lon="10.338898040612756"><ele>23.0</ele><time>2026-04-04T09:21:36Z</time></trkpt><trkpt lat="43.46789049572293" lon="10.338983036053795"><ele>23.0</ele><time>2026-04-04T09:21:38Z</time></trkpt><trkpt lat="43.46782855463835" lon="10.339072597636278"><ele>23.0</ele><time>2026-04-04T09:21:40Z</time></trkpt><trkpt lat="43.46776776590964" lon="10.339153746147138"><ele>22.333333333333336</ele><time>2026-04-04T09:21:42Z</time></trkpt><trkpt lat="43.467707699123245" lon="10.339233074954631"><ele>21.666666666666668</ele><time>2026-04-04T09:21:44Z</time></trkpt><trkpt lat="43.46764753127352" lon="10.339312841440197"><ele>21.0</ele><time>2026-04-04T09:21:46Z</time></trkpt><trkpt lat="43.467593676499234" lon="10.339395709590242"><ele>20.333333333333332</ele><time>2026-04-04T09:21:48Z</time></trkpt><trkpt lat="43.467531502853305" lon="10.33947428095392"><ele>19.666666666666664</ele><time>2026-04-04T09:21:50Z</time></trkpt><trkpt lat="43.46746975780555" lon="10.339554297328796"><ele>19.0</ele><time>2026-04-04T09:21:52Z</time></trkpt><trkpt lat="43.467404885859246" lon="10.339624741414676"><ele>19.0</ele><time>2026-04-04T09:21:54Z</time></trkpt><trkpt lat="43.46734470010392" lon="10.33969734539291"><ele>19.0</ele><time>2026-04-04T09:21:56Z</time></trkpt><trkpt lat="43.46728435715167" lon="10.339774034373953"><ele>19.0</ele><time>2026-04-04T09:21:58Z</time></trkpt><trkpt lat="43.46722220970026" lon="10.339844299540198"><ele>19.0</ele><time>2026-04-04T09:22:00Z</time></trkpt><trkpt lat="43.46716533530616" lon="10.339921029146456"><ele>19.0</ele><time>2026-04-04T09:22:02Z</time></trkpt><trkpt lat="43.46711154293388" lon="10.340005037954333"><ele>19.0</ele><time>2026-04-04T09:22:04Z</time></trkpt><trkpt lat="43.46706548622292" lon="10.340093806382802"><ele>18.0</ele><time>2026-04-04T09:22:06Z</time></trkpt><trkpt lat="43.46702260787139" lon="10.340187055800332"><ele>17.0</ele><time>2026-04-04T09:22:08Z</time></trkpt><trkpt lat="43.46697478476283" lon="10.34027288657531"><ele>16.0</ele><time>2026-04-04T09:22:10Z</time></trkpt><trkpt lat="43.46693355457105" lon="10.340369343759805"><ele>15.0</ele><time>2026-04-04T09:22:12Z</time></trkpt><trkpt lat="43.46689250525484" lon="10.340464426998693"><ele>13.999999999999998</ele><time>2026-04-04T09:22:14Z</time></trkpt><trkpt lat="43.466840843710735" lon="10.340549013977345"><ele>13.0</ele><time>2026-04-04T09:22:15.999Z</time></trkpt><trkpt lat="43.466785560521906" lon="10.340631924257734"><ele>16.0</ele><time>2026-04-04T09:22:17.999Z</time></trkpt><trkpt lat="43.46672322587227" lon="10.34070596442804"><ele>19.0</ele><time>2026-04-04T09:22:19.999Z</time></trkpt><trkpt lat="43.46666047698308" lon="10.340767295614521"><ele>22.0</ele><time>2026-04-04T09:22:21.999Z</time></trkpt><trkpt lat="43.46659751075601" lon="10.340823539336121"><ele>25.0</ele><time>2026-04-04T09:22:23.999Z</time></trkpt><trkpt lat="43.46654048803661" lon="10.340884387319752"><ele>28.0</ele><time>2026-04-04T09:22:26Z</time></trkpt><trkpt lat="43.4664832161093" lon="10.340943966114237"><ele>30.999999999999996</ele><time>2026-04-04T09:22:28Z</time></trkpt><trkpt lat="43.46643421001427" lon="10.341014639071156"><ele>34.0</ele><time>2026-04-04T09:22:30Z</time></trkpt><trkpt lat="43.46637787324248" lon="10.341078439010131"><ele>33.99999999999999</ele><time>2026-04-04T09:22:32Z</time></trkpt><trkpt lat="43.46632351385591" lon="10.341145025896363"><ele>34.0</ele><time>2026-04-04T09:22:34Z</time></trkpt><trkpt lat="43.4662741718933" lon="10.341215645857538"><ele>34.0</ele><time>2026-04-04T09:22:36Z</time></trkpt><trkpt lat="43.46622006207438" lon="10.341282503853495"><ele>34.0</ele><time>2026-04-04T09:22:38Z</time></trkpt><trkpt lat="43.466170894497374" lon="10.341345937812438"><ele>34.0</ele><time>2026-04-04T09:22:40Z</time></trkpt><trkpt lat="43.46612175630858" lon="10.34141638479262"><ele>33.99999999999999</ele><time>2026-04-04T09:22:42Z</time></trkpt><trkpt lat="43.46607268124491" lon="10.341480257599661"><ele>34.0</ele><time>2026-04-04T09:22:44Z</time></trkpt><trkpt lat="43.466021952364535" lon="10.341547052612475"><ele>33.857142857142854</ele><time>2026-04-04T09:22:46Z</time></trkpt><trkpt lat="43.465969226674495" lon="10.341609376902825"><ele>33.714285714285715</ele><time>2026-04-04T09:22:48Z</time></trkpt><trkpt lat="43.465915389804316" lon="10.341671552711583"><ele>33.57142857142857</ele><time>2026-04-04T09:22:50Z</time></trkpt><trkpt lat="43.46586314450512" lon="10.341732728670667"><ele>33.42857142857143</ele><time>2026-04-04T09:22:52Z</time></trkpt><trkpt lat="43.46581401020072" lon="10.341803586979845"><ele>33.285714285714285</ele><time>2026-04-04T09:22:54Z</time></trkpt><trkpt lat="43.46575743844501" lon="10.34187665416066"><ele>33.14285714285714</ele><time>2026-04-04T09:22:56Z</time></trkpt><trkpt lat="43.46569929894109" lon="10.34195573627335"><ele>33.0</ele><time>2026-04-04T09:22:58Z</time></trkpt><trkpt lat="43.46564020598445" lon="10.342033012220943"><ele>33.0</ele><time>2026-04-04T09:23:00Z</time></trkpt><trkpt lat="43.46558253763166" lon="10.34211677171787"><ele>33.0</ele><time>2026-04-04T09:23:02Z</time></trkpt><trkpt lat="43.465523575936736" lon="10.34220365862479"><ele>33.0</ele><time>2026-04-04T09:23:04Z</time></trkpt><trkpt lat="43.465462497203745" lon="10.34228130034378"><ele>33.0</ele><time>2026-04-04T09:23:06Z</time></trkpt><trkpt lat="43.465404476314674" lon="10.342359931472858"><ele>33.0</ele><time>2026-04-04T09:23:08Z</time></trkpt><trkpt lat="43.46534581123022" lon="10.342441151650789"><ele>33.0</ele><time>2026-04-04T09:23:10Z</time></trkpt><trkpt lat="43.465286495424294" lon="10.342519811741688"><ele>31.833333333333332</ele><time>2026-04-04T09:23:12Z</time></trkpt><trkpt lat="43.46523460949795" lon="10.342619611684254"><ele>30.666666666666664</ele><time>2026-04-04T09:23:14Z</time></trkpt><trkpt lat="43.46518627507257" lon="10.342714019809314"><ele>29.5</ele><time>2026-04-04T09:23:16Z</time></trkpt><trkpt lat="43.465148092599954" lon="10.342813874365005"><ele>28.333333333333332</ele><time>2026-04-04T09:23:18Z</time></trkpt><trkpt lat="43.465119707104414" lon="10.342919640598776"><ele>27.166666666666664</ele><time>2026-04-04T09:23:20Z</time></trkpt><trkpt lat="43.46510006479443" lon="10.343027593751826"><ele>26.0</ele><time>2026-04-04T09:23:22Z</time></trkpt><trkpt lat="43.46508639368621" lon="10.343133118923939"><ele>25.999999999999996</ele><time>2026-04-04T09:23:24Z</time></trkpt><trkpt lat="43.4650759895679" lon="10.343239386449412"><ele>26.0</ele><time>2026-04-04T09:23:26Z</time></trkpt><trkpt lat="43.46507753790471" lon="10.343345943879925"><ele>26.0</ele><time>2026-04-04T09:23:28Z</time></trkpt><trkpt lat="43.465080030139035" lon="10.34345655482534"><ele>26.0</ele><time>2026-04-04T09:23:30Z</time></trkpt><trkpt lat="43.465098904452" lon="10.343567790283032"><ele>25.999999999999996</ele><time>2026-04-04T09:23:32Z</time></trkpt><trkpt lat="43.465120701567464" lon="10.343679077272446"><ele>26.0</ele><time>2026-04-04T09:23:34Z</time></trkpt><trkpt lat="43.46513211568049" lon="10.343800374807387"><ele>28.0</ele><time>2026-04-04T09:23:36Z</time></trkpt><trkpt lat="43.46513451497015" lon="10.343929679620762"><ele>30.0</ele><time>2026-04-04T09:23:38Z</time></trkpt><trkpt lat="43.465109444688004" lon="10.344078059987305"><ele>32.0</ele><time>2026-04-04T09:23:40Z</time></trkpt><trkpt lat="43.46506050192106" lon="10.34423480687888"><ele>34.0</ele><time>2026-04-04T09:23:42Z</time></trkpt><trkpt lat="43.46504083061593" lon="10.34432210239004"><ele>36.0</ele><time>2026-04-04T09:23:43Z</time></trkpt><trkpt lat="43.46502252149689" lon="10.344408707266062"><ele>36.0</ele><time>2026-04-04T09:23:44Z</time></trkpt><trkpt lat="43.46500147915137" lon="10.344502278921649"><ele>36.0</ele><time>2026-04-04T09:23:45Z</time></trkpt><trkpt lat="43.46498557397668" lon="10.344598722331396"><ele>36.0</ele><time>2026-04-04T09:23:46Z</time></trkpt><trkpt lat="43.464973799142484" lon="10.344698308892527"><ele>36.0</ele><time>2026-04-04T09:23:47Z</time></trkpt><trkpt lat="43.46495428423122" lon="10.344803495398255"><ele>36.0</ele><time>2026-04-04T09:23:48Z</time></trkpt><trkpt lat="43.464936767014954" lon="10.344912532537059"><ele>36.0</ele><time>2026-04-04T09:23:49Z</time></trkpt><trkpt lat="43.46492251886697" lon="10.345022841219798"><ele>36.5</ele><time>2026-04-04T09:23:50Z</time></trkpt><trkpt lat="43.464914150812994" lon="10.345135630411656"><ele>37.0</ele><time>2026-04-04T09:23:51Z</time></trkpt><trkpt lat="43.46490716187031" lon="10.34525524552289"><ele>37.5</ele><time>2026-04-04T09:23:52Z</time></trkpt><trkpt lat="43.46489820060619" lon="10.34537597150252"><ele>38.0</ele><time>2026-04-04T09:23:53Z</time></trkpt><trkpt lat="43.46489283797093" lon="10.345498528334067"><ele>38.5</ele><time>2026-04-04T09:23:54Z</time></trkpt><trkpt lat="43.46488823358029" lon="10.345628818272482"><ele>39.0</ele><time>2026-04-04T09:23:55Z</time></trkpt><trkpt lat="43.46488825161102" lon="10.345759601863273"><ele>39.0</ele><time>2026-04-04T09:23:56Z</time></trkpt><trkpt lat="43.46489011463504" lon="10.345888025128138"><ele>39.0</ele><time>2026-04-04T09:23:57Z</time></trkpt><trkpt lat="43.46489998604545" lon="10.346019977577498"><ele>39.0</ele><time>2026-04-04T09:23:58Z</time></trkpt><trkpt lat="43.464912973937786" lon="10.346149349611842"><ele>39.0</ele><time>2026-04-04T09:23:59Z</time></trkpt><trkpt lat="43.46492772950436" lon="10.34628051913543"><ele>39.0</ele><time>2026-04-04T09:24:00Z</time></trkpt><trkpt lat="43.46494539281993" lon="10.346408262975615"><ele>38.4</ele><time>2026-04-04T09:24:01Z</time></trkpt><trkpt lat="43.46496876038696" lon="10.346534317118047"><ele>37.8</ele><time>2026-04-04T09:24:02Z</time></trkpt><trkpt lat="43.464991171560996" lon="10.346657952668615"><ele>37.2</ele><time>2026-04-04T09:24:03Z</time></trkpt><trkpt lat="43.46501207201354" lon="10.346779649065365"><ele>36.6</ele><time>2026-04-04T09:24:04Z</time></trkpt><trkpt lat="43.46503410111923" lon="10.346900082262449"><ele>36.0</ele><time>2026-04-04T09:24:05Z</time></trkpt><trkpt lat="43.46505238822398" lon="10.347021666993424"><ele>36.0</ele><time>2026-04-04T09:24:06Z</time></trkpt><trkpt lat="43.46507165109975" lon="10.347141772327848"><ele>36.0</ele><time>2026-04-04T09:24:07Z</time></trkpt><trkpt lat="43.465088979846016" lon="10.347256083227558"><ele>36.0</ele><time>2026-04-04T09:24:08Z</time></trkpt><trkpt lat="43.46510731695289" lon="10.347375350854294"><ele>36.0</ele><time>2026-04-04T09:24:09Z</time></trkpt><trkpt lat="43.46511746033378" lon="10.347502419574274"><ele>36.0</ele><time>2026-04-04T09:24:10Z</time></trkpt><trkpt lat="43.46512452330084" lon="10.347624280025386"><ele>36.0</ele><time>2026-04-04T09:24:11Z</time></trkpt><trkpt lat="43.46512989264446" lon="10.347748031930871"><ele>33.5</ele><time>2026-04-04T09:24:12Z</time></trkpt><trkpt lat="43.46513106619506" lon="10.347871773957818"><ele>31.0</ele><time>2026-04-04T09:24:13Z</time></trkpt><trkpt lat="43.465134399254055" lon="10.347995256852267"><ele>28.5</ele><time>2026-04-04T09:24:14Z</time></trkpt><trkpt lat="43.46513717879643" lon="10.348118305978742"><ele>26.0</ele><time>2026-04-04T09:24:15Z</time></trkpt><trkpt lat="43.46514038683299" lon="10.348241039855855"><ele>23.5</ele><time>2026-04-04T09:24:16Z</time></trkpt><trkpt lat="43.46512722943824" lon="10.348361813875899"><ele>21.0</ele><time>2026-04-04T09:24:17Z</time></trkpt><trkpt lat="43.46514471223901" lon="10.348481204237515"><ele>19.166666666666668</ele><time>2026-04-04T09:24:18Z</time></trkpt><trkpt lat="43.465148436892015" lon="10.34859977206882"><ele>17.333333333333332</ele><time>2026-04-04T09:24:19Z</time></trkpt><trkpt lat="43.46513435004548" lon="10.348720543439121"><ele>15.5</ele><time>2026-04-04T09:24:20Z</time></trkpt><trkpt lat="43.465136631497565" lon="10.34883781336319"><ele>13.666666666666668</ele><time>2026-04-04T09:24:21Z</time></trkpt><trkpt lat="43.46513896010498" lon="10.348957507246709"><ele>11.833333333333334</ele><time>2026-04-04T09:24:22Z</time></trkpt><trkpt lat="43.46514125783862" lon="10.349075614047518"><ele>10.0</ele><time>2026-04-04T09:24:23Z</time></trkpt><trkpt lat="43.465141208079224" lon="10.349191530959722"><ele>9.833333333333334</ele><time>2026-04-04T09:24:24Z</time></trkpt><trkpt lat="43.46515324912565" lon="10.349309397322"><ele>9.666666666666668</ele><time>2026-04-04T09:24:25Z</time></trkpt><trkpt lat="43.465146488587976" lon="10.349425918459279"><ele>9.5</ele><time>2026-04-04T09:24:26Z</time></trkpt><trkpt lat="43.46514348153889" lon="10.349540991357827"><ele>9.333333333333334</ele><time>2026-04-04T09:24:26.999Z</time></trkpt><trkpt lat="43.465141662859594" lon="10.349657340796261"><ele>9.166666666666666</ele><time>2026-04-04T09:24:27.999Z</time></trkpt><trkpt lat="43.46513887924733" lon="10.349768751132727"><ele>9.0</ele><time>2026-04-04T09:24:28.999Z</time></trkpt><trkpt lat="43.46513439747514" lon="10.349877123659663"><ele>11.666666666666668</ele><time>2026-04-04T09:24:29.999Z</time></trkpt><trkpt lat="43.46513040105098" lon="10.349981786979564"><ele>14.333333333333334</ele><time>2026-04-04T09:24:31Z</time></trkpt><trkpt lat="43.465128498623734" lon="10.350083541545013"><ele>17.0</ele><time>2026-04-04T09:24:32Z</time></trkpt><trkpt lat="43.465126414836824" lon="10.35018097139475"><ele>19.666666666666668</ele><time>2026-04-04T09:24:33Z</time></trkpt><trkpt lat="43.46512332498507" lon="10.35027140851705"><ele>22.333333333333336</ele><time>2026-04-04T09:24:34Z</time></trkpt><trkpt lat="43.46511815145247" lon="10.350436404475667"><ele>25.0</ele><time>2026-04-04T09:24:36Z</time></trkpt><trkpt lat="43.46511154976268" lon="10.350581593783032"><ele>27.8</ele><time>2026-04-04T09:24:38Z</time></trkpt><trkpt lat="43.465076027108246" lon="10.35071024658441"><ele>30.6</ele><time>2026-04-04T09:24:40Z</time></trkpt><trkpt lat="43.46504155423709" lon="10.350837152355268"><ele>33.4</ele><time>2026-04-04T09:24:42Z</time></trkpt><trkpt lat="43.4649894312988" lon="10.350953228440542"><ele>36.2</ele><time>2026-04-04T09:24:44Z</time></trkpt><trkpt lat="43.464923685426896" lon="10.351039469079826"><ele>39.0</ele><time>2026-04-04T09:24:46Z</time></trkpt><trkpt lat="43.46485950930345" lon="10.351122096964032"><ele>39.0</ele><time>2026-04-04T09:24:48Z</time></trkpt><trkpt lat="43.464793142897804" lon="10.351207475691629"><ele>39.0</ele><time>2026-04-04T09:24:50Z</time></trkpt><trkpt lat="43.464738065092874" lon="10.351302666177533"><ele>39.0</ele><time>2026-04-04T09:24:52Z</time></trkpt><trkpt lat="43.46468776186221" lon="10.351405100416846"><ele>39.0</ele><time>2026-04-04T09:24:54Z</time></trkpt><trkpt lat="43.464647799235436" lon="10.351508894569458"><ele>39.0</ele><time>2026-04-04T09:24:56Z</time></trkpt><trkpt lat="43.464626636652056" lon="10.35162829126026"><ele>39.0</ele><time>2026-04-04T09:24:58Z</time></trkpt><trkpt lat="43.46459644750509" lon="10.351732321480485"><ele>36.333333333333336</ele><time>2026-04-04T09:25:00Z</time></trkpt><trkpt lat="43.46456611429236" lon="10.351841702101485"><ele>33.666666666666664</ele><time>2026-04-04T09:25:02Z</time></trkpt><trkpt lat="43.464536336935126" lon="10.351942988083165"><ele>31.0</ele><time>2026-04-04T09:25:04Z</time></trkpt><trkpt lat="43.46450763469607" lon="10.352047190592602"><ele>28.333333333333336</ele><time>2026-04-04T09:25:06Z</time></trkpt><trkpt lat="43.46448393701227" lon="10.352158151264847"><ele>25.666666666666668</ele><time>2026-04-04T09:25:08Z</time></trkpt><trkpt lat="43.46448002485878" lon="10.352271972609868"><ele>23.0</ele><time>2026-04-04T09:25:10Z</time></trkpt><trkpt lat="43.464477059266464" lon="10.352381471912848"><ele>23.0</ele><time>2026-04-04T09:25:12Z</time></trkpt><trkpt lat="43.46448231365182" lon="10.35248460220556"><ele>23.0</ele><time>2026-04-04T09:25:14Z</time></trkpt><trkpt lat="43.46449440832677" lon="10.352586526088002"><ele>23.0</ele><time>2026-04-04T09:25:16Z</time></trkpt><trkpt lat="43.46451173060406" lon="10.35268874655378"><ele>23.0</ele><time>2026-04-04T09:25:18Z</time></trkpt><trkpt lat="43.46453614951263" lon="10.35278493489647"><ele>23.0</ele><time>2026-04-04T09:25:20Z</time></trkpt><trkpt lat="43.464568018430214" lon="10.352881564299194"><ele>23.0</ele><time>2026-04-04T09:25:22Z</time></trkpt><trkpt lat="43.46459275577948" lon="10.352975335190166"><ele>28.142857142857146</ele><time>2026-04-04T09:25:24Z</time></trkpt><trkpt lat="43.46462014101598" lon="10.353067032788495"><ele>33.285714285714285</ele><time>2026-04-04T09:25:26Z</time></trkpt><trkpt lat="43.46464953008043" lon="10.353161044439146"><ele>38.42857142857143</ele><time>2026-04-04T09:25:28Z</time></trkpt><trkpt lat="43.46467918404" lon="10.353253179478715"><ele>43.57142857142857</ele><time>2026-04-04T09:25:30Z</time></trkpt><trkpt lat="43.46471108276508" lon="10.353341990996093"><ele>48.714285714285715</ele><time>2026-04-04T09:25:32Z</time></trkpt><trkpt lat="43.46475018060844" lon="10.353423996628258"><ele>53.857142857142854</ele><time>2026-04-04T09:25:34Z</time></trkpt><trkpt lat="43.46479149050735" lon="10.353507209375847"><ele>59.0</ele><time>2026-04-04T09:25:36Z</time></trkpt><trkpt lat="43.464827269150526" lon="10.353585255480215"><ele>59.0</ele><time>2026-04-04T09:25:38Z</time></trkpt><trkpt lat="43.4648694151681" lon="10.353666971108812"><ele>59.0</ele><time>2026-04-04T09:25:40Z</time></trkpt><trkpt lat="43.46490487868026" lon="10.353748882910065"><ele>59.0</ele><time>2026-04-04T09:25:42Z</time></trkpt><trkpt lat="43.46494762855634" lon="10.353829122391279"><ele>59.0</ele><time>2026-04-04T09:25:44Z</time></trkpt><trkpt lat="43.46499159307286" lon="10.353908695726018"><ele>59.0</ele><time>2026-04-04T09:25:46Z</time></trkpt><trkpt lat="43.465032142841" lon="10.353988335083942"><ele>59.0</ele><time>2026-04-04T09:25:48Z</time></trkpt><trkpt lat="43.46507121753523" lon="10.354065211962277"><ele>59.0</ele><time>2026-04-04T09:25:50Z</time></trkpt><trkpt lat="43.46510993092097" lon="10.354146274282623"><ele>57.14285714285714</ele><time>2026-04-04T09:25:52Z</time></trkpt><trkpt lat="43.46514838375139" lon="10.354221524260897"><ele>55.28571428571429</ele><time>2026-04-04T09:25:54Z</time></trkpt><trkpt lat="43.46518891313144" lon="10.35429857048242"><ele>53.42857142857143</ele><time>2026-04-04T09:25:56Z</time></trkpt><trkpt lat="43.465229544336324" lon="10.354378527655529"><ele>51.57142857142857</ele><time>2026-04-04T09:25:58Z</time></trkpt><trkpt lat="43.465270543014434" lon="10.354456577653727"><ele>49.71428571428571</ele><time>2026-04-04T09:26:00Z</time></trkpt><trkpt lat="43.4653080147535" lon="10.35453665355304"><ele>47.85714285714286</ele><time>2026-04-04T09:26:02Z</time></trkpt><trkpt lat="43.46534893950104" lon="10.354616417025039"><ele>46.0</ele><time>2026-04-04T09:26:04Z</time></trkpt><trkpt lat="43.46538460151404" lon="10.354695182285273"><ele>45.57142857142858</ele><time>2026-04-04T09:26:06Z</time></trkpt><trkpt lat="43.46542241897782" lon="10.354777209727931"><ele>45.14285714285714</ele><time>2026-04-04T09:26:08Z</time></trkpt><trkpt lat="43.465468628992575" lon="10.354853574080156"><ele>44.714285714285715</ele><time>2026-04-04T09:26:10Z</time></trkpt><trkpt lat="43.46550723778964" lon="10.354932204417883"><ele>44.28571428571429</ele><time>2026-04-04T09:26:12Z</time></trkpt><trkpt lat="43.465544881430304" lon="10.35501430592599"><ele>43.85714285714286</ele><time>2026-04-04T09:26:14Z</time></trkpt><trkpt lat="43.46556779454303" lon="10.355111171775901"><ele>43.42857142857143</ele><time>2026-04-04T09:26:16Z</time></trkpt><trkpt lat="43.465578546519666" lon="10.355202168627237"><ele>43.0</ele><time>2026-04-04T09:26:18Z</time></trkpt><trkpt lat="43.46557824491927" lon="10.355295709439469"><ele>45.57142857142858</ele><time>2026-04-04T09:26:20Z</time></trkpt><trkpt lat="43.465568452543664" lon="10.355385918534296"><ele>48.14285714285714</ele><time>2026-04-04T09:26:22Z</time></trkpt><trkpt lat="43.46555130735122" lon="10.355475706847269"><ele>50.71428571428571</ele><time>2026-04-04T09:26:24Z</time></trkpt><trkpt lat="43.46552606052303" lon="10.355566330000068"><ele>53.285714285714285</ele><time>2026-04-04T09:26:26Z</time></trkpt><trkpt lat="43.46549885452773" lon="10.355653940671457"><ele>55.857142857142854</ele><time>2026-04-04T09:26:28Z</time></trkpt><trkpt lat="43.46547279328694" lon="10.355744769276386"><ele>58.42857142857142</ele><time>2026-04-04T09:26:30Z</time></trkpt><trkpt lat="43.46543465798349" lon="10.355829245951913"><ele>60.99999999999999</ele><time>2026-04-04T09:26:32Z</time></trkpt><trkpt lat="43.46539108240423" lon="10.35590376908541"><ele>60.99999999999999</ele><time>2026-04-04T09:26:33.999Z</time></trkpt><trkpt lat="43.465339598143444" lon="10.355962466154683"><ele>61.0</ele><time>2026-04-04T09:26:35.999Z</time></trkpt><trkpt lat="43.46527680692654" lon="10.356012074309637"><ele>60.99999999999999</ele><time>2026-04-04T09:26:38Z</time></trkpt><trkpt lat="43.46521079223534" lon="10.356050282195328"><ele>60.99999999999999</ele><time>2026-04-04T09:26:40Z</time></trkpt><trkpt lat="43.46513842376297" lon="10.356077415762666"><ele>61.0</ele><time>2026-04-04T09:26:42Z</time></trkpt><trkpt lat="43.46506285554585" lon="10.356079668886547"><ele>60.99999999999999</ele><time>2026-04-04T09:26:44Z</time></trkpt><trkpt lat="43.46499410593983" lon="10.356085696510434"><ele>60.99999999999999</ele><time>2026-04-04T09:26:46Z</time></trkpt><trkpt lat="43.46492059270443" lon="10.356095189097813"><ele>60.99999999999999</ele><time>2026-04-04T09:26:48Z</time></trkpt><trkpt lat="43.464849538126686" lon="10.356109597664867"><ele>61.0</ele><time>2026-04-04T09:26:50Z</time></trkpt><trkpt lat="43.46478170257035" lon="10.356130072130957"><ele>60.99999999999999</ele><time>2026-04-04T09:26:52Z</time></trkpt><trkpt lat="43.46471761434374" lon="10.356172784226523"><ele>60.99999999999999</ele><time>2026-04-04T09:26:54Z</time></trkpt><trkpt lat="43.464653919435314" lon="10.356222316642416"><ele>61.0</ele><time>2026-04-04T09:26:56Z</time></trkpt><trkpt lat="43.464596712254526" lon="10.356284710187325"><ele>60.99999999999999</ele><time>2026-04-04T09:26:58Z</time></trkpt><trkpt lat="43.46454188578277" lon="10.356353610983227"><ele>60.99999999999999</ele><time>2026-04-04T09:27:00Z</time></trkpt><trkpt lat="43.4644863355721" lon="10.356420891674473"><ele>63.71428571428571</ele><time>2026-04-04T09:27:02Z</time></trkpt><trkpt lat="43.46442985962292" lon="10.356485756356225"><ele>66.42857142857143</ele><time>2026-04-04T09:27:04Z</time></trkpt><trkpt lat="43.46437027408386" lon="10.356546878970729"><ele>69.14285714285714</ele><time>2026-04-04T09:27:06Z</time></trkpt><trkpt lat="43.46431425085518" lon="10.356615473388505"><ele>71.85714285714286</ele><time>2026-04-04T09:27:08Z</time></trkpt><trkpt lat="43.4642587982018" lon="10.356692076890575"><ele>74.57142857142857</ele><time>2026-04-04T09:27:10Z</time></trkpt><trkpt lat="43.46420457261426" lon="10.356758427969167"><ele>77.28571428571428</ele><time>2026-04-04T09:27:12Z</time></trkpt><trkpt lat="43.46414636695703" lon="10.356822393494134"><ele>80.0</ele><time>2026-04-04T09:27:14Z</time></trkpt><trkpt lat="43.464095460780975" lon="10.3569017628969"><ele>80.0</ele><time>2026-04-04T09:27:16Z</time></trkpt><trkpt lat="43.46404300244486" lon="10.35698004530114"><ele>80.0</ele><time>2026-04-04T09:27:18Z</time></trkpt><trkpt lat="43.46399254997519" lon="10.357069988299255"><ele>80.0</ele><time>2026-04-04T09:27:20Z</time></trkpt><trkpt lat="43.463953303340155" lon="10.357175145013652"><ele>80.0</ele><time>2026-04-04T09:27:22Z</time></trkpt><trkpt lat="43.463905643307456" lon="10.357290116257104"><ele>80.0</ele><time>2026-04-04T09:27:24Z</time></trkpt><trkpt lat="43.46388270122609" lon="10.357406718589422"><ele>80.0</ele><time>2026-04-04T09:27:26Z</time></trkpt><trkpt lat="43.463855156500095" lon="10.357532188075705"><ele>79.0</ele><time>2026-04-04T09:27:28Z</time></trkpt><trkpt lat="43.463832356299505" lon="10.357672420601826"><ele>78.0</ele><time>2026-04-04T09:27:30Z</time></trkpt><trkpt lat="43.463801557351644" lon="10.357834625938104"><ele>77.0</ele><time>2026-04-04T09:27:32Z</time></trkpt><trkpt lat="43.46378182383988" lon="10.357918569503974"><ele>76.0</ele><time>2026-04-04T09:27:33Z</time></trkpt><trkpt lat="43.46376124263606" lon="10.358006011490993"><ele>75.0</ele><time>2026-04-04T09:27:34Z</time></trkpt><trkpt lat="43.463744194682775" lon="10.358096676532076"><ele>74.0</ele><time>2026-04-04T09:27:35Z</time></trkpt><trkpt lat="43.46373001990521" lon="10.358189451507517"><ele>72.16666666666667</ele><time>2026-04-04T09:27:36Z</time></trkpt><trkpt lat="43.46371123717026" lon="10.35829057100047"><ele>70.33333333333334</ele><time>2026-04-04T09:27:37Z</time></trkpt><trkpt lat="43.463688621049286" lon="10.358392823901456"><ele>68.5</ele><time>2026-04-04T09:27:38Z</time></trkpt><trkpt lat="43.46365840881988" lon="10.358498305443401"><ele>66.66666666666667</ele><time>2026-04-04T09:27:39Z</time></trkpt><trkpt lat="43.46363702993615" lon="10.358609822015591"><ele>64.83333333333333</ele><time>2026-04-04T09:27:40Z</time></trkpt><trkpt lat="43.46360013287443" lon="10.358715616042003"><ele>63.0</ele><time>2026-04-04T09:27:41Z</time></trkpt><trkpt lat="43.4635385991805" lon="10.358808350941207"><ele>64.8</ele><time>2026-04-04T09:27:42Z</time></trkpt><trkpt lat="43.463466231030516" lon="10.358895301648325"><ele>66.6</ele><time>2026-04-04T09:27:43Z</time></trkpt><trkpt lat="43.46338619705668" lon="10.358964733479418"><ele>68.4</ele><time>2026-04-04T09:27:44Z</time></trkpt><trkpt lat="43.46329603617151" lon="10.359007969762489"><ele>70.2</ele><time>2026-04-04T09:27:45Z</time></trkpt><trkpt lat="43.46320627081163" lon="10.359096822510667"><ele>72.0</ele><time>2026-04-04T09:27:46Z</time></trkpt><trkpt lat="43.463112951156134" lon="10.359153822005547"><ele>72.0</ele><time>2026-04-04T09:27:47Z</time></trkpt><trkpt lat="43.46302592321907" lon="10.359226708457475"><ele>72.0</ele><time>2026-04-04T09:27:48Z</time></trkpt><trkpt lat="43.46293515134499" lon="10.359304945299657"><ele>72.0</ele><time>2026-04-04T09:27:49Z</time></trkpt><trkpt lat="43.46284147764866" lon="10.359381561574281"><ele>72.0</ele><time>2026-04-04T09:27:50Z</time></trkpt><trkpt lat="43.462742992943355" lon="10.359461656816924"><ele>72.0</ele><time>2026-04-04T09:27:51Z</time></trkpt><trkpt lat="43.46264661670502" lon="10.35954778896275"><ele>68.5</ele><time>2026-04-04T09:27:52Z</time></trkpt><trkpt lat="43.46255455345666" lon="10.35964671668267"><ele>65.0</ele><time>2026-04-04T09:27:53Z</time></trkpt><trkpt lat="43.46248532392333" lon="10.35977963058858"><ele>61.5</ele><time>2026-04-04T09:27:54Z</time></trkpt><trkpt lat="43.4624322997753" lon="10.359933202233552"><ele>58.0</ele><time>2026-04-04T09:27:55Z</time></trkpt><trkpt lat="43.46238011995695" lon="10.360093950249235"><ele>58.0</ele><time>2026-04-04T09:27:56Z</time></trkpt><trkpt lat="43.46232789604471" lon="10.360243413129762"><ele>58.0</ele><time>2026-04-04T09:27:57Z</time></trkpt><trkpt lat="43.4622873820606" lon="10.360403212423222"><ele>58.0</ele><time>2026-04-04T09:27:58Z</time></trkpt><trkpt lat="43.46225883261418" lon="10.360579539204103"><ele>58.0</ele><time>2026-04-04T09:27:59Z</time></trkpt><trkpt lat="43.46226173599882" lon="10.360756140366478"><ele>59.0</ele><time>2026-04-04T09:28:00Z</time></trkpt><trkpt lat="43.46227614098677" lon="10.360932521772645"><ele>60.0</ele><time>2026-04-04T09:28:01Z</time></trkpt><trkpt lat="43.462287768906755" lon="10.36111383080928"><ele>61.0</ele><time>2026-04-04T09:28:02Z</time></trkpt><trkpt lat="43.46229673437825" lon="10.361292361173426"><ele>62.0</ele><time>2026-04-04T09:28:03Z</time></trkpt><trkpt lat="43.46230134646678" lon="10.361458108027875"><ele>59.8</ele><time>2026-04-04T09:28:04Z</time></trkpt><trkpt lat="43.46232329190199" lon="10.361596449215533"><ele>57.6</ele><time>2026-04-04T09:28:05Z</time></trkpt><trkpt lat="43.4623782457439" lon="10.361723121829915"><ele>55.4</ele><time>2026-04-04T09:28:06Z</time></trkpt><trkpt lat="43.46246728790948" lon="10.36182182195384"><ele>53.199999999999996</ele><time>2026-04-04T09:28:07Z</time></trkpt><trkpt lat="43.462584240736135" lon="10.361875710137443"><ele>51.0</ele><time>2026-04-04T09:28:08Z</time></trkpt><trkpt lat="43.46270572019595" lon="10.361883879414664"><ele>51.0</ele><time>2026-04-04T09:28:09Z</time></trkpt><trkpt lat="43.46281573459772" lon="10.361896612080029"><ele>51.0</ele><time>2026-04-04T09:28:10Z</time></trkpt><trkpt lat="43.46291674585915" lon="10.361914057025523"><ele>51.0</ele><time>2026-04-04T09:28:11Z</time></trkpt><trkpt lat="43.463019839289856" lon="10.3619197426027"><ele>51.0</ele><time>2026-04-04T09:28:12Z</time></trkpt><trkpt lat="43.463106319010436" lon="10.361930709670009"><ele>51.0</ele><time>2026-04-04T09:28:13Z</time></trkpt><trkpt lat="43.46318083948788" lon="10.361964190801189"><ele>51.666666666666664</ele><time>2026-04-04T09:28:14Z</time></trkpt><trkpt lat="43.46323926718757" lon="10.362041166705266"><ele>52.33333333333333</ele><time>2026-04-04T09:28:15Z</time></trkpt><trkpt lat="43.46325137193472" lon="10.362171506351165"><ele>53.0</ele><time>2026-04-04T09:28:16Z</time></trkpt><trkpt lat="43.463222701322906" lon="10.362287449152763"><ele>53.666666666666664</ele><time>2026-04-04T09:28:17Z</time></trkpt><trkpt lat="43.46316476890766" lon="10.362374057801398"><ele>54.33333333333333</ele><time>2026-04-04T09:28:18Z</time></trkpt><trkpt lat="43.4630752645198" lon="10.362427046148456"><ele>55.0</ele><time>2026-04-04T09:28:19Z</time></trkpt><trkpt lat="43.463000620835004" lon="10.362410957981053"><ele>53.33333333333333</ele><time>2026-04-04T09:28:20Z</time></trkpt><trkpt lat="43.4629189641803" lon="10.362444145035209"><ele>51.666666666666664</ele><time>2026-04-04T09:28:21Z</time></trkpt><trkpt lat="43.46284126722732" lon="10.362495912685754"><ele>50.0</ele><time>2026-04-04T09:28:22Z</time></trkpt><trkpt lat="43.46275824460521" lon="10.362503417599374"><ele>48.33333333333333</ele><time>2026-04-04T09:28:23Z</time></trkpt><trkpt lat="43.462671582166635" lon="10.362551286410415"><ele>46.666666666666664</ele><time>2026-04-04T09:28:24Z</time></trkpt><trkpt lat="43.462583342638474" lon="10.362569928000637"><ele>45.0</ele><time>2026-04-04T09:28:25Z</time></trkpt><trkpt lat="43.462499664021266" lon="10.36261530978026"><ele>45.0</ele><time>2026-04-04T09:28:26Z</time></trkpt><trkpt lat="43.462418631730195" lon="10.362680311950804"><ele>45.0</ele><time>2026-04-04T09:28:27Z</time></trkpt><trkpt lat="43.4623330081073" lon="10.362764830883622"><ele>45.0</ele><time>2026-04-04T09:28:28Z</time></trkpt><trkpt lat="43.46226912909729" lon="10.362870947823083"><ele>45.0</ele><time>2026-04-04T09:28:29Z</time></trkpt><trkpt lat="43.46219693306463" lon="10.362973972603461"><ele>45.0</ele><time>2026-04-04T09:28:30Z</time></trkpt><trkpt lat="43.46212839255702" lon="10.363079315521762"><ele>42.4</ele><time>2026-04-04T09:28:31Z</time></trkpt><trkpt lat="43.4620672901078" lon="10.363198100458682"><ele>39.8</ele><time>2026-04-04T09:28:32Z</time></trkpt><trkpt lat="43.462018944349374" lon="10.363329411208298"><ele>37.2</ele><time>2026-04-04T09:28:33Z</time></trkpt><trkpt lat="43.46197743776115" lon="10.363470507053401"><ele>34.6</ele><time>2026-04-04T09:28:34Z</time></trkpt><trkpt lat="43.461944248197476" lon="10.363623103778012"><ele>32.0</ele><time>2026-04-04T09:28:35Z</time></trkpt><trkpt lat="43.461919295050386" lon="10.363780043137458"><ele>31.0</ele><time>2026-04-04T09:28:36Z</time></trkpt><trkpt lat="43.46187444256903" lon="10.363935440512167"><ele>30.0</ele><time>2026-04-04T09:28:37Z</time></trkpt><trkpt lat="43.46184554677976" lon="10.364094821735563"><ele>29.0</ele><time>2026-04-04T09:28:38Z</time></trkpt><trkpt lat="43.46179420550516" lon="10.364247253863079"><ele>28.0</ele><time>2026-04-04T09:28:39Z</time></trkpt><trkpt lat="43.46174904458335" lon="10.364405071832515"><ele>28.0</ele><time>2026-04-04T09:28:40Z</time></trkpt><trkpt lat="43.46169669550378" lon="10.364563956549494"><ele>28.0</ele><time>2026-04-04T09:28:41Z</time></trkpt><trkpt lat="43.46160941818271" lon="10.36468942241044"><ele>28.0</ele><time>2026-04-04T09:28:42Z</time></trkpt><trkpt lat="43.461522867093954" lon="10.364804643559749"><ele>28.0</ele><time>2026-04-04T09:28:43Z</time></trkpt><trkpt lat="43.46142769630368" lon="10.364925972511248"><ele>27.75</ele><time>2026-04-04T09:28:44Z</time></trkpt><trkpt lat="43.4613376002642" lon="10.365048403599486"><ele>27.5</ele><time>2026-04-04T09:28:45Z</time></trkpt><trkpt lat="43.46124647000165" lon="10.365162468470562"><ele>27.25</ele><time>2026-04-04T09:28:46Z</time></trkpt><trkpt lat="43.461159141419685" lon="10.365283773940739"><ele>27.0</ele><time>2026-04-04T09:28:47Z</time></trkpt><trkpt lat="43.461076206381435" lon="10.365405361686008"><ele>25.25</ele><time>2026-04-04T09:28:48Z</time></trkpt><trkpt lat="43.461009881106385" lon="10.365546627126568"><ele>23.5</ele><time>2026-04-04T09:28:49Z</time></trkpt><trkpt lat="43.4609650049162" lon="10.36569363633984"><ele>21.75</ele><time>2026-04-04T09:28:50Z</time></trkpt><trkpt lat="43.46093249567115" lon="10.365855706859476"><ele>20.0</ele><time>2026-04-04T09:28:51Z</time></trkpt><trkpt lat="43.46090812939316" lon="10.36601140116997"><ele>20.0</ele><time>2026-04-04T09:28:52Z</time></trkpt><trkpt lat="43.46088210335279" lon="10.366162014389882"><ele>20.0</ele><time>2026-04-04T09:28:53Z</time></trkpt><trkpt lat="43.46085057003027" lon="10.366309148328629"><ele>20.0</ele><time>2026-04-04T09:28:54Z</time></trkpt><trkpt lat="43.460818061317305" lon="10.36645502504843"><ele>20.0</ele><time>2026-04-04T09:28:55Z</time></trkpt><trkpt lat="43.460779034796325" lon="10.366593223609268"><ele>20.0</ele><time>2026-04-04T09:28:56Z</time></trkpt><trkpt lat="43.46070541176843" lon="10.366711097127542"><ele>19.0</ele><time>2026-04-04T09:28:57Z</time></trkpt><trkpt lat="43.46064096041725" lon="10.366826316775763"><ele>18.0</ele><time>2026-04-04T09:28:58Z</time></trkpt><trkpt lat="43.460567297536166" lon="10.366922855295934"><ele>17.0</ele><time>2026-04-04T09:28:59Z</time></trkpt><trkpt lat="43.46049463365338" lon="10.367017143661041"><ele>16.0</ele><time>2026-04-04T09:29:00Z</time></trkpt><trkpt lat="43.46041815601901" lon="10.367095235813371"><ele>15.0</ele><time>2026-04-04T09:29:01Z</time></trkpt><trkpt lat="43.46033804413639" lon="10.367164575685543"><ele>15.833333333333334</ele><time>2026-04-04T09:29:02Z</time></trkpt><trkpt lat="43.46025624456926" lon="10.367218178894936"><ele>16.666666666666668</ele><time>2026-04-04T09:29:03Z</time></trkpt><trkpt lat="43.460175398568346" lon="10.367263023777854"><ele>17.5</ele><time>2026-04-04T09:29:04Z</time></trkpt><trkpt lat="43.460097959555576" lon="10.367316829992772"><ele>18.333333333333336</ele><time>2026-04-04T09:29:05Z</time></trkpt><trkpt lat="43.46002025255366" lon="10.367351454880183"><ele>19.166666666666668</ele><time>2026-04-04T09:29:06Z</time></trkpt><trkpt lat="43.459943597375386" lon="10.367377771003566"><ele>20.0</ele><time>2026-04-04T09:29:07Z</time></trkpt><trkpt lat="43.459871701575295" lon="10.367402140768062"><ele>20.0</ele><time>2026-04-04T09:29:08Z</time></trkpt><trkpt lat="43.45980781385458" lon="10.367426945052673"><ele>20.0</ele><time>2026-04-04T09:29:09Z</time></trkpt><trkpt lat="43.45974567630734" lon="10.367451641479779"><ele>20.0</ele><time>2026-04-04T09:29:10Z</time></trkpt><trkpt lat="43.4596804225001" lon="10.367478371349687"><ele>20.0</ele><time>2026-04-04T09:29:11Z</time></trkpt><trkpt lat="43.45956562931008" lon="10.367536091115687"><ele>20.0</ele><time>2026-04-04T09:29:13Z</time></trkpt><trkpt lat="43.45945779099128" lon="10.367610327284103"><ele>20.0</ele><time>2026-04-04T09:29:15Z</time></trkpt><trkpt lat="43.45940515103516" lon="10.367658803964678"><ele>20.428571428571427</ele><time>2026-04-04T09:29:16Z</time></trkpt><trkpt lat="43.45935352168273" lon="10.367709491999912"><ele>20.857142857142858</ele><time>2026-04-04T09:29:17Z</time></trkpt><trkpt lat="43.459300236486285" lon="10.367757768725978"><ele>21.285714285714285</ele><time>2026-04-04T09:29:18Z</time></trkpt><trkpt lat="43.45923480391141" lon="10.367791266998955"><ele>21.714285714285715</ele><time>2026-04-04T09:29:19Z</time></trkpt><trkpt lat="43.45917628993009" lon="10.367841156508923"><ele>22.142857142857142</ele><time>2026-04-04T09:29:20Z</time></trkpt><trkpt lat="43.45911647742535" lon="10.367897344916564"><ele>22.571428571428573</ele><time>2026-04-04T09:29:21Z</time></trkpt><trkpt lat="43.45905767002212" lon="10.367955724552985"><ele>23.0</ele><time>2026-04-04T09:29:22Z</time></trkpt><trkpt lat="43.458999371502316" lon="10.368013598985097"><ele>22.714285714285715</ele><time>2026-04-04T09:29:23Z</time></trkpt><trkpt lat="43.458942003059434" lon="10.368070550109906"><ele>22.428571428571427</ele><time>2026-04-04T09:29:24Z</time></trkpt><trkpt lat="43.45888579249892" lon="10.368126351776468"><ele>22.142857142857142</ele><time>2026-04-04T09:29:25Z</time></trkpt><trkpt lat="43.45883035820511" lon="10.368184302318529"><ele>21.857142857142858</ele><time>2026-04-04T09:29:26Z</time></trkpt><trkpt lat="43.4587761197652" lon="10.368242091829005"><ele>21.57142857142857</ele><time>2026-04-04T09:29:27Z</time></trkpt><trkpt lat="43.45871991112861" lon="10.368304248308124"><ele>21.285714285714285</ele><time>2026-04-04T09:29:28Z</time></trkpt><trkpt lat="43.45866453907646" lon="10.36836973746136"><ele>21.0</ele><time>2026-04-04T09:29:29Z</time></trkpt><trkpt lat="43.458613754478144" lon="10.368440447011265"><ele>21.0</ele><time>2026-04-04T09:29:30Z</time></trkpt><trkpt lat="43.458566030693554" lon="10.368512739279376"><ele>21.0</ele><time>2026-04-04T09:29:31Z</time></trkpt><trkpt lat="43.45853635578987" lon="10.368600978788166"><ele>21.0</ele><time>2026-04-04T09:29:32Z</time></trkpt><trkpt lat="43.45848319103491" lon="10.368668623261213"><ele>21.0</ele><time>2026-04-04T09:29:33Z</time></trkpt><trkpt lat="43.45844631494114" lon="10.36875222461112"><ele>21.0</ele><time>2026-04-04T09:29:34Z</time></trkpt><trkpt lat="43.458412169933744" lon="10.368840117079342"><ele>21.0</ele><time>2026-04-04T09:29:35Z</time></trkpt><trkpt lat="43.45839433193515" lon="10.36893484497505"><ele>21.0</ele><time>2026-04-04T09:29:36Z</time></trkpt><trkpt lat="43.45835398154743" lon="10.369009864676825"><ele>21.0</ele><time>2026-04-04T09:29:37Z</time></trkpt><trkpt lat="43.45833003483487" lon="10.369102425355683"><ele>21.0</ele><time>2026-04-04T09:29:38Z</time></trkpt><trkpt lat="43.45830657596647" lon="10.369187789780561"><ele>21.0</ele><time>2026-04-04T09:29:39Z</time></trkpt><trkpt lat="43.458282908912835" lon="10.369275301578206"><ele>21.0</ele><time>2026-04-04T09:29:40Z</time></trkpt><trkpt lat="43.4582578878795" lon="10.369355834443825"><ele>21.0</ele><time>2026-04-04T09:29:41Z</time></trkpt><trkpt lat="43.45820781643622" lon="10.369514718539232"><ele>21.0</ele><time>2026-04-04T09:29:43Z</time></trkpt><trkpt lat="43.45816275993227" lon="10.369670110244721"><ele>21.0</ele><time>2026-04-04T09:29:45Z</time></trkpt><trkpt lat="43.458117401657134" lon="10.369815315006656"><ele>21.0</ele><time>2026-04-04T09:29:47Z</time></trkpt><trkpt lat="43.45806236053511" lon="10.369947096944733"><ele>21.0</ele><time>2026-04-04T09:29:49Z</time></trkpt><trkpt lat="43.45798342805469" lon="10.370059256413155"><ele>21.0</ele><time>2026-04-04T09:29:51Z</time></trkpt><trkpt lat="43.45792897935978" lon="10.370110611571794"><ele>21.0</ele><time>2026-04-04T09:29:52Z</time></trkpt><trkpt lat="43.45789265405797" lon="10.370278123223478"><ele>21.0</ele><time>2026-04-04T09:29:54Z</time></trkpt><trkpt lat="43.457866874418805" lon="10.370375152277873"><ele>21.0</ele><time>2026-04-04T09:29:55Z</time></trkpt><trkpt lat="43.45790172279949" lon="10.370504415289886"><ele>21.0</ele><time>2026-04-04T09:29:57Z</time></trkpt><trkpt lat="43.457844509732" lon="10.370626699339489"><ele>21.0</ele><time>2026-04-04T09:29:59Z</time></trkpt><trkpt lat="43.45778004732286" lon="10.370743844769772"><ele>21.0</ele><time>2026-04-04T09:30:01Z</time></trkpt><trkpt lat="43.45771049098473" lon="10.370851982030356"><ele>21.8</ele><time>2026-04-04T09:30:03Z</time></trkpt><trkpt lat="43.45763235976812" lon="10.370960328443404"><ele>22.6</ele><time>2026-04-04T09:30:05Z</time></trkpt><trkpt lat="43.457566854077314" lon="10.371080140859265"><ele>23.4</ele><time>2026-04-04T09:30:07Z</time></trkpt><trkpt lat="43.457487585533755" lon="10.371178015572557"><ele>24.2</ele><time>2026-04-04T09:30:09Z</time></trkpt><trkpt lat="43.45740009419242" lon="10.37127364140742"><ele>25.0</ele><time>2026-04-04T09:30:11Z</time></trkpt><trkpt lat="43.4573165400291" lon="10.37136976795339"><ele>24.8</ele><time>2026-04-04T09:30:13Z</time></trkpt><trkpt lat="43.45722910435218" lon="10.371459970401053"><ele>24.6</ele><time>2026-04-04T09:30:15Z</time></trkpt><trkpt lat="43.45715399707684" lon="10.371559897905897"><ele>24.4</ele><time>2026-04-04T09:30:17Z</time></trkpt><trkpt lat="43.45707185878674" lon="10.371663161363777"><ele>24.2</ele><time>2026-04-04T09:30:19Z</time></trkpt><trkpt lat="43.456987148997335" lon="10.371754672346341"><ele>24.0</ele><time>2026-04-04T09:30:21Z</time></trkpt><trkpt lat="43.45690230568094" lon="10.371855413126235"><ele>24.0</ele><time>2026-04-04T09:30:23Z</time></trkpt><trkpt lat="43.45682492741632" lon="10.37195514413488"><ele>24.0</ele><time>2026-04-04T09:30:25Z</time></trkpt><trkpt lat="43.45674200895418" lon="10.37206349053469"><ele>24.0</ele><time>2026-04-04T09:30:27Z</time></trkpt><trkpt lat="43.45666452549238" lon="10.372165501605046"><ele>24.0</ele><time>2026-04-04T09:30:28.999Z</time></trkpt><trkpt lat="43.456579570803214" lon="10.372256707424391"><ele>24.0</ele><time>2026-04-04T09:30:30.999Z</time></trkpt><trkpt lat="43.45650059751535" lon="10.372345223232305"><ele>24.0</ele><time>2026-04-04T09:30:32.999Z</time></trkpt><trkpt lat="43.456423188393366" lon="10.37244553918222"><ele>24.0</ele><time>2026-04-04T09:30:34.999Z</time></trkpt><trkpt lat="43.45635174765735" lon="10.37254783665996"><ele>24.0</ele><time>2026-04-04T09:30:36.999Z</time></trkpt><trkpt lat="43.45626538832308" lon="10.37263430743044"><ele>24.0</ele><time>2026-04-04T09:30:38.999Z</time></trkpt><trkpt lat="43.45618321177145" lon="10.372739656253302"><ele>24.0</ele><time>2026-04-04T09:30:40.999Z</time></trkpt><trkpt lat="43.45610410254859" lon="10.372834027467386"><ele>24.0</ele><time>2026-04-04T09:30:42.999Z</time></trkpt><trkpt lat="43.45601639886692" lon="10.372937985800514"><ele>24.0</ele><time>2026-04-04T09:30:44.999Z</time></trkpt><trkpt lat="43.45593731775245" lon="10.373021991547887"><ele>24.0</ele><time>2026-04-04T09:30:46.999Z</time></trkpt><trkpt lat="43.45584673595258" lon="10.373130738357426"><ele>24.0</ele><time>2026-04-04T09:30:49Z</time></trkpt><trkpt lat="43.45576088790329" lon="10.373241830176424"><ele>24.0</ele><time>2026-04-04T09:30:51Z</time></trkpt><trkpt lat="43.4556769265459" lon="10.373353646466436"><ele>24.0</ele><time>2026-04-04T09:30:53Z</time></trkpt><trkpt lat="43.45563002560543" lon="10.373413222716252"><ele>24.0</ele><time>2026-04-04T09:30:54Z</time></trkpt><trkpt lat="43.45553774890853" lon="10.37352316532287"><ele>24.0</ele><time>2026-04-04T09:30:56Z</time></trkpt><trkpt lat="43.45544424500493" lon="10.373628884574268"><ele>24.0</ele><time>2026-04-04T09:30:58Z</time></trkpt><trkpt lat="43.45535739961467" lon="10.373747087524427"><ele>25.6</ele><time>2026-04-04T09:31:00Z</time></trkpt><trkpt lat="43.455259066858" lon="10.373862121466608"><ele>27.2</ele><time>2026-04-04T09:31:02Z</time></trkpt><trkpt lat="43.455209842820544" lon="10.373923329452754"><ele>28.800000000000004</ele><time>2026-04-04T09:31:03Z</time></trkpt><trkpt lat="43.4551621857242" lon="10.373982086705562"><ele>30.400000000000002</ele><time>2026-04-04T09:31:04Z</time></trkpt><trkpt lat="43.45511570657981" lon="10.37404340153807"><ele>32.0</ele><time>2026-04-04T09:31:05Z</time></trkpt><trkpt lat="43.4550156814268" lon="10.374150669973995"><ele>31.999999999999996</ele><time>2026-04-04T09:31:07Z</time></trkpt><trkpt lat="43.45496146331888" lon="10.374216422882807"><ele>32.0</ele><time>2026-04-04T09:31:08Z</time></trkpt><trkpt lat="43.454869003984044" lon="10.374334408065518"><ele>32.0</ele><time>2026-04-04T09:31:10Z</time></trkpt><trkpt lat="43.45482016636983" lon="10.374394580103878"><ele>32.0</ele><time>2026-04-04T09:31:11Z</time></trkpt><trkpt lat="43.45476977638387" lon="10.374456496384184"><ele>31.999999999999996</ele><time>2026-04-04T09:31:12Z</time></trkpt><trkpt lat="43.45471538135387" lon="10.374517506972948"><ele>32.0</ele><time>2026-04-04T09:31:13Z</time></trkpt><trkpt lat="43.45466025740336" lon="10.374565474513826"><ele>31.8</ele><time>2026-04-04T09:31:14Z</time></trkpt><trkpt lat="43.45461913794138" lon="10.374633178132585"><ele>31.6</ele><time>2026-04-04T09:31:15Z</time></trkpt><trkpt lat="43.45450980980988" lon="10.374723288489106"><ele>31.400000000000002</ele><time>2026-04-04T09:31:17Z</time></trkpt><trkpt lat="43.45445399078631" lon="10.374777696038356"><ele>31.200000000000003</ele><time>2026-04-04T09:31:18Z</time></trkpt><trkpt lat="43.45439644264268" lon="10.374826266289299"><ele>31.0</ele><time>2026-04-04T09:31:19Z</time></trkpt><trkpt lat="43.45428483281248" lon="10.374912616706572"><ele>31.000000000000004</ele><time>2026-04-04T09:31:21Z</time></trkpt><trkpt lat="43.4541787635322" lon="10.375002729262663"><ele>31.0</ele><time>2026-04-04T09:31:23Z</time></trkpt><trkpt lat="43.454114725133515" lon="10.375042544712388"><ele>31.0</ele><time>2026-04-04T09:31:24Z</time></trkpt><trkpt lat="43.45405866960099" lon="10.37508268862"><ele>31.0</ele><time>2026-04-04T09:31:25Z</time></trkpt><trkpt lat="43.45400008223243" lon="10.375122216239248"><ele>31.000000000000004</ele><time>2026-04-04T09:31:26Z</time></trkpt><trkpt lat="43.45394714728985" lon="10.375169953933378"><ele>31.0</ele><time>2026-04-04T09:31:27Z</time></trkpt><trkpt lat="43.45383584092699" lon="10.375241650174281"><ele>31.333333333333336</ele><time>2026-04-04T09:31:29Z</time></trkpt><trkpt lat="43.45378723402721" lon="10.375301169365455"><ele>31.666666666666668</ele><time>2026-04-04T09:31:30Z</time></trkpt><trkpt lat="43.45367237008561" lon="10.375366636368584"><ele>32.0</ele><time>2026-04-04T09:31:32Z</time></trkpt><trkpt lat="43.45362412137985" lon="10.37542695567406"><ele>32.333333333333336</ele><time>2026-04-04T09:31:33Z</time></trkpt><trkpt lat="43.45356280118457" lon="10.37545117442704"><ele>32.666666666666664</ele><time>2026-04-04T09:31:34Z</time></trkpt><trkpt lat="43.4535132758328" lon="10.375515108941284"><ele>33.0</ele><time>2026-04-04T09:31:35Z</time></trkpt><trkpt lat="43.45345038283998" lon="10.37553803346351"><ele>33.0</ele><time>2026-04-04T09:31:36Z</time></trkpt><trkpt lat="43.45333721097705" lon="10.37562561684379"><ele>33.0</ele><time>2026-04-04T09:31:38Z</time></trkpt><trkpt lat="43.45328792309297" lon="10.37569004711877"><ele>33.0</ele><time>2026-04-04T09:31:39Z</time></trkpt><trkpt lat="43.45317166141817" lon="10.375752907044003"><ele>33.0</ele><time>2026-04-04T09:31:41Z</time></trkpt><trkpt lat="43.45306328379675" lon="10.37583604277926"><ele>33.0</ele><time>2026-04-04T09:31:43Z</time></trkpt><trkpt lat="43.45296307877985" lon="10.375912909391147"><ele>31.25</ele><time>2026-04-04T09:31:45Z</time></trkpt><trkpt lat="43.452857696891456" lon="10.37599393642975"><ele>29.5</ele><time>2026-04-04T09:31:47Z</time></trkpt><trkpt lat="43.452756724287966" lon="10.376071148726776"><ele>27.75</ele><time>2026-04-04T09:31:49Z</time></trkpt><trkpt lat="43.452655569844715" lon="10.37617121520585"><ele>26.0</ele><time>2026-04-04T09:31:51Z</time></trkpt><trkpt lat="43.452541713347756" lon="10.37623565178254"><ele>25.999999999999996</ele><time>2026-04-04T09:31:53Z</time></trkpt><trkpt lat="43.45243701481312" lon="10.37631583032173"><ele>26.0</ele><time>2026-04-04T09:31:55Z</time></trkpt><trkpt lat="43.452380489590034" lon="10.37637651292687"><ele>26.0</ele><time>2026-04-04T09:31:56Z</time></trkpt><trkpt lat="43.4523264986415" lon="10.376425490278331"><ele>26.0</ele><time>2026-04-04T09:31:57Z</time></trkpt><trkpt lat="43.452263298969214" lon="10.376448862625562"><ele>25.999999999999996</ele><time>2026-04-04T09:31:58Z</time></trkpt><trkpt lat="43.45221308552234" lon="10.376513252734949"><ele>26.0</ele><time>2026-04-04T09:31:59Z</time></trkpt><trkpt lat="43.452148201376964" lon="10.376555095285518"><ele>25.57142857142857</ele><time>2026-04-04T09:32:00Z</time></trkpt><trkpt lat="43.45208587757853" lon="10.376602529550643"><ele>25.142857142857146</ele><time>2026-04-04T09:32:01Z</time></trkpt><trkpt lat="43.45202322354827" lon="10.376643806760761"><ele>24.714285714285715</ele><time>2026-04-04T09:32:02Z</time></trkpt><trkpt lat="43.45196066341494" lon="10.376693467342342"><ele>24.285714285714285</ele><time>2026-04-04T09:32:03Z</time></trkpt><trkpt lat="43.451893764159415" lon="10.37674652463162"><ele>23.857142857142854</ele><time>2026-04-04T09:32:04Z</time></trkpt><trkpt lat="43.45182510377054" lon="10.376793374878213"><ele>23.42857142857143</ele><time>2026-04-04T09:32:05Z</time></trkpt><trkpt lat="43.451757291835946" lon="10.376845633682157"><ele>23.0</ele><time>2026-04-04T09:32:06Z</time></trkpt><trkpt lat="43.4516910750137" lon="10.376894150017236"><ele>23.0</ele><time>2026-04-04T09:32:07Z</time></trkpt><trkpt lat="43.45162940669374" lon="10.37694308661843"><ele>23.0</ele><time>2026-04-04T09:32:08Z</time></trkpt><trkpt lat="43.451565043410405" lon="10.376998069576455"><ele>23.0</ele><time>2026-04-04T09:32:09Z</time></trkpt><trkpt lat="43.45148535157238" lon="10.377059930975603"><ele>23.0</ele><time>2026-04-04T09:32:10Z</time></trkpt><trkpt lat="43.451406070789744" lon="10.377102065930593"><ele>23.0</ele><time>2026-04-04T09:32:11Z</time></trkpt><trkpt lat="43.4513392598794" lon="10.377156670625638"><ele>23.0</ele><time>2026-04-04T09:32:12Z</time></trkpt><trkpt lat="43.4512629849523" lon="10.377223741744636"><ele>22.333333333333336</ele><time>2026-04-04T09:32:13Z</time></trkpt><trkpt lat="43.451189093093156" lon="10.37728401855341"><ele>21.666666666666668</ele><time>2026-04-04T09:32:14Z</time></trkpt><trkpt lat="43.45111852865794" lon="10.377340514539226"><ele>21.0</ele><time>2026-04-04T09:32:15Z</time></trkpt><trkpt lat="43.45104487443991" lon="10.377407628878288"><ele>20.333333333333332</ele><time>2026-04-04T09:32:16Z</time></trkpt><trkpt lat="43.450965052529604" lon="10.377478731261737"><ele>19.666666666666664</ele><time>2026-04-04T09:32:17Z</time></trkpt><trkpt lat="43.45089055778966" lon="10.377542757983829"><ele>19.0</ele><time>2026-04-04T09:32:18Z</time></trkpt><trkpt lat="43.45082595919777" lon="10.377613522670133"><ele>19.0</ele><time>2026-04-04T09:32:19Z</time></trkpt><trkpt lat="43.45076983442309" lon="10.377681536261875"><ele>19.0</ele><time>2026-04-04T09:32:20Z</time></trkpt><trkpt lat="43.45072211550431" lon="10.377746713903761"><ele>19.0</ele><time>2026-04-04T09:32:21Z</time></trkpt><trkpt lat="43.45067128329451" lon="10.377816018039022"><ele>19.0</ele><time>2026-04-04T09:32:22Z</time></trkpt><trkpt lat="43.45062980382137" lon="10.37788832768705"><ele>19.0</ele><time>2026-04-04T09:32:23Z</time></trkpt><trkpt lat="43.450588642151565" lon="10.377976790694056"><ele>19.0</ele><time>2026-04-04T09:32:24Z</time></trkpt><trkpt lat="43.450548766880466" lon="10.378055554920277"><ele>19.0</ele><time>2026-04-04T09:32:25Z</time></trkpt><trkpt lat="43.450503991792466" lon="10.378140278903642"><ele>18.333333333333332</ele><time>2026-04-04T09:32:26Z</time></trkpt><trkpt lat="43.45045386686425" lon="10.378216763504152"><ele>17.666666666666664</ele><time>2026-04-04T09:32:27Z</time></trkpt><trkpt lat="43.450405979634404" lon="10.378300134243043"><ele>17.0</ele><time>2026-04-04T09:32:28Z</time></trkpt><trkpt lat="43.45036675472034" lon="10.37839171560579"><ele>16.333333333333332</ele><time>2026-04-04T09:32:29Z</time></trkpt><trkpt lat="43.45031596907216" lon="10.378480480101908"><ele>15.666666666666666</ele><time>2026-04-04T09:32:30Z</time></trkpt><trkpt lat="43.45026584910185" lon="10.378575987760138"><ele>15.0</ele><time>2026-04-04T09:32:31Z</time></trkpt><trkpt lat="43.45021425059121" lon="10.378671682370221"><ele>15.0</ele><time>2026-04-04T09:32:32Z</time></trkpt><trkpt lat="43.45016016724725" lon="10.378756856594237"><ele>15.0</ele><time>2026-04-04T09:32:33Z</time></trkpt><trkpt lat="43.4500976043944" lon="10.378836574011078"><ele>15.0</ele><time>2026-04-04T09:32:34Z</time></trkpt><trkpt lat="43.450030399020825" lon="10.378919339049991"><ele>15.0</ele><time>2026-04-04T09:32:35Z</time></trkpt><trkpt lat="43.44996539176654" lon="10.378993577636681"><ele>15.0</ele><time>2026-04-04T09:32:36Z</time></trkpt><trkpt lat="43.44989090772315" lon="10.379067129345447"><ele>15.0</ele><time>2026-04-04T09:32:37Z</time></trkpt><trkpt lat="43.44982410328072" lon="10.379142147226327"><ele>14.666666666666666</ele><time>2026-04-04T09:32:38Z</time></trkpt><trkpt lat="43.449762058894116" lon="10.379218202992156"><ele>14.333333333333332</ele><time>2026-04-04T09:32:39Z</time></trkpt><trkpt lat="43.44969883312718" lon="10.379300042463292"><ele>14.0</ele><time>2026-04-04T09:32:40Z</time></trkpt><trkpt lat="43.44963912634267" lon="10.379372417822154"><ele>13.666666666666666</ele><time>2026-04-04T09:32:41Z</time></trkpt><trkpt lat="43.449576529558065" lon="10.37943463148893"><ele>13.333333333333332</ele><time>2026-04-04T09:32:42Z</time></trkpt><trkpt lat="43.44950230491137" lon="10.379489682213704"><ele>13.0</ele><time>2026-04-04T09:32:43Z</time></trkpt><trkpt lat="43.449439772570415" lon="10.379544956621798"><ele>12.714285714285714</ele><time>2026-04-04T09:32:44Z</time></trkpt><trkpt lat="43.44937735472662" lon="10.379610249394165"><ele>12.428571428571429</ele><time>2026-04-04T09:32:45Z</time></trkpt><trkpt lat="43.44931942718948" lon="10.379671966764743"><ele>12.142857142857142</ele><time>2026-04-04T09:32:46Z</time></trkpt><trkpt lat="43.449260122707564" lon="10.379728692407236"><ele>11.857142857142858</ele><time>2026-04-04T09:32:47Z</time></trkpt><trkpt lat="43.44920472673712" lon="10.379786717524036"><ele>11.571428571428571</ele><time>2026-04-04T09:32:48Z</time></trkpt><trkpt lat="43.44914852953134" lon="10.379849496036446"><ele>11.285714285714286</ele><time>2026-04-04T09:32:49Z</time></trkpt><trkpt lat="43.44909654734701" lon="10.379906032614926"><ele>11.0</ele><time>2026-04-04T09:32:49.999Z</time></trkpt><trkpt lat="43.44902176103149" lon="10.379929263162083"><ele>11.0</ele><time>2026-04-04T09:32:50.999Z</time></trkpt><trkpt lat="43.44896741614259" lon="10.37998212024583"><ele>11.0</ele><time>2026-04-04T09:32:51.999Z</time></trkpt><trkpt lat="43.44886593180972" lon="10.380080329805466"><ele>11.0</ele><time>2026-04-04T09:32:53.999Z</time></trkpt><trkpt lat="43.44876946205274" lon="10.380171365005927"><ele>11.0</ele><time>2026-04-04T09:32:56Z</time></trkpt><trkpt lat="43.448686926178006" lon="10.38026755468243"><ele>11.0</ele><time>2026-04-04T09:32:58Z</time></trkpt><trkpt lat="43.44859631290882" lon="10.38035195801192"><ele>10.8</ele><time>2026-04-04T09:33:00Z</time></trkpt><trkpt lat="43.4485175786018" lon="10.380427895995359"><ele>10.600000000000001</ele><time>2026-04-04T09:33:02Z</time></trkpt><trkpt lat="43.4484374800916" lon="10.380500037027915"><ele>10.4</ele><time>2026-04-04T09:33:04Z</time></trkpt><trkpt lat="43.448364362472" lon="10.380577881924273"><ele>10.2</ele><time>2026-04-04T09:33:06Z</time></trkpt><trkpt lat="43.448273306016624" lon="10.380649461208991"><ele>10.0</ele><time>2026-04-04T09:33:08Z</time></trkpt><trkpt lat="43.44818810957308" lon="10.380728474642316"><ele>10.2</ele><time>2026-04-04T09:33:10Z</time></trkpt><trkpt lat="43.44810523640537" lon="10.38080744147154"><ele>10.4</ele><time>2026-04-04T09:33:12Z</time></trkpt><trkpt lat="43.448021739631045" lon="10.380882900510768"><ele>10.600000000000001</ele><time>2026-04-04T09:33:14Z</time></trkpt><trkpt lat="43.44794131207353" lon="10.380956626391315"><ele>10.8</ele><time>2026-04-04T09:33:16Z</time></trkpt><trkpt lat="43.447869281455944" lon="10.38101888311784"><ele>11.0</ele><time>2026-04-04T09:33:18Z</time></trkpt><trkpt lat="43.44779050119838" lon="10.381092376980561"><ele>11.0</ele><time>2026-04-04T09:33:20Z</time></trkpt><trkpt lat="43.44771281499737" lon="10.381157824640853"><ele>11.0</ele><time>2026-04-04T09:33:22Z</time></trkpt><trkpt lat="43.4476357835676" lon="10.381231101975883"><ele>11.0</ele><time>2026-04-04T09:33:24Z</time></trkpt><trkpt lat="43.44755882257688" lon="10.381302853588"><ele>11.0</ele><time>2026-04-04T09:33:26Z</time></trkpt><trkpt lat="43.44748180561964" lon="10.381374077099338"><ele>11.0</ele><time>2026-04-04T09:33:28Z</time></trkpt><trkpt lat="43.447409479845895" lon="10.381441035883162"><ele>10.666666666666666</ele><time>2026-04-04T09:33:30Z</time></trkpt><trkpt lat="43.447337703796016" lon="10.381509158264077"><ele>10.333333333333332</ele><time>2026-04-04T09:33:32Z</time></trkpt><trkpt lat="43.447268553581104" lon="10.38157526273808"><ele>10.0</ele><time>2026-04-04T09:33:34Z</time></trkpt><trkpt lat="43.447198995335526" lon="10.381639517038298"><ele>9.666666666666666</ele><time>2026-04-04T09:33:36Z</time></trkpt><trkpt lat="43.447126907459214" lon="10.381701726327927"><ele>9.333333333333334</ele><time>2026-04-04T09:33:38Z</time></trkpt><trkpt lat="43.447054575419976" lon="10.381768631096095"><ele>9.0</ele><time>2026-04-04T09:33:40Z</time></trkpt><trkpt lat="43.44699250348228" lon="10.381837895463077"><ele>9.0</ele><time>2026-04-04T09:33:42Z</time></trkpt><trkpt lat="43.44691966363463" lon="10.381903807365823"><ele>9.0</ele><time>2026-04-04T09:33:44Z</time></trkpt><trkpt lat="43.44684658942567" lon="10.381982867462742"><ele>9.0</ele><time>2026-04-04T09:33:46Z</time></trkpt><trkpt lat="43.446781658956304" lon="10.382050729458483"><ele>9.0</ele><time>2026-04-04T09:33:48Z</time></trkpt><trkpt lat="43.446704949630075" lon="10.382112754171402"><ele>9.0</ele><time>2026-04-04T09:33:50Z</time></trkpt><trkpt lat="43.4466338418859" lon="10.382177684676908"><ele>9.0</ele><time>2026-04-04T09:33:52Z</time></trkpt><trkpt lat="43.44655907223994" lon="10.382239108941645"><ele>9.666666666666666</ele><time>2026-04-04T09:33:54Z</time></trkpt><trkpt lat="43.446487665970054" lon="10.382304270490392"><ele>10.333333333333332</ele><time>2026-04-04T09:33:56Z</time></trkpt><trkpt lat="43.44641653506224" lon="10.382364490582887"><ele>11.0</ele><time>2026-04-04T09:33:58Z</time></trkpt><trkpt lat="43.44635562543138" lon="10.382426005593002"><ele>11.666666666666666</ele><time>2026-04-04T09:34:00Z</time></trkpt><trkpt lat="43.446272353658124" lon="10.382478631627222"><ele>12.333333333333332</ele><time>2026-04-04T09:34:02Z</time></trkpt><trkpt lat="43.44619527508249" lon="10.382520999076904"><ele>13.0</ele><time>2026-04-04T09:34:04Z</time></trkpt><trkpt lat="43.44611127320865" lon="10.38254826957181"><ele>13.0</ele><time>2026-04-04T09:34:06Z</time></trkpt><trkpt lat="43.44602399031114" lon="10.382577670487168"><ele>13.0</ele><time>2026-04-04T09:34:08Z</time></trkpt><trkpt lat="43.44593443257449" lon="10.38260387108102"><ele>13.0</ele><time>2026-04-04T09:34:10Z</time></trkpt><trkpt lat="43.44584469704864" lon="10.38262787710196"><ele>13.0</ele><time>2026-04-04T09:34:12Z</time></trkpt><trkpt lat="43.44575193245174" lon="10.382657579138252"><ele>13.0</ele><time>2026-04-04T09:34:14Z</time></trkpt><trkpt lat="43.44565974995827" lon="10.382689114688198"><ele>13.0</ele><time>2026-04-04T09:34:16Z</time></trkpt><trkpt lat="43.44556999817207" lon="10.382713540235265"><ele>13.0</ele><time>2026-04-04T09:34:18Z</time></trkpt><trkpt lat="43.445479767497915" lon="10.382752354881754"><ele>13.0</ele><time>2026-04-04T09:34:20Z</time></trkpt><trkpt lat="43.44538843305975" lon="10.382780123378677"><ele>13.0</ele><time>2026-04-04T09:34:22Z</time></trkpt><trkpt lat="43.44529568098325" lon="10.382804615370164"><ele>13.0</ele><time>2026-04-04T09:34:24Z</time></trkpt><trkpt lat="43.44519689090644" lon="10.382838913225887"><ele>12.5</ele><time>2026-04-04T09:34:26Z</time></trkpt><trkpt lat="43.44508835312835" lon="10.382869334725145"><ele>12.0</ele><time>2026-04-04T09:34:28Z</time></trkpt><trkpt lat="43.44497732085504" lon="10.382890787545236"><ele>11.5</ele><time>2026-04-04T09:34:30Z</time></trkpt><trkpt lat="43.44486644308474" lon="10.382936819738406"><ele>11.0</ele><time>2026-04-04T09:34:32Z</time></trkpt><trkpt lat="43.444754101400974" lon="10.382966578773159"><ele>11.0</ele><time>2026-04-04T09:34:34Z</time></trkpt><trkpt lat="43.444690925611084" lon="10.382980666024899"><ele>11.0</ele><time>2026-04-04T09:34:35Z</time></trkpt><trkpt lat="43.444564847028055" lon="10.383016907731049"><ele>11.0</ele><time>2026-04-04T09:34:37Z</time></trkpt><trkpt lat="43.444500713069374" lon="10.383039968137838"><ele>11.0</ele><time>2026-04-04T09:34:38Z</time></trkpt><trkpt lat="43.444432002764074" lon="10.383066833549417"><ele>11.0</ele><time>2026-04-04T09:34:39Z</time></trkpt><trkpt lat="43.44436386753044" lon="10.383088068642527"><ele>11.0</ele><time>2026-04-04T09:34:40Z</time></trkpt><trkpt lat="43.44429229548756" lon="10.383112054035328"><ele>12.333333333333332</ele><time>2026-04-04T09:34:41Z</time></trkpt><trkpt lat="43.444218010334566" lon="10.38314516831469"><ele>13.666666666666666</ele><time>2026-04-04T09:34:42Z</time></trkpt><trkpt lat="43.44414067882417" lon="10.383180641434745"><ele>15.0</ele><time>2026-04-04T09:34:43Z</time></trkpt><trkpt lat="43.44406340930054" lon="10.383212443276642"><ele>16.333333333333332</ele><time>2026-04-04T09:34:44Z</time></trkpt><trkpt lat="43.443987299561755" lon="10.383254505232967"><ele>17.666666666666664</ele><time>2026-04-04T09:34:45Z</time></trkpt><trkpt lat="43.443910057968885" lon="10.383302122423272"><ele>19.0</ele><time>2026-04-04T09:34:46Z</time></trkpt><trkpt lat="43.443832833652316" lon="10.383361975770589"><ele>18.0</ele><time>2026-04-04T09:34:47Z</time></trkpt><trkpt lat="43.443753300319045" lon="10.38341066609773"><ele>17.0</ele><time>2026-04-04T09:34:48Z</time></trkpt><trkpt lat="43.44367733428732" lon="10.383453069344151"><ele>16.0</ele><time>2026-04-04T09:34:49Z</time></trkpt><trkpt lat="43.44360314752757" lon="10.383501997827738"><ele>15.0</ele><time>2026-04-04T09:34:50Z</time></trkpt><trkpt lat="43.44353467240547" lon="10.383535338139176"><ele>13.999999999999998</ele><time>2026-04-04T09:34:51Z</time></trkpt><trkpt lat="43.44346077951536" lon="10.383611509770578"><ele>13.0</ele><time>2026-04-04T09:34:52Z</time></trkpt><trkpt lat="43.44338894281669" lon="10.383659771428256"><ele>13.0</ele><time>2026-04-04T09:34:53Z</time></trkpt><trkpt lat="43.443317473366534" lon="10.38370693531685"><ele>13.0</ele><time>2026-04-04T09:34:54Z</time></trkpt><trkpt lat="43.44324770511309" lon="10.383755304006545"><ele>13.0</ele><time>2026-04-04T09:34:55Z</time></trkpt><trkpt lat="43.44317835524253" lon="10.383790395371323"><ele>13.0</ele><time>2026-04-04T09:34:56Z</time></trkpt><trkpt lat="43.44312144366388" lon="10.383845540773732"><ele>13.0</ele><time>2026-04-04T09:34:57Z</time></trkpt><trkpt lat="43.44306398055701" lon="10.383901621074301"><ele>13.0</ele><time>2026-04-04T09:34:58Z</time></trkpt><trkpt lat="43.44300321674193" lon="10.383948194538634"><ele>13.0</ele><time>2026-04-04T09:34:59Z</time></trkpt><trkpt lat="43.44289216948156" lon="10.38402945231199"><ele>13.25</ele><time>2026-04-04T09:35:01Z</time></trkpt><trkpt lat="43.44278623795676" lon="10.38410200590597"><ele>13.5</ele><time>2026-04-04T09:35:03Z</time></trkpt><trkpt lat="43.44268336788884" lon="10.384182394422224"><ele>13.75</ele><time>2026-04-04T09:35:05Z</time></trkpt><trkpt lat="43.44257783452538" lon="10.384241768620944"><ele>14.0</ele><time>2026-04-04T09:35:07Z</time></trkpt><trkpt lat="43.44248154254311" lon="10.384311084883764"><ele>14.0</ele><time>2026-04-04T09:35:09Z</time></trkpt><trkpt lat="43.442425705347176" lon="10.384354440257434"><ele>13.999999999999998</ele><time>2026-04-04T09:35:10Z</time></trkpt><trkpt lat="43.44233015678943" lon="10.384427695750398"><ele>13.999999999999998</ele><time>2026-04-04T09:35:12Z</time></trkpt><trkpt lat="43.442232121989825" lon="10.384499954939468"><ele>14.0</ele><time>2026-04-04T09:35:14Z</time></trkpt><trkpt lat="43.44213429981025" lon="10.38457734649129"><ele>14.0</ele><time>2026-04-04T09:35:16Z</time></trkpt><trkpt lat="43.442030484909495" lon="10.384638749568397"><ele>15.5</ele><time>2026-04-04T09:35:18Z</time></trkpt><trkpt lat="43.44192976109047" lon="10.384713866277169"><ele>17.0</ele><time>2026-04-04T09:35:20Z</time></trkpt><trkpt lat="43.44183122591663" lon="10.38479044634848"><ele>18.5</ele><time>2026-04-04T09:35:22Z</time></trkpt><trkpt lat="43.44172707460268" lon="10.38486951991489"><ele>20.0</ele><time>2026-04-04T09:35:24Z</time></trkpt><trkpt lat="43.441627469850864" lon="10.384948707600973"><ele>20.0</ele><time>2026-04-04T09:35:26Z</time></trkpt><trkpt lat="43.44152287646703" lon="10.38502684271842"><ele>20.0</ele><time>2026-04-04T09:35:28Z</time></trkpt><trkpt lat="43.44141868205654" lon="10.385099198755244"><ele>20.0</ele><time>2026-04-04T09:35:30Z</time></trkpt><trkpt lat="43.44131639920258" lon="10.385174477427771"><ele>20.0</ele><time>2026-04-04T09:35:32Z</time></trkpt><trkpt lat="43.441206918190424" lon="10.38524871556239"><ele>19.25</ele><time>2026-04-04T09:35:34Z</time></trkpt><trkpt lat="43.44111093176017" lon="10.38533123986549"><ele>18.5</ele><time>2026-04-04T09:35:36Z</time></trkpt><trkpt lat="43.44099956943277" lon="10.385411109824638"><ele>17.75</ele><time>2026-04-04T09:35:38Z</time></trkpt><trkpt lat="43.44089964056429" lon="10.385478917833884"><ele>17.0</ele><time>2026-04-04T09:35:40Z</time></trkpt><trkpt lat="43.440796175807534" lon="10.385555751210353"><ele>17.0</ele><time>2026-04-04T09:35:42Z</time></trkpt><trkpt lat="43.44068930641282" lon="10.385636883478695"><ele>17.0</ele><time>2026-04-04T09:35:44Z</time></trkpt><trkpt lat="43.44058155757162" lon="10.385709693036555"><ele>17.0</ele><time>2026-04-04T09:35:46Z</time></trkpt><trkpt lat="43.44048356950005" lon="10.385776902080204"><ele>17.0</ele><time>2026-04-04T09:35:48Z</time></trkpt><trkpt lat="43.440378973248194" lon="10.385850927333145"><ele>17.0</ele><time>2026-04-04T09:35:50Z</time></trkpt><trkpt lat="43.44028022202949" lon="10.385922904042024"><ele>17.0</ele><time>2026-04-04T09:35:52Z</time></trkpt><trkpt lat="43.44016945180207" lon="10.38598932091077"><ele>17.0</ele><time>2026-04-04T09:35:54Z</time></trkpt><trkpt lat="43.44006470653483" lon="10.386047868177277"><ele>17.0</ele><time>2026-04-04T09:35:56Z</time></trkpt><trkpt lat="43.439959742260775" lon="10.38610491901998"><ele>17.0</ele><time>2026-04-04T09:35:58Z</time></trkpt><trkpt lat="43.43985738600185" lon="10.386156843376554"><ele>17.0</ele><time>2026-04-04T09:36:00Z</time></trkpt><trkpt lat="43.43975095569351" lon="10.38621807102681"><ele>17.0</ele><time>2026-04-04T09:36:02Z</time></trkpt><trkpt lat="43.4396494920004" lon="10.386277385427"><ele>17.0</ele><time>2026-04-04T09:36:04Z</time></trkpt><trkpt lat="43.439543292626695" lon="10.386328245621055"><ele>17.0</ele><time>2026-04-04T09:36:06Z</time></trkpt><trkpt lat="43.4394349820713" lon="10.386389355105141"><ele>17.0</ele><time>2026-04-04T09:36:08Z</time></trkpt><trkpt lat="43.4393300093518" lon="10.386446310797627"><ele>17.0</ele><time>2026-04-04T09:36:10Z</time></trkpt><trkpt lat="43.43922356018561" lon="10.386496493040331"><ele>17.0</ele><time>2026-04-04T09:36:12Z</time></trkpt><trkpt lat="43.439117332438975" lon="10.386553440293698"><ele>17.0</ele><time>2026-04-04T09:36:14Z</time></trkpt><trkpt lat="43.43900953288899" lon="10.386613425152357"><ele>17.0</ele><time>2026-04-04T09:36:16Z</time></trkpt><trkpt lat="43.43889956947074" lon="10.386661680191265"><ele>17.0</ele><time>2026-04-04T09:36:18Z</time></trkpt><trkpt lat="43.4387944471816" lon="10.386717203565716"><ele>17.0</ele><time>2026-04-04T09:36:20Z</time></trkpt><trkpt lat="43.43868894116868" lon="10.386782391947554"><ele>17.0</ele><time>2026-04-04T09:36:22Z</time></trkpt><trkpt lat="43.43858597386687" lon="10.386833567085594"><ele>16.0</ele><time>2026-04-04T09:36:24Z</time></trkpt><trkpt lat="43.43848212132326" lon="10.386882870826842"><ele>15.0</ele><time>2026-04-04T09:36:26Z</time></trkpt><trkpt lat="43.438377298956176" lon="10.386938827159092"><ele>14.0</ele><time>2026-04-04T09:36:28Z</time></trkpt><trkpt lat="43.4382739726889" lon="10.386991523499656"><ele>13.0</ele><time>2026-04-04T09:36:30Z</time></trkpt><trkpt lat="43.4381711687583" lon="10.38703929068018"><ele>12.0</ele><time>2026-04-04T09:36:32Z</time></trkpt><trkpt lat="43.43806325527293" lon="10.387075103259633"><ele>11.2</ele><time>2026-04-04T09:36:34Z</time></trkpt><trkpt lat="43.4379572643372" lon="10.387139514910814"><ele>10.399999999999999</ele><time>2026-04-04T09:36:36Z</time></trkpt><trkpt lat="43.437850986258184" lon="10.387194354335243"><ele>9.600000000000001</ele><time>2026-04-04T09:36:38Z</time></trkpt><trkpt lat="43.43774806803644" lon="10.387249261439099"><ele>8.8</ele><time>2026-04-04T09:36:40Z</time></trkpt><trkpt lat="43.43764589078568" lon="10.387279468458958"><ele>8.0</ele><time>2026-04-04T09:36:42Z</time></trkpt><trkpt lat="43.43753966499662" lon="10.387290967596428"><ele>9.5</ele><time>2026-04-04T09:36:44Z</time></trkpt><trkpt lat="43.43742591932226" lon="10.387426043752978"><ele>11.0</ele><time>2026-04-04T09:36:46Z</time></trkpt><trkpt lat="43.437318542790926" lon="10.38746975757045"><ele>12.5</ele><time>2026-04-04T09:36:48Z</time></trkpt><trkpt lat="43.43720732722761" lon="10.38753053326808"><ele>14.0</ele><time>2026-04-04T09:36:50Z</time></trkpt><trkpt lat="43.4371011415167" lon="10.38758678393879"><ele>14.0</ele><time>2026-04-04T09:36:52Z</time></trkpt><trkpt lat="43.43699756325673" lon="10.38765379730308"><ele>13.999999999999998</ele><time>2026-04-04T09:36:54Z</time></trkpt><trkpt lat="43.43689200818373" lon="10.387705101788098"><ele>13.999999999999998</ele><time>2026-04-04T09:36:56Z</time></trkpt><trkpt lat="43.4367926899265" lon="10.387761289472126"><ele>14.0</ele><time>2026-04-04T09:36:58Z</time></trkpt><trkpt lat="43.436691695134094" lon="10.387808110043679"><ele>14.0</ele><time>2026-04-04T09:37:00Z</time></trkpt><trkpt lat="43.43659046559413" lon="10.387854078342267"><ele>14.0</ele><time>2026-04-04T09:37:02Z</time></trkpt><trkpt lat="43.43648742489488" lon="10.387913389203527"><ele>13.999999999999998</ele><time>2026-04-04T09:37:04Z</time></trkpt><trkpt lat="43.43638828461961" lon="10.387963156731184"><ele>13.999999999999998</ele><time>2026-04-04T09:37:05.999Z</time></trkpt><trkpt lat="43.43629019981897" lon="10.388011949837331"><ele>14.0</ele><time>2026-04-04T09:37:08Z</time></trkpt><trkpt lat="43.436195854420816" lon="10.388058470250536"><ele>14.0</ele><time>2026-04-04T09:37:10Z</time></trkpt><trkpt lat="43.43609917319544" lon="10.388105895079176"><ele>15.2</ele><time>2026-04-04T09:37:12Z</time></trkpt><trkpt lat="43.436001022861376" lon="10.388152933510733"><ele>16.4</ele><time>2026-04-04T09:37:14Z</time></trkpt><trkpt lat="43.43590193325334" lon="10.388206806070034"><ele>17.6</ele><time>2026-04-04T09:37:16Z</time></trkpt><trkpt lat="43.43580553394202" lon="10.38826222437465"><ele>18.8</ele><time>2026-04-04T09:37:18Z</time></trkpt><trkpt lat="43.43570723835993" lon="10.38831650567819"><ele>20.0</ele><time>2026-04-04T09:37:20Z</time></trkpt><trkpt lat="43.435609703152785" lon="10.388367886226959"><ele>20.0</ele><time>2026-04-04T09:37:22Z</time></trkpt><trkpt lat="43.435518124359184" lon="10.388434506054985"><ele>20.0</ele><time>2026-04-04T09:37:24Z</time></trkpt><trkpt lat="43.43542651849199" lon="10.388433201071292"><ele>20.0</ele><time>2026-04-04T09:37:26Z</time></trkpt><trkpt lat="43.43533573886529" lon="10.388534310986095"><ele>20.0</ele><time>2026-04-04T09:37:28Z</time></trkpt><trkpt lat="43.43526339443266" lon="10.388597032513966"><ele>20.0</ele><time>2026-04-04T09:37:30Z</time></trkpt><trkpt lat="43.43516375399987" lon="10.38865741913073"><ele>19.6</ele><time>2026-04-04T09:37:32Z</time></trkpt><trkpt lat="43.435061048461606" lon="10.38872717857223"><ele>19.2</ele><time>2026-04-04T09:37:34Z</time></trkpt><trkpt lat="43.43496935465046" lon="10.388787969485607"><ele>18.8</ele><time>2026-04-04T09:37:36Z</time></trkpt><trkpt lat="43.43487831185302" lon="10.388864206531533"><ele>18.4</ele><time>2026-04-04T09:37:38Z</time></trkpt><trkpt lat="43.43477825412974" lon="10.388938982195594"><ele>18.0</ele><time>2026-04-04T09:37:40Z</time></trkpt><trkpt lat="43.434692956096654" lon="10.389012665142056"><ele>17.8</ele><time>2026-04-04T09:37:42Z</time></trkpt><trkpt lat="43.43463325976916" lon="10.38904559507954"><ele>17.6</ele><time>2026-04-04T09:37:43Z</time></trkpt><trkpt lat="43.434527511582004" lon="10.38912617805899"><ele>17.4</ele><time>2026-04-04T09:37:45Z</time></trkpt><trkpt lat="43.43441873557832" lon="10.389207128673174"><ele>17.2</ele><time>2026-04-04T09:37:47Z</time></trkpt><trkpt lat="43.434327119560514" lon="10.38928055896236"><ele>17.0</ele><time>2026-04-04T09:37:49Z</time></trkpt><trkpt lat="43.434263057923026" lon="10.389303571703076"><ele>16.999999999999996</ele><time>2026-04-04T09:37:50Z</time></trkpt><trkpt lat="43.43420916616209" lon="10.389352506730274"><ele>17.0</ele><time>2026-04-04T09:37:51Z</time></trkpt><trkpt lat="43.43414856161782" lon="10.389398081867478"><ele>17.0</ele><time>2026-04-04T09:37:52Z</time></trkpt><trkpt lat="43.434092367122375" lon="10.389438192353401"><ele>17.0</ele><time>2026-04-04T09:37:53Z</time></trkpt><trkpt lat="43.4340376571546" lon="10.38948149715148"><ele>17.0</ele><time>2026-04-04T09:37:54Z</time></trkpt><trkpt lat="43.433980364691266" lon="10.38952278936476"><ele>16.999999999999996</ele><time>2026-04-04T09:37:55Z</time></trkpt><trkpt lat="43.43392087447133" lon="10.389564532312724"><ele>17.0</ele><time>2026-04-04T09:37:56Z</time></trkpt><trkpt lat="43.43386337426651" lon="10.389610828757862"><ele>17.5</ele><time>2026-04-04T09:37:57Z</time></trkpt><trkpt lat="43.433804027854485" lon="10.389657138284146"><ele>18.0</ele><time>2026-04-04T09:37:58Z</time></trkpt><trkpt lat="43.43374397473654" lon="10.389697435528685"><ele>18.5</ele><time>2026-04-04T09:37:59Z</time></trkpt><trkpt lat="43.43368127963304" lon="10.389742336624145"><ele>19.0</ele><time>2026-04-04T09:38:00Z</time></trkpt><trkpt lat="43.43356306021626" lon="10.389827389454535"><ele>19.5</ele><time>2026-04-04T09:38:02Z</time></trkpt><trkpt lat="43.43350188003089" lon="10.389873027149235"><ele>20.0</ele><time>2026-04-04T09:38:03Z</time></trkpt><trkpt lat="43.43338298490845" lon="10.389952267692093"><ele>20.0</ele><time>2026-04-04T09:38:05Z</time></trkpt><trkpt lat="43.433325472590475" lon="10.389993605502111"><ele>20.0</ele><time>2026-04-04T09:38:06Z</time></trkpt><trkpt lat="43.4332122776377" lon="10.390054995315998"><ele>20.0</ele><time>2026-04-04T09:38:08Z</time></trkpt><trkpt lat="43.433152480582656" lon="10.390119756138562"><ele>20.0</ele><time>2026-04-04T09:38:09Z</time></trkpt><trkpt lat="43.433041489167074" lon="10.390201069803611"><ele>20.0</ele><time>2026-04-04T09:38:11Z</time></trkpt><trkpt lat="43.4329325842752" lon="10.390272836847007"><ele>20.166666666666668</ele><time>2026-04-04T09:38:13Z</time></trkpt><trkpt lat="43.432871256141354" lon="10.390326976396489"><ele>20.333333333333336</ele><time>2026-04-04T09:38:14Z</time></trkpt><trkpt lat="43.43280535195771" lon="10.390362903027258"><ele>20.5</ele><time>2026-04-04T09:38:15Z</time></trkpt><trkpt lat="43.43270938529158" lon="10.390451277192106"><ele>20.666666666666668</ele><time>2026-04-04T09:38:17Z</time></trkpt><trkpt lat="43.432643726776796" lon="10.39047872848122"><ele>20.833333333333332</ele><time>2026-04-04T09:38:18Z</time></trkpt><trkpt lat="43.432586387676125" lon="10.39052963900523"><ele>21.0</ele><time>2026-04-04T09:38:19Z</time></trkpt><trkpt lat="43.4325296285683" lon="10.390573378129577"><ele>21.0</ele><time>2026-04-04T09:38:20Z</time></trkpt><trkpt lat="43.43247319075801" lon="10.390618391862795"><ele>21.0</ele><time>2026-04-04T09:38:21Z</time></trkpt><trkpt lat="43.43241076629897" lon="10.390667101506207"><ele>21.0</ele><time>2026-04-04T09:38:22Z</time></trkpt><trkpt lat="43.43233954481238" lon="10.390718632107015"><ele>21.0</ele><time>2026-04-04T09:38:23Z</time></trkpt><trkpt lat="43.432203782896295" lon="10.390806558985771"><ele>21.0</ele><time>2026-04-04T09:38:25Z</time></trkpt><trkpt lat="43.43214609295963" lon="10.390848288468321"><ele>21.0</ele><time>2026-04-04T09:38:26Z</time></trkpt><trkpt lat="43.432042107427264" lon="10.390922928657519"><ele>20.285714285714285</ele><time>2026-04-04T09:38:28Z</time></trkpt><trkpt lat="43.43198420139146" lon="10.390975042753883"><ele>19.57142857142857</ele><time>2026-04-04T09:38:29Z</time></trkpt><trkpt lat="43.43192125089669" lon="10.39102117027472"><ele>18.857142857142858</ele><time>2026-04-04T09:38:30Z</time></trkpt><trkpt lat="43.43185492316482" lon="10.391060473072125"><ele>18.142857142857142</ele><time>2026-04-04T09:38:31Z</time></trkpt><trkpt lat="43.43179944113116" lon="10.391108487797547"><ele>17.428571428571427</ele><time>2026-04-04T09:38:32Z</time></trkpt><trkpt lat="43.431738940847445" lon="10.391149757439925"><ele>16.714285714285715</ele><time>2026-04-04T09:38:33Z</time></trkpt><trkpt lat="43.431677083310234" lon="10.391184610127198"><ele>16.0</ele><time>2026-04-04T09:38:34Z</time></trkpt><trkpt lat="43.43156731531449" lon="10.39126679630734"><ele>15.999999999999998</ele><time>2026-04-04T09:38:36Z</time></trkpt><trkpt lat="43.431502496887745" lon="10.391330791877039"><ele>16.0</ele><time>2026-04-04T09:38:37Z</time></trkpt><trkpt lat="43.4314430806281" lon="10.39138516449266"><ele>16.0</ele><time>2026-04-04T09:38:38Z</time></trkpt><trkpt lat="43.43138666406093" lon="10.391430530612533"><ele>16.0</ele><time>2026-04-04T09:38:39Z</time></trkpt><trkpt lat="43.431285914695565" lon="10.391543699471905"><ele>15.999999999999998</ele><time>2026-04-04T09:38:41Z</time></trkpt><trkpt lat="43.4312419345581" lon="10.391620889850943"><ele>16.0</ele><time>2026-04-04T09:38:42Z</time></trkpt><trkpt lat="43.43119823046562" lon="10.39168842984216"><ele>15.571428571428571</ele><time>2026-04-04T09:38:43Z</time></trkpt><trkpt lat="43.431160528735106" lon="10.39176249743328"><ele>15.142857142857142</ele><time>2026-04-04T09:38:44Z</time></trkpt><trkpt lat="43.43112283825456" lon="10.391842846391357"><ele>14.714285714285714</ele><time>2026-04-04T09:38:45Z</time></trkpt><trkpt lat="43.431093392456866" lon="10.391925079971529"><ele>14.285714285714285</ele><time>2026-04-04T09:38:46Z</time></trkpt><trkpt lat="43.43107038347712" lon="10.392015671308608"><ele>13.857142857142858</ele><time>2026-04-04T09:38:47Z</time></trkpt><trkpt lat="43.43105391544317" lon="10.392109987371411"><ele>13.428571428571427</ele><time>2026-04-04T09:38:48Z</time></trkpt><trkpt lat="43.431035881101394" lon="10.392207317885367"><ele>13.0</ele><time>2026-04-04T09:38:49Z</time></trkpt><trkpt lat="43.43102119609819" lon="10.392308715886385"><ele>12.999999999999998</ele><time>2026-04-04T09:38:50Z</time></trkpt><trkpt lat="43.431015111757674" lon="10.392410847986497"><ele>13.0</ele><time>2026-04-04T09:38:51Z</time></trkpt><trkpt lat="43.431019736606075" lon="10.392515536877116"><ele>13.0</ele><time>2026-04-04T09:38:52Z</time></trkpt><trkpt lat="43.43101853898863" lon="10.392621475426116"><ele>13.0</ele><time>2026-04-04T09:38:53Z</time></trkpt><trkpt lat="43.43101422283095" lon="10.392729213420035"><ele>12.999999999999998</ele><time>2026-04-04T09:38:54Z</time></trkpt><trkpt lat="43.43101032964208" lon="10.392833753579474"><ele>13.0</ele><time>2026-04-04T09:38:55Z</time></trkpt><trkpt lat="43.43100013038303" lon="10.392937981339493"><ele>13.571428571428571</ele><time>2026-04-04T09:38:56Z</time></trkpt><trkpt lat="43.43098164419027" lon="10.393040974992813"><ele>14.142857142857142</ele><time>2026-04-04T09:38:57Z</time></trkpt><trkpt lat="43.43095199262226" lon="10.393140261039154"><ele>14.714285714285714</ele><time>2026-04-04T09:38:58Z</time></trkpt><trkpt lat="43.43091889680724" lon="10.393233870534138"><ele>15.285714285714285</ele><time>2026-04-04T09:38:59Z</time></trkpt><trkpt lat="43.430881629376856" lon="10.393318455265208"><ele>15.857142857142858</ele><time>2026-04-04T09:39:00Z</time></trkpt><trkpt lat="43.43084237522586" lon="10.393394119631186"><ele>16.428571428571427</ele><time>2026-04-04T09:39:01Z</time></trkpt><trkpt lat="43.43080182061963" lon="10.393472921036762"><ele>17.0</ele><time>2026-04-04T09:39:02Z</time></trkpt><trkpt lat="43.43073087003367" lon="10.393616748090135"><ele>17.0</ele><time>2026-04-04T09:39:04Z</time></trkpt><trkpt lat="43.430659939306786" lon="10.39375676577582"><ele>17.0</ele><time>2026-04-04T09:39:06Z</time></trkpt><trkpt lat="43.43059229977707" lon="10.393885735712358"><ele>17.0</ele><time>2026-04-04T09:39:08Z</time></trkpt><trkpt lat="43.430527303608784" lon="10.39401363844803"><ele>17.0</ele><time>2026-04-04T09:39:10Z</time></trkpt><trkpt lat="43.43046609848211" lon="10.394143127873104"><ele>17.8</ele><time>2026-04-04T09:39:11.999Z</time></trkpt><trkpt lat="43.43040335882573" lon="10.394273865133933"><ele>18.6</ele><time>2026-04-04T09:39:14Z</time></trkpt><trkpt lat="43.430337416044836" lon="10.39439496214674"><ele>19.400000000000002</ele><time>2026-04-04T09:39:16Z</time></trkpt><trkpt lat="43.43027785597955" lon="10.394508818970548"><ele>20.2</ele><time>2026-04-04T09:39:18Z</time></trkpt><trkpt lat="43.43020971032926" lon="10.394615896160827"><ele>21.0</ele><time>2026-04-04T09:39:20Z</time></trkpt><trkpt lat="43.43014017636998" lon="10.394720165808423"><ele>21.8</ele><time>2026-04-04T09:39:22Z</time></trkpt><trkpt lat="43.43005916449907" lon="10.394807783244445"><ele>22.6</ele><time>2026-04-04T09:39:24Z</time></trkpt><trkpt lat="43.42996995505206" lon="10.394883373506445"><ele>23.4</ele><time>2026-04-04T09:39:26Z</time></trkpt><trkpt lat="43.42988910563929" lon="10.39495210266033"><ele>24.2</ele><time>2026-04-04T09:39:28Z</time></trkpt><trkpt lat="43.42981014360432" lon="10.395030984231836"><ele>25.0</ele><time>2026-04-04T09:39:30Z</time></trkpt><trkpt lat="43.429750979382696" lon="10.395139288379777"><ele>25.000000000000004</ele><time>2026-04-04T09:39:32Z</time></trkpt><trkpt lat="43.42969102355359" lon="10.395258458994938"><ele>25.0</ele><time>2026-04-04T09:39:34Z</time></trkpt><trkpt lat="43.42962935691541" lon="10.395408615476631"><ele>25.0</ele><time>2026-04-04T09:39:36Z</time></trkpt><trkpt lat="43.42959523366348" lon="10.39549089911261"><ele>25.0</ele><time>2026-04-04T09:39:37Z</time></trkpt><trkpt lat="43.42956347900936" lon="10.395567471185707"><ele>25.000000000000004</ele><time>2026-04-04T09:39:38Z</time></trkpt><trkpt lat="43.429541200184126" lon="10.395655449057493"><ele>25.0</ele><time>2026-04-04T09:39:39Z</time></trkpt><trkpt lat="43.42948199935402" lon="10.395740423632777"><ele>24.2</ele><time>2026-04-04T09:39:40Z</time></trkpt><trkpt lat="43.42941521730619" lon="10.395919315666895"><ele>23.4</ele><time>2026-04-04T09:39:42Z</time></trkpt><trkpt lat="43.42937282924679" lon="10.3960108629386"><ele>22.6</ele><time>2026-04-04T09:39:43Z</time></trkpt><trkpt lat="43.42930426625232" lon="10.396067873373827"><ele>21.8</ele><time>2026-04-04T09:39:44Z</time></trkpt><trkpt lat="43.429245290192" lon="10.396135486819485"><ele>21.0</ele><time>2026-04-04T09:39:45Z</time></trkpt><trkpt lat="43.42917642167741" lon="10.396169390474139"><ele>21.0</ele><time>2026-04-04T09:39:46Z</time></trkpt><trkpt lat="43.42911104084429" lon="10.39621299894636"><ele>21.0</ele><time>2026-04-04T09:39:47Z</time></trkpt><trkpt lat="43.429046424656896" lon="10.39625493181648"><ele>21.0</ele><time>2026-04-04T09:39:48Z</time></trkpt><trkpt lat="43.42898380832493" lon="10.396297351892057"><ele>21.0</ele><time>2026-04-04T09:39:49Z</time></trkpt><trkpt lat="43.42892461348584" lon="10.396344685405396"><ele>21.0</ele><time>2026-04-04T09:39:50Z</time></trkpt><trkpt lat="43.42886979866598" lon="10.396396172817276"><ele>21.0</ele><time>2026-04-04T09:39:51Z</time></trkpt><trkpt lat="43.428816891416425" lon="10.396453837476654"><ele>21.0</ele><time>2026-04-04T09:39:52Z</time></trkpt><trkpt lat="43.428767653074274" lon="10.396513037101473"><ele>20.142857142857142</ele><time>2026-04-04T09:39:53Z</time></trkpt><trkpt lat="43.42872245764907" lon="10.396577165300219"><ele>19.285714285714285</ele><time>2026-04-04T09:39:54Z</time></trkpt><trkpt lat="43.428683555268115" lon="10.396650155149601"><ele>18.42857142857143</ele><time>2026-04-04T09:39:55Z</time></trkpt><trkpt lat="43.428651840562374" lon="10.39673102196798"><ele>17.57142857142857</ele><time>2026-04-04T09:39:56Z</time></trkpt><trkpt lat="43.428619332439084" lon="10.396811133989097"><ele>16.714285714285715</ele><time>2026-04-04T09:39:57Z</time></trkpt><trkpt lat="43.42859104981508" lon="10.396898151364283"><ele>15.857142857142858</ele><time>2026-04-04T09:39:58Z</time></trkpt><trkpt lat="43.42856568143925" lon="10.396986323825637"><ele>15.0</ele><time>2026-04-04T09:39:59Z</time></trkpt><trkpt lat="43.4285432977581" lon="10.397080494827708"><ele>15.333333333333334</ele><time>2026-04-04T09:40:00Z</time></trkpt><trkpt lat="43.428523371669534" lon="10.397177941540775"><ele>15.666666666666668</ele><time>2026-04-04T09:40:01Z</time></trkpt><trkpt lat="43.428505288724324" lon="10.397282578247"><ele>16.0</ele><time>2026-04-04T09:40:02Z</time></trkpt><trkpt lat="43.42849330593372" lon="10.397389066039544"><ele>16.333333333333336</ele><time>2026-04-04T09:40:03Z</time></trkpt><trkpt lat="43.428473631365954" lon="10.397493924499532"><ele>16.666666666666668</ele><time>2026-04-04T09:40:04Z</time></trkpt><trkpt lat="43.428452480671076" lon="10.397602551340368"><ele>17.0</ele><time>2026-04-04T09:40:05Z</time></trkpt><trkpt lat="43.42842704003745" lon="10.397714091268325"><ele>17.0</ele><time>2026-04-04T09:40:06Z</time></trkpt><trkpt lat="43.428395411470326" lon="10.397822288927028"><ele>17.0</ele><time>2026-04-04T09:40:07Z</time></trkpt><trkpt lat="43.428353335621814" lon="10.397927342780708"><ele>17.0</ele><time>2026-04-04T09:40:08Z</time></trkpt><trkpt lat="43.4283051590165" lon="10.398034598821624"><ele>17.0</ele><time>2026-04-04T09:40:09Z</time></trkpt><trkpt lat="43.4282377488672" lon="10.398122132379743"><ele>17.0</ele><time>2026-04-04T09:40:10Z</time></trkpt><trkpt lat="43.428167103079865" lon="10.398199353179258"><ele>17.0</ele><time>2026-04-04T09:40:11Z</time></trkpt><trkpt lat="43.42810434013555" lon="10.39830183744587"><ele>16.833333333333336</ele><time>2026-04-04T09:40:12Z</time></trkpt><trkpt lat="43.42804529829491" lon="10.398400228569667"><ele>16.666666666666668</ele><time>2026-04-04T09:40:13Z</time></trkpt><trkpt lat="43.42798615416601" lon="10.398489107464284"><ele>16.5</ele><time>2026-04-04T09:40:14Z</time></trkpt><trkpt lat="43.42791936356916" lon="10.39856691173429"><ele>16.333333333333332</ele><time>2026-04-04T09:40:15Z</time></trkpt><trkpt lat="43.42785676406964" lon="10.398644825049107"><ele>16.166666666666664</ele><time>2026-04-04T09:40:16Z</time></trkpt><trkpt lat="43.427794967496204" lon="10.398715510003592"><ele>16.0</ele><time>2026-04-04T09:40:17Z</time></trkpt><trkpt lat="43.42772205367104" lon="10.398763150962754"><ele>15.0</ele><time>2026-04-04T09:40:18Z</time></trkpt><trkpt lat="43.42764231577359" lon="10.398774081854814"><ele>13.999999999999998</ele><time>2026-04-04T09:40:19Z</time></trkpt><trkpt lat="43.427568065399505" lon="10.398777317859334"><ele>13.0</ele><time>2026-04-04T09:40:20Z</time></trkpt><trkpt lat="43.427498919703496" lon="10.398779091431233"><ele>12.0</ele><time>2026-04-04T09:40:21Z</time></trkpt><trkpt lat="43.42743427931275" lon="10.398787579331996"><ele>11.0</ele><time>2026-04-04T09:40:22Z</time></trkpt><trkpt lat="43.42736830695804" lon="10.39879470059549"><ele>10.0</ele><time>2026-04-04T09:40:23Z</time></trkpt><trkpt lat="43.427303916165876" lon="10.398803448504541"><ele>9.0</ele><time>2026-04-04T09:40:24Z</time></trkpt><trkpt lat="43.42723765757413" lon="10.398813051845735"><ele>8.8</ele><time>2026-04-04T09:40:25Z</time></trkpt><trkpt lat="43.42712143749111" lon="10.398856888128966"><ele>8.600000000000001</ele><time>2026-04-04T09:40:27Z</time></trkpt><trkpt lat="43.4270106875129" lon="10.398927936211354"><ele>8.4</ele><time>2026-04-04T09:40:29Z</time></trkpt><trkpt lat="43.426923490891035" lon="10.399050472335396"><ele>8.200000000000001</ele><time>2026-04-04T09:40:31Z</time></trkpt><trkpt lat="43.42688788856884" lon="10.399123449237123"><ele>8.0</ele><time>2026-04-04T09:40:32Z</time></trkpt><trkpt lat="43.42683794468978" lon="10.399277696827415"><ele>8.0</ele><time>2026-04-04T09:40:34Z</time></trkpt><trkpt lat="43.426818458502666" lon="10.399361315364803"><ele>7.999999999999999</ele><time>2026-04-04T09:40:35Z</time></trkpt><trkpt lat="43.42677508812651" lon="10.399525051645"><ele>8.0</ele><time>2026-04-04T09:40:37Z</time></trkpt><trkpt lat="43.426747630641984" lon="10.399608029406528"><ele>8.0</ele><time>2026-04-04T09:40:38Z</time></trkpt><trkpt lat="43.426719015432425" lon="10.399686236296356"><ele>7.999999999999999</ele><time>2026-04-04T09:40:39Z</time></trkpt><trkpt lat="43.4266828550711" lon="10.399758787372509"><ele>8.0</ele><time>2026-04-04T09:40:40Z</time></trkpt><trkpt lat="43.42663450775025" lon="10.399815668939727"><ele>8.0</ele><time>2026-04-04T09:40:41Z</time></trkpt><trkpt lat="43.42651812691784" lon="10.399875550024552"><ele>7.6000000000000005</ele><time>2026-04-04T09:40:43Z</time></trkpt><trkpt lat="43.42639672066435" lon="10.39990072144177"><ele>7.200000000000001</ele><time>2026-04-04T09:40:45Z</time></trkpt><trkpt lat="43.426334726503605" lon="10.399924427727157"><ele>6.8</ele><time>2026-04-04T09:40:46Z</time></trkpt><trkpt lat="43.42621850654131" lon="10.399968893635721"><ele>6.4</ele><time>2026-04-04T09:40:48Z</time></trkpt><trkpt lat="43.4261118168676" lon="10.400048237405798"><ele>6.0</ele><time>2026-04-04T09:40:50Z</time></trkpt><trkpt lat="43.42602405636804" lon="10.400154889950342"><ele>6.0</ele><time>2026-04-04T09:40:52Z</time></trkpt><trkpt lat="43.42595085130091" lon="10.400285461403408"><ele>6.0</ele><time>2026-04-04T09:40:54Z</time></trkpt><trkpt lat="43.42588787714935" lon="10.400411138556832"><ele>6.0</ele><time>2026-04-04T09:40:56Z</time></trkpt><trkpt lat="43.42582345993025" lon="10.400534129052293"><ele>6.0</ele><time>2026-04-04T09:40:58Z</time></trkpt><trkpt lat="43.425763905856506" lon="10.400667933462232"><ele>7.0</ele><time>2026-04-04T09:41:00Z</time></trkpt><trkpt lat="43.42568942007552" lon="10.400778613851786"><ele>8.0</ele><time>2026-04-04T09:41:02Z</time></trkpt><trkpt lat="43.42559025808639" lon="10.40085307653094"><ele>9.0</ele><time>2026-04-04T09:41:04Z</time></trkpt><trkpt lat="43.425482530969525" lon="10.400890406106576"><ele>10.0</ele><time>2026-04-04T09:41:06Z</time></trkpt><trkpt lat="43.42536983435315" lon="10.400938025082334"><ele>10.0</ele><time>2026-04-04T09:41:08Z</time></trkpt><trkpt lat="43.42525913916742" lon="10.400981543306143"><ele>10.0</ele><time>2026-04-04T09:41:10Z</time></trkpt><trkpt lat="43.42515133946649" lon="10.401025011011452"><ele>10.0</ele><time>2026-04-04T09:41:12Z</time></trkpt><trkpt lat="43.42504101031688" lon="10.401063222200031"><ele>10.0</ele><time>2026-04-04T09:41:14Z</time></trkpt><trkpt lat="43.42493100702186" lon="10.401113904237002"><ele>10.0</ele><time>2026-04-04T09:41:16Z</time></trkpt><trkpt lat="43.42482035710497" lon="10.401145401324326"><ele>10.0</ele><time>2026-04-04T09:41:18Z</time></trkpt><trkpt lat="43.42471230409398" lon="10.401176894047152"><ele>10.0</ele><time>2026-04-04T09:41:20Z</time></trkpt><trkpt lat="43.424596102183855" lon="10.401193919407703"><ele>10.0</ele><time>2026-04-04T09:41:22Z</time></trkpt><trkpt lat="43.424490787687866" lon="10.40120353593202"><ele>10.0</ele><time>2026-04-04T09:41:24Z</time></trkpt><trkpt lat="43.42438060157742" lon="10.401230886482958"><ele>9.0</ele><time>2026-04-04T09:41:26Z</time></trkpt><trkpt lat="43.42426673297979" lon="10.401244568512904"><ele>8.0</ele><time>2026-04-04T09:41:28Z</time></trkpt><trkpt lat="43.424152958985566" lon="10.40126621263156"><ele>7.0</ele><time>2026-04-04T09:41:30Z</time></trkpt><trkpt lat="43.4240366439554" lon="10.401289185372013"><ele>6.0</ele><time>2026-04-04T09:41:32Z</time></trkpt><trkpt lat="43.42391021854489" lon="10.401325536425347"><ele>9.0</ele><time>2026-04-04T09:41:34Z</time></trkpt><trkpt lat="43.423827488324264" lon="10.40133529267013"><ele>12.0</ele><time>2026-04-04T09:41:35Z</time></trkpt><trkpt lat="43.423736548861825" lon="10.401363331056173"><ele>15.000000000000002</ele><time>2026-04-04T09:41:36Z</time></trkpt><trkpt lat="43.42364271418013" lon="10.40139426429685"><ele>18.0</ele><time>2026-04-04T09:41:39Z</time></trkpt><trkpt lat="43.423526367683365" lon="10.401433287685139"><ele>21.0</ele><time>2026-04-04T09:41:41Z</time></trkpt><trkpt lat="43.42341048244474" lon="10.401475758609404"><ele>21.0</ele><time>2026-04-04T09:41:43Z</time></trkpt><trkpt lat="43.42334980536864" lon="10.401503526017867"><ele>21.0</ele><time>2026-04-04T09:41:44Z</time></trkpt><trkpt lat="43.42324216989669" lon="10.401554658164255"><ele>21.0</ele><time>2026-04-04T09:41:46Z</time></trkpt><trkpt lat="43.42313117783622" lon="10.401591209985439"><ele>21.0</ele><time>2026-04-04T09:41:48Z</time></trkpt><trkpt lat="43.42301546458952" lon="10.401579750044055"><ele>21.0</ele><time>2026-04-04T09:41:50Z</time></trkpt><trkpt lat="43.422898851893265" lon="10.401545677652662"><ele>21.0</ele><time>2026-04-04T09:41:52Z</time></trkpt><trkpt lat="43.42278883430848" lon="10.401518541947913"><ele>21.0</ele><time>2026-04-04T09:41:54Z</time></trkpt><trkpt lat="43.42267649781124" lon="10.401506385308972"><ele>21.0</ele><time>2026-04-04T09:41:56Z</time></trkpt><trkpt lat="43.4225667889496" lon="10.401473172937385"><ele>21.0</ele><time>2026-04-04T09:41:58Z</time></trkpt><trkpt lat="43.42246293863441" lon="10.401444027414245"><ele>21.0</ele><time>2026-04-04T09:42:00Z</time></trkpt><trkpt lat="43.42234905870151" lon="10.401410812456517"><ele>21.0</ele><time>2026-04-04T09:42:02Z</time></trkpt><trkpt lat="43.4222838672803" lon="10.401400596684157"><ele>21.0</ele><time>2026-04-04T09:42:03Z</time></trkpt><trkpt lat="43.42217978729201" lon="10.401360546867354"><ele>21.0</ele><time>2026-04-04T09:42:05Z</time></trkpt><trkpt lat="43.422072245803875" lon="10.401332347585962"><ele>21.0</ele><time>2026-04-04T09:42:07Z</time></trkpt><trkpt lat="43.42195590225425" lon="10.401299558460984"><ele>21.0</ele><time>2026-04-04T09:42:09Z</time></trkpt><trkpt lat="43.42184442831035" lon="10.401265948969252"><ele>18.8</ele><time>2026-04-04T09:42:11Z</time></trkpt><trkpt lat="43.421731978841756" lon="10.401236197957186"><ele>16.6</ele><time>2026-04-04T09:42:13Z</time></trkpt><trkpt lat="43.4216219311601" lon="10.401205437031425"><ele>14.4</ele><time>2026-04-04T09:42:15Z</time></trkpt><trkpt lat="43.421509774513844" lon="10.401178547489906"><ele>12.2</ele><time>2026-04-04T09:42:17Z</time></trkpt><trkpt lat="43.421446015142976" lon="10.401181221359664"><ele>10.0</ele><time>2026-04-04T09:42:18Z</time></trkpt><trkpt lat="43.421342056036124" lon="10.401152468561127"><ele>9.2</ele><time>2026-04-04T09:42:20Z</time></trkpt><trkpt lat="43.421282120450925" lon="10.401121604323093"><ele>8.4</ele><time>2026-04-04T09:42:21Z</time></trkpt><trkpt lat="43.42117108474427" lon="10.40111914106595"><ele>7.6</ele><time>2026-04-04T09:42:23Z</time></trkpt><trkpt lat="43.4210575391025" lon="10.401142303946079"><ele>6.8</ele><time>2026-04-04T09:42:25Z</time></trkpt><trkpt lat="43.420950299631535" lon="10.40120544605184"><ele>6.0</ele><time>2026-04-04T09:42:27Z</time></trkpt><trkpt lat="43.420852522334194" lon="10.40128304692625"><ele>6.75</ele><time>2026-04-04T09:42:29Z</time></trkpt><trkpt lat="43.42075440311864" lon="10.4013592296927"><ele>7.5</ele><time>2026-04-04T09:42:31Z</time></trkpt><trkpt lat="43.42065545408009" lon="10.40144392775472"><ele>8.25</ele><time>2026-04-04T09:42:33Z</time></trkpt><trkpt lat="43.420556882631885" lon="10.40152734666696"><ele>9.0</ele><time>2026-04-04T09:42:35Z</time></trkpt><trkpt lat="43.42045489138978" lon="10.401610430787851"><ele>9.0</ele><time>2026-04-04T09:42:37Z</time></trkpt><trkpt lat="43.42035310087312" lon="10.401695379175413"><ele>9.0</ele><time>2026-04-04T09:42:39Z</time></trkpt><trkpt lat="43.42025506127717" lon="10.40176278367042"><ele>9.0</ele><time>2026-04-04T09:42:41Z</time></trkpt><trkpt lat="43.4201446112494" lon="10.401806453283944"><ele>9.0</ele><time>2026-04-04T09:42:43Z</time></trkpt><trkpt lat="43.42007540776752" lon="10.401809276484645"><ele>9.0</ele><time>2026-04-04T09:42:44Z</time></trkpt><trkpt lat="43.41997319030557" lon="10.401835474447127"><ele>9.0</ele><time>2026-04-04T09:42:46Z</time></trkpt><trkpt lat="43.41985975198652" lon="10.40182853208345"><ele>9.0</ele><time>2026-04-04T09:42:48Z</time></trkpt><trkpt lat="43.41975744804829" lon="10.401822367738456"><ele>9.0</ele><time>2026-04-04T09:42:50Z</time></trkpt><trkpt lat="43.419644020574715" lon="10.40182690692894"><ele>9.0</ele><time>2026-04-04T09:42:52Z</time></trkpt><trkpt lat="43.419526640001514" lon="10.401819096847507"><ele>9.0</ele><time>2026-04-04T09:42:54Z</time></trkpt><trkpt lat="43.419413773055595" lon="10.401813058466765"><ele>10.25</ele><time>2026-04-04T09:42:56Z</time></trkpt><trkpt lat="43.41929968524975" lon="10.401807980060587"><ele>11.5</ele><time>2026-04-04T09:42:58Z</time></trkpt><trkpt lat="43.41917940062982" lon="10.4018008096901"><ele>12.75</ele><time>2026-04-04T09:43:00Z</time></trkpt><trkpt lat="43.41906319719181" lon="10.401802230288467"><ele>14.0</ele><time>2026-04-04T09:43:02Z</time></trkpt><trkpt lat="43.418945988939534" lon="10.401795836606368"><ele>14.0</ele><time>2026-04-04T09:43:04Z</time></trkpt><trkpt lat="43.4188302910546" lon="10.40179553354716"><ele>13.999999999999998</ele><time>2026-04-04T09:43:06Z</time></trkpt><trkpt lat="43.418713124634294" lon="10.40178204162403"><ele>13.999999999999998</ele><time>2026-04-04T09:43:08Z</time></trkpt><trkpt lat="43.418608063756935" lon="10.401748623553297"><ele>14.0</ele><time>2026-04-04T09:43:10Z</time></trkpt><trkpt lat="43.418545347224175" lon="10.401737743512728"><ele>14.0</ele><time>2026-04-04T09:43:11Z</time></trkpt><trkpt lat="43.418439538322005" lon="10.401727811658029"><ele>14.399999999999999</ele><time>2026-04-04T09:43:13Z</time></trkpt><trkpt lat="43.418326665890156" lon="10.401711272638611"><ele>14.799999999999999</ele><time>2026-04-04T09:43:15Z</time></trkpt><trkpt lat="43.41821954689079" lon="10.401692866807837"><ele>15.200000000000001</ele><time>2026-04-04T09:43:17Z</time></trkpt><trkpt lat="43.41810352901283" lon="10.401668070047803"><ele>15.600000000000001</ele><time>2026-04-04T09:43:19Z</time></trkpt><trkpt lat="43.41799469236079" lon="10.401645688007292"><ele>16.0</ele><time>2026-04-04T09:43:21Z</time></trkpt><trkpt lat="43.41788267934661" lon="10.40161864191374"><ele>17.0</ele><time>2026-04-04T09:43:23Z</time></trkpt><trkpt lat="43.41777176254979" lon="10.40159609852437"><ele>18.0</ele><time>2026-04-04T09:43:25Z</time></trkpt><trkpt lat="43.417654764241895" lon="10.401578469985447"><ele>19.0</ele><time>2026-04-04T09:43:27Z</time></trkpt><trkpt lat="43.41754100491644" lon="10.401550298775103"><ele>20.0</ele><time>2026-04-04T09:43:29Z</time></trkpt><trkpt lat="43.41742931187728" lon="10.401513307349395"><ele>20.0</ele><time>2026-04-04T09:43:31Z</time></trkpt><trkpt lat="43.417310209579725" lon="10.401489139166225"><ele>20.0</ele><time>2026-04-04T09:43:33Z</time></trkpt><trkpt lat="43.41720071425586" lon="10.401490009998271"><ele>20.0</ele><time>2026-04-04T09:43:35Z</time></trkpt><trkpt lat="43.417138464397134" lon="10.40145428874248"><ele>20.0</ele><time>2026-04-04T09:43:36Z</time></trkpt><trkpt lat="43.417026113298675" lon="10.401431490491548"><ele>20.0</ele><time>2026-04-04T09:43:38Z</time></trkpt><trkpt lat="43.41691144631119" lon="10.401408222331458"><ele>21.5</ele><time>2026-04-04T09:43:40Z</time></trkpt><trkpt lat="43.41679819788742" lon="10.401385134039415"><ele>23.0</ele><time>2026-04-04T09:43:42Z</time></trkpt><trkpt lat="43.41668248872124" lon="10.401369490717856"><ele>24.5</ele><time>2026-04-04T09:43:44Z</time></trkpt><trkpt lat="43.416570467589274" lon="10.40135226674022"><ele>26.0</ele><time>2026-04-04T09:43:46Z</time></trkpt><trkpt lat="43.41646508542269" lon="10.401327257940425"><ele>23.400000000000002</ele><time>2026-04-04T09:43:48Z</time></trkpt><trkpt lat="43.41634818527872" lon="10.40130621795881"><ele>20.8</ele><time>2026-04-04T09:43:50Z</time></trkpt><trkpt lat="43.416244082467045" lon="10.401287588930666"><ele>18.200000000000003</ele><time>2026-04-04T09:43:52Z</time></trkpt><trkpt lat="43.41614550719054" lon="10.401287680812487"><ele>15.600000000000001</ele><time>2026-04-04T09:43:54Z</time></trkpt><trkpt lat="43.416049677496574" lon="10.401306272719104"><ele>13.0</ele><time>2026-04-04T09:43:56Z</time></trkpt><trkpt lat="43.415956299110015" lon="10.401328031032596"><ele>14.833333333333332</ele><time>2026-04-04T09:43:58Z</time></trkpt><trkpt lat="43.415870110541" lon="10.40136621286657"><ele>16.666666666666664</ele><time>2026-04-04T09:44:00Z</time></trkpt><trkpt lat="43.4157890644546" lon="10.401427420968012"><ele>18.5</ele><time>2026-04-04T09:44:02Z</time></trkpt><trkpt lat="43.415721493267725" lon="10.40150632867583"><ele>20.333333333333332</ele><time>2026-04-04T09:44:04Z</time></trkpt><trkpt lat="43.41565543277917" lon="10.401589811528138"><ele>22.166666666666668</ele><time>2026-04-04T09:44:06Z</time></trkpt><trkpt lat="43.41559490175181" lon="10.401677299662403"><ele>24.0</ele><time>2026-04-04T09:44:08Z</time></trkpt><trkpt lat="43.41554186035961" lon="10.401773605100585"><ele>21.333333333333332</ele><time>2026-04-04T09:44:10Z</time></trkpt><trkpt lat="43.41547974422353" lon="10.40186211216293"><ele>18.666666666666668</ele><time>2026-04-04T09:44:12Z</time></trkpt><trkpt lat="43.41541403560334" lon="10.40193811408036"><ele>16.0</ele><time>2026-04-04T09:44:14Z</time></trkpt><trkpt lat="43.415347643690296" lon="10.402022521711864"><ele>13.333333333333332</ele><time>2026-04-04T09:44:16Z</time></trkpt><trkpt lat="43.41526652043673" lon="10.402071789360935"><ele>10.666666666666666</ele><time>2026-04-04T09:44:18Z</time></trkpt><trkpt lat="43.415179344399" lon="10.40209366869018"><ele>8.0</ele><time>2026-04-04T09:44:20Z</time></trkpt><trkpt lat="43.41508954259403" lon="10.402094797766186"><ele>7.999999999999999</ele><time>2026-04-04T09:44:22Z</time></trkpt><trkpt lat="43.41499926358991" lon="10.402109910122329"><ele>8.0</ele><time>2026-04-04T09:44:24Z</time></trkpt><trkpt lat="43.41491634296474" lon="10.402138994131862"><ele>8.0</ele><time>2026-04-04T09:44:26Z</time></trkpt><trkpt lat="43.41483714614464" lon="10.402192627061531"><ele>8.0</ele><time>2026-04-04T09:44:28Z</time></trkpt><trkpt lat="43.414767193166824" lon="10.40225693310814"><ele>7.999999999999999</ele><time>2026-04-04T09:44:30Z</time></trkpt><trkpt lat="43.41470016413998" lon="10.402319632015422"><ele>8.0</ele><time>2026-04-04T09:44:32Z</time></trkpt><trkpt lat="43.41462800964475" lon="10.40239220828345"><ele>10.333333333333332</ele><time>2026-04-04T09:44:34Z</time></trkpt><trkpt lat="43.414550104244235" lon="10.40246022532545"><ele>12.666666666666666</ele><time>2026-04-04T09:44:36Z</time></trkpt><trkpt lat="43.41447375188653" lon="10.402514735659137"><ele>15.0</ele><time>2026-04-04T09:44:38Z</time></trkpt><trkpt lat="43.41438952852434" lon="10.402561329487137"><ele>17.333333333333332</ele><time>2026-04-04T09:44:40Z</time></trkpt><trkpt lat="43.4143111789011" lon="10.402603232601741"><ele>19.666666666666664</ele><time>2026-04-04T09:44:42Z</time></trkpt><trkpt lat="43.41422251487627" lon="10.402647747708318"><ele>22.0</ele><time>2026-04-04T09:44:44Z</time></trkpt><trkpt lat="43.414135729008" lon="10.402683532652002"><ele>22.0</ele><time>2026-04-04T09:44:46Z</time></trkpt><trkpt lat="43.41404068614443" lon="10.402706791152982"><ele>22.0</ele><time>2026-04-04T09:44:48Z</time></trkpt><trkpt lat="43.413932460075564" lon="10.402696817450478"><ele>22.0</ele><time>2026-04-04T09:44:50Z</time></trkpt><trkpt lat="43.41382576222675" lon="10.402659836630061"><ele>22.0</ele><time>2026-04-04T09:44:52Z</time></trkpt><trkpt lat="43.41371618508979" lon="10.402622781937671"><ele>22.0</ele><time>2026-04-04T09:44:54Z</time></trkpt><trkpt lat="43.413610684508726" lon="10.402606960956536"><ele>20.6</ele><time>2026-04-04T09:44:56Z</time></trkpt><trkpt lat="43.41349672275082" lon="10.402631484552986"><ele>19.200000000000003</ele><time>2026-04-04T09:44:58Z</time></trkpt><trkpt lat="43.41339002345747" lon="10.402683807979978"><ele>17.8</ele><time>2026-04-04T09:45:00Z</time></trkpt><trkpt lat="43.413298368316894" lon="10.402765465802753"><ele>16.4</ele><time>2026-04-04T09:45:02Z</time></trkpt><trkpt lat="43.41322147730325" lon="10.402867954485515"><ele>15.0</ele><time>2026-04-04T09:45:04Z</time></trkpt><trkpt lat="43.413146135512434" lon="10.402982487036892"><ele>14.2</ele><time>2026-04-04T09:45:06Z</time></trkpt><trkpt lat="43.413076341402906" lon="10.403104582171048"><ele>13.4</ele><time>2026-04-04T09:45:08Z</time></trkpt><trkpt lat="43.41300638077718" lon="10.40322826779358"><ele>12.600000000000001</ele><time>2026-04-04T09:45:10Z</time></trkpt><trkpt lat="43.41293725213735" lon="10.403353109885472"><ele>11.8</ele><time>2026-04-04T09:45:12Z</time></trkpt><trkpt lat="43.412873746151256" lon="10.403472997800591"><ele>11.0</ele><time>2026-04-04T09:45:14Z</time></trkpt><trkpt lat="43.41279926263613" lon="10.40358818725185"><ele>11.0</ele><time>2026-04-04T09:45:16Z</time></trkpt><trkpt lat="43.412729752410854" lon="10.403692974846692"><ele>11.0</ele><time>2026-04-04T09:45:18Z</time></trkpt><trkpt lat="43.41265938251457" lon="10.403801278390164"><ele>11.0</ele><time>2026-04-04T09:45:20Z</time></trkpt><trkpt lat="43.412568459121154" lon="10.403885258979306"><ele>11.0</ele><time>2026-04-04T09:45:22Z</time></trkpt><trkpt lat="43.41247398080085" lon="10.403963971049174"><ele>11.0</ele><time>2026-04-04T09:45:24Z</time></trkpt><trkpt lat="43.41236305008016" lon="10.404032296913288"><ele>13.285714285714286</ele><time>2026-04-04T09:45:26Z</time></trkpt><trkpt lat="43.41230447100012" lon="10.404065123579937"><ele>15.571428571428571</ele><time>2026-04-04T09:45:27Z</time></trkpt><trkpt lat="43.412243149620544" lon="10.404093854979804"><ele>17.857142857142858</ele><time>2026-04-04T09:45:28Z</time></trkpt><trkpt lat="43.41217739260727" lon="10.404111703522346"><ele>20.142857142857142</ele><time>2026-04-04T09:45:29Z</time></trkpt><trkpt lat="43.41210814959589" lon="10.404121762339026"><ele>22.428571428571427</ele><time>2026-04-04T09:45:30Z</time></trkpt><trkpt lat="43.41203682611334" lon="10.4041266514217"><ele>24.714285714285715</ele><time>2026-04-04T09:45:31Z</time></trkpt><trkpt lat="43.41196517556711" lon="10.40411119712351"><ele>27.0</ele><time>2026-04-04T09:45:32Z</time></trkpt><trkpt lat="43.411891265075965" lon="10.404091405219553"><ele>27.0</ele><time>2026-04-04T09:45:33Z</time></trkpt><trkpt lat="43.41182161202146" lon="10.404072143284948"><ele>27.0</ele><time>2026-04-04T09:45:34Z</time></trkpt><trkpt lat="43.4117570076575" lon="10.404039654210921"><ele>27.0</ele><time>2026-04-04T09:45:35Z</time></trkpt><trkpt lat="43.41168777992954" lon="10.404000012747396"><ele>27.0</ele><time>2026-04-04T09:45:36Z</time></trkpt><trkpt lat="43.41161796250228" lon="10.403958828683662"><ele>27.0</ele><time>2026-04-04T09:45:37Z</time></trkpt><trkpt lat="43.41154001869887" lon="10.403941744640381"><ele>27.0</ele><time>2026-04-04T09:45:38Z</time></trkpt><trkpt lat="43.411461179620325" lon="10.403918144331818"><ele>27.0</ele><time>2026-04-04T09:45:39Z</time></trkpt><trkpt lat="43.41138805810556" lon="10.403895259242399"><ele>27.0</ele><time>2026-04-04T09:45:40Z</time></trkpt><trkpt lat="43.41131777660762" lon="10.403871056681758"><ele>27.0</ele><time>2026-04-04T09:45:41Z</time></trkpt><trkpt lat="43.41124262200882" lon="10.403853233021827"><ele>27.0</ele><time>2026-04-04T09:45:42Z</time></trkpt><trkpt lat="43.41116071448679" lon="10.403843244752636"><ele>27.0</ele><time>2026-04-04T09:45:43Z</time></trkpt><trkpt lat="43.4110855386421" lon="10.403840504205016"><ele>27.0</ele><time>2026-04-04T09:45:44Z</time></trkpt><trkpt lat="43.411008769206525" lon="10.40384550719794"><ele>26.833333333333332</ele><time>2026-04-04T09:45:45Z</time></trkpt><trkpt lat="43.41093306411726" lon="10.40385778424328"><ele>26.666666666666664</ele><time>2026-04-04T09:45:46Z</time></trkpt><trkpt lat="43.410857734880324" lon="10.403882184680754"><ele>26.5</ele><time>2026-04-04T09:45:47Z</time></trkpt><trkpt lat="43.4107905767841" lon="10.403913717914048"><ele>26.333333333333332</ele><time>2026-04-04T09:45:48Z</time></trkpt><trkpt lat="43.41072141933684" lon="10.403963629314445"><ele>26.166666666666664</ele><time>2026-04-04T09:45:49Z</time></trkpt><trkpt lat="43.410636361637785" lon="10.40400422291533"><ele>26.0</ele><time>2026-04-04T09:45:50Z</time></trkpt><trkpt lat="43.41054001680391" lon="10.40411236990651"><ele>22.666666666666664</ele><time>2026-04-04T09:45:52Z</time></trkpt><trkpt lat="43.410465898528486" lon="10.404190935358436"><ele>19.333333333333332</ele><time>2026-04-04T09:45:53Z</time></trkpt><trkpt lat="43.410401971994794" lon="10.404258771885909"><ele>16.0</ele><time>2026-04-04T09:45:54Z</time></trkpt><trkpt lat="43.41035718066807" lon="10.404368416539011"><ele>12.666666666666666</ele><time>2026-04-04T09:45:55Z</time></trkpt><trkpt lat="43.41031717028506" lon="10.404457185238597"><ele>9.333333333333332</ele><time>2026-04-04T09:45:56Z</time></trkpt><trkpt lat="43.41026748247111" lon="10.404546068934104"><ele>6.0</ele><time>2026-04-04T09:45:57Z</time></trkpt><trkpt lat="43.41024454534194" lon="10.404657307441823"><ele>7.5</ele><time>2026-04-04T09:45:58Z</time></trkpt><trkpt lat="43.410216378626004" lon="10.404768237818654"><ele>9.0</ele><time>2026-04-04T09:45:59Z</time></trkpt><trkpt lat="43.410191314067355" lon="10.404878029844294"><ele>10.5</ele><time>2026-04-04T09:46:00Z</time></trkpt><trkpt lat="43.41016060844328" lon="10.404988782031989"><ele>12.0</ele><time>2026-04-04T09:46:01Z</time></trkpt><trkpt lat="43.41013356213408" lon="10.405100870783741"><ele>13.5</ele><time>2026-04-04T09:46:02Z</time></trkpt><trkpt lat="43.410100520992025" lon="10.405213952853916"><ele>15.0</ele><time>2026-04-04T09:46:03Z</time></trkpt><trkpt lat="43.4100792664606" lon="10.405327282909147"><ele>15.0</ele><time>2026-04-04T09:46:04Z</time></trkpt><trkpt lat="43.410063931121506" lon="10.405448282907095"><ele>15.0</ele><time>2026-04-04T09:46:05Z</time></trkpt><trkpt lat="43.410055466242916" lon="10.405574263626962"><ele>15.0</ele><time>2026-04-04T09:46:06Z</time></trkpt><trkpt lat="43.41004055224009" lon="10.405687676365984"><ele>15.0</ele><time>2026-04-04T09:46:07Z</time></trkpt><trkpt lat="43.4100368990119" lon="10.405812278837772"><ele>15.0</ele><time>2026-04-04T09:46:08Z</time></trkpt><trkpt lat="43.410039698426694" lon="10.405933299360367"><ele>15.0</ele><time>2026-04-04T09:46:09Z</time></trkpt><trkpt lat="43.41004962203003" lon="10.406052862323342"><ele>15.0</ele><time>2026-04-04T09:46:10Z</time></trkpt><trkpt lat="43.41006242179509" lon="10.406177383804742"><ele>15.0</ele><time>2026-04-04T09:46:11Z</time></trkpt><trkpt lat="43.410077354808415" lon="10.40630396753793"><ele>15.0</ele><time>2026-04-04T09:46:12Z</time></trkpt><trkpt lat="43.41009365274395" lon="10.406432464642966"><ele>15.0</ele><time>2026-04-04T09:46:13Z</time></trkpt><trkpt lat="43.4101138343804" lon="10.406560355806247"><ele>15.0</ele><time>2026-04-04T09:46:14Z</time></trkpt><trkpt lat="43.410136917458225" lon="10.406687995376421"><ele>15.0</ele><time>2026-04-04T09:46:15Z</time></trkpt><trkpt lat="43.4101580816265" lon="10.406824629458836"><ele>15.0</ele><time>2026-04-04T09:46:16Z</time></trkpt><trkpt lat="43.410181990388935" lon="10.406959796165838"><ele>15.0</ele><time>2026-04-04T09:46:17Z</time></trkpt><trkpt lat="43.41019881167868" lon="10.40707382551148"><ele>15.0</ele><time>2026-04-04T09:46:18Z</time></trkpt><trkpt lat="43.410209304053325" lon="10.407161104392902"><ele>15.0</ele><time>2026-04-04T09:46:19Z</time></trkpt><trkpt lat="43.41022619679004" lon="10.407260682158444"><ele>15.0</ele><time>2026-04-04T09:46:20Z</time></trkpt><trkpt lat="43.41022174184373" lon="10.407353527703965"><ele>15.6</ele><time>2026-04-04T09:46:21Z</time></trkpt><trkpt lat="43.41017813009754" lon="10.4074898177428"><ele>16.2</ele><time>2026-04-04T09:46:23Z</time></trkpt><trkpt lat="43.410082729591444" lon="10.407584966962839"><ele>16.8</ele><time>2026-04-04T09:46:25Z</time></trkpt><trkpt lat="43.409996776723936" lon="10.407612980054118"><ele>17.4</ele><time>2026-04-04T09:46:27Z</time></trkpt><trkpt lat="43.40993281318821" lon="10.407595381973216"><ele>18.0</ele><time>2026-04-04T09:46:31Z</time></trkpt><trkpt lat="43.40984172842375" lon="10.40758331427594"><ele>18.0</ele><time>2026-04-04T09:46:35Z</time></trkpt><trkpt lat="43.40976595232131" lon="10.407593271884162"><ele>18.0</ele><time>2026-04-04T09:46:37Z</time></trkpt><trkpt lat="43.40969226628885" lon="10.40758611361757"><ele>18.0</ele><time>2026-04-04T09:46:39Z</time></trkpt><trkpt lat="43.409609812879694" lon="10.407574804496088"><ele>18.0</ele><time>2026-04-04T09:46:41Z</time></trkpt><trkpt lat="43.409518534911676" lon="10.407563787041878"><ele>18.0</ele><time>2026-04-04T09:46:43Z</time></trkpt><trkpt lat="43.40942498549096" lon="10.407556569072245"><ele>18.0</ele><time>2026-04-04T09:46:45Z</time></trkpt><trkpt lat="43.409333190215456" lon="10.407562862665694"><ele>17.6</ele><time>2026-04-04T09:46:47Z</time></trkpt><trkpt lat="43.40923982912888" lon="10.40757700928636"><ele>17.200000000000003</ele><time>2026-04-04T09:46:49Z</time></trkpt><trkpt lat="43.40914404886029" lon="10.407598890695976"><ele>16.8</ele><time>2026-04-04T09:46:51Z</time></trkpt><trkpt lat="43.409051079827464" lon="10.407632397676712"><ele>16.400000000000002</ele><time>2026-04-04T09:46:53Z</time></trkpt><trkpt lat="43.408958454031634" lon="10.407663875650123"><ele>16.0</ele><time>2026-04-04T09:46:55Z</time></trkpt><trkpt lat="43.40886580302651" lon="10.407697338495055"><ele>15.600000000000001</ele><time>2026-04-04T09:46:57Z</time></trkpt><trkpt lat="43.408774581213855" lon="10.40773060958205"><ele>15.200000000000001</ele><time>2026-04-04T09:46:59Z</time></trkpt><trkpt lat="43.40868035978025" lon="10.407766281736151"><ele>14.799999999999999</ele><time>2026-04-04T09:47:01Z</time></trkpt><trkpt lat="43.40858738789299" lon="10.407796101589085"><ele>14.399999999999999</ele><time>2026-04-04T09:47:03Z</time></trkpt><trkpt lat="43.408488289513" lon="10.4078243260311"><ele>14.0</ele><time>2026-04-04T09:47:05Z</time></trkpt><trkpt lat="43.4083894858764" lon="10.407862851464163"><ele>14.0</ele><time>2026-04-04T09:47:07Z</time></trkpt><trkpt lat="43.40829123915222" lon="10.407900794392706"><ele>13.999999999999998</ele><time>2026-04-04T09:47:09Z</time></trkpt><trkpt lat="43.40819283587934" lon="10.407932738654942"><ele>13.999999999999998</ele><time>2026-04-04T09:47:11Z</time></trkpt><trkpt lat="43.40809232894392" lon="10.407970825475537"><ele>14.0</ele><time>2026-04-04T09:47:13Z</time></trkpt><trkpt lat="43.40799185375384" lon="10.408004761393622"><ele>14.0</ele><time>2026-04-04T09:47:15Z</time></trkpt><trkpt lat="43.40789338858962" lon="10.408047093365713"><ele>15.399999999999999</ele><time>2026-04-04T09:47:17Z</time></trkpt><trkpt lat="43.40779715441505" lon="10.408081957325848"><ele>16.799999999999997</ele><time>2026-04-04T09:47:19Z</time></trkpt><trkpt lat="43.407703296804875" lon="10.40811898049486"><ele>18.200000000000003</ele><time>2026-04-04T09:47:21Z</time></trkpt><trkpt lat="43.40760988560458" lon="10.408165886995812"><ele>19.6</ele><time>2026-04-04T09:47:23Z</time></trkpt><trkpt lat="43.40751238856999" lon="10.408217169889733"><ele>21.0</ele><time>2026-04-04T09:47:25Z</time></trkpt><trkpt lat="43.40742001270062" lon="10.408272591367332"><ele>21.0</ele><time>2026-04-04T09:47:27Z</time></trkpt><trkpt lat="43.40732561201682" lon="10.408319375352821"><ele>21.0</ele><time>2026-04-04T09:47:29Z</time></trkpt><trkpt lat="43.407236874539095" lon="10.408372994342264"><ele>21.0</ele><time>2026-04-04T09:47:31Z</time></trkpt><trkpt lat="43.40714807670683" lon="10.408435936860558"><ele>21.0</ele><time>2026-04-04T09:47:33Z</time></trkpt><trkpt lat="43.407065257916805" lon="10.408495637548876"><ele>21.0</ele><time>2026-04-04T09:47:35Z</time></trkpt><trkpt lat="43.40697857659455" lon="10.408562901879566"><ele>20.666666666666668</ele><time>2026-04-04T09:47:37Z</time></trkpt><trkpt lat="43.40690335477843" lon="10.408622385222934"><ele>20.333333333333332</ele><time>2026-04-04T09:47:39Z</time></trkpt><trkpt lat="43.40682574486208" lon="10.408686241129603"><ele>20.0</ele><time>2026-04-04T09:47:41Z</time></trkpt><trkpt lat="43.406748366423784" lon="10.408753781779078"><ele>19.666666666666664</ele><time>2026-04-04T09:47:43Z</time></trkpt><trkpt lat="43.40668012833377" lon="10.408827868524682"><ele>19.333333333333332</ele><time>2026-04-04T09:47:45Z</time></trkpt><trkpt lat="43.406615822632354" lon="10.40888301737614"><ele>19.0</ele><time>2026-04-04T09:47:47Z</time></trkpt><trkpt lat="43.40654965110542" lon="10.40893591011457"><ele>20.428571428571427</ele><time>2026-04-04T09:47:49Z</time></trkpt><trkpt lat="43.40648487390954" lon="10.408993174737207"><ele>21.85714285714286</ele><time>2026-04-04T09:47:51Z</time></trkpt><trkpt lat="43.40642076520516" lon="10.409038614519755"><ele>23.28571428571429</ele><time>2026-04-04T09:47:53Z</time></trkpt><trkpt lat="43.40635681353356" lon="10.409130055961109"><ele>24.714285714285715</ele><time>2026-04-04T09:47:56Z</time></trkpt><trkpt lat="43.40637195528294" lon="10.409216526221599"><ele>26.142857142857146</ele><time>2026-04-04T09:47:58Z</time></trkpt><trkpt lat="43.40642257557731" lon="10.409278216051709"><ele>27.571428571428577</ele><time>2026-04-04T09:48:00Z</time></trkpt><trkpt lat="43.40647005627082" lon="10.409339145429604"><ele>29.000000000000004</ele><time>2026-04-04T09:48:02Z</time></trkpt><trkpt lat="43.40651338043297" lon="10.409403918160958"><ele>28.999999999999996</ele><time>2026-04-04T09:48:04Z</time></trkpt><trkpt lat="43.40654910727229" lon="10.409517823494054"><ele>29.0</ele><time>2026-04-04T09:48:07Z</time></trkpt><trkpt lat="43.40657853116084" lon="10.409633404195962"><ele>29.0</ele><time>2026-04-04T09:48:10Z</time></trkpt><trkpt lat="43.40660595324224" lon="10.409751614272343"><ele>29.0</ele><time>2026-04-04T09:48:13Z</time></trkpt><trkpt lat="43.40663850214653" lon="10.409865596949208"><ele>28.999999999999996</ele><time>2026-04-04T09:48:16Z</time></trkpt><trkpt lat="43.40666821242607" lon="10.409979861168706"><ele>29.0</ele><time>2026-04-04T09:48:19Z</time></trkpt><trkpt lat="43.406687579775" lon="10.410098743312746"><ele>30.4</ele><time>2026-04-04T09:48:22Z</time></trkpt><trkpt lat="43.406706148595504" lon="10.410218389017343"><ele>31.799999999999997</ele><time>2026-04-04T09:48:25Z</time></trkpt><trkpt lat="43.40668736970067" lon="10.410333544998561"><ele>33.2</ele><time>2026-04-04T09:48:28Z</time></trkpt><trkpt lat="43.40665717648657" lon="10.410452102024347"><ele>34.6</ele><time>2026-04-04T09:48:31Z</time></trkpt><trkpt lat="43.40665515325958" lon="10.410581806771098"><ele>36.0</ele><time>2026-04-04T09:48:34Z</time></trkpt><trkpt lat="43.406658735255064" lon="10.41070849671854"><ele>37.0</ele><time>2026-04-04T09:48:37Z</time></trkpt><trkpt lat="43.40667230918349" lon="10.41079316818877"><ele>38.0</ele><time>2026-04-04T09:48:39Z</time></trkpt><trkpt lat="43.406689969883416" lon="10.410879951201569"><ele>39.0</ele><time>2026-04-04T09:48:41Z</time></trkpt><trkpt lat="43.40669836116433" lon="10.410969686396777"><ele>40.0</ele><time>2026-04-04T09:48:43Z</time></trkpt><trkpt lat="43.406712925732215" lon="10.41105639561936"><ele>41.0</ele><time>2026-04-04T09:48:45Z</time></trkpt><trkpt lat="43.40679120231946" lon="10.410983023481588"><ele>42.0</ele><time>2026-04-04T09:48:46Z</time></trkpt><trkpt lat="43.40672781495485" lon="10.411142050492522"><ele>42.0</ele><time>2026-04-04T09:48:47Z</time></trkpt><trkpt lat="43.406742481934884" lon="10.411228777274651"><ele>42.0</ele><time>2026-04-04T09:48:49Z</time></trkpt><trkpt lat="43.406770916649336" lon="10.411342184396007"><ele>42.0</ele><time>2026-04-04T09:48:52Z</time></trkpt><trkpt lat="43.4068405734462" lon="10.411422769238767"><ele>42.0</ele><time>2026-04-04T09:48:55Z</time></trkpt><trkpt lat="43.40692987942311" lon="10.411436549113747"><ele>42.0</ele><time>2026-04-04T09:48:58Z</time></trkpt><trkpt lat="43.40699335388304" lon="10.41143484149227"><ele>42.0</ele><time>2026-04-04T09:49:00Z</time></trkpt><trkpt lat="43.407086404224195" lon="10.411428446321885"><ele>44.6</ele><time>2026-04-04T09:49:03Z</time></trkpt><trkpt lat="43.40718043467451" lon="10.411417553630102"><ele>47.2</ele><time>2026-04-04T09:49:06Z</time></trkpt><trkpt lat="43.40726959216495" lon="10.41141586492602"><ele>49.8</ele><time>2026-04-04T09:49:09Z</time></trkpt><trkpt lat="43.40735576554946" lon="10.411430213430659"><ele>52.4</ele><time>2026-04-04T09:49:12Z</time></trkpt><trkpt lat="43.407449906531674" lon="10.411453105395442"><ele>55.0</ele><time>2026-04-04T09:49:15Z</time></trkpt><trkpt lat="43.40755017889813" lon="10.411469740432771"><ele>54.99999999999999</ele><time>2026-04-04T09:49:18Z</time></trkpt><trkpt lat="43.40763214573816" lon="10.411508041829286"><ele>55.0</ele><time>2026-04-04T09:49:21Z</time></trkpt><trkpt lat="43.407698999615675" lon="10.411513793224177"><ele>55.0</ele><time>2026-04-04T09:49:24Z</time></trkpt><trkpt lat="43.40777542370719" lon="10.411550144276857"><ele>55.0</ele><time>2026-04-04T09:49:27Z</time></trkpt><trkpt lat="43.40784312131348" lon="10.411563330831637"><ele>55.0</ele><time>2026-04-04T09:49:28Z</time></trkpt><trkpt lat="43.40791586695377" lon="10.411597982429926"><ele>54.99999999999999</ele><time>2026-04-04T09:49:30Z</time></trkpt><trkpt lat="43.407980290663495" lon="10.4116254338567"><ele>55.0</ele><time>2026-04-04T09:49:32Z</time></trkpt><trkpt lat="43.40803694053542" lon="10.41168856562465"><ele>55.666666666666664</ele><time>2026-04-04T09:49:34Z</time></trkpt><trkpt lat="43.40809364372462" lon="10.41174360891728"><ele>56.33333333333333</ele><time>2026-04-04T09:49:36Z</time></trkpt><trkpt lat="43.40814545415809" lon="10.411809518428884"><ele>57.0</ele><time>2026-04-04T09:49:37.999Z</time></trkpt><trkpt lat="43.40818675009299" lon="10.411875471586125"><ele>57.66666666666667</ele><time>2026-04-04T09:49:39.999Z</time></trkpt><trkpt lat="43.40824534126534" lon="10.411972078995769"><ele>58.333333333333336</ele><time>2026-04-04T09:49:43Z</time></trkpt><trkpt lat="43.4083272700352" lon="10.412026701392309"><ele>59.0</ele><time>2026-04-04T09:49:46Z</time></trkpt><trkpt lat="43.40839922895342" lon="10.412051133887784"><ele>59.0</ele><time>2026-04-04T09:49:48Z</time></trkpt><trkpt lat="43.408471630578724" lon="10.412036390944333"><ele>59.0</ele><time>2026-04-04T09:49:50Z</time></trkpt><trkpt lat="43.408536685667166" lon="10.412005147755991"><ele>59.0</ele><time>2026-04-04T09:49:52Z</time></trkpt><trkpt lat="43.40859890823206" lon="10.411953988502624"><ele>59.0</ele><time>2026-04-04T09:49:54Z</time></trkpt><trkpt lat="43.40862632784055" lon="10.411849105133651"><ele>59.0</ele><time>2026-04-04T09:49:56Z</time></trkpt><trkpt lat="43.40864791073773" lon="10.41174613692277"><ele>59.0</ele><time>2026-04-04T09:49:58Z</time></trkpt><trkpt lat="43.40864831265228" lon="10.411652351405873"><ele>59.0</ele><time>2026-04-04T09:50:00Z</time></trkpt><trkpt lat="43.40867146019143" lon="10.411553811591729"><ele>59.0</ele><time>2026-04-04T09:50:02Z</time></trkpt><trkpt lat="43.40867654655755" lon="10.411459143614946"><ele>59.0</ele><time>2026-04-04T09:50:04Z</time></trkpt><trkpt lat="43.408716212545244" lon="10.41138424383743"><ele>59.0</ele><time>2026-04-04T09:50:06Z</time></trkpt><trkpt lat="43.40878138739843" lon="10.411329829063217"><ele>59.0</ele><time>2026-04-04T09:50:08Z</time></trkpt><trkpt lat="43.40885185317863" lon="10.411340354759112"><ele>59.0</ele><time>2026-04-04T09:50:10Z</time></trkpt><trkpt lat="43.408901917697996" lon="10.411421562218836"><ele>59.0</ele><time>2026-04-04T09:50:12Z</time></trkpt><trkpt lat="43.408931402815625" lon="10.411516913707105"><ele>59.0</ele><time>2026-04-04T09:50:14Z</time></trkpt><trkpt lat="43.408954410984684" lon="10.411608187068696"><ele>60.16666666666667</ele><time>2026-04-04T09:50:16Z</time></trkpt><trkpt lat="43.40897565441666" lon="10.41169894147927"><ele>61.333333333333336</ele><time>2026-04-04T09:50:18Z</time></trkpt><trkpt lat="43.40899950603673" lon="10.411788048558652"><ele>62.5</ele><time>2026-04-04T09:50:20Z</time></trkpt><trkpt lat="43.4090193872883" lon="10.411891728116332"><ele>63.66666666666667</ele><time>2026-04-04T09:50:22Z</time></trkpt><trkpt lat="43.40906098064915" lon="10.411969873323734"><ele>64.83333333333333</ele><time>2026-04-04T09:50:24Z</time></trkpt><trkpt lat="43.40909341602564" lon="10.412094748768313"><ele>66.0</ele><time>2026-04-04T09:50:27Z</time></trkpt><trkpt lat="43.409103156317734" lon="10.41220018086805"><ele>67.0</ele><time>2026-04-04T09:50:29Z</time></trkpt><trkpt lat="43.40914059350261" lon="10.412304880681116"><ele>68.0</ele><time>2026-04-04T09:50:31Z</time></trkpt><trkpt lat="43.40916388451853" lon="10.412397379188539"><ele>69.0</ele><time>2026-04-04T09:50:33Z</time></trkpt><trkpt lat="43.40919190895194" lon="10.412487631250192"><ele>70.0</ele><time>2026-04-04T09:50:35Z</time></trkpt><trkpt lat="43.40922261424445" lon="10.41256666274353"><ele>71.0</ele><time>2026-04-04T09:50:37Z</time></trkpt><trkpt lat="43.40925784267637" lon="10.412667125361281"><ele>72.0</ele><time>2026-04-04T09:50:40Z</time></trkpt><trkpt lat="43.409316110502" lon="10.412750279378061"><ele>72.0</ele><time>2026-04-04T09:50:43Z</time></trkpt><trkpt lat="43.40939654653944" lon="10.41278002377711"><ele>72.0</ele><time>2026-04-04T09:50:46Z</time></trkpt><trkpt lat="43.40943209598811" lon="10.412873248415282"><ele>72.0</ele><time>2026-04-04T09:50:49Z</time></trkpt></trkseg></trk></gpx>